<?xml version="1.0" encoding="UTF-8"?>
<gpx version="1.1" creator="https://www.youtrack.es" xsi:schemaLocation="http://www.topografix.com/GPX/1/1 http://www.topografix.com/GPX/1/1/gpx.xsd http://www.garmin.com/xmlschemas/GpxExtensions/v3 http://www.garmin.com/xmlschemas/GpxExtensionsv3.xsd http://www.garmin.com/xmlschemas/TrackPointExtension/v1 http://www.garmin.com/xmlschemas/TrackPointExtensionv1.xsd" xmlns:gpxtpx="http://www.garmin.com/xmlschemas/TrackPointExtension/v1" xmlns:gpxx="http://www.garmin.com/xmlschemas/GpxExtensions/v3" xmlns:xsi="http://www.w3.org/2001/XMLSchema-instance">
  <metadata>
    <author>
      <name>Robério França</name>
      <email id="roberiofxavier" domain="hotmail.com"/>
    </author>
    <link href="https://www.youtrack.es">
      <text>YouTrack.es</text>
    </link>
    <time>2026-05-09T00:51:30Z</time>
  </metadata>
  <trk>
    <src>https://www.youtrack.es</src>
    <link href="https://www.youtrack.es/ruta/5259-rota-cachoeiras-ze-pedro-e-dos-dourados-">
      <text>YouTrack.es</text>
    </link>
    <trkseg>
      <trkpt lat="-18.925464" lon="-46.999519">
        <time>2010-01-01T00:00:00Z</time>
      </trkpt>
      <trkpt lat="-18.925283" lon="-46.999658">
        <time>2010-01-01T00:00:08Z</time>
      </trkpt>
      <trkpt lat="-18.92527" lon="-46.99975">
        <time>2010-01-01T00:00:12Z</time>
      </trkpt>
      <trkpt lat="-18.925284" lon="-46.999785">
        <time>2010-01-01T00:00:13Z</time>
      </trkpt>
      <trkpt lat="-18.925278" lon="-46.999812">
        <time>2010-01-01T00:00:14Z</time>
      </trkpt>
      <trkpt lat="-18.925144" lon="-47.000038">
        <time>2010-01-01T00:00:25Z</time>
      </trkpt>
      <trkpt lat="-18.925082" lon="-47.00022">
        <time>2010-01-01T00:00:32Z</time>
      </trkpt>
      <trkpt lat="-18.925038" lon="-47.000556">
        <time>2010-01-01T00:00:45Z</time>
      </trkpt>
      <trkpt lat="-18.924985" lon="-47.000647">
        <time>2010-01-01T00:00:49Z</time>
      </trkpt>
      <trkpt lat="-18.924954" lon="-47.000637">
        <time>2010-01-01T00:00:50Z</time>
      </trkpt>
      <trkpt lat="-18.92494" lon="-47.000562">
        <time>2010-01-01T00:00:53Z</time>
      </trkpt>
      <trkpt lat="-18.924915" lon="-47.0001859">
        <time>2010-01-01T00:01:07Z</time>
      </trkpt>
      <trkpt lat="-18.924853" lon="-47.000091">
        <time>2010-01-01T00:01:12Z</time>
      </trkpt>
      <trkpt lat="-18.924702" lon="-47.000111">
        <time>2010-01-01T00:01:18Z</time>
      </trkpt>
      <trkpt lat="-18.924594" lon="-47.000052">
        <time>2010-01-01T00:01:23Z</time>
      </trkpt>
      <trkpt lat="-18.924514" lon="-46.9998509">
        <time>2010-01-01T00:01:31Z</time>
      </trkpt>
      <trkpt lat="-18.924347" lon="-46.999717">
        <time>2010-01-01T00:01:39Z</time>
      </trkpt>
      <trkpt lat="-18.924211" lon="-46.999656">
        <time>2010-01-01T00:01:45Z</time>
      </trkpt>
      <trkpt lat="-18.924126" lon="-46.999664">
        <time>2010-01-01T00:01:49Z</time>
      </trkpt>
      <trkpt lat="-18.923886" lon="-46.999746">
        <time>2010-01-01T00:01:59Z</time>
      </trkpt>
      <trkpt lat="-18.923049" lon="-47.000062">
        <time>2010-01-01T00:02:34Z</time>
      </trkpt>
      <trkpt lat="-18.922875" lon="-47.000091">
        <time>2010-01-01T00:02:41Z</time>
      </trkpt>
      <trkpt lat="-18.92273" lon="-47.000033">
        <time>2010-01-01T00:02:47Z</time>
      </trkpt>
      <trkpt lat="-18.922704" lon="-47.000001">
        <time>2010-01-01T00:02:49Z</time>
      </trkpt>
      <trkpt lat="-18.922596" lon="-46.999727">
        <time>2010-01-01T00:03:00Z</time>
      </trkpt>
      <trkpt lat="-18.922405" lon="-46.999389">
        <time>2010-01-01T00:03:15Z</time>
      </trkpt>
      <trkpt lat="-18.92062" lon="-46.996462">
        <time>2010-01-01T00:05:27Z</time>
      </trkpt>
      <trkpt lat="-18.92029" lon="-46.995985">
        <time>2010-01-01T00:05:49Z</time>
      </trkpt>
      <trkpt lat="-18.919595" lon="-46.995069">
        <time>2010-01-01T00:06:34Z</time>
      </trkpt>
      <trkpt lat="-18.91775" lon="-46.992771">
        <time>2010-01-01T00:08:28Z</time>
      </trkpt>
      <trkpt lat="-18.917395" lon="-46.99231">
        <time>2010-01-01T00:08:51Z</time>
      </trkpt>
      <trkpt lat="-18.917354" lon="-46.9921969">
        <time>2010-01-01T00:08:55Z</time>
      </trkpt>
      <trkpt lat="-18.917339" lon="-46.992099">
        <time>2010-01-01T00:08:59Z</time>
      </trkpt>
      <trkpt lat="-18.917347" lon="-46.992024">
        <time>2010-01-01T00:09:02Z</time>
      </trkpt>
      <trkpt lat="-18.91733" lon="-46.991608">
        <time>2010-01-01T00:09:18Z</time>
      </trkpt>
      <trkpt lat="-18.917183" lon="-46.990416">
        <time>2010-01-01T00:10:03Z</time>
      </trkpt>
      <trkpt lat="-18.917161" lon="-46.990047">
        <time>2010-01-01T00:10:17Z</time>
      </trkpt>
      <trkpt lat="-18.917183" lon="-46.98967">
        <time>2010-01-01T00:10:31Z</time>
      </trkpt>
      <trkpt lat="-18.917226" lon="-46.989344">
        <time>2010-01-01T00:10:44Z</time>
      </trkpt>
      <trkpt lat="-18.917374" lon="-46.9886809">
        <time>2010-01-01T00:11:10Z</time>
      </trkpt>
      <trkpt lat="-18.917449" lon="-46.988519">
        <time>2010-01-01T00:11:16Z</time>
      </trkpt>
      <trkpt lat="-18.917564" lon="-46.988467">
        <time>2010-01-01T00:11:21Z</time>
      </trkpt>
      <trkpt lat="-18.91763" lon="-46.988468">
        <time>2010-01-01T00:11:24Z</time>
      </trkpt>
      <trkpt lat="-18.917729" lon="-46.9885">
        <time>2010-01-01T00:11:28Z</time>
      </trkpt>
      <trkpt lat="-18.918009" lon="-46.988664">
        <time>2010-01-01T00:11:41Z</time>
      </trkpt>
      <trkpt lat="-18.918156" lon="-46.988715">
        <time>2010-01-01T00:11:47Z</time>
      </trkpt>
      <trkpt lat="-18.918355" lon="-46.988677">
        <time>2010-01-01T00:11:55Z</time>
      </trkpt>
      <trkpt lat="-18.918427" lon="-46.9886339">
        <time>2010-01-01T00:11:59Z</time>
      </trkpt>
      <trkpt lat="-18.918505" lon="-46.988548">
        <time>2010-01-01T00:12:03Z</time>
      </trkpt>
      <trkpt lat="-18.919122" lon="-46.987405">
        <time>2010-01-01T00:12:53Z</time>
      </trkpt>
      <trkpt lat="-18.919194" lon="-46.987218">
        <time>2010-01-01T00:13:01Z</time>
      </trkpt>
      <trkpt lat="-18.919186" lon="-46.986973">
        <time>2010-01-01T00:13:10Z</time>
      </trkpt>
      <trkpt lat="-18.919031" lon="-46.986744">
        <time>2010-01-01T00:13:21Z</time>
      </trkpt>
      <trkpt lat="-18.918879" lon="-46.986636">
        <time>2010-01-01T00:13:28Z</time>
      </trkpt>
      <trkpt lat="-18.917915" lon="-46.98615">
        <time>2010-01-01T00:14:11Z</time>
      </trkpt>
      <trkpt lat="-18.917154" lon="-46.985743">
        <time>2010-01-01T00:14:45Z</time>
      </trkpt>
      <trkpt lat="-18.916598" lon="-46.985402">
        <time>2010-01-01T00:15:11Z</time>
      </trkpt>
      <trkpt lat="-18.915953" lon="-46.985053">
        <time>2010-01-01T00:15:40Z</time>
      </trkpt>
      <trkpt lat="-18.911817" lon="-46.982896">
        <time>2010-01-01T00:18:44Z</time>
      </trkpt>
      <trkpt lat="-18.91138" lon="-46.982701">
        <time>2010-01-01T00:19:03Z</time>
      </trkpt>
      <trkpt lat="-18.910825" lon="-46.982391">
        <time>2010-01-01T00:19:28Z</time>
      </trkpt>
      <trkpt lat="-18.909969" lon="-46.98197">
        <time>2010-01-01T00:20:06Z</time>
      </trkpt>
      <trkpt lat="-18.909664" lon="-46.981804">
        <time>2010-01-01T00:20:20Z</time>
      </trkpt>
      <trkpt lat="-18.909335" lon="-46.981597">
        <time>2010-01-01T00:20:35Z</time>
      </trkpt>
      <trkpt lat="-18.907062" lon="-46.980394">
        <time>2010-01-01T00:22:17Z</time>
      </trkpt>
      <trkpt lat="-18.905448" lon="-46.97956">
        <time>2010-01-01T00:23:29Z</time>
      </trkpt>
      <trkpt lat="-18.904672" lon="-46.979136">
        <time>2010-01-01T00:24:04Z</time>
      </trkpt>
      <trkpt lat="-18.902876" lon="-46.978196">
        <time>2010-01-01T00:25:24Z</time>
      </trkpt>
      <trkpt lat="-18.902734" lon="-46.978139">
        <time>2010-01-01T00:25:30Z</time>
      </trkpt>
      <trkpt lat="-18.902567" lon="-46.978145">
        <time>2010-01-01T00:25:37Z</time>
      </trkpt>
      <trkpt lat="-18.902458" lon="-46.978205">
        <time>2010-01-01T00:25:42Z</time>
      </trkpt>
      <trkpt lat="-18.902399" lon="-46.978263">
        <time>2010-01-01T00:25:45Z</time>
      </trkpt>
      <trkpt lat="-18.902353" lon="-46.978337">
        <time>2010-01-01T00:25:48Z</time>
      </trkpt>
      <trkpt lat="-18.902285" lon="-46.978534">
        <time>2010-01-01T00:25:56Z</time>
      </trkpt>
      <trkpt lat="-18.90216" lon="-46.979008">
        <time>2010-01-01T00:26:15Z</time>
      </trkpt>
      <trkpt lat="-18.902069" lon="-46.979374">
        <time>2010-01-01T00:26:29Z</time>
      </trkpt>
      <trkpt lat="-18.902017" lon="-46.979686">
        <time>2010-01-01T00:26:41Z</time>
      </trkpt>
      <trkpt lat="-18.901967" lon="-46.97985">
        <time>2010-01-01T00:26:48Z</time>
      </trkpt>
      <trkpt lat="-18.901908" lon="-46.979907">
        <time>2010-01-01T00:26:51Z</time>
      </trkpt>
      <trkpt lat="-18.901872" lon="-46.979916">
        <time>2010-01-01T00:26:52Z</time>
      </trkpt>
      <trkpt lat="-18.901784" lon="-46.97991">
        <time>2010-01-01T00:26:56Z</time>
      </trkpt>
      <trkpt lat="-18.901253" lon="-46.9797909">
        <time>2010-01-01T00:27:18Z</time>
      </trkpt>
      <trkpt lat="-18.900921" lon="-46.979754">
        <time>2010-01-01T00:27:31Z</time>
      </trkpt>
      <trkpt lat="-18.900625" lon="-46.979775">
        <time>2010-01-01T00:27:43Z</time>
      </trkpt>
      <trkpt lat="-18.899311" lon="-46.980155">
        <time>2010-01-01T00:28:37Z</time>
      </trkpt>
      <trkpt lat="-18.898651" lon="-46.980307">
        <time>2010-01-01T00:29:04Z</time>
      </trkpt>
      <trkpt lat="-18.897247" lon="-46.980594">
        <time>2010-01-01T00:30:02Z</time>
      </trkpt>
      <trkpt lat="-18.896303" lon="-46.980816">
        <time>2010-01-01T00:30:40Z</time>
      </trkpt>
      <trkpt lat="-18.895489" lon="-46.980939">
        <time>2010-01-01T00:31:13Z</time>
      </trkpt>
      <trkpt lat="-18.894417" lon="-46.981152">
        <time>2010-01-01T00:31:57Z</time>
      </trkpt>
      <trkpt lat="-18.894155" lon="-46.981189">
        <time>2010-01-01T00:32:08Z</time>
      </trkpt>
      <trkpt lat="-18.893596" lon="-46.981332">
        <time>2010-01-01T00:32:31Z</time>
      </trkpt>
      <trkpt lat="-18.893191" lon="-46.981485">
        <time>2010-01-01T00:32:48Z</time>
      </trkpt>
      <trkpt lat="-18.892766" lon="-46.981624">
        <time>2010-01-01T00:33:06Z</time>
      </trkpt>
      <trkpt lat="-18.892515" lon="-46.98169">
        <time>2010-01-01T00:33:16Z</time>
      </trkpt>
      <trkpt lat="-18.8923" lon="-46.981721">
        <time>2010-01-01T00:33:25Z</time>
      </trkpt>
      <trkpt lat="-18.89187" lon="-46.9817609">
        <time>2010-01-01T00:33:42Z</time>
      </trkpt>
      <trkpt lat="-18.891401" lon="-46.981726">
        <time>2010-01-01T00:34:01Z</time>
      </trkpt>
      <trkpt lat="-18.89091" lon="-46.98174">
        <time>2010-01-01T00:34:20Z</time>
      </trkpt>
      <trkpt lat="-18.890635" lon="-46.981719">
        <time>2010-01-01T00:34:31Z</time>
      </trkpt>
      <trkpt lat="-18.890164" lon="-46.981753">
        <time>2010-01-01T00:34:50Z</time>
      </trkpt>
      <trkpt lat="-18.889289" lon="-46.981647">
        <time>2010-01-01T00:35:26Z</time>
      </trkpt>
      <trkpt lat="-18.888893" lon="-46.981546">
        <time>2010-01-01T00:35:42Z</time>
      </trkpt>
      <trkpt lat="-18.8894117" lon="-46.9816559">
        <time>2010-01-01T00:36:03Z</time>
      </trkpt>
      <trkpt lat="-18.888535" lon="-46.981654">
        <time>2010-01-01T00:36:38Z</time>
      </trkpt>
      <trkpt lat="-18.88774" lon="-46.9821179">
        <time>2010-01-01T00:37:15Z</time>
      </trkpt>
      <trkpt lat="-18.887531" lon="-46.982243">
        <time>2010-01-01T00:37:24Z</time>
      </trkpt>
      <trkpt lat="-18.88725" lon="-46.98245">
        <time>2010-01-01T00:37:38Z</time>
      </trkpt>
      <trkpt lat="-18.886934" lon="-46.982792">
        <time>2010-01-01T00:37:56Z</time>
      </trkpt>
      <trkpt lat="-18.886661" lon="-46.983156">
        <time>2010-01-01T00:38:14Z</time>
      </trkpt>
      <trkpt lat="-18.886506" lon="-46.983336">
        <time>2010-01-01T00:38:23Z</time>
      </trkpt>
      <trkpt lat="-18.886153" lon="-46.983656">
        <time>2010-01-01T00:38:41Z</time>
      </trkpt>
      <trkpt lat="-18.886093" lon="-46.98369">
        <time>2010-01-01T00:38:44Z</time>
      </trkpt>
      <trkpt lat="-18.885962" lon="-46.9837249">
        <time>2010-01-01T00:38:50Z</time>
      </trkpt>
      <trkpt lat="-18.885837" lon="-46.983682">
        <time>2010-01-01T00:38:55Z</time>
      </trkpt>
      <trkpt lat="-18.88562" lon="-46.983573">
        <time>2010-01-01T00:39:04Z</time>
      </trkpt>
      <trkpt lat="-18.885107" lon="-46.983251">
        <time>2010-01-01T00:39:28Z</time>
      </trkpt>
      <trkpt lat="-18.884361" lon="-46.982942">
        <time>2010-01-01T00:40:00Z</time>
      </trkpt>
      <trkpt lat="-18.884188" lon="-46.982909">
        <time>2010-01-01T00:40:07Z</time>
      </trkpt>
      <trkpt lat="-18.883121" lon="-46.983079">
        <time>2010-01-01T00:40:51Z</time>
      </trkpt>
      <trkpt lat="-18.882736" lon="-46.983112">
        <time>2010-01-01T00:41:06Z</time>
      </trkpt>
      <trkpt lat="-18.882327" lon="-46.983097">
        <time>2010-01-01T00:41:22Z</time>
      </trkpt>
      <trkpt lat="-18.881758" lon="-46.9831759">
        <time>2010-01-01T00:41:45Z</time>
      </trkpt>
      <trkpt lat="-18.881399" lon="-46.9833049">
        <time>2010-01-01T00:42:01Z</time>
      </trkpt>
      <trkpt lat="-18.881102" lon="-46.983483">
        <time>2010-01-01T00:42:14Z</time>
      </trkpt>
      <trkpt lat="-18.880972" lon="-46.983543">
        <time>2010-01-01T00:42:20Z</time>
      </trkpt>
      <trkpt lat="-18.880569" lon="-46.983685">
        <time>2010-01-01T00:42:37Z</time>
      </trkpt>
      <trkpt lat="-18.879741" lon="-46.983885">
        <time>2010-01-01T00:43:11Z</time>
      </trkpt>
      <trkpt lat="-18.879431" lon="-46.983944">
        <time>2010-01-01T00:43:24Z</time>
      </trkpt>
      <trkpt lat="-18.878951" lon="-46.984002">
        <time>2010-01-01T00:43:43Z</time>
      </trkpt>
      <trkpt lat="-18.878757" lon="-46.984046">
        <time>2010-01-01T00:43:51Z</time>
      </trkpt>
      <trkpt lat="-18.878544" lon="-46.98412">
        <time>2010-01-01T00:44:00Z</time>
      </trkpt>
      <trkpt lat="-18.878392" lon="-46.984194">
        <time>2010-01-01T00:44:07Z</time>
      </trkpt>
      <trkpt lat="-18.878011" lon="-46.984453">
        <time>2010-01-01T00:44:25Z</time>
      </trkpt>
      <trkpt lat="-18.8776" lon="-46.984759">
        <time>2010-01-01T00:44:45Z</time>
      </trkpt>
      <trkpt lat="-18.877032" lon="-46.985248">
        <time>2010-01-01T00:45:14Z</time>
      </trkpt>
      <trkpt lat="-18.876861" lon="-46.985419">
        <time>2010-01-01T00:45:24Z</time>
      </trkpt>
      <trkpt lat="-18.876428" lon="-46.985804">
        <time>2010-01-01T00:45:46Z</time>
      </trkpt>
      <trkpt lat="-18.876015" lon="-46.9861509">
        <time>2010-01-01T00:46:07Z</time>
      </trkpt>
      <trkpt lat="-18.875858" lon="-46.986319">
        <time>2010-01-01T00:46:16Z</time>
      </trkpt>
      <trkpt lat="-18.875789" lon="-46.986437">
        <time>2010-01-01T00:46:22Z</time>
      </trkpt>
      <trkpt lat="-18.875683" lon="-46.986665">
        <time>2010-01-01T00:46:31Z</time>
      </trkpt>
      <trkpt lat="-18.875588" lon="-46.98695">
        <time>2010-01-01T00:46:43Z</time>
      </trkpt>
      <trkpt lat="-18.875506" lon="-46.987111">
        <time>2010-01-01T00:46:50Z</time>
      </trkpt>
      <trkpt lat="-18.875384" lon="-46.987294">
        <time>2010-01-01T00:46:58Z</time>
      </trkpt>
      <trkpt lat="-18.875199" lon="-46.987522">
        <time>2010-01-01T00:47:09Z</time>
      </trkpt>
      <trkpt lat="-18.875092" lon="-46.98763">
        <time>2010-01-01T00:47:15Z</time>
      </trkpt>
      <trkpt lat="-18.874279" lon="-46.988366">
        <time>2010-01-01T00:47:58Z</time>
      </trkpt>
      <trkpt lat="-18.874108" lon="-46.9884779">
        <time>2010-01-01T00:48:06Z</time>
      </trkpt>
      <trkpt lat="-18.873551" lon="-46.988618">
        <time>2010-01-01T00:48:29Z</time>
      </trkpt>
      <trkpt lat="-18.873022" lon="-46.988695">
        <time>2010-01-01T00:48:51Z</time>
      </trkpt>
      <trkpt lat="-18.872626" lon="-46.988705">
        <time>2010-01-01T00:49:06Z</time>
      </trkpt>
      <trkpt lat="-18.872511" lon="-46.988745">
        <time>2010-01-01T00:49:11Z</time>
      </trkpt>
      <trkpt lat="-18.87231" lon="-46.988854">
        <time>2010-01-01T00:49:20Z</time>
      </trkpt>
      <trkpt lat="-18.872094" lon="-46.989042">
        <time>2010-01-01T00:49:31Z</time>
      </trkpt>
      <trkpt lat="-18.872009" lon="-46.9891369">
        <time>2010-01-01T00:49:36Z</time>
      </trkpt>
      <trkpt lat="-18.871757" lon="-46.989325">
        <time>2010-01-01T00:49:49Z</time>
      </trkpt>
      <trkpt lat="-18.871405" lon="-46.989542">
        <time>2010-01-01T00:50:05Z</time>
      </trkpt>
      <trkpt lat="-18.871212" lon="-46.989643">
        <time>2010-01-01T00:50:14Z</time>
      </trkpt>
      <trkpt lat="-18.870956" lon="-46.9896889">
        <time>2010-01-01T00:50:24Z</time>
      </trkpt>
      <trkpt lat="-18.870767" lon="-46.989671">
        <time>2010-01-01T00:50:32Z</time>
      </trkpt>
      <trkpt lat="-18.870539" lon="-46.989598">
        <time>2010-01-01T00:50:41Z</time>
      </trkpt>
      <trkpt lat="-18.869864" lon="-46.989319">
        <time>2010-01-01T00:51:10Z</time>
      </trkpt>
      <trkpt lat="-18.869698" lon="-46.989264">
        <time>2010-01-01T00:51:17Z</time>
      </trkpt>
      <trkpt lat="-18.868885" lon="-46.989039">
        <time>2010-01-01T00:51:51Z</time>
      </trkpt>
      <trkpt lat="-18.867878" lon="-46.988719">
        <time>2010-01-01T00:52:33Z</time>
      </trkpt>
      <trkpt lat="-18.867246" lon="-46.98854">
        <time>2010-01-01T00:52:59Z</time>
      </trkpt>
      <trkpt lat="-18.866922" lon="-46.988452">
        <time>2010-01-01T00:53:13Z</time>
      </trkpt>
      <trkpt lat="-18.866605" lon="-46.988399">
        <time>2010-01-01T00:53:25Z</time>
      </trkpt>
      <trkpt lat="-18.865876" lon="-46.988379">
        <time>2010-01-01T00:53:55Z</time>
      </trkpt>
      <trkpt lat="-18.865614" lon="-46.988358">
        <time>2010-01-01T00:54:05Z</time>
      </trkpt>
      <trkpt lat="-18.865095" lon="-46.9881999">
        <time>2010-01-01T00:54:27Z</time>
      </trkpt>
      <trkpt lat="-18.864644" lon="-46.987983">
        <time>2010-01-01T00:54:47Z</time>
      </trkpt>
      <trkpt lat="-18.864495" lon="-46.987949">
        <time>2010-01-01T00:54:53Z</time>
      </trkpt>
      <trkpt lat="-18.864159" lon="-46.987983">
        <time>2010-01-01T00:55:06Z</time>
      </trkpt>
      <trkpt lat="-18.864085" lon="-46.988003">
        <time>2010-01-01T00:55:09Z</time>
      </trkpt>
      <trkpt lat="-18.863934" lon="-46.988079">
        <time>2010-01-01T00:55:16Z</time>
      </trkpt>
      <trkpt lat="-18.863712" lon="-46.988233">
        <time>2010-01-01T00:55:27Z</time>
      </trkpt>
      <trkpt lat="-18.863193" lon="-46.988676">
        <time>2010-01-01T00:55:53Z</time>
      </trkpt>
      <trkpt lat="-18.862753" lon="-46.988979">
        <time>2010-01-01T00:56:14Z</time>
      </trkpt>
      <trkpt lat="-18.862456" lon="-46.989146">
        <time>2010-01-01T00:56:28Z</time>
      </trkpt>
      <trkpt lat="-18.862256" lon="-46.989209">
        <time>2010-01-01T00:56:36Z</time>
      </trkpt>
      <trkpt lat="-18.861615" lon="-46.989334">
        <time>2010-01-01T00:57:02Z</time>
      </trkpt>
      <trkpt lat="-18.860458" lon="-46.989606">
        <time>2010-01-01T00:57:50Z</time>
      </trkpt>
      <trkpt lat="-18.860238" lon="-46.98963">
        <time>2010-01-01T00:57:58Z</time>
      </trkpt>
      <trkpt lat="-18.859857" lon="-46.989616">
        <time>2010-01-01T00:58:14Z</time>
      </trkpt>
      <trkpt lat="-18.859527" lon="-46.989547">
        <time>2010-01-01T00:58:27Z</time>
      </trkpt>
      <trkpt lat="-18.858625" lon="-46.989411">
        <time>2010-01-01T00:59:04Z</time>
      </trkpt>
      <trkpt lat="-18.857922" lon="-46.989268">
        <time>2010-01-01T00:59:32Z</time>
      </trkpt>
      <trkpt lat="-18.857716" lon="-46.989292">
        <time>2010-01-01T00:59:41Z</time>
      </trkpt>
      <trkpt lat="-18.857571" lon="-46.989364">
        <time>2010-01-01T00:59:47Z</time>
      </trkpt>
      <trkpt lat="-18.857237" lon="-46.989627">
        <time>2010-01-01T01:00:04Z</time>
      </trkpt>
      <trkpt lat="-18.857102" lon="-46.989675">
        <time>2010-01-01T01:00:09Z</time>
      </trkpt>
      <trkpt lat="-18.857049" lon="-46.9896779">
        <time>2010-01-01T01:00:12Z</time>
      </trkpt>
      <trkpt lat="-18.856881" lon="-46.989628">
        <time>2010-01-01T01:00:19Z</time>
      </trkpt>
      <trkpt lat="-18.856603" lon="-46.989449">
        <time>2010-01-01T01:00:32Z</time>
      </trkpt>
      <trkpt lat="-18.856165" lon="-46.989336">
        <time>2010-01-01T01:00:50Z</time>
      </trkpt>
      <trkpt lat="-18.855877" lon="-46.989242">
        <time>2010-01-01T01:01:02Z</time>
      </trkpt>
      <trkpt lat="-18.855744" lon="-46.989254">
        <time>2010-01-01T01:01:07Z</time>
      </trkpt>
      <trkpt lat="-18.855217" lon="-46.98944">
        <time>2010-01-01T01:01:29Z</time>
      </trkpt>
      <trkpt lat="-18.855091" lon="-46.989504">
        <time>2010-01-01T01:01:35Z</time>
      </trkpt>
      <trkpt lat="-18.85464" lon="-46.989862">
        <time>2010-01-01T01:01:57Z</time>
      </trkpt>
      <trkpt lat="-18.85425" lon="-46.990141">
        <time>2010-01-01T01:02:16Z</time>
      </trkpt>
      <trkpt lat="-18.853976" lon="-46.990399">
        <time>2010-01-01T01:02:31Z</time>
      </trkpt>
      <trkpt lat="-18.853579" lon="-46.99069">
        <time>2010-01-01T01:02:50Z</time>
      </trkpt>
      <trkpt lat="-18.853281" lon="-46.990931">
        <time>2010-01-01T01:03:05Z</time>
      </trkpt>
      <trkpt lat="-18.853066" lon="-46.991079">
        <time>2010-01-01T01:03:16Z</time>
      </trkpt>
      <trkpt lat="-18.852267" lon="-46.99176">
        <time>2010-01-01T01:03:57Z</time>
      </trkpt>
      <trkpt lat="-18.852137" lon="-46.9919">
        <time>2010-01-01T01:04:04Z</time>
      </trkpt>
      <trkpt lat="-18.851858" lon="-46.992261">
        <time>2010-01-01T01:04:22Z</time>
      </trkpt>
      <trkpt lat="-18.851557" lon="-46.99279">
        <time>2010-01-01T01:04:45Z</time>
      </trkpt>
      <trkpt lat="-18.850557" lon="-46.994466">
        <time>2010-01-01T01:06:00Z</time>
      </trkpt>
      <trkpt lat="-18.850077" lon="-46.995235">
        <time>2010-01-01T01:06:35Z</time>
      </trkpt>
      <trkpt lat="-18.849908" lon="-46.995431">
        <time>2010-01-01T01:06:45Z</time>
      </trkpt>
      <trkpt lat="-18.849507" lon="-46.995756">
        <time>2010-01-01T01:07:05Z</time>
      </trkpt>
      <trkpt lat="-18.849439" lon="-46.9958179">
        <time>2010-01-01T01:07:09Z</time>
      </trkpt>
      <trkpt lat="-18.849388" lon="-46.995889">
        <time>2010-01-01T01:07:12Z</time>
      </trkpt>
      <trkpt lat="-18.849318" lon="-46.996065">
        <time>2010-01-01T01:07:20Z</time>
      </trkpt>
      <trkpt lat="-18.849311" lon="-46.99616">
        <time>2010-01-01T01:07:23Z</time>
      </trkpt>
      <trkpt lat="-18.849356" lon="-46.99629">
        <time>2010-01-01T01:07:28Z</time>
      </trkpt>
      <trkpt lat="-18.849431" lon="-46.996354">
        <time>2010-01-01T01:07:32Z</time>
      </trkpt>
      <trkpt lat="-18.849937" lon="-46.996504">
        <time>2010-01-01T01:07:53Z</time>
      </trkpt>
      <trkpt lat="-18.850343" lon="-46.996667">
        <time>2010-01-01T01:08:11Z</time>
      </trkpt>
      <trkpt lat="-18.850535" lon="-46.996705">
        <time>2010-01-01T01:08:19Z</time>
      </trkpt>
      <trkpt lat="-18.850593" lon="-46.996729">
        <time>2010-01-01T01:08:21Z</time>
      </trkpt>
      <trkpt lat="-18.850675" lon="-46.996811">
        <time>2010-01-01T01:08:26Z</time>
      </trkpt>
      <trkpt lat="-18.850703" lon="-46.9968999">
        <time>2010-01-01T01:08:29Z</time>
      </trkpt>
      <trkpt lat="-18.850694" lon="-46.996979">
        <time>2010-01-01T01:08:32Z</time>
      </trkpt>
      <trkpt lat="-18.850651" lon="-46.997053">
        <time>2010-01-01T01:08:35Z</time>
      </trkpt>
      <trkpt lat="-18.850464" lon="-46.997193">
        <time>2010-01-01T01:08:45Z</time>
      </trkpt>
      <trkpt lat="-18.850202" lon="-46.997315">
        <time>2010-01-01T01:08:56Z</time>
      </trkpt>
      <trkpt lat="-18.850125" lon="-46.997391">
        <time>2010-01-01T01:09:00Z</time>
      </trkpt>
      <trkpt lat="-18.850109" lon="-46.997484">
        <time>2010-01-01T01:09:04Z</time>
      </trkpt>
      <trkpt lat="-18.850116" lon="-46.997529">
        <time>2010-01-01T01:09:06Z</time>
      </trkpt>
      <trkpt lat="-18.850193" lon="-46.997647">
        <time>2010-01-01T01:09:11Z</time>
      </trkpt>
      <trkpt lat="-18.850279" lon="-46.997713">
        <time>2010-01-01T01:09:15Z</time>
      </trkpt>
      <trkpt lat="-18.850381" lon="-46.997835">
        <time>2010-01-01T01:09:21Z</time>
      </trkpt>
      <trkpt lat="-18.8504" lon="-46.997931">
        <time>2010-01-01T01:09:25Z</time>
      </trkpt>
      <trkpt lat="-18.850391" lon="-46.9979799">
        <time>2010-01-01T01:09:27Z</time>
      </trkpt>
      <trkpt lat="-18.850341" lon="-46.998068">
        <time>2010-01-01T01:09:31Z</time>
      </trkpt>
      <trkpt lat="-18.850123" lon="-46.998207">
        <time>2010-01-01T01:09:41Z</time>
      </trkpt>
      <trkpt lat="-18.849662" lon="-46.998412">
        <time>2010-01-01T01:10:01Z</time>
      </trkpt>
      <trkpt lat="-18.848846" lon="-46.998951">
        <time>2010-01-01T01:10:40Z</time>
      </trkpt>
      <trkpt lat="-18.848036" lon="-46.999146">
        <time>2010-01-01T01:11:13Z</time>
      </trkpt>
      <trkpt lat="-18.847659" lon="-46.999172">
        <time>2010-01-01T01:11:28Z</time>
      </trkpt>
      <trkpt lat="-18.84746" lon="-46.999155">
        <time>2010-01-01T01:11:36Z</time>
      </trkpt>
      <trkpt lat="-18.845752" lon="-46.998756">
        <time>2010-01-01T01:12:46Z</time>
      </trkpt>
      <trkpt lat="-18.845234" lon="-46.998681">
        <time>2010-01-01T01:13:07Z</time>
      </trkpt>
      <trkpt lat="-18.844961" lon="-46.998621">
        <time>2010-01-01T01:13:18Z</time>
      </trkpt>
      <trkpt lat="-18.844089" lon="-46.998606">
        <time>2010-01-01T01:13:53Z</time>
      </trkpt>
      <trkpt lat="-18.843245" lon="-46.998558">
        <time>2010-01-01T01:14:27Z</time>
      </trkpt>
      <trkpt lat="-18.842958" lon="-46.998584">
        <time>2010-01-01T01:14:38Z</time>
      </trkpt>
      <trkpt lat="-18.841209" lon="-46.9985209">
        <time>2010-01-01T01:15:48Z</time>
      </trkpt>
      <trkpt lat="-18.840229" lon="-46.9984689">
        <time>2010-01-01T01:16:28Z</time>
      </trkpt>
      <trkpt lat="-18.839418" lon="-46.998461">
        <time>2010-01-01T01:17:00Z</time>
      </trkpt>
      <trkpt lat="-18.838855" lon="-46.998417">
        <time>2010-01-01T01:17:23Z</time>
      </trkpt>
      <trkpt lat="-18.838341" lon="-46.9984249">
        <time>2010-01-01T01:17:43Z</time>
      </trkpt>
      <trkpt lat="-18.837912" lon="-46.998383">
        <time>2010-01-01T01:18:01Z</time>
      </trkpt>
      <trkpt lat="-18.837113" lon="-46.9983839">
        <time>2010-01-01T01:18:33Z</time>
      </trkpt>
      <trkpt lat="-18.836381" lon="-46.998453">
        <time>2010-01-01T01:19:02Z</time>
      </trkpt>
      <trkpt lat="-18.834415" lon="-46.998912">
        <time>2010-01-01T01:20:23Z</time>
      </trkpt>
      <trkpt lat="-18.834081" lon="-46.99896">
        <time>2010-01-01T01:20:36Z</time>
      </trkpt>
      <trkpt lat="-18.832957" lon="-46.999204">
        <time>2010-01-01T01:21:22Z</time>
      </trkpt>
      <trkpt lat="-18.832622" lon="-46.999305">
        <time>2010-01-01T01:21:36Z</time>
      </trkpt>
      <trkpt lat="-18.831828" lon="-46.999478">
        <time>2010-01-01T01:22:08Z</time>
      </trkpt>
      <trkpt lat="-18.831485" lon="-46.999583">
        <time>2010-01-01T01:22:23Z</time>
      </trkpt>
      <trkpt lat="-18.830406" lon="-46.9997929">
        <time>2010-01-01T01:23:07Z</time>
      </trkpt>
      <trkpt lat="-18.830117" lon="-46.999814">
        <time>2010-01-01T01:23:18Z</time>
      </trkpt>
      <trkpt lat="-18.82971" lon="-46.999868">
        <time>2010-01-01T01:23:35Z</time>
      </trkpt>
      <trkpt lat="-18.8296" lon="-46.999857">
        <time>2010-01-01T01:23:39Z</time>
      </trkpt>
      <trkpt lat="-18.829178" lon="-46.999869">
        <time>2010-01-01T01:23:56Z</time>
      </trkpt>
      <trkpt lat="-18.828758" lon="-46.999845">
        <time>2010-01-01T01:24:13Z</time>
      </trkpt>
      <trkpt lat="-18.828558" lon="-46.99985">
        <time>2010-01-01T01:24:21Z</time>
      </trkpt>
      <trkpt lat="-18.828055" lon="-46.999903">
        <time>2010-01-01T01:24:41Z</time>
      </trkpt>
      <trkpt lat="-18.827566" lon="-46.999905">
        <time>2010-01-01T01:25:01Z</time>
      </trkpt>
      <trkpt lat="-18.82713" lon="-46.999881">
        <time>2010-01-01T01:25:18Z</time>
      </trkpt>
      <trkpt lat="-18.826856" lon="-46.999829">
        <time>2010-01-01T01:25:29Z</time>
      </trkpt>
      <trkpt lat="-18.826579" lon="-46.999735">
        <time>2010-01-01T01:25:41Z</time>
      </trkpt>
      <trkpt lat="-18.826277" lon="-46.999529">
        <time>2010-01-01T01:25:55Z</time>
      </trkpt>
      <trkpt lat="-18.82589" lon="-46.999101">
        <time>2010-01-01T01:26:18Z</time>
      </trkpt>
      <trkpt lat="-18.825589" lon="-46.998836">
        <time>2010-01-01T01:26:33Z</time>
      </trkpt>
      <trkpt lat="-18.825392" lon="-46.998707">
        <time>2010-01-01T01:26:43Z</time>
      </trkpt>
      <trkpt lat="-18.825133" lon="-46.998609">
        <time>2010-01-01T01:26:54Z</time>
      </trkpt>
      <trkpt lat="-18.824905" lon="-46.998552">
        <time>2010-01-01T01:27:03Z</time>
      </trkpt>
      <trkpt lat="-18.82458" lon="-46.998524">
        <time>2010-01-01T01:27:16Z</time>
      </trkpt>
      <trkpt lat="-18.824366" lon="-46.998528">
        <time>2010-01-01T01:27:25Z</time>
      </trkpt>
      <trkpt lat="-18.824216" lon="-46.998537">
        <time>2010-01-01T01:27:31Z</time>
      </trkpt>
      <trkpt lat="-18.823587" lon="-46.998661">
        <time>2010-01-01T01:27:56Z</time>
      </trkpt>
      <trkpt lat="-18.823139" lon="-46.998732">
        <time>2010-01-01T01:28:15Z</time>
      </trkpt>
      <trkpt lat="-18.822915" lon="-46.998799">
        <time>2010-01-01T01:28:24Z</time>
      </trkpt>
      <trkpt lat="-18.822728" lon="-46.998911">
        <time>2010-01-01T01:28:32Z</time>
      </trkpt>
      <trkpt lat="-18.822455" lon="-46.999171">
        <time>2010-01-01T01:28:47Z</time>
      </trkpt>
      <trkpt lat="-18.822302" lon="-46.999283">
        <time>2010-01-01T01:28:55Z</time>
      </trkpt>
      <trkpt lat="-18.821996" lon="-46.999431">
        <time>2010-01-01T01:29:08Z</time>
      </trkpt>
      <trkpt lat="-18.821792" lon="-46.999446">
        <time>2010-01-01T01:29:16Z</time>
      </trkpt>
      <trkpt lat="-18.821727" lon="-46.999426">
        <time>2010-01-01T01:29:19Z</time>
      </trkpt>
      <trkpt lat="-18.821478" lon="-46.999277">
        <time>2010-01-01T01:29:30Z</time>
      </trkpt>
      <trkpt lat="-18.82134" lon="-46.999231">
        <time>2010-01-01T01:29:36Z</time>
      </trkpt>
      <trkpt lat="-18.821261" lon="-46.999225">
        <time>2010-01-01T01:29:39Z</time>
      </trkpt>
      <trkpt lat="-18.821176" lon="-46.999233">
        <time>2010-01-01T01:29:43Z</time>
      </trkpt>
      <trkpt lat="-18.820746" lon="-46.999341">
        <time>2010-01-01T01:30:00Z</time>
      </trkpt>
      <trkpt lat="-18.820489" lon="-46.999384">
        <time>2010-01-01T01:30:11Z</time>
      </trkpt>
      <trkpt lat="-18.820156" lon="-46.99939">
        <time>2010-01-01T01:30:24Z</time>
      </trkpt>
      <trkpt lat="-18.819483" lon="-46.999512">
        <time>2010-01-01T01:30:52Z</time>
      </trkpt>
      <trkpt lat="-18.819144" lon="-46.999541">
        <time>2010-01-01T01:31:05Z</time>
      </trkpt>
      <trkpt lat="-18.819013" lon="-46.99959">
        <time>2010-01-01T01:31:11Z</time>
      </trkpt>
      <trkpt lat="-18.818352" lon="-47.000004">
        <time>2010-01-01T01:31:42Z</time>
      </trkpt>
      <trkpt lat="-18.817564" lon="-47.000469">
        <time>2010-01-01T01:32:18Z</time>
      </trkpt>
      <trkpt lat="-18.817074" lon="-47.000666">
        <time>2010-01-01T01:32:39Z</time>
      </trkpt>
      <trkpt lat="-18.816814" lon="-47.000717">
        <time>2010-01-01T01:32:49Z</time>
      </trkpt>
      <trkpt lat="-18.816042" lon="-47.0008">
        <time>2010-01-01T01:33:20Z</time>
      </trkpt>
      <trkpt lat="-18.815392" lon="-47.00089">
        <time>2010-01-01T01:33:47Z</time>
      </trkpt>
      <trkpt lat="-18.814347" lon="-47.001001">
        <time>2010-01-01T01:34:29Z</time>
      </trkpt>
      <trkpt lat="-18.813903" lon="-47.001026">
        <time>2010-01-01T01:34:46Z</time>
      </trkpt>
      <trkpt lat="-18.813107" lon="-47.0011309">
        <time>2010-01-01T01:35:18Z</time>
      </trkpt>
      <trkpt lat="-18.812651" lon="-47.001163">
        <time>2010-01-01T01:35:37Z</time>
      </trkpt>
      <trkpt lat="-18.812464" lon="-47.001146">
        <time>2010-01-01T01:35:44Z</time>
      </trkpt>
      <trkpt lat="-18.812206" lon="-47.001161">
        <time>2010-01-01T01:35:55Z</time>
      </trkpt>
      <trkpt lat="-18.811934" lon="-47.001127">
        <time>2010-01-01T01:36:06Z</time>
      </trkpt>
      <trkpt lat="-18.810661" lon="-47.000613">
        <time>2010-01-01T01:37:00Z</time>
      </trkpt>
      <trkpt lat="-18.810368" lon="-47.000511">
        <time>2010-01-01T01:37:12Z</time>
      </trkpt>
      <trkpt lat="-18.809817" lon="-47.000265">
        <time>2010-01-01T01:37:36Z</time>
      </trkpt>
      <trkpt lat="-18.809484" lon="-47.000156">
        <time>2010-01-01T01:37:50Z</time>
      </trkpt>
      <trkpt lat="-18.807263" lon="-46.999297">
        <time>2010-01-01T01:39:25Z</time>
      </trkpt>
      <trkpt lat="-18.806481" lon="-46.998958">
        <time>2010-01-01T01:39:59Z</time>
      </trkpt>
      <trkpt lat="-18.805483" lon="-46.998575">
        <time>2010-01-01T01:40:41Z</time>
      </trkpt>
      <trkpt lat="-18.804991" lon="-46.998355">
        <time>2010-01-01T01:41:03Z</time>
      </trkpt>
      <trkpt lat="-18.803968" lon="-46.997987">
        <time>2010-01-01T01:41:46Z</time>
      </trkpt>
      <trkpt lat="-18.802882" lon="-46.997552">
        <time>2010-01-01T01:42:33Z</time>
      </trkpt>
      <trkpt lat="-18.801765" lon="-46.997129">
        <time>2010-01-01T01:43:20Z</time>
      </trkpt>
      <trkpt lat="-18.80129" lon="-46.997046">
        <time>2010-01-01T01:43:39Z</time>
      </trkpt>
      <trkpt lat="-18.800809" lon="-46.997019">
        <time>2010-01-01T01:43:59Z</time>
      </trkpt>
      <trkpt lat="-18.799204" lon="-46.996886">
        <time>2010-01-01T01:45:03Z</time>
      </trkpt>
      <trkpt lat="-18.798584" lon="-46.996774">
        <time>2010-01-01T01:45:28Z</time>
      </trkpt>
      <trkpt lat="-18.798209" lon="-46.996677">
        <time>2010-01-01T01:45:44Z</time>
      </trkpt>
      <trkpt lat="-18.79771" lon="-46.996494">
        <time>2010-01-01T01:46:05Z</time>
      </trkpt>
      <trkpt lat="-18.797324" lon="-46.996385">
        <time>2010-01-01T01:46:21Z</time>
      </trkpt>
      <trkpt lat="-18.796301" lon="-46.99603">
        <time>2010-01-01T01:47:04Z</time>
      </trkpt>
      <trkpt lat="-18.795196" lon="-46.995765">
        <time>2010-01-01T01:47:49Z</time>
      </trkpt>
      <trkpt lat="-18.794627" lon="-46.995592">
        <time>2010-01-01T01:48:13Z</time>
      </trkpt>
      <trkpt lat="-18.794392" lon="-46.995564">
        <time>2010-01-01T01:48:22Z</time>
      </trkpt>
      <trkpt lat="-18.793746" lon="-46.995426">
        <time>2010-01-01T01:48:49Z</time>
      </trkpt>
      <trkpt lat="-18.793633" lon="-46.995426">
        <time>2010-01-01T01:48:53Z</time>
      </trkpt>
      <trkpt lat="-18.793598" lon="-46.995439">
        <time>2010-01-01T01:48:55Z</time>
      </trkpt>
      <trkpt lat="-18.793548" lon="-46.995474">
        <time>2010-01-01T01:48:57Z</time>
      </trkpt>
      <trkpt lat="-18.793505" lon="-46.995588">
        <time>2010-01-01T01:49:02Z</time>
      </trkpt>
      <trkpt lat="-18.793369" lon="-46.99582">
        <time>2010-01-01T01:49:12Z</time>
      </trkpt>
      <trkpt lat="-18.793065" lon="-46.99626">
        <time>2010-01-01T01:49:33Z</time>
      </trkpt>
      <trkpt lat="-18.792767" lon="-46.996678">
        <time>2010-01-01T01:49:53Z</time>
      </trkpt>
      <trkpt lat="-18.792524" lon="-46.996987">
        <time>2010-01-01T01:50:08Z</time>
      </trkpt>
      <trkpt lat="-18.79193" lon="-46.997844">
        <time>2010-01-01T01:50:48Z</time>
      </trkpt>
      <trkpt lat="-18.791863" lon="-46.99797">
        <time>2010-01-01T01:50:54Z</time>
      </trkpt>
      <trkpt lat="-18.791103" lon="-46.999814">
        <time>2010-01-01T01:52:10Z</time>
      </trkpt>
      <trkpt lat="-18.790877" lon="-47.000278">
        <time>2010-01-01T01:52:30Z</time>
      </trkpt>
      <trkpt lat="-18.789914" lon="-47.002054">
        <time>2010-01-01T01:53:47Z</time>
      </trkpt>
      <trkpt lat="-18.789347" lon="-47.003251">
        <time>2010-01-01T01:54:38Z</time>
      </trkpt>
      <trkpt lat="-18.789242" lon="-47.0035679">
        <time>2010-01-01T01:54:51Z</time>
      </trkpt>
      <trkpt lat="-18.789188" lon="-47.003799">
        <time>2010-01-01T01:55:00Z</time>
      </trkpt>
      <trkpt lat="-18.789099" lon="-47.004355">
        <time>2010-01-01T01:55:21Z</time>
      </trkpt>
      <trkpt lat="-18.789061" lon="-47.004716">
        <time>2010-01-01T01:55:35Z</time>
      </trkpt>
      <trkpt lat="-18.789043" lon="-47.005123">
        <time>2010-01-01T01:55:50Z</time>
      </trkpt>
      <trkpt lat="-18.789053" lon="-47.0058479">
        <time>2010-01-01T01:56:18Z</time>
      </trkpt>
      <trkpt lat="-18.789089" lon="-47.006392">
        <time>2010-01-01T01:56:38Z</time>
      </trkpt>
      <trkpt lat="-18.789117" lon="-47.006607">
        <time>2010-01-01T01:56:47Z</time>
      </trkpt>
      <trkpt lat="-18.78919" lon="-47.0078749">
        <time>2010-01-01T01:57:35Z</time>
      </trkpt>
      <trkpt lat="-18.789215" lon="-47.008002">
        <time>2010-01-01T01:57:40Z</time>
      </trkpt>
      <trkpt lat="-18.7892511" lon="-47.0081325">
        <time>2010-01-01T01:57:45Z</time>
      </trkpt>
      <trkpt lat="-18.7908115" lon="-47.0095915">
        <time>2010-01-01T01:59:08Z</time>
      </trkpt>
      <trkpt lat="-18.7911699" lon="-47.009866">
        <time>2010-01-01T01:59:26Z</time>
      </trkpt>
      <trkpt lat="-18.7913666" lon="-47.0101253">
        <time>2010-01-01T01:59:39Z</time>
      </trkpt>
      <trkpt lat="-18.7914476" lon="-47.0105369">
        <time>2010-01-01T01:59:55Z</time>
      </trkpt>
      <trkpt lat="-18.791566" lon="-47.0107952">
        <time>2010-01-01T02:00:05Z</time>
      </trkpt>
      <trkpt lat="-18.7916515" lon="-47.0111061">
        <time>2010-01-01T02:00:18Z</time>
      </trkpt>
      <trkpt lat="-18.7916799" lon="-47.0114379">
        <time>2010-01-01T02:00:30Z</time>
      </trkpt>
      <trkpt lat="-18.7918381" lon="-47.0118358">
        <time>2010-01-01T02:00:47Z</time>
      </trkpt>
      <trkpt lat="-18.7920142" lon="-47.0125588">
        <time>2010-01-01T02:01:15Z</time>
      </trkpt>
      <trkpt lat="-18.7926298" lon="-47.0135897">
        <time>2010-01-01T02:02:01Z</time>
      </trkpt>
      <trkpt lat="-18.7929399" lon="-47.0143068">
        <time>2010-01-01T02:02:31Z</time>
      </trkpt>
      <trkpt lat="-18.7931287" lon="-47.0151169">
        <time>2010-01-01T02:03:03Z</time>
      </trkpt>
      <trkpt lat="-18.7931981" lon="-47.0158869">
        <time>2010-01-01T02:03:32Z</time>
      </trkpt>
      <trkpt lat="-18.793276" lon="-47.0207523">
        <time>2010-01-01T02:06:36Z</time>
      </trkpt>
      <trkpt lat="-18.793292" lon="-47.025309">
        <time>2010-01-01T02:09:29Z</time>
      </trkpt>
      <trkpt lat="-18.793801" lon="-47.02565">
        <time>2010-01-01T02:09:53Z</time>
      </trkpt>
      <trkpt lat="-18.794244" lon="-47.0259649">
        <time>2010-01-01T02:10:15Z</time>
      </trkpt>
      <trkpt lat="-18.794619" lon="-47.02629">
        <time>2010-01-01T02:10:34Z</time>
      </trkpt>
      <trkpt lat="-18.795079" lon="-47.026814">
        <time>2010-01-01T02:11:01Z</time>
      </trkpt>
      <trkpt lat="-18.795334" lon="-47.0270719">
        <time>2010-01-01T02:11:15Z</time>
      </trkpt>
      <trkpt lat="-18.795658" lon="-47.027335">
        <time>2010-01-01T02:11:31Z</time>
      </trkpt>
      <trkpt lat="-18.795752" lon="-47.027482">
        <time>2010-01-01T02:11:38Z</time>
      </trkpt>
      <trkpt lat="-18.795774" lon="-47.0275499">
        <time>2010-01-01T02:11:41Z</time>
      </trkpt>
      <trkpt lat="-18.795799" lon="-47.027733">
        <time>2010-01-01T02:11:48Z</time>
      </trkpt>
      <trkpt lat="-18.795783" lon="-47.028272">
        <time>2010-01-01T02:12:08Z</time>
      </trkpt>
      <trkpt lat="-18.79577" lon="-47.028461">
        <time>2010-01-01T02:12:16Z</time>
      </trkpt>
      <trkpt lat="-18.795746" lon="-47.028578">
        <time>2010-01-01T02:12:20Z</time>
      </trkpt>
      <trkpt lat="-18.79564" lon="-47.028861">
        <time>2010-01-01T02:12:32Z</time>
      </trkpt>
      <trkpt lat="-18.795331" lon="-47.029515">
        <time>2010-01-01T02:12:59Z</time>
      </trkpt>
      <trkpt lat="-18.795216" lon="-47.02969">
        <time>2010-01-01T02:13:07Z</time>
      </trkpt>
      <trkpt lat="-18.795" lon="-47.029956">
        <time>2010-01-01T02:13:21Z</time>
      </trkpt>
      <trkpt lat="-18.794928" lon="-47.0301269">
        <time>2010-01-01T02:13:28Z</time>
      </trkpt>
      <trkpt lat="-18.794873" lon="-47.030468">
        <time>2010-01-01T02:13:41Z</time>
      </trkpt>
      <trkpt lat="-18.794865" lon="-47.03101">
        <time>2010-01-01T02:14:01Z</time>
      </trkpt>
      <trkpt lat="-18.794827" lon="-47.0315689">
        <time>2010-01-01T02:14:23Z</time>
      </trkpt>
      <trkpt lat="-18.794839" lon="-47.03166">
        <time>2010-01-01T02:14:26Z</time>
      </trkpt>
      <trkpt lat="-18.794885" lon="-47.031784">
        <time>2010-01-01T02:14:31Z</time>
      </trkpt>
      <trkpt lat="-18.794996" lon="-47.031932">
        <time>2010-01-01T02:14:38Z</time>
      </trkpt>
      <trkpt lat="-18.79537" lon="-47.032344">
        <time>2010-01-01T02:15:00Z</time>
      </trkpt>
      <trkpt lat="-18.79548" lon="-47.032417">
        <time>2010-01-01T02:15:05Z</time>
      </trkpt>
      <trkpt lat="-18.795621" lon="-47.032471">
        <time>2010-01-01T02:15:11Z</time>
      </trkpt>
      <trkpt lat="-18.796239" lon="-47.0326569">
        <time>2010-01-01T02:15:37Z</time>
      </trkpt>
      <trkpt lat="-18.79627" lon="-47.032678">
        <time>2010-01-01T02:15:38Z</time>
      </trkpt>
      <trkpt lat="-18.796345" lon="-47.032818">
        <time>2010-01-01T02:15:44Z</time>
      </trkpt>
      <trkpt lat="-18.796301" lon="-47.032912">
        <time>2010-01-01T02:15:48Z</time>
      </trkpt>
      <trkpt lat="-18.796132" lon="-47.032977">
        <time>2010-01-01T02:15:56Z</time>
      </trkpt>
      <trkpt lat="-18.796001" lon="-47.033057">
        <time>2010-01-01T02:16:02Z</time>
      </trkpt>
      <trkpt lat="-18.795612" lon="-47.033468">
        <time>2010-01-01T02:16:24Z</time>
      </trkpt>
      <trkpt lat="-18.795427" lon="-47.0336209">
        <time>2010-01-01T02:16:33Z</time>
      </trkpt>
      <trkpt lat="-18.795247" lon="-47.033746">
        <time>2010-01-01T02:16:42Z</time>
      </trkpt>
      <trkpt lat="-18.795074" lon="-47.0338329">
        <time>2010-01-01T02:16:49Z</time>
      </trkpt>
      <trkpt lat="-18.794927" lon="-47.033949">
        <time>2010-01-01T02:16:57Z</time>
      </trkpt>
      <trkpt lat="-18.794561" lon="-47.034351">
        <time>2010-01-01T02:17:18Z</time>
      </trkpt>
      <trkpt lat="-18.794127" lon="-47.035019">
        <time>2010-01-01T02:17:49Z</time>
      </trkpt>
      <trkpt lat="-18.794034" lon="-47.035259">
        <time>2010-01-01T02:17:58Z</time>
      </trkpt>
      <trkpt lat="-18.793897" lon="-47.0357309">
        <time>2010-01-01T02:18:17Z</time>
      </trkpt>
      <trkpt lat="-18.793811" lon="-47.03594">
        <time>2010-01-01T02:18:26Z</time>
      </trkpt>
      <trkpt lat="-18.793718" lon="-47.036112">
        <time>2010-01-01T02:18:33Z</time>
      </trkpt>
      <trkpt lat="-18.793669" lon="-47.036295">
        <time>2010-01-01T02:18:41Z</time>
      </trkpt>
      <trkpt lat="-18.793731" lon="-47.0365439">
        <time>2010-01-01T02:18:50Z</time>
      </trkpt>
      <trkpt lat="-18.793701" lon="-47.036806">
        <time>2010-01-01T02:19:00Z</time>
      </trkpt>
      <trkpt lat="-18.793718" lon="-47.036927">
        <time>2010-01-01T02:19:05Z</time>
      </trkpt>
      <trkpt lat="-18.793854" lon="-47.037376">
        <time>2010-01-01T02:19:23Z</time>
      </trkpt>
      <trkpt lat="-18.794002" lon="-47.037946">
        <time>2010-01-01T02:19:45Z</time>
      </trkpt>
      <trkpt lat="-18.794152" lon="-47.038399">
        <time>2010-01-01T02:20:03Z</time>
      </trkpt>
      <trkpt lat="-18.794262" lon="-47.038848">
        <time>2010-01-01T02:20:21Z</time>
      </trkpt>
      <trkpt lat="-18.794328" lon="-47.039035">
        <time>2010-01-01T02:20:28Z</time>
      </trkpt>
      <trkpt lat="-18.794557" lon="-47.0399669">
        <time>2010-01-01T02:21:05Z</time>
      </trkpt>
      <trkpt lat="-18.794954" lon="-47.041422">
        <time>2010-01-01T02:22:02Z</time>
      </trkpt>
      <trkpt lat="-18.795094" lon="-47.041865">
        <time>2010-01-01T02:22:20Z</time>
      </trkpt>
      <trkpt lat="-18.795204" lon="-47.042102">
        <time>2010-01-01T02:22:30Z</time>
      </trkpt>
      <trkpt lat="-18.795253" lon="-47.042249">
        <time>2010-01-01T02:22:36Z</time>
      </trkpt>
      <trkpt lat="-18.795441" lon="-47.043109">
        <time>2010-01-01T02:23:09Z</time>
      </trkpt>
      <trkpt lat="-18.795791" lon="-47.044354">
        <time>2010-01-01T02:23:59Z</time>
      </trkpt>
      <trkpt lat="-18.795977" lon="-47.044851">
        <time>2010-01-01T02:24:19Z</time>
      </trkpt>
      <trkpt lat="-18.796049" lon="-47.045098">
        <time>2010-01-01T02:24:29Z</time>
      </trkpt>
      <trkpt lat="-18.796077" lon="-47.045294">
        <time>2010-01-01T02:24:36Z</time>
      </trkpt>
      <trkpt lat="-18.796241" lon="-47.045961">
        <time>2010-01-01T02:25:02Z</time>
      </trkpt>
      <trkpt lat="-18.796781" lon="-47.047911">
        <time>2010-01-01T02:26:19Z</time>
      </trkpt>
      <trkpt lat="-18.796961" lon="-47.048463">
        <time>2010-01-01T02:26:41Z</time>
      </trkpt>
      <trkpt lat="-18.796954" lon="-47.048846">
        <time>2010-01-01T02:26:56Z</time>
      </trkpt>
      <trkpt lat="-18.797037" lon="-47.04905">
        <time>2010-01-01T02:27:04Z</time>
      </trkpt>
      <trkpt lat="-18.797295" lon="-47.05002">
        <time>2010-01-01T02:27:43Z</time>
      </trkpt>
      <trkpt lat="-18.797391" lon="-47.050277">
        <time>2010-01-01T02:27:53Z</time>
      </trkpt>
      <trkpt lat="-18.797568" lon="-47.051031">
        <time>2010-01-01T02:28:22Z</time>
      </trkpt>
      <trkpt lat="-18.797757" lon="-47.051614">
        <time>2010-01-01T02:28:46Z</time>
      </trkpt>
      <trkpt lat="-18.798098" lon="-47.052836">
        <time>2010-01-01T02:29:34Z</time>
      </trkpt>
      <trkpt lat="-18.798145" lon="-47.052945">
        <time>2010-01-01T02:29:39Z</time>
      </trkpt>
      <trkpt lat="-18.7984494" lon="-47.0541808">
        <time>2010-01-01T02:30:27Z</time>
      </trkpt>
      <trkpt lat="-18.7985168" lon="-47.0542521">
        <time>2010-01-01T02:30:31Z</time>
      </trkpt>
      <trkpt lat="-18.7984687" lon="-47.0548664">
        <time>2010-01-01T02:30:54Z</time>
      </trkpt>
      <trkpt lat="-18.7988404" lon="-47.0550358">
        <time>2010-01-01T02:31:10Z</time>
      </trkpt>
      <trkpt lat="-18.7989391" lon="-47.0552487">
        <time>2010-01-01T02:31:19Z</time>
      </trkpt>
      <trkpt lat="-18.7989621" lon="-47.0555291">
        <time>2010-01-01T02:31:30Z</time>
      </trkpt>
      <trkpt lat="-18.798987" lon="-47.0557672">
        <time>2010-01-01T02:31:39Z</time>
      </trkpt>
      <trkpt lat="-18.7990313" lon="-47.0559494">
        <time>2010-01-01T02:31:46Z</time>
      </trkpt>
      <trkpt lat="-18.7992096" lon="-47.0562299">
        <time>2010-01-01T02:31:59Z</time>
      </trkpt>
      <trkpt lat="-18.7993068" lon="-47.0564223">
        <time>2010-01-01T02:32:07Z</time>
      </trkpt>
      <trkpt lat="-18.7993604" lon="-47.0566963">
        <time>2010-01-01T02:32:18Z</time>
      </trkpt>
      <trkpt lat="-18.799269" lon="-47.0578691">
        <time>2010-01-01T02:33:03Z</time>
      </trkpt>
      <trkpt lat="-18.7993816" lon="-47.058014">
        <time>2010-01-01T02:33:10Z</time>
      </trkpt>
      <trkpt lat="-18.799469" lon="-47.0586698">
        <time>2010-01-01T02:33:35Z</time>
      </trkpt>
      <trkpt lat="-18.7992139" lon="-47.0589594">
        <time>2010-01-01T02:33:50Z</time>
      </trkpt>
      <trkpt lat="-18.7986209" lon="-47.0591829">
        <time>2010-01-01T02:34:15Z</time>
      </trkpt>
      <trkpt lat="-18.7982792" lon="-47.0595029">
        <time>2010-01-01T02:34:33Z</time>
      </trkpt>
      <trkpt lat="-18.7979146" lon="-47.0600052">
        <time>2010-01-01T02:34:57Z</time>
      </trkpt>
      <trkpt lat="-18.797559" lon="-47.060351">
        <time>2010-01-01T02:35:17Z</time>
      </trkpt>
      <trkpt lat="-18.7974919" lon="-47.0604977">
        <time>2010-01-01T02:35:23Z</time>
      </trkpt>
      <trkpt lat="-18.7974367" lon="-47.0608287">
        <time>2010-01-01T02:35:35Z</time>
      </trkpt>
      <trkpt lat="-18.7973596" lon="-47.0610934">
        <time>2010-01-01T02:35:46Z</time>
      </trkpt>
      <trkpt lat="-18.7971022" lon="-47.0615103">
        <time>2010-01-01T02:36:05Z</time>
      </trkpt>
      <trkpt lat="-18.7970232" lon="-47.0619186">
        <time>2010-01-01T02:36:21Z</time>
      </trkpt>
      <trkpt lat="-18.7966887" lon="-47.0625269">
        <time>2010-01-01T02:36:47Z</time>
      </trkpt>
      <trkpt lat="-18.7965215" lon="-47.0630188">
        <time>2010-01-01T02:37:07Z</time>
      </trkpt>
      <trkpt lat="-18.7962769" lon="-47.0634814">
        <time>2010-01-01T02:37:27Z</time>
      </trkpt>
      <trkpt lat="-18.796098" lon="-47.0636185">
        <time>2010-01-01T02:37:36Z</time>
      </trkpt>
      <trkpt lat="-18.7952981" lon="-47.0645671">
        <time>2010-01-01T02:38:24Z</time>
      </trkpt>
      <trkpt lat="-18.7951957" lon="-47.0648893">
        <time>2010-01-01T02:38:37Z</time>
      </trkpt>
      <trkpt lat="-18.7949541" lon="-47.0652302">
        <time>2010-01-01T02:38:53Z</time>
      </trkpt>
      <trkpt lat="-18.7945453" lon="-47.0664">
        <time>2010-01-01T02:39:40Z</time>
      </trkpt>
      <trkpt lat="-18.7943371" lon="-47.0670778">
        <time>2010-01-01T02:40:07Z</time>
      </trkpt>
      <trkpt lat="-18.7937804" lon="-47.0678028">
        <time>2010-01-01T02:40:43Z</time>
      </trkpt>
      <trkpt lat="-18.7935952" lon="-47.0681995">
        <time>2010-01-01T02:41:00Z</time>
      </trkpt>
      <trkpt lat="-18.7931046" lon="-47.0687584">
        <time>2010-01-01T02:41:28Z</time>
      </trkpt>
      <trkpt lat="-18.7921573" lon="-47.069598">
        <time>2010-01-01T02:42:18Z</time>
      </trkpt>
      <trkpt lat="-18.7917852" lon="-47.0702757">
        <time>2010-01-01T02:42:48Z</time>
      </trkpt>
      <trkpt lat="-18.7915549" lon="-47.0704832">
        <time>2010-01-01T02:43:00Z</time>
      </trkpt>
      <trkpt lat="-18.7913031" lon="-47.0707591">
        <time>2010-01-01T02:43:14Z</time>
      </trkpt>
      <trkpt lat="-18.7911626" lon="-47.0713977">
        <time>2010-01-01T02:43:39Z</time>
      </trkpt>
      <trkpt lat="-18.7911856" lon="-47.0717434">
        <time>2010-01-01T02:43:52Z</time>
      </trkpt>
      <trkpt lat="-18.7912093" lon="-47.0719824">
        <time>2010-01-01T02:44:01Z</time>
      </trkpt>
      <trkpt lat="-18.7909826" lon="-47.0721392">
        <time>2010-01-01T02:44:12Z</time>
      </trkpt>
      <trkpt lat="-18.7906675" lon="-47.0726003">
        <time>2010-01-01T02:44:34Z</time>
      </trkpt>
      <trkpt lat="-18.790576" lon="-47.072865">
        <time>2010-01-01T02:44:44Z</time>
      </trkpt>
      <trkpt lat="-18.7904371" lon="-47.0730912">
        <time>2010-01-01T02:44:55Z</time>
      </trkpt>
      <trkpt lat="-18.790295" lon="-47.0732555">
        <time>2010-01-01T02:45:03Z</time>
      </trkpt>
      <trkpt lat="-18.7901411" lon="-47.073364">
        <time>2010-01-01T02:45:10Z</time>
      </trkpt>
      <trkpt lat="-18.7901293" lon="-47.0734452">
        <time>2010-01-01T02:45:14Z</time>
      </trkpt>
      <trkpt lat="-18.7897263" lon="-47.0739286">
        <time>2010-01-01T02:45:38Z</time>
      </trkpt>
      <trkpt lat="-18.7895148" lon="-47.074161">
        <time>2010-01-01T02:45:50Z</time>
      </trkpt>
      <trkpt lat="-18.7893895" lon="-47.0744035">
        <time>2010-01-01T02:46:01Z</time>
      </trkpt>
      <trkpt lat="-18.7892442" lon="-47.0745973">
        <time>2010-01-01T02:46:10Z</time>
      </trkpt>
      <trkpt lat="-18.7885409" lon="-47.0751208">
        <time>2010-01-01T02:46:44Z</time>
      </trkpt>
      <trkpt lat="-18.7883484" lon="-47.0754698">
        <time>2010-01-01T02:47:00Z</time>
      </trkpt>
      <trkpt lat="-18.7880443" lon="-47.0756709">
        <time>2010-01-01T02:47:14Z</time>
      </trkpt>
      <trkpt lat="-18.7878988" lon="-47.0757318">
        <time>2010-01-01T02:47:20Z</time>
      </trkpt>
      <trkpt lat="-18.7877212" lon="-47.0759111">
        <time>2010-01-01T02:47:30Z</time>
      </trkpt>
      <trkpt lat="-18.787568" lon="-47.0760764">
        <time>2010-01-01T02:47:39Z</time>
      </trkpt>
      <trkpt lat="-18.7872567" lon="-47.0766146">
        <time>2010-01-01T02:48:03Z</time>
      </trkpt>
      <trkpt lat="-18.7870322" lon="-47.0771299">
        <time>2010-01-01T02:48:24Z</time>
      </trkpt>
      <trkpt lat="-18.7868545" lon="-47.0771697">
        <time>2010-01-01T02:48:32Z</time>
      </trkpt>
      <trkpt lat="-18.7869004" lon="-47.0775254">
        <time>2010-01-01T02:48:45Z</time>
      </trkpt>
      <trkpt lat="-18.7868151" lon="-47.0778286">
        <time>2010-01-01T02:48:57Z</time>
      </trkpt>
      <trkpt lat="-18.7868138" lon="-47.0780572">
        <time>2010-01-01T02:49:06Z</time>
      </trkpt>
      <trkpt lat="-18.7867699" lon="-47.0791929">
        <time>2010-01-01T02:49:49Z</time>
      </trkpt>
      <trkpt lat="-18.7864008" lon="-47.0800116">
        <time>2010-01-01T02:50:23Z</time>
      </trkpt>
      <trkpt lat="-18.7862993" lon="-47.0804094">
        <time>2010-01-01T02:50:39Z</time>
      </trkpt>
      <trkpt lat="-18.7860972" lon="-47.0807837">
        <time>2010-01-01T02:50:55Z</time>
      </trkpt>
      <trkpt lat="-18.7844666" lon="-47.0827726">
        <time>2010-01-01T02:52:35Z</time>
      </trkpt>
      <trkpt lat="-18.7839515" lon="-47.0829222">
        <time>2010-01-01T02:52:56Z</time>
      </trkpt>
      <trkpt lat="-18.7836012" lon="-47.0833018">
        <time>2010-01-01T02:53:17Z</time>
      </trkpt>
      <trkpt lat="-18.7834696" lon="-47.0835264">
        <time>2010-01-01T02:53:27Z</time>
      </trkpt>
      <trkpt lat="-18.7832784" lon="-47.0838106">
        <time>2010-01-01T02:53:40Z</time>
      </trkpt>
      <trkpt lat="-18.7830432" lon="-47.0841632">
        <time>2010-01-01T02:53:56Z</time>
      </trkpt>
      <trkpt lat="-18.783022" lon="-47.0842886">
        <time>2010-01-01T02:54:01Z</time>
      </trkpt>
      <trkpt lat="-18.7829363" lon="-47.0844903">
        <time>2010-01-01T02:54:09Z</time>
      </trkpt>
      <trkpt lat="-18.7826925" lon="-47.0850918">
        <time>2010-01-01T02:54:34Z</time>
      </trkpt>
      <trkpt lat="-18.7826127" lon="-47.085244">
        <time>2010-01-01T02:54:41Z</time>
      </trkpt>
      <trkpt lat="-18.7821918" lon="-47.0856527">
        <time>2010-01-01T02:55:04Z</time>
      </trkpt>
      <trkpt lat="-18.7821129" lon="-47.0858185">
        <time>2010-01-01T02:55:11Z</time>
      </trkpt>
      <trkpt lat="-18.7819931" lon="-47.0859751">
        <time>2010-01-01T02:55:18Z</time>
      </trkpt>
      <trkpt lat="-18.781837" lon="-47.0861114">
        <time>2010-01-01T02:55:26Z</time>
      </trkpt>
      <trkpt lat="-18.781471" lon="-47.0867021">
        <time>2010-01-01T02:55:53Z</time>
      </trkpt>
      <trkpt lat="-18.7812431" lon="-47.0870655">
        <time>2010-01-01T02:56:10Z</time>
      </trkpt>
      <trkpt lat="-18.7811725" lon="-47.0872281">
        <time>2010-01-01T02:56:16Z</time>
      </trkpt>
      <trkpt lat="-18.7809273" lon="-47.0874679">
        <time>2010-01-01T02:56:30Z</time>
      </trkpt>
      <trkpt lat="-18.78077" lon="-47.0877707">
        <time>2010-01-01T02:56:43Z</time>
      </trkpt>
      <trkpt lat="-18.7806151" lon="-47.0880074">
        <time>2010-01-01T02:56:54Z</time>
      </trkpt>
      <trkpt lat="-18.7804198" lon="-47.0882014">
        <time>2010-01-01T02:57:04Z</time>
      </trkpt>
      <trkpt lat="-18.7803032" lon="-47.0884848">
        <time>2010-01-01T02:57:16Z</time>
      </trkpt>
      <trkpt lat="-18.7801659" lon="-47.088682">
        <time>2010-01-01T02:57:25Z</time>
      </trkpt>
      <trkpt lat="-18.7801051" lon="-47.0888343">
        <time>2010-01-01T02:57:32Z</time>
      </trkpt>
      <trkpt lat="-18.7799329" lon="-47.0890126">
        <time>2010-01-01T02:57:41Z</time>
      </trkpt>
      <trkpt lat="-18.7797138" lon="-47.0892837">
        <time>2010-01-01T02:57:55Z</time>
      </trkpt>
      <trkpt lat="-18.7795988" lon="-47.0893786">
        <time>2010-01-01T02:58:01Z</time>
      </trkpt>
      <trkpt lat="-18.7794889" lon="-47.0894505">
        <time>2010-01-01T02:58:06Z</time>
      </trkpt>
      <trkpt lat="-18.779372" lon="-47.0896145">
        <time>2010-01-01T02:58:14Z</time>
      </trkpt>
      <trkpt lat="-18.7792393" lon="-47.0897657">
        <time>2010-01-01T02:58:22Z</time>
      </trkpt>
      <trkpt lat="-18.7791253" lon="-47.0898296">
        <time>2010-01-01T02:58:27Z</time>
      </trkpt>
      <trkpt lat="-18.7790255" lon="-47.0900155">
        <time>2010-01-01T02:58:35Z</time>
      </trkpt>
      <trkpt lat="-18.7787643" lon="-47.0903629">
        <time>2010-01-01T02:58:52Z</time>
      </trkpt>
      <trkpt lat="-18.7784489" lon="-47.0906019">
        <time>2010-01-01T02:59:07Z</time>
      </trkpt>
      <trkpt lat="-18.7778874" lon="-47.0910264">
        <time>2010-01-01T02:59:35Z</time>
      </trkpt>
      <trkpt lat="-18.7773892" lon="-47.0912236">
        <time>2010-01-01T02:59:56Z</time>
      </trkpt>
      <trkpt lat="-18.7770864" lon="-47.0911752">
        <time>2010-01-01T03:00:08Z</time>
      </trkpt>
      <trkpt lat="-18.7766913" lon="-47.0910166">
        <time>2010-01-01T03:00:25Z</time>
      </trkpt>
      <trkpt lat="-18.7763691" lon="-47.0910189">
        <time>2010-01-01T03:00:38Z</time>
      </trkpt>
      <trkpt lat="-18.776233" lon="-47.0909094">
        <time>2010-01-01T03:00:45Z</time>
      </trkpt>
      <trkpt lat="-18.776299" lon="-47.091136">
        <time>2010-01-01T03:00:54Z</time>
      </trkpt>
      <trkpt lat="-18.776462" lon="-47.091538">
        <time>2010-01-01T03:01:11Z</time>
      </trkpt>
      <trkpt lat="-18.776471" lon="-47.091624">
        <time>2010-01-01T03:01:14Z</time>
      </trkpt>
      <trkpt lat="-18.776586" lon="-47.092112">
        <time>2010-01-01T03:01:33Z</time>
      </trkpt>
      <trkpt lat="-18.776609" lon="-47.092422">
        <time>2010-01-01T03:01:45Z</time>
      </trkpt>
      <trkpt lat="-18.776592" lon="-47.092609">
        <time>2010-01-01T03:01:52Z</time>
      </trkpt>
      <trkpt lat="-18.776567" lon="-47.092702">
        <time>2010-01-01T03:01:55Z</time>
      </trkpt>
      <trkpt lat="-18.776506" lon="-47.092824">
        <time>2010-01-01T03:02:01Z</time>
      </trkpt>
      <trkpt lat="-18.776347" lon="-47.093052">
        <time>2010-01-01T03:02:11Z</time>
      </trkpt>
      <trkpt lat="-18.776247" lon="-47.093124">
        <time>2010-01-01T03:02:16Z</time>
      </trkpt>
      <trkpt lat="-18.776033" lon="-47.093324">
        <time>2010-01-01T03:02:28Z</time>
      </trkpt>
      <trkpt lat="-18.775847" lon="-47.093425">
        <time>2010-01-01T03:02:36Z</time>
      </trkpt>
      <trkpt lat="-18.775669" lon="-47.093585">
        <time>2010-01-01T03:02:45Z</time>
      </trkpt>
      <trkpt lat="-18.775539" lon="-47.093661">
        <time>2010-01-01T03:02:51Z</time>
      </trkpt>
      <trkpt lat="-18.775437" lon="-47.093741">
        <time>2010-01-01T03:02:56Z</time>
      </trkpt>
      <trkpt lat="-18.77534" lon="-47.093844">
        <time>2010-01-01T03:03:02Z</time>
      </trkpt>
      <trkpt lat="-18.775189" lon="-47.094076">
        <time>2010-01-01T03:03:13Z</time>
      </trkpt>
      <trkpt lat="-18.775065" lon="-47.094352">
        <time>2010-01-01T03:03:24Z</time>
      </trkpt>
      <trkpt lat="-18.775018" lon="-47.0944979">
        <time>2010-01-01T03:03:30Z</time>
      </trkpt>
      <trkpt lat="-18.775001" lon="-47.094623">
        <time>2010-01-01T03:03:35Z</time>
      </trkpt>
      <trkpt lat="-18.775016" lon="-47.094873">
        <time>2010-01-01T03:03:44Z</time>
      </trkpt>
      <trkpt lat="-18.775071" lon="-47.0951239">
        <time>2010-01-01T03:03:54Z</time>
      </trkpt>
      <trkpt lat="-18.775114" lon="-47.095527">
        <time>2010-01-01T03:04:09Z</time>
      </trkpt>
      <trkpt lat="-18.77516" lon="-47.09571">
        <time>2010-01-01T03:04:17Z</time>
      </trkpt>
      <trkpt lat="-18.775135" lon="-47.095882">
        <ele>883.8</ele>
        <time>2019-04-10T13:32:25Z</time>
      </trkpt>
      <trkpt lat="-18.77511" lon="-47.095864">
        <ele>883.8</ele>
        <time>2019-04-10T13:32:28Z</time>
      </trkpt>
      <trkpt lat="-18.775077" lon="-47.095836">
        <ele>883.6</ele>
        <time>2019-04-10T13:32:31Z</time>
      </trkpt>
      <trkpt lat="-18.775045" lon="-47.095808">
        <ele>883.5</ele>
        <time>2019-04-10T13:32:33Z</time>
      </trkpt>
      <trkpt lat="-18.775001" lon="-47.095782">
        <ele>883.6</ele>
        <time>2019-04-10T13:32:35Z</time>
      </trkpt>
      <trkpt lat="-18.774979" lon="-47.095763">
        <ele>883.6</ele>
        <time>2019-04-10T13:32:36Z</time>
      </trkpt>
      <trkpt lat="-18.774958" lon="-47.095744">
        <ele>883.7</ele>
        <time>2019-04-10T13:32:37Z</time>
      </trkpt>
      <trkpt lat="-18.774936" lon="-47.095717">
        <ele>883.8</ele>
        <time>2019-04-10T13:32:38Z</time>
      </trkpt>
      <trkpt lat="-18.774901" lon="-47.095682">
        <ele>884</ele>
        <time>2019-04-10T13:32:40Z</time>
      </trkpt>
      <trkpt lat="-18.774881" lon="-47.095662">
        <ele>884</ele>
        <time>2019-04-10T13:32:41Z</time>
      </trkpt>
      <trkpt lat="-18.774844" lon="-47.095633">
        <ele>884.2</ele>
        <time>2019-04-10T13:32:43Z</time>
      </trkpt>
      <trkpt lat="-18.774802" lon="-47.095605">
        <ele>884.3</ele>
        <time>2019-04-10T13:32:45Z</time>
      </trkpt>
      <trkpt lat="-18.774762" lon="-47.095587">
        <ele>884.6</ele>
        <time>2019-04-10T13:32:47Z</time>
      </trkpt>
      <trkpt lat="-18.774713" lon="-47.09558">
        <ele>884.6</ele>
        <time>2019-04-10T13:32:49Z</time>
      </trkpt>
      <trkpt lat="-18.774678" lon="-47.09558">
        <ele>884.7</ele>
        <time>2019-04-10T13:32:50Z</time>
      </trkpt>
      <trkpt lat="-18.774639" lon="-47.09558">
        <ele>884.6</ele>
        <time>2019-04-10T13:32:51Z</time>
      </trkpt>
      <trkpt lat="-18.774597" lon="-47.095585">
        <ele>884.5</ele>
        <time>2019-04-10T13:32:52Z</time>
      </trkpt>
      <trkpt lat="-18.77456" lon="-47.095588">
        <ele>884.3</ele>
        <time>2019-04-10T13:32:53Z</time>
      </trkpt>
      <trkpt lat="-18.77451" lon="-47.095586">
        <ele>884.1</ele>
        <time>2019-04-10T13:32:54Z</time>
      </trkpt>
      <trkpt lat="-18.774459" lon="-47.095591">
        <ele>883.8</ele>
        <time>2019-04-10T13:32:55Z</time>
      </trkpt>
      <trkpt lat="-18.774409" lon="-47.095599">
        <ele>883.5</ele>
        <time>2019-04-10T13:32:56Z</time>
      </trkpt>
      <trkpt lat="-18.774367" lon="-47.09561">
        <ele>882.9</ele>
        <time>2019-04-10T13:32:57Z</time>
      </trkpt>
      <trkpt lat="-18.774329" lon="-47.095629">
        <ele>882.5</ele>
        <time>2019-04-10T13:32:58Z</time>
      </trkpt>
      <trkpt lat="-18.774291" lon="-47.09566">
        <ele>881.7</ele>
        <time>2019-04-10T13:32:59Z</time>
      </trkpt>
      <trkpt lat="-18.774246" lon="-47.095687">
        <ele>880.8</ele>
        <time>2019-04-10T13:33:00Z</time>
      </trkpt>
      <trkpt lat="-18.774201" lon="-47.095717">
        <ele>880.1</ele>
        <time>2019-04-10T13:33:01Z</time>
      </trkpt>
      <trkpt lat="-18.774155" lon="-47.095749">
        <ele>879.5</ele>
        <time>2019-04-10T13:33:02Z</time>
      </trkpt>
      <trkpt lat="-18.774111" lon="-47.09578">
        <ele>879.4</ele>
        <time>2019-04-10T13:33:03Z</time>
      </trkpt>
      <trkpt lat="-18.774067" lon="-47.095812">
        <ele>879.9</ele>
        <time>2019-04-10T13:33:04Z</time>
      </trkpt>
      <trkpt lat="-18.774032" lon="-47.095845">
        <ele>880.2</ele>
        <time>2019-04-10T13:33:05Z</time>
      </trkpt>
      <trkpt lat="-18.773995" lon="-47.095878">
        <ele>880.6</ele>
        <time>2019-04-10T13:33:06Z</time>
      </trkpt>
      <trkpt lat="-18.773963" lon="-47.095903">
        <ele>880.2</ele>
        <time>2019-04-10T13:33:07Z</time>
      </trkpt>
      <trkpt lat="-18.773937" lon="-47.095926">
        <ele>880.7</ele>
        <time>2019-04-10T13:33:08Z</time>
      </trkpt>
      <trkpt lat="-18.773907" lon="-47.095952">
        <ele>880.7</ele>
        <time>2019-04-10T13:33:09Z</time>
      </trkpt>
      <trkpt lat="-18.773873" lon="-47.095976">
        <ele>881.3</ele>
        <time>2019-04-10T13:33:10Z</time>
      </trkpt>
      <trkpt lat="-18.77384" lon="-47.095997">
        <ele>880.7</ele>
        <time>2019-04-10T13:33:11Z</time>
      </trkpt>
      <trkpt lat="-18.773798" lon="-47.09602">
        <ele>881.2</ele>
        <time>2019-04-10T13:33:12Z</time>
      </trkpt>
      <trkpt lat="-18.773753" lon="-47.096044">
        <ele>881.7</ele>
        <time>2019-04-10T13:33:13Z</time>
      </trkpt>
      <trkpt lat="-18.773717" lon="-47.096061">
        <ele>881.7</ele>
        <time>2019-04-10T13:33:14Z</time>
      </trkpt>
      <trkpt lat="-18.773689" lon="-47.09608">
        <ele>881.3</ele>
        <time>2019-04-10T13:33:15Z</time>
      </trkpt>
      <trkpt lat="-18.773661" lon="-47.096106">
        <ele>881.4</ele>
        <time>2019-04-10T13:33:16Z</time>
      </trkpt>
      <trkpt lat="-18.773643" lon="-47.09614">
        <ele>880.5</ele>
        <time>2019-04-10T13:33:17Z</time>
      </trkpt>
      <trkpt lat="-18.773617" lon="-47.096173">
        <ele>879.4</ele>
        <time>2019-04-10T13:33:18Z</time>
      </trkpt>
      <trkpt lat="-18.773592" lon="-47.0962">
        <ele>878.1</ele>
        <time>2019-04-10T13:33:19Z</time>
      </trkpt>
      <trkpt lat="-18.773564" lon="-47.096229">
        <ele>878.1</ele>
        <time>2019-04-10T13:33:20Z</time>
      </trkpt>
      <trkpt lat="-18.773534" lon="-47.096255">
        <ele>876.8</ele>
        <time>2019-04-10T13:33:21Z</time>
      </trkpt>
      <trkpt lat="-18.773504" lon="-47.096287">
        <ele>875.5</ele>
        <time>2019-04-10T13:33:22Z</time>
      </trkpt>
      <trkpt lat="-18.773471" lon="-47.096314">
        <ele>875.2</ele>
        <time>2019-04-10T13:33:23Z</time>
      </trkpt>
      <trkpt lat="-18.773435" lon="-47.096345">
        <ele>874.2</ele>
        <time>2019-04-10T13:33:24Z</time>
      </trkpt>
      <trkpt lat="-18.773398" lon="-47.096372">
        <ele>873</ele>
        <time>2019-04-10T13:33:25Z</time>
      </trkpt>
      <trkpt lat="-18.773361" lon="-47.096394">
        <ele>873</ele>
        <time>2019-04-10T13:33:26Z</time>
      </trkpt>
      <trkpt lat="-18.773326" lon="-47.096414">
        <ele>873</ele>
        <time>2019-04-10T13:33:27Z</time>
      </trkpt>
      <trkpt lat="-18.773292" lon="-47.096431">
        <ele>872.6</ele>
        <time>2019-04-10T13:33:28Z</time>
      </trkpt>
      <trkpt lat="-18.773256" lon="-47.096448">
        <ele>872.9</ele>
        <time>2019-04-10T13:33:29Z</time>
      </trkpt>
      <trkpt lat="-18.773219" lon="-47.096462">
        <ele>872.7</ele>
        <time>2019-04-10T13:33:30Z</time>
      </trkpt>
      <trkpt lat="-18.773183" lon="-47.096481">
        <ele>873.2</ele>
        <time>2019-04-10T13:33:31Z</time>
      </trkpt>
      <trkpt lat="-18.773149" lon="-47.096498">
        <ele>873.2</ele>
        <time>2019-04-10T13:33:32Z</time>
      </trkpt>
      <trkpt lat="-18.773118" lon="-47.09652">
        <ele>873.1</ele>
        <time>2019-04-10T13:33:33Z</time>
      </trkpt>
      <trkpt lat="-18.773087" lon="-47.096549">
        <ele>872.9</ele>
        <time>2019-04-10T13:33:34Z</time>
      </trkpt>
      <trkpt lat="-18.773057" lon="-47.09658">
        <ele>873.7</ele>
        <time>2019-04-10T13:33:35Z</time>
      </trkpt>
      <trkpt lat="-18.773024" lon="-47.09661">
        <ele>873.7</ele>
        <time>2019-04-10T13:33:36Z</time>
      </trkpt>
      <trkpt lat="-18.772986" lon="-47.096642">
        <ele>872.9</ele>
        <time>2019-04-10T13:33:37Z</time>
      </trkpt>
      <trkpt lat="-18.77295" lon="-47.096676">
        <ele>873.2</ele>
        <time>2019-04-10T13:33:38Z</time>
      </trkpt>
      <trkpt lat="-18.77291" lon="-47.096712">
        <ele>874.3</ele>
        <time>2019-04-10T13:33:39Z</time>
      </trkpt>
      <trkpt lat="-18.77287" lon="-47.096744">
        <ele>874.6</ele>
        <time>2019-04-10T13:33:40Z</time>
      </trkpt>
      <trkpt lat="-18.772832" lon="-47.096773">
        <ele>874.6</ele>
        <time>2019-04-10T13:33:41Z</time>
      </trkpt>
      <trkpt lat="-18.772798" lon="-47.0968">
        <ele>875.7</ele>
        <time>2019-04-10T13:33:42Z</time>
      </trkpt>
      <trkpt lat="-18.772768" lon="-47.096829">
        <ele>875.5</ele>
        <time>2019-04-10T13:33:43Z</time>
      </trkpt>
      <trkpt lat="-18.772738" lon="-47.096848">
        <ele>875.3</ele>
        <time>2019-04-10T13:33:44Z</time>
      </trkpt>
      <trkpt lat="-18.772709" lon="-47.096867">
        <ele>875.3</ele>
        <time>2019-04-10T13:33:45Z</time>
      </trkpt>
      <trkpt lat="-18.772682" lon="-47.096879">
        <ele>876.4</ele>
        <time>2019-04-10T13:33:46Z</time>
      </trkpt>
      <trkpt lat="-18.772654" lon="-47.096884">
        <ele>877.4</ele>
        <time>2019-04-10T13:33:47Z</time>
      </trkpt>
      <trkpt lat="-18.772604" lon="-47.096898">
        <ele>876.9</ele>
        <time>2019-04-10T13:33:49Z</time>
      </trkpt>
      <trkpt lat="-18.772578" lon="-47.096904">
        <ele>876.9</ele>
        <time>2019-04-10T13:33:50Z</time>
      </trkpt>
      <trkpt lat="-18.77255" lon="-47.096909">
        <ele>877.6</ele>
        <time>2019-04-10T13:33:51Z</time>
      </trkpt>
      <trkpt lat="-18.77252" lon="-47.096916">
        <ele>878.3</ele>
        <time>2019-04-10T13:33:52Z</time>
      </trkpt>
      <trkpt lat="-18.772491" lon="-47.096923">
        <ele>878.8</ele>
        <time>2019-04-10T13:33:53Z</time>
      </trkpt>
      <trkpt lat="-18.772461" lon="-47.096926">
        <ele>878.8</ele>
        <time>2019-04-10T13:33:54Z</time>
      </trkpt>
      <trkpt lat="-18.772432" lon="-47.096926">
        <ele>879.3</ele>
        <time>2019-04-10T13:33:55Z</time>
      </trkpt>
      <trkpt lat="-18.772393" lon="-47.096958">
        <ele>878.2</ele>
        <time>2019-04-10T13:33:57Z</time>
      </trkpt>
      <trkpt lat="-18.77238" lon="-47.096985">
        <ele>876.5</ele>
        <time>2019-04-10T13:33:58Z</time>
      </trkpt>
      <trkpt lat="-18.772378" lon="-47.097025">
        <ele>874.8</ele>
        <time>2019-04-10T13:33:59Z</time>
      </trkpt>
      <trkpt lat="-18.77238" lon="-47.097069">
        <ele>873</ele>
        <time>2019-04-10T13:34:00Z</time>
      </trkpt>
      <trkpt lat="-18.77237" lon="-47.097125">
        <ele>871.9</ele>
        <time>2019-04-10T13:34:01Z</time>
      </trkpt>
      <trkpt lat="-18.772352" lon="-47.097189">
        <ele>869.5</ele>
        <time>2019-04-10T13:34:02Z</time>
      </trkpt>
      <trkpt lat="-18.772327" lon="-47.097253">
        <ele>869.5</ele>
        <time>2019-04-10T13:34:03Z</time>
      </trkpt>
      <trkpt lat="-18.772303" lon="-47.097324">
        <ele>868.1</ele>
        <time>2019-04-10T13:34:04Z</time>
      </trkpt>
      <trkpt lat="-18.772283" lon="-47.097398">
        <ele>868.3</ele>
        <time>2019-04-10T13:34:05Z</time>
      </trkpt>
      <trkpt lat="-18.772273" lon="-47.097484">
        <ele>867.2</ele>
        <time>2019-04-10T13:34:06Z</time>
      </trkpt>
      <trkpt lat="-18.772259" lon="-47.097561">
        <ele>866.4</ele>
        <time>2019-04-10T13:34:07Z</time>
      </trkpt>
      <trkpt lat="-18.772249" lon="-47.097646">
        <ele>866.7</ele>
        <time>2019-04-10T13:34:08Z</time>
      </trkpt>
      <trkpt lat="-18.772245" lon="-47.097717">
        <ele>867.4</ele>
        <time>2019-04-10T13:34:09Z</time>
      </trkpt>
      <trkpt lat="-18.772242" lon="-47.097783">
        <ele>867.7</ele>
        <time>2019-04-10T13:34:10Z</time>
      </trkpt>
      <trkpt lat="-18.772236" lon="-47.097846">
        <ele>867.7</ele>
        <time>2019-04-10T13:34:11Z</time>
      </trkpt>
      <trkpt lat="-18.772215" lon="-47.097904">
        <ele>867.4</ele>
        <time>2019-04-10T13:34:12Z</time>
      </trkpt>
      <trkpt lat="-18.772187" lon="-47.097956">
        <ele>867.5</ele>
        <time>2019-04-10T13:34:13Z</time>
      </trkpt>
      <trkpt lat="-18.772153" lon="-47.098006">
        <ele>867.8</ele>
        <time>2019-04-10T13:34:14Z</time>
      </trkpt>
      <trkpt lat="-18.772107" lon="-47.098056">
        <ele>868.6</ele>
        <time>2019-04-10T13:34:15Z</time>
      </trkpt>
      <trkpt lat="-18.772061" lon="-47.098105">
        <ele>869.1</ele>
        <time>2019-04-10T13:34:16Z</time>
      </trkpt>
      <trkpt lat="-18.772018" lon="-47.098158">
        <ele>869.3</ele>
        <time>2019-04-10T13:34:17Z</time>
      </trkpt>
      <trkpt lat="-18.771979" lon="-47.098213">
        <ele>869.1</ele>
        <time>2019-04-10T13:34:18Z</time>
      </trkpt>
      <trkpt lat="-18.771952" lon="-47.098277">
        <ele>868</ele>
        <time>2019-04-10T13:34:19Z</time>
      </trkpt>
      <trkpt lat="-18.771947" lon="-47.09836">
        <ele>866</ele>
        <time>2019-04-10T13:34:20Z</time>
      </trkpt>
      <trkpt lat="-18.771942" lon="-47.09843">
        <ele>864.3</ele>
        <time>2019-04-10T13:34:21Z</time>
      </trkpt>
      <trkpt lat="-18.771925" lon="-47.098506">
        <ele>862.9</ele>
        <time>2019-04-10T13:34:22Z</time>
      </trkpt>
      <trkpt lat="-18.771898" lon="-47.098584">
        <ele>861.5</ele>
        <time>2019-04-10T13:34:23Z</time>
      </trkpt>
      <trkpt lat="-18.771869" lon="-47.098656">
        <ele>860.9</ele>
        <time>2019-04-10T13:34:24Z</time>
      </trkpt>
      <trkpt lat="-18.771839" lon="-47.098723">
        <ele>861.2</ele>
        <time>2019-04-10T13:34:25Z</time>
      </trkpt>
      <trkpt lat="-18.771814" lon="-47.098781">
        <ele>860.9</ele>
        <time>2019-04-10T13:34:26Z</time>
      </trkpt>
      <trkpt lat="-18.771798" lon="-47.098831">
        <ele>861.8</ele>
        <time>2019-04-10T13:34:27Z</time>
      </trkpt>
      <trkpt lat="-18.771777" lon="-47.098876">
        <ele>861.8</ele>
        <time>2019-04-10T13:34:28Z</time>
      </trkpt>
      <trkpt lat="-18.771753" lon="-47.098919">
        <ele>862.8</ele>
        <time>2019-04-10T13:34:29Z</time>
      </trkpt>
      <trkpt lat="-18.771724" lon="-47.098961">
        <ele>863.9</ele>
        <time>2019-04-10T13:34:30Z</time>
      </trkpt>
      <trkpt lat="-18.771695" lon="-47.099001">
        <ele>863.9</ele>
        <time>2019-04-10T13:34:31Z</time>
      </trkpt>
      <trkpt lat="-18.77167" lon="-47.099043">
        <ele>865</ele>
        <time>2019-04-10T13:34:32Z</time>
      </trkpt>
      <trkpt lat="-18.771649" lon="-47.099082">
        <ele>865</ele>
        <time>2019-04-10T13:34:33Z</time>
      </trkpt>
      <trkpt lat="-18.771625" lon="-47.099119">
        <ele>865.8</ele>
        <time>2019-04-10T13:34:34Z</time>
      </trkpt>
      <trkpt lat="-18.771601" lon="-47.09915">
        <ele>866.6</ele>
        <time>2019-04-10T13:34:35Z</time>
      </trkpt>
      <trkpt lat="-18.771576" lon="-47.099187">
        <ele>866.4</ele>
        <time>2019-04-10T13:34:36Z</time>
      </trkpt>
      <trkpt lat="-18.771553" lon="-47.099224">
        <ele>866.8</ele>
        <time>2019-04-10T13:34:37Z</time>
      </trkpt>
      <trkpt lat="-18.771525" lon="-47.099261">
        <ele>866.6</ele>
        <time>2019-04-10T13:34:38Z</time>
      </trkpt>
      <trkpt lat="-18.771495" lon="-47.099295">
        <ele>866.9</ele>
        <time>2019-04-10T13:34:39Z</time>
      </trkpt>
      <trkpt lat="-18.77147" lon="-47.099327">
        <ele>867.2</ele>
        <time>2019-04-10T13:34:40Z</time>
      </trkpt>
      <trkpt lat="-18.771443" lon="-47.09936">
        <ele>866.9</ele>
        <time>2019-04-10T13:34:41Z</time>
      </trkpt>
      <trkpt lat="-18.771417" lon="-47.099393">
        <ele>866.9</ele>
        <time>2019-04-10T13:34:42Z</time>
      </trkpt>
      <trkpt lat="-18.771388" lon="-47.09943">
        <ele>866.9</ele>
        <time>2019-04-10T13:34:43Z</time>
      </trkpt>
      <trkpt lat="-18.771368" lon="-47.099454">
        <ele>866.9</ele>
        <time>2019-04-10T13:34:44Z</time>
      </trkpt>
      <trkpt lat="-18.771347" lon="-47.099481">
        <ele>866.8</ele>
        <time>2019-04-10T13:34:45Z</time>
      </trkpt>
      <trkpt lat="-18.77133" lon="-47.099515">
        <ele>866.5</ele>
        <time>2019-04-10T13:34:46Z</time>
      </trkpt>
      <trkpt lat="-18.771299" lon="-47.099541">
        <ele>866.7</ele>
        <time>2019-04-10T13:34:47Z</time>
      </trkpt>
      <trkpt lat="-18.771282" lon="-47.099591">
        <ele>866.2</ele>
        <time>2019-04-10T13:34:48Z</time>
      </trkpt>
      <trkpt lat="-18.771264" lon="-47.099638">
        <ele>866.4</ele>
        <time>2019-04-10T13:34:49Z</time>
      </trkpt>
      <trkpt lat="-18.771239" lon="-47.099677">
        <ele>866.2</ele>
        <time>2019-04-10T13:34:50Z</time>
      </trkpt>
      <trkpt lat="-18.771222" lon="-47.099725">
        <ele>866.3</ele>
        <time>2019-04-10T13:34:51Z</time>
      </trkpt>
      <trkpt lat="-18.771209" lon="-47.09977">
        <ele>866.1</ele>
        <time>2019-04-10T13:34:52Z</time>
      </trkpt>
      <trkpt lat="-18.771201" lon="-47.099812">
        <ele>865.8</ele>
        <time>2019-04-10T13:34:53Z</time>
      </trkpt>
      <trkpt lat="-18.771192" lon="-47.099847">
        <ele>865.8</ele>
        <time>2019-04-10T13:34:54Z</time>
      </trkpt>
      <trkpt lat="-18.771184" lon="-47.099878">
        <ele>865.5</ele>
        <time>2019-04-10T13:34:55Z</time>
      </trkpt>
      <trkpt lat="-18.771183" lon="-47.099908">
        <ele>865.2</ele>
        <time>2019-04-10T13:34:56Z</time>
      </trkpt>
      <trkpt lat="-18.771181" lon="-47.09994">
        <ele>865</ele>
        <time>2019-04-10T13:34:57Z</time>
      </trkpt>
      <trkpt lat="-18.771186" lon="-47.099993">
        <ele>864.8</ele>
        <time>2019-04-10T13:34:59Z</time>
      </trkpt>
      <trkpt lat="-18.771199" lon="-47.100031">
        <ele>864.6</ele>
        <time>2019-04-10T13:35:01Z</time>
      </trkpt>
      <trkpt lat="-18.771218" lon="-47.100062">
        <ele>864.6</ele>
        <time>2019-04-10T13:35:05Z</time>
      </trkpt>
      <trkpt lat="-18.771222" lon="-47.100099">
        <ele>864.5</ele>
        <time>2019-04-10T13:35:11Z</time>
      </trkpt>
      <trkpt lat="-18.771237" lon="-47.100129">
        <ele>864.4</ele>
        <time>2019-04-10T13:35:14Z</time>
      </trkpt>
      <trkpt lat="-18.771219" lon="-47.100168">
        <ele>864</ele>
        <time>2019-04-10T13:35:19Z</time>
      </trkpt>
      <trkpt lat="-18.771223" lon="-47.100201">
        <ele>863.6</ele>
        <time>2019-04-10T13:35:20Z</time>
      </trkpt>
      <trkpt lat="-18.771222" lon="-47.100241">
        <ele>863.1</ele>
        <time>2019-04-10T13:35:21Z</time>
      </trkpt>
      <trkpt lat="-18.771217" lon="-47.100282">
        <ele>862.5</ele>
        <time>2019-04-10T13:35:22Z</time>
      </trkpt>
      <trkpt lat="-18.771207" lon="-47.100326">
        <ele>862</ele>
        <time>2019-04-10T13:35:23Z</time>
      </trkpt>
      <trkpt lat="-18.771193" lon="-47.100365">
        <ele>861.4</ele>
        <time>2019-04-10T13:35:24Z</time>
      </trkpt>
      <trkpt lat="-18.77118" lon="-47.1004">
        <ele>861.4</ele>
        <time>2019-04-10T13:35:25Z</time>
      </trkpt>
      <trkpt lat="-18.771175" lon="-47.10043">
        <ele>861.1</ele>
        <time>2019-04-10T13:35:26Z</time>
      </trkpt>
      <trkpt lat="-18.771169" lon="-47.100463">
        <ele>860.9</ele>
        <time>2019-04-10T13:35:27Z</time>
      </trkpt>
      <trkpt lat="-18.771166" lon="-47.100497">
        <ele>860.7</ele>
        <time>2019-04-10T13:35:28Z</time>
      </trkpt>
      <trkpt lat="-18.771145" lon="-47.100525">
        <ele>860.3</ele>
        <time>2019-04-10T13:35:29Z</time>
      </trkpt>
      <trkpt lat="-18.771141" lon="-47.100562">
        <ele>860.1</ele>
        <time>2019-04-10T13:35:30Z</time>
      </trkpt>
      <trkpt lat="-18.771139" lon="-47.100602">
        <ele>859.9</ele>
        <time>2019-04-10T13:35:31Z</time>
      </trkpt>
      <trkpt lat="-18.771137" lon="-47.100642">
        <ele>859.7</ele>
        <time>2019-04-10T13:35:32Z</time>
      </trkpt>
      <trkpt lat="-18.771138" lon="-47.100682">
        <ele>859.4</ele>
        <time>2019-04-10T13:35:33Z</time>
      </trkpt>
      <trkpt lat="-18.771138" lon="-47.100722">
        <ele>859</ele>
        <time>2019-04-10T13:35:34Z</time>
      </trkpt>
      <trkpt lat="-18.77114" lon="-47.100769">
        <ele>858.6</ele>
        <time>2019-04-10T13:35:35Z</time>
      </trkpt>
      <trkpt lat="-18.771142" lon="-47.100817">
        <ele>858.1</ele>
        <time>2019-04-10T13:35:36Z</time>
      </trkpt>
      <trkpt lat="-18.771137" lon="-47.100856">
        <ele>857.6</ele>
        <time>2019-04-10T13:35:37Z</time>
      </trkpt>
      <trkpt lat="-18.771125" lon="-47.100891">
        <ele>857.1</ele>
        <time>2019-04-10T13:35:38Z</time>
      </trkpt>
      <trkpt lat="-18.771118" lon="-47.100929">
        <ele>856.6</ele>
        <time>2019-04-10T13:35:39Z</time>
      </trkpt>
      <trkpt lat="-18.771102" lon="-47.100958">
        <ele>856.2</ele>
        <time>2019-04-10T13:35:40Z</time>
      </trkpt>
      <trkpt lat="-18.771079" lon="-47.100984">
        <ele>855.6</ele>
        <time>2019-04-10T13:35:41Z</time>
      </trkpt>
      <trkpt lat="-18.771057" lon="-47.101011">
        <ele>854.9</ele>
        <time>2019-04-10T13:35:42Z</time>
      </trkpt>
      <trkpt lat="-18.771035" lon="-47.10104">
        <ele>854.9</ele>
        <time>2019-04-10T13:35:43Z</time>
      </trkpt>
      <trkpt lat="-18.77101" lon="-47.101069">
        <ele>854.5</ele>
        <time>2019-04-10T13:35:44Z</time>
      </trkpt>
      <trkpt lat="-18.770981" lon="-47.1011">
        <ele>854.2</ele>
        <time>2019-04-10T13:35:45Z</time>
      </trkpt>
      <trkpt lat="-18.770953" lon="-47.101132">
        <ele>854.2</ele>
        <time>2019-04-10T13:35:46Z</time>
      </trkpt>
      <trkpt lat="-18.770921" lon="-47.101159">
        <ele>853.7</ele>
        <time>2019-04-10T13:35:47Z</time>
      </trkpt>
      <trkpt lat="-18.77089" lon="-47.101195">
        <ele>853</ele>
        <time>2019-04-10T13:35:48Z</time>
      </trkpt>
      <trkpt lat="-18.770867" lon="-47.101233">
        <ele>852.3</ele>
        <time>2019-04-10T13:35:49Z</time>
      </trkpt>
      <trkpt lat="-18.770839" lon="-47.101271">
        <ele>851.6</ele>
        <time>2019-04-10T13:35:50Z</time>
      </trkpt>
      <trkpt lat="-18.770824" lon="-47.101303">
        <ele>851.6</ele>
        <time>2019-04-10T13:35:51Z</time>
      </trkpt>
      <trkpt lat="-18.770818" lon="-47.101333">
        <ele>850.9</ele>
        <time>2019-04-10T13:35:52Z</time>
      </trkpt>
      <trkpt lat="-18.770822" lon="-47.101365">
        <ele>850.1</ele>
        <time>2019-04-10T13:35:53Z</time>
      </trkpt>
      <trkpt lat="-18.770813" lon="-47.101424">
        <ele>849.1</ele>
        <time>2019-04-10T13:35:55Z</time>
      </trkpt>
      <trkpt lat="-18.770804" lon="-47.101453">
        <ele>848</ele>
        <time>2019-04-10T13:35:56Z</time>
      </trkpt>
      <trkpt lat="-18.770795" lon="-47.101485">
        <ele>846.8</ele>
        <time>2019-04-10T13:35:57Z</time>
      </trkpt>
      <trkpt lat="-18.770785" lon="-47.101513">
        <ele>847</ele>
        <time>2019-04-10T13:35:58Z</time>
      </trkpt>
      <trkpt lat="-18.770773" lon="-47.10154">
        <ele>845.9</ele>
        <time>2019-04-10T13:35:59Z</time>
      </trkpt>
      <trkpt lat="-18.770758" lon="-47.101566">
        <ele>844.8</ele>
        <time>2019-04-10T13:36:00Z</time>
      </trkpt>
      <trkpt lat="-18.77075" lon="-47.101596">
        <ele>844.8</ele>
        <time>2019-04-10T13:36:01Z</time>
      </trkpt>
      <trkpt lat="-18.77074" lon="-47.101626">
        <ele>844</ele>
        <time>2019-04-10T13:36:02Z</time>
      </trkpt>
      <trkpt lat="-18.770725" lon="-47.101658">
        <ele>843</ele>
        <time>2019-04-10T13:36:03Z</time>
      </trkpt>
      <trkpt lat="-18.770709" lon="-47.101688">
        <ele>843</ele>
        <time>2019-04-10T13:36:04Z</time>
      </trkpt>
      <trkpt lat="-18.77069" lon="-47.101713">
        <ele>842.3</ele>
        <time>2019-04-10T13:36:05Z</time>
      </trkpt>
      <trkpt lat="-18.770674" lon="-47.10174">
        <ele>841.4</ele>
        <time>2019-04-10T13:36:06Z</time>
      </trkpt>
      <trkpt lat="-18.770643" lon="-47.101785">
        <ele>840.8</ele>
        <time>2019-04-10T13:36:08Z</time>
      </trkpt>
      <trkpt lat="-18.770627" lon="-47.101809">
        <ele>841.1</ele>
        <time>2019-04-10T13:36:09Z</time>
      </trkpt>
      <trkpt lat="-18.770609" lon="-47.101837">
        <ele>840.3</ele>
        <time>2019-04-10T13:36:10Z</time>
      </trkpt>
      <trkpt lat="-18.770587" lon="-47.101867">
        <ele>839.5</ele>
        <time>2019-04-10T13:36:11Z</time>
      </trkpt>
      <trkpt lat="-18.770564" lon="-47.101893">
        <ele>839.8</ele>
        <time>2019-04-10T13:36:12Z</time>
      </trkpt>
      <trkpt lat="-18.770531" lon="-47.101919">
        <ele>839.8</ele>
        <time>2019-04-10T13:36:13Z</time>
      </trkpt>
      <trkpt lat="-18.770483" lon="-47.101933">
        <ele>840.3</ele>
        <time>2019-04-10T13:36:14Z</time>
      </trkpt>
      <trkpt lat="-18.770447" lon="-47.101944">
        <ele>840.9</ele>
        <time>2019-04-10T13:36:15Z</time>
      </trkpt>
      <trkpt lat="-18.770418" lon="-47.101946">
        <ele>841.5</ele>
        <time>2019-04-10T13:36:16Z</time>
      </trkpt>
      <trkpt lat="-18.770382" lon="-47.101957">
        <ele>841.8</ele>
        <time>2019-04-10T13:36:17Z</time>
      </trkpt>
      <trkpt lat="-18.770342" lon="-47.101971">
        <ele>842.2</ele>
        <time>2019-04-10T13:36:18Z</time>
      </trkpt>
      <trkpt lat="-18.770304" lon="-47.101986">
        <ele>842.2</ele>
        <time>2019-04-10T13:36:19Z</time>
      </trkpt>
      <trkpt lat="-18.770264" lon="-47.102001">
        <ele>842.1</ele>
        <time>2019-04-10T13:36:20Z</time>
      </trkpt>
      <trkpt lat="-18.770231" lon="-47.102017">
        <ele>842.4</ele>
        <time>2019-04-10T13:36:21Z</time>
      </trkpt>
      <trkpt lat="-18.770196" lon="-47.102033">
        <ele>842.7</ele>
        <time>2019-04-10T13:36:22Z</time>
      </trkpt>
      <trkpt lat="-18.770164" lon="-47.102048">
        <ele>842.7</ele>
        <time>2019-04-10T13:36:23Z</time>
      </trkpt>
      <trkpt lat="-18.770133" lon="-47.10206">
        <ele>843.2</ele>
        <time>2019-04-10T13:36:24Z</time>
      </trkpt>
      <trkpt lat="-18.770105" lon="-47.10206">
        <ele>843.2</ele>
        <time>2019-04-10T13:36:25Z</time>
      </trkpt>
      <trkpt lat="-18.770079" lon="-47.102051">
        <ele>843.7</ele>
        <time>2019-04-10T13:36:26Z</time>
      </trkpt>
      <trkpt lat="-18.770032" lon="-47.102039">
        <ele>844</ele>
        <time>2019-04-10T13:36:28Z</time>
      </trkpt>
      <trkpt lat="-18.770008" lon="-47.102024">
        <ele>844.6</ele>
        <time>2019-04-10T13:36:29Z</time>
      </trkpt>
      <trkpt lat="-18.769964" lon="-47.10201">
        <ele>845</ele>
        <time>2019-04-10T13:36:31Z</time>
      </trkpt>
      <trkpt lat="-18.769926" lon="-47.102002">
        <ele>845.4</ele>
        <time>2019-04-10T13:36:33Z</time>
      </trkpt>
      <trkpt lat="-18.769879" lon="-47.101986">
        <ele>846.4</ele>
        <time>2019-04-10T13:36:35Z</time>
      </trkpt>
      <trkpt lat="-18.769852" lon="-47.101975">
        <ele>847</ele>
        <time>2019-04-10T13:36:36Z</time>
      </trkpt>
      <trkpt lat="-18.769812" lon="-47.101962">
        <ele>847.5</ele>
        <time>2019-04-10T13:36:38Z</time>
      </trkpt>
      <trkpt lat="-18.769764" lon="-47.101953">
        <ele>848</ele>
        <time>2019-04-10T13:36:40Z</time>
      </trkpt>
      <trkpt lat="-18.769725" lon="-47.101948">
        <ele>848.7</ele>
        <time>2019-04-10T13:36:42Z</time>
      </trkpt>
      <trkpt lat="-18.769683" lon="-47.101934">
        <ele>848.8</ele>
        <time>2019-04-10T13:36:44Z</time>
      </trkpt>
      <trkpt lat="-18.769645" lon="-47.101924">
        <ele>848.7</ele>
        <time>2019-04-10T13:36:46Z</time>
      </trkpt>
      <trkpt lat="-18.769611" lon="-47.101919">
        <ele>848.6</ele>
        <time>2019-04-10T13:36:48Z</time>
      </trkpt>
      <trkpt lat="-18.76958" lon="-47.101902">
        <ele>848.9</ele>
        <time>2019-04-10T13:36:50Z</time>
      </trkpt>
      <trkpt lat="-18.769541" lon="-47.101898">
        <ele>848.6</ele>
        <time>2019-04-10T13:36:52Z</time>
      </trkpt>
      <trkpt lat="-18.769491" lon="-47.101886">
        <ele>848.3</ele>
        <time>2019-04-10T13:36:54Z</time>
      </trkpt>
      <trkpt lat="-18.769462" lon="-47.101874">
        <ele>848</ele>
        <time>2019-04-10T13:36:55Z</time>
      </trkpt>
      <trkpt lat="-18.76943" lon="-47.101866">
        <ele>847.9</ele>
        <time>2019-04-10T13:36:56Z</time>
      </trkpt>
      <trkpt lat="-18.769395" lon="-47.101858">
        <ele>848.4</ele>
        <time>2019-04-10T13:36:57Z</time>
      </trkpt>
      <trkpt lat="-18.769364" lon="-47.101854">
        <ele>848.7</ele>
        <time>2019-04-10T13:36:58Z</time>
      </trkpt>
      <trkpt lat="-18.769333" lon="-47.101853">
        <ele>848.7</ele>
        <time>2019-04-10T13:36:59Z</time>
      </trkpt>
      <trkpt lat="-18.769282" lon="-47.101853">
        <ele>849.7</ele>
        <time>2019-04-10T13:37:01Z</time>
      </trkpt>
      <trkpt lat="-18.769233" lon="-47.10186">
        <ele>850.1</ele>
        <time>2019-04-10T13:37:03Z</time>
      </trkpt>
      <trkpt lat="-18.76919" lon="-47.101859">
        <ele>850.5</ele>
        <time>2019-04-10T13:37:05Z</time>
      </trkpt>
      <trkpt lat="-18.769145" lon="-47.10186">
        <ele>850.8</ele>
        <time>2019-04-10T13:37:07Z</time>
      </trkpt>
      <trkpt lat="-18.769092" lon="-47.101862">
        <ele>850.9</ele>
        <time>2019-04-10T13:37:09Z</time>
      </trkpt>
      <trkpt lat="-18.769058" lon="-47.101867">
        <ele>850.2</ele>
        <time>2019-04-10T13:37:10Z</time>
      </trkpt>
      <trkpt lat="-18.769025" lon="-47.101868">
        <ele>850.2</ele>
        <time>2019-04-10T13:37:11Z</time>
      </trkpt>
      <trkpt lat="-18.768993" lon="-47.101872">
        <ele>850.2</ele>
        <time>2019-04-10T13:37:12Z</time>
      </trkpt>
      <trkpt lat="-18.768935" lon="-47.101864">
        <ele>850.6</ele>
        <time>2019-04-10T13:37:14Z</time>
      </trkpt>
      <trkpt lat="-18.768899" lon="-47.101867">
        <ele>849.7</ele>
        <time>2019-04-10T13:37:15Z</time>
      </trkpt>
      <trkpt lat="-18.768868" lon="-47.101872">
        <ele>849.3</ele>
        <time>2019-04-10T13:37:16Z</time>
      </trkpt>
      <trkpt lat="-18.768835" lon="-47.101879">
        <ele>848.8</ele>
        <time>2019-04-10T13:37:17Z</time>
      </trkpt>
      <trkpt lat="-18.768806" lon="-47.101882">
        <ele>848.8</ele>
        <time>2019-04-10T13:37:18Z</time>
      </trkpt>
      <trkpt lat="-18.768779" lon="-47.101885">
        <ele>848.3</ele>
        <time>2019-04-10T13:37:19Z</time>
      </trkpt>
      <trkpt lat="-18.768748" lon="-47.10189">
        <ele>847.8</ele>
        <time>2019-04-10T13:37:20Z</time>
      </trkpt>
      <trkpt lat="-18.768693" lon="-47.101893">
        <ele>847.4</ele>
        <time>2019-04-10T13:37:22Z</time>
      </trkpt>
      <trkpt lat="-18.768645" lon="-47.101893">
        <ele>846.9</ele>
        <time>2019-04-10T13:37:24Z</time>
      </trkpt>
      <trkpt lat="-18.768593" lon="-47.101891">
        <ele>845.7</ele>
        <time>2019-04-10T13:37:26Z</time>
      </trkpt>
      <trkpt lat="-18.76854" lon="-47.101874">
        <ele>844.9</ele>
        <time>2019-04-10T13:37:28Z</time>
      </trkpt>
      <trkpt lat="-18.768502" lon="-47.101869">
        <ele>844.1</ele>
        <time>2019-04-10T13:37:29Z</time>
      </trkpt>
      <trkpt lat="-18.768466" lon="-47.101871">
        <ele>843.3</ele>
        <time>2019-04-10T13:37:30Z</time>
      </trkpt>
      <trkpt lat="-18.768437" lon="-47.10188">
        <ele>843.3</ele>
        <time>2019-04-10T13:37:31Z</time>
      </trkpt>
      <trkpt lat="-18.768413" lon="-47.1019">
        <ele>842.7</ele>
        <time>2019-04-10T13:37:33Z</time>
      </trkpt>
      <trkpt lat="-18.768404" lon="-47.10193">
        <ele>841.8</ele>
        <time>2019-04-10T13:37:36Z</time>
      </trkpt>
      <trkpt lat="-18.768408" lon="-47.101962">
        <ele>841</ele>
        <time>2019-04-10T13:37:40Z</time>
      </trkpt>
      <trkpt lat="-18.76839" lon="-47.10194">
        <ele>841.3</ele>
        <time>2019-04-10T13:37:55Z</time>
      </trkpt>
      <trkpt lat="-18.768362" lon="-47.101926">
        <ele>841.3</ele>
        <time>2019-04-10T13:37:57Z</time>
      </trkpt>
      <trkpt lat="-18.768324" lon="-47.101944">
        <ele>840.8</ele>
        <time>2019-04-10T13:38:00Z</time>
      </trkpt>
      <trkpt lat="-18.768299" lon="-47.101966">
        <ele>839.5</ele>
        <time>2019-04-10T13:38:02Z</time>
      </trkpt>
      <trkpt lat="-18.768285" lon="-47.101941">
        <ele>840.3</ele>
        <time>2019-04-10T13:38:09Z</time>
      </trkpt>
      <trkpt lat="-18.768257" lon="-47.101953">
        <ele>839.1</ele>
        <time>2019-04-10T13:38:23Z</time>
      </trkpt>
      <trkpt lat="-18.768267" lon="-47.10198">
        <ele>839.1</ele>
        <time>2019-04-10T13:38:29Z</time>
      </trkpt>
      <trkpt lat="-18.768294" lon="-47.102">
        <ele>838.8</ele>
        <time>2019-04-10T13:38:32Z</time>
      </trkpt>
      <trkpt lat="-18.768314" lon="-47.10202">
        <ele>839.2</ele>
        <time>2019-04-10T13:38:36Z</time>
      </trkpt>
      <trkpt lat="-18.768305" lon="-47.102048">
        <ele>838.1</ele>
        <time>2019-04-10T13:38:42Z</time>
      </trkpt>
      <trkpt lat="-18.768306" lon="-47.102085">
        <ele>837.5</ele>
        <time>2019-04-10T13:38:46Z</time>
      </trkpt>
      <trkpt lat="-18.768278" lon="-47.102097">
        <ele>837.5</ele>
        <time>2019-04-10T13:38:50Z</time>
      </trkpt>
      <trkpt lat="-18.768248" lon="-47.102121">
        <ele>837.1</ele>
        <time>2019-04-10T13:38:53Z</time>
      </trkpt>
      <trkpt lat="-18.768216" lon="-47.102105">
        <ele>836.9</ele>
        <time>2019-04-10T13:38:59Z</time>
      </trkpt>
      <trkpt lat="-18.768198" lon="-47.102083">
        <ele>836.9</ele>
        <time>2019-04-10T13:39:01Z</time>
      </trkpt>
      <trkpt lat="-18.768148" lon="-47.102063">
        <ele>836.9</ele>
        <time>2019-04-10T13:39:03Z</time>
      </trkpt>
      <trkpt lat="-18.76812" lon="-47.10206">
        <ele>836.9</ele>
        <time>2019-04-10T13:39:05Z</time>
      </trkpt>
      <trkpt lat="-18.768081" lon="-47.102058">
        <ele>836.7</ele>
        <time>2019-04-10T13:39:08Z</time>
      </trkpt>
      <trkpt lat="-18.76805" lon="-47.102063">
        <ele>836.6</ele>
        <time>2019-04-10T13:39:11Z</time>
      </trkpt>
      <trkpt lat="-18.768111" lon="-47.102085">
        <ele>836.6</ele>
        <time>2019-04-10T13:39:14Z</time>
      </trkpt>
      <trkpt lat="-18.768125" lon="-47.102061">
        <ele>836.9</ele>
        <time>2019-04-10T13:39:17Z</time>
      </trkpt>
      <trkpt lat="-18.768155" lon="-47.102072">
        <ele>837.1</ele>
        <time>2019-04-10T13:39:22Z</time>
      </trkpt>
      <trkpt lat="-18.768124" lon="-47.10207">
        <ele>836.9</ele>
        <time>2019-04-10T13:39:27Z</time>
      </trkpt>
      <trkpt lat="-18.768105" lon="-47.102049">
        <ele>836.7</ele>
        <time>2019-04-10T13:39:30Z</time>
      </trkpt>
      <trkpt lat="-18.768091" lon="-47.10202">
        <ele>837.1</ele>
        <time>2019-04-10T13:39:34Z</time>
      </trkpt>
      <trkpt lat="-18.768125" lon="-47.102011">
        <ele>837.4</ele>
        <time>2019-04-10T13:39:36Z</time>
      </trkpt>
      <trkpt lat="-18.76815" lon="-47.102042">
        <ele>837.1</ele>
        <time>2019-04-10T13:39:42Z</time>
      </trkpt>
      <trkpt lat="-18.768297" lon="-47.102133">
        <ele>837</ele>
        <time>2019-04-10T13:40:55Z</time>
      </trkpt>
      <trkpt lat="-18.76829" lon="-47.102099">
        <ele>837.5</ele>
        <time>2019-04-10T13:41:00Z</time>
      </trkpt>
      <trkpt lat="-18.76831" lon="-47.10205">
        <ele>838.1</ele>
        <time>2019-04-10T13:42:29Z</time>
      </trkpt>
      <trkpt lat="-18.768324" lon="-47.102016">
        <ele>839.2</ele>
        <time>2019-04-10T13:42:31Z</time>
      </trkpt>
      <trkpt lat="-18.768331" lon="-47.101978">
        <ele>840</ele>
        <time>2019-04-10T13:42:37Z</time>
      </trkpt>
      <trkpt lat="-18.768318" lon="-47.101921">
        <ele>840.8</ele>
        <time>2019-04-10T13:42:39Z</time>
      </trkpt>
      <trkpt lat="-18.768306" lon="-47.101879">
        <ele>841.3</ele>
        <time>2019-04-10T13:42:41Z</time>
      </trkpt>
      <trkpt lat="-18.768304" lon="-47.101849">
        <ele>842.2</ele>
        <time>2019-04-10T13:42:45Z</time>
      </trkpt>
      <trkpt lat="-18.768312" lon="-47.101814">
        <ele>843.8</ele>
        <time>2019-04-10T13:42:49Z</time>
      </trkpt>
      <trkpt lat="-18.768297" lon="-47.101789">
        <ele>843.3</ele>
        <time>2019-04-10T13:42:52Z</time>
      </trkpt>
      <trkpt lat="-18.768269" lon="-47.101768">
        <ele>843.7</ele>
        <time>2019-04-10T13:42:54Z</time>
      </trkpt>
      <trkpt lat="-18.768269" lon="-47.101733">
        <ele>844.8</ele>
        <time>2019-04-10T13:43:04Z</time>
      </trkpt>
      <trkpt lat="-18.768297" lon="-47.10173">
        <ele>845.2</ele>
        <time>2019-04-10T13:43:10Z</time>
      </trkpt>
      <trkpt lat="-18.768261" lon="-47.10173">
        <ele>844.8</ele>
        <time>2019-04-10T13:43:13Z</time>
      </trkpt>
      <trkpt lat="-18.768218" lon="-47.101719">
        <ele>844.3</ele>
        <time>2019-04-10T13:43:16Z</time>
      </trkpt>
      <trkpt lat="-18.768181" lon="-47.101725">
        <ele>843.8</ele>
        <time>2019-04-10T13:43:21Z</time>
      </trkpt>
      <trkpt lat="-18.768157" lon="-47.101701">
        <ele>843.8</ele>
        <time>2019-04-10T13:43:27Z</time>
      </trkpt>
      <trkpt lat="-18.768146" lon="-47.101674">
        <ele>844.9</ele>
        <time>2019-04-10T13:43:29Z</time>
      </trkpt>
      <trkpt lat="-18.768124" lon="-47.101653">
        <ele>844.9</ele>
        <time>2019-04-10T13:43:32Z</time>
      </trkpt>
      <trkpt lat="-18.768107" lon="-47.101625">
        <ele>846</ele>
        <time>2019-04-10T13:43:34Z</time>
      </trkpt>
      <trkpt lat="-18.768068" lon="-47.101631">
        <ele>846</ele>
        <time>2019-04-10T13:43:45Z</time>
      </trkpt>
      <trkpt lat="-18.768042" lon="-47.101643">
        <ele>845.5</ele>
        <time>2019-04-10T13:43:49Z</time>
      </trkpt>
      <trkpt lat="-18.768006" lon="-47.101643">
        <ele>845</ele>
        <time>2019-04-10T13:46:03Z</time>
      </trkpt>
      <trkpt lat="-18.768031" lon="-47.10162">
        <ele>845.5</ele>
        <time>2019-04-10T13:46:06Z</time>
      </trkpt>
      <trkpt lat="-18.767991" lon="-47.101579">
        <ele>846.5</ele>
        <time>2019-04-10T13:46:27Z</time>
      </trkpt>
      <trkpt lat="-18.767982" lon="-47.101535">
        <ele>847.4</ele>
        <time>2019-04-10T13:46:29Z</time>
      </trkpt>
      <trkpt lat="-18.767961" lon="-47.101511">
        <ele>848.8</ele>
        <time>2019-04-10T13:46:31Z</time>
      </trkpt>
      <trkpt lat="-18.76794" lon="-47.101477">
        <ele>850.1</ele>
        <time>2019-04-10T13:46:33Z</time>
      </trkpt>
      <trkpt lat="-18.767927" lon="-47.101449">
        <ele>850.1</ele>
        <time>2019-04-10T13:46:35Z</time>
      </trkpt>
      <trkpt lat="-18.767903" lon="-47.10142">
        <ele>851.8</ele>
        <time>2019-04-10T13:46:39Z</time>
      </trkpt>
      <trkpt lat="-18.767884" lon="-47.10138">
        <ele>853.3</ele>
        <time>2019-04-10T13:46:43Z</time>
      </trkpt>
      <trkpt lat="-18.767865" lon="-47.101355">
        <ele>853.3</ele>
        <time>2019-04-10T13:46:48Z</time>
      </trkpt>
      <trkpt lat="-18.76787" lon="-47.101327">
        <ele>854.7</ele>
        <time>2019-04-10T13:46:52Z</time>
      </trkpt>
      <trkpt lat="-18.767848" lon="-47.101309">
        <ele>854.9</ele>
        <time>2019-04-10T13:46:59Z</time>
      </trkpt>
      <trkpt lat="-18.76783" lon="-47.101337">
        <ele>854.9</ele>
        <time>2019-04-10T13:47:04Z</time>
      </trkpt>
      <trkpt lat="-18.767853" lon="-47.101314">
        <ele>854.9</ele>
        <time>2019-04-10T13:47:21Z</time>
      </trkpt>
      <trkpt lat="-18.767877" lon="-47.101297">
        <ele>856.1</ele>
        <time>2019-04-10T13:47:27Z</time>
      </trkpt>
      <trkpt lat="-18.767884" lon="-47.101266">
        <ele>856.1</ele>
        <time>2019-04-10T13:47:30Z</time>
      </trkpt>
      <trkpt lat="-18.767892" lon="-47.101234">
        <ele>857.4</ele>
        <time>2019-04-10T13:47:33Z</time>
      </trkpt>
      <trkpt lat="-18.767878" lon="-47.101206">
        <ele>858.5</ele>
        <time>2019-04-10T13:47:36Z</time>
      </trkpt>
      <trkpt lat="-18.767877" lon="-47.101175">
        <ele>859.6</ele>
        <time>2019-04-10T13:47:41Z</time>
      </trkpt>
      <trkpt lat="-18.767846" lon="-47.101184">
        <ele>858.2</ele>
        <time>2019-04-10T13:47:46Z</time>
      </trkpt>
      <trkpt lat="-18.767824" lon="-47.101203">
        <ele>858.2</ele>
        <time>2019-04-10T13:47:51Z</time>
      </trkpt>
      <trkpt lat="-18.767792" lon="-47.101198">
        <ele>858</ele>
        <time>2019-04-10T13:47:55Z</time>
      </trkpt>
      <trkpt lat="-18.767789" lon="-47.101161">
        <ele>858.8</ele>
        <time>2019-04-10T13:48:22Z</time>
      </trkpt>
      <trkpt lat="-18.767819" lon="-47.101171">
        <ele>858.8</ele>
        <time>2019-04-10T13:48:37Z</time>
      </trkpt>
      <trkpt lat="-18.767843" lon="-47.101203">
        <ele>858.2</ele>
        <time>2019-04-10T13:49:27Z</time>
      </trkpt>
      <trkpt lat="-18.767843" lon="-47.101156">
        <ele>859.1</ele>
        <time>2019-04-10T13:49:29Z</time>
      </trkpt>
      <trkpt lat="-18.767862" lon="-47.101129">
        <ele>860</ele>
        <time>2019-04-10T13:49:31Z</time>
      </trkpt>
      <trkpt lat="-18.767894" lon="-47.101113">
        <ele>860.7</ele>
        <time>2019-04-10T13:49:33Z</time>
      </trkpt>
      <trkpt lat="-18.767923" lon="-47.101102">
        <ele>861.4</ele>
        <time>2019-04-10T13:49:35Z</time>
      </trkpt>
      <trkpt lat="-18.767956" lon="-47.101107">
        <ele>862</ele>
        <time>2019-04-10T13:49:41Z</time>
      </trkpt>
      <trkpt lat="-18.767974" lon="-47.101133">
        <ele>862</ele>
        <time>2019-04-10T13:49:43Z</time>
      </trkpt>
      <trkpt lat="-18.767989" lon="-47.101176">
        <ele>861.2</ele>
        <time>2019-04-10T13:49:50Z</time>
      </trkpt>
      <trkpt lat="-18.767955" lon="-47.101189">
        <ele>859.4</ele>
        <time>2019-04-10T13:50:00Z</time>
      </trkpt>
      <trkpt lat="-18.767876" lon="-47.101348">
        <ele>854.7</ele>
        <time>2019-04-10T13:52:07Z</time>
      </trkpt>
      <trkpt lat="-18.767898" lon="-47.101374">
        <ele>853.3</ele>
        <time>2019-04-10T13:52:15Z</time>
      </trkpt>
      <trkpt lat="-18.767903" lon="-47.101402">
        <ele>851.8</ele>
        <time>2019-04-10T13:52:20Z</time>
      </trkpt>
      <trkpt lat="-18.767916" lon="-47.101433">
        <ele>851.7</ele>
        <time>2019-04-10T13:52:29Z</time>
      </trkpt>
      <trkpt lat="-18.767871" lon="-47.101524">
        <ele>847.1</ele>
        <time>2019-04-10T13:52:58Z</time>
      </trkpt>
      <trkpt lat="-18.767886" lon="-47.10155">
        <ele>847.1</ele>
        <time>2019-04-10T13:53:03Z</time>
      </trkpt>
      <trkpt lat="-18.767912" lon="-47.101569">
        <ele>845.7</ele>
        <time>2019-04-10T13:53:06Z</time>
      </trkpt>
      <trkpt lat="-18.767928" lon="-47.101593">
        <ele>845.7</ele>
        <time>2019-04-10T13:53:10Z</time>
      </trkpt>
      <trkpt lat="-18.767937" lon="-47.10163">
        <ele>844.3</ele>
        <time>2019-04-10T13:53:13Z</time>
      </trkpt>
      <trkpt lat="-18.767907" lon="-47.10164">
        <ele>844.3</ele>
        <time>2019-04-10T13:53:29Z</time>
      </trkpt>
      <trkpt lat="-18.767897" lon="-47.101671">
        <ele>843.1</ele>
        <time>2019-04-10T13:53:33Z</time>
      </trkpt>
      <trkpt lat="-18.767934" lon="-47.101692">
        <ele>843.1</ele>
        <time>2019-04-10T13:53:40Z</time>
      </trkpt>
      <trkpt lat="-18.767972" lon="-47.101684">
        <ele>843.3</ele>
        <time>2019-04-10T13:53:42Z</time>
      </trkpt>
      <trkpt lat="-18.767999" lon="-47.101672">
        <ele>843.7</ele>
        <time>2019-04-10T13:53:44Z</time>
      </trkpt>
      <trkpt lat="-18.768015" lon="-47.101648">
        <ele>845</ele>
        <time>2019-04-10T13:53:46Z</time>
      </trkpt>
      <trkpt lat="-18.768039" lon="-47.101629">
        <ele>845.5</ele>
        <time>2019-04-10T13:53:55Z</time>
      </trkpt>
      <trkpt lat="-18.768042" lon="-47.101664">
        <ele>844.1</ele>
        <time>2019-04-10T13:54:03Z</time>
      </trkpt>
      <trkpt lat="-18.768059" lon="-47.101726">
        <ele>842.7</ele>
        <time>2019-04-10T13:54:21Z</time>
      </trkpt>
      <trkpt lat="-18.768083" lon="-47.10175">
        <ele>841.7</ele>
        <time>2019-04-10T13:54:38Z</time>
      </trkpt>
      <trkpt lat="-18.768105" lon="-47.101772">
        <ele>841.7</ele>
        <time>2019-04-10T13:54:41Z</time>
      </trkpt>
      <trkpt lat="-18.768131" lon="-47.101788">
        <ele>840.9</ele>
        <time>2019-04-10T13:54:49Z</time>
      </trkpt>
      <trkpt lat="-18.768162" lon="-47.101778">
        <ele>842.6</ele>
        <time>2019-04-10T13:55:02Z</time>
      </trkpt>
      <trkpt lat="-18.768223" lon="-47.10173">
        <ele>844.3</ele>
        <time>2019-04-10T13:55:07Z</time>
      </trkpt>
      <trkpt lat="-18.768348" lon="-47.101976">
        <ele>840</ele>
        <time>2019-04-10T13:56:14Z</time>
      </trkpt>
      <trkpt lat="-18.768375" lon="-47.101982">
        <ele>840.4</ele>
        <time>2019-04-10T13:56:20Z</time>
      </trkpt>
      <trkpt lat="-18.768424" lon="-47.101957">
        <ele>841</ele>
        <time>2019-04-10T13:56:43Z</time>
      </trkpt>
      <trkpt lat="-18.768436" lon="-47.101925">
        <ele>842.4</ele>
        <time>2019-04-10T13:56:48Z</time>
      </trkpt>
      <trkpt lat="-18.768452" lon="-47.101893">
        <ele>843.3</ele>
        <time>2019-04-10T13:56:52Z</time>
      </trkpt>
      <trkpt lat="-18.768499" lon="-47.101897">
        <ele>844.1</ele>
        <time>2019-04-10T13:57:03Z</time>
      </trkpt>
      <trkpt lat="-18.768528" lon="-47.101892">
        <ele>844.9</ele>
        <time>2019-04-10T13:57:05Z</time>
      </trkpt>
      <trkpt lat="-18.768557" lon="-47.101886">
        <ele>845.7</ele>
        <time>2019-04-10T13:57:08Z</time>
      </trkpt>
      <trkpt lat="-18.768585" lon="-47.101887">
        <ele>845.7</ele>
        <time>2019-04-10T13:57:12Z</time>
      </trkpt>
      <trkpt lat="-18.768622" lon="-47.101881">
        <ele>846.4</ele>
        <time>2019-04-10T13:57:35Z</time>
      </trkpt>
      <trkpt lat="-18.768661" lon="-47.10188">
        <ele>846.9</ele>
        <time>2019-04-10T13:57:38Z</time>
      </trkpt>
      <trkpt lat="-18.768699" lon="-47.101888">
        <ele>847.4</ele>
        <time>2019-04-10T13:57:40Z</time>
      </trkpt>
      <trkpt lat="-18.768732" lon="-47.101893">
        <ele>847.8</ele>
        <time>2019-04-10T13:57:42Z</time>
      </trkpt>
      <trkpt lat="-18.768775" lon="-47.101898">
        <ele>848.3</ele>
        <time>2019-04-10T13:57:44Z</time>
      </trkpt>
      <trkpt lat="-18.768833" lon="-47.101895">
        <ele>848.8</ele>
        <time>2019-04-10T13:57:46Z</time>
      </trkpt>
      <trkpt lat="-18.768861" lon="-47.101894">
        <ele>849.3</ele>
        <time>2019-04-10T13:57:47Z</time>
      </trkpt>
      <trkpt lat="-18.768912" lon="-47.101891">
        <ele>849.7</ele>
        <time>2019-04-10T13:57:49Z</time>
      </trkpt>
      <trkpt lat="-18.768955" lon="-47.10188">
        <ele>850.1</ele>
        <time>2019-04-10T13:57:51Z</time>
      </trkpt>
      <trkpt lat="-18.768999" lon="-47.101866">
        <ele>850.2</ele>
        <time>2019-04-10T13:57:53Z</time>
      </trkpt>
      <trkpt lat="-18.769042" lon="-47.101854">
        <ele>851</ele>
        <time>2019-04-10T13:57:55Z</time>
      </trkpt>
      <trkpt lat="-18.769099" lon="-47.101849">
        <ele>851</ele>
        <time>2019-04-10T13:57:57Z</time>
      </trkpt>
      <trkpt lat="-18.769133" lon="-47.101844">
        <ele>850.8</ele>
        <time>2019-04-10T13:57:58Z</time>
      </trkpt>
      <trkpt lat="-18.769171" lon="-47.101838">
        <ele>850.5</ele>
        <time>2019-04-10T13:57:59Z</time>
      </trkpt>
      <trkpt lat="-18.769204" lon="-47.101834">
        <ele>850.5</ele>
        <time>2019-04-10T13:58:00Z</time>
      </trkpt>
      <trkpt lat="-18.769236" lon="-47.101838">
        <ele>850.1</ele>
        <time>2019-04-10T13:58:01Z</time>
      </trkpt>
      <trkpt lat="-18.76927" lon="-47.10184">
        <ele>849.7</ele>
        <time>2019-04-10T13:58:02Z</time>
      </trkpt>
      <trkpt lat="-18.769306" lon="-47.101841">
        <ele>849.2</ele>
        <time>2019-04-10T13:58:03Z</time>
      </trkpt>
      <trkpt lat="-18.769345" lon="-47.101843">
        <ele>848.7</ele>
        <time>2019-04-10T13:58:04Z</time>
      </trkpt>
      <trkpt lat="-18.769381" lon="-47.101845">
        <ele>848.4</ele>
        <time>2019-04-10T13:58:05Z</time>
      </trkpt>
      <trkpt lat="-18.769414" lon="-47.101849">
        <ele>848.3</ele>
        <time>2019-04-10T13:58:06Z</time>
      </trkpt>
      <trkpt lat="-18.769444" lon="-47.101857">
        <ele>848.3</ele>
        <time>2019-04-10T13:58:07Z</time>
      </trkpt>
      <trkpt lat="-18.769477" lon="-47.101865">
        <ele>848</ele>
        <time>2019-04-10T13:58:08Z</time>
      </trkpt>
      <trkpt lat="-18.769512" lon="-47.101876">
        <ele>848.3</ele>
        <time>2019-04-10T13:58:09Z</time>
      </trkpt>
      <trkpt lat="-18.769545" lon="-47.101887">
        <ele>848.6</ele>
        <time>2019-04-10T13:58:10Z</time>
      </trkpt>
      <trkpt lat="-18.769587" lon="-47.101897">
        <ele>848.9</ele>
        <time>2019-04-10T13:58:11Z</time>
      </trkpt>
      <trkpt lat="-18.769632" lon="-47.10191">
        <ele>848.8</ele>
        <time>2019-04-10T13:58:12Z</time>
      </trkpt>
      <trkpt lat="-18.769674" lon="-47.101922">
        <ele>848.8</ele>
        <time>2019-04-10T13:58:13Z</time>
      </trkpt>
      <trkpt lat="-18.76972" lon="-47.10193">
        <ele>848.7</ele>
        <time>2019-04-10T13:58:14Z</time>
      </trkpt>
      <trkpt lat="-18.769766" lon="-47.10194">
        <ele>848.4</ele>
        <time>2019-04-10T13:58:15Z</time>
      </trkpt>
      <trkpt lat="-18.769815" lon="-47.101951">
        <ele>847</ele>
        <time>2019-04-10T13:58:16Z</time>
      </trkpt>
      <trkpt lat="-18.769868" lon="-47.101962">
        <ele>846.4</ele>
        <time>2019-04-10T13:58:17Z</time>
      </trkpt>
      <trkpt lat="-18.769923" lon="-47.101973">
        <ele>845.9</ele>
        <time>2019-04-10T13:58:18Z</time>
      </trkpt>
      <trkpt lat="-18.769977" lon="-47.101984">
        <ele>845.4</ele>
        <time>2019-04-10T13:58:19Z</time>
      </trkpt>
      <trkpt lat="-18.77003" lon="-47.101995">
        <ele>844.3</ele>
        <time>2019-04-10T13:58:20Z</time>
      </trkpt>
      <trkpt lat="-18.770075" lon="-47.10201">
        <ele>843.9</ele>
        <time>2019-04-10T13:58:21Z</time>
      </trkpt>
      <trkpt lat="-18.770121" lon="-47.102018">
        <ele>843.5</ele>
        <time>2019-04-10T13:58:22Z</time>
      </trkpt>
      <trkpt lat="-18.770166" lon="-47.102025">
        <ele>843.1</ele>
        <time>2019-04-10T13:58:23Z</time>
      </trkpt>
      <trkpt lat="-18.770211" lon="-47.10203">
        <ele>842.7</ele>
        <time>2019-04-10T13:58:24Z</time>
      </trkpt>
      <trkpt lat="-18.770255" lon="-47.102031">
        <ele>842.4</ele>
        <time>2019-04-10T13:58:25Z</time>
      </trkpt>
      <trkpt lat="-18.770294" lon="-47.102024">
        <ele>842.1</ele>
        <time>2019-04-10T13:58:26Z</time>
      </trkpt>
      <trkpt lat="-18.770334" lon="-47.10201">
        <ele>841.8</ele>
        <time>2019-04-10T13:58:27Z</time>
      </trkpt>
      <trkpt lat="-18.770377" lon="-47.101998">
        <ele>841.5</ele>
        <time>2019-04-10T13:58:28Z</time>
      </trkpt>
      <trkpt lat="-18.770411" lon="-47.101985">
        <ele>841.3</ele>
        <time>2019-04-10T13:58:29Z</time>
      </trkpt>
      <trkpt lat="-18.77045" lon="-47.101968">
        <ele>840.7</ele>
        <time>2019-04-10T13:58:30Z</time>
      </trkpt>
      <trkpt lat="-18.77049" lon="-47.101951">
        <ele>840.1</ele>
        <time>2019-04-10T13:58:31Z</time>
      </trkpt>
      <trkpt lat="-18.770534" lon="-47.101926">
        <ele>839.8</ele>
        <time>2019-04-10T13:58:32Z</time>
      </trkpt>
      <trkpt lat="-18.770573" lon="-47.101897">
        <ele>839.9</ele>
        <time>2019-04-10T13:58:33Z</time>
      </trkpt>
      <trkpt lat="-18.770604" lon="-47.101868">
        <ele>839.5</ele>
        <time>2019-04-10T13:58:34Z</time>
      </trkpt>
      <trkpt lat="-18.770637" lon="-47.10184">
        <ele>840</ele>
        <time>2019-04-10T13:58:35Z</time>
      </trkpt>
      <trkpt lat="-18.77067" lon="-47.101814">
        <ele>840.5</ele>
        <time>2019-04-10T13:58:36Z</time>
      </trkpt>
      <trkpt lat="-18.770698" lon="-47.10179">
        <ele>840.5</ele>
        <time>2019-04-10T13:58:37Z</time>
      </trkpt>
      <trkpt lat="-18.77072" lon="-47.101767">
        <ele>841.1</ele>
        <time>2019-04-10T13:58:38Z</time>
      </trkpt>
      <trkpt lat="-18.770755" lon="-47.101732">
        <ele>841.8</ele>
        <time>2019-04-10T13:58:40Z</time>
      </trkpt>
      <trkpt lat="-18.770776" lon="-47.10171">
        <ele>841.8</ele>
        <time>2019-04-10T13:58:41Z</time>
      </trkpt>
      <trkpt lat="-18.770797" lon="-47.101691">
        <ele>842.5</ele>
        <time>2019-04-10T13:58:42Z</time>
      </trkpt>
      <trkpt lat="-18.770814" lon="-47.101667">
        <ele>842.5</ele>
        <time>2019-04-10T13:58:43Z</time>
      </trkpt>
      <trkpt lat="-18.770846" lon="-47.101632">
        <ele>843.2</ele>
        <time>2019-04-10T13:58:45Z</time>
      </trkpt>
      <trkpt lat="-18.77086" lon="-47.101595">
        <ele>844.2</ele>
        <time>2019-04-10T13:58:47Z</time>
      </trkpt>
      <trkpt lat="-18.770873" lon="-47.101564">
        <ele>845.1</ele>
        <time>2019-04-10T13:58:49Z</time>
      </trkpt>
      <trkpt lat="-18.770897" lon="-47.101526">
        <ele>845.1</ele>
        <time>2019-04-10T13:58:52Z</time>
      </trkpt>
      <trkpt lat="-18.77091" lon="-47.101498">
        <ele>846.4</ele>
        <time>2019-04-10T13:58:54Z</time>
      </trkpt>
      <trkpt lat="-18.770931" lon="-47.101481">
        <ele>846.2</ele>
        <time>2019-04-10T13:58:56Z</time>
      </trkpt>
      <trkpt lat="-18.770896" lon="-47.1015">
        <ele>846.4</ele>
        <time>2019-04-10T13:59:04Z</time>
      </trkpt>
      <trkpt lat="-18.770923" lon="-47.101479">
        <ele>846.2</ele>
        <time>2019-04-10T13:59:14Z</time>
      </trkpt>
      <trkpt lat="-18.770937" lon="-47.101453">
        <ele>847.6</ele>
        <time>2019-04-10T13:59:23Z</time>
      </trkpt>
      <trkpt lat="-18.77095" lon="-47.101425">
        <ele>849</ele>
        <time>2019-04-10T13:59:33Z</time>
      </trkpt>
      <trkpt lat="-18.770957" lon="-47.101386">
        <ele>850.2</ele>
        <time>2019-04-10T13:59:36Z</time>
      </trkpt>
      <trkpt lat="-18.770963" lon="-47.101352">
        <ele>850.2</ele>
        <time>2019-04-10T13:59:38Z</time>
      </trkpt>
      <trkpt lat="-18.770988" lon="-47.101331">
        <ele>851.3</ele>
        <time>2019-04-10T13:59:40Z</time>
      </trkpt>
      <trkpt lat="-18.77102" lon="-47.101319">
        <ele>851.4</ele>
        <time>2019-04-10T13:59:43Z</time>
      </trkpt>
      <trkpt lat="-18.771052" lon="-47.101291">
        <ele>852.5</ele>
        <time>2019-04-10T13:59:46Z</time>
      </trkpt>
      <trkpt lat="-18.77109" lon="-47.101279">
        <ele>852.4</ele>
        <time>2019-04-10T13:59:49Z</time>
      </trkpt>
      <trkpt lat="-18.771099" lon="-47.101251">
        <ele>853.2</ele>
        <time>2019-04-10T13:59:55Z</time>
      </trkpt>
      <trkpt lat="-18.771105" lon="-47.10122">
        <ele>853.9</ele>
        <time>2019-04-10T13:59:57Z</time>
      </trkpt>
      <trkpt lat="-18.771114" lon="-47.101186">
        <ele>853.9</ele>
        <time>2019-04-10T14:00:00Z</time>
      </trkpt>
      <trkpt lat="-18.771131" lon="-47.101164">
        <ele>854.1</ele>
        <time>2019-04-10T14:00:02Z</time>
      </trkpt>
      <trkpt lat="-18.771154" lon="-47.101127">
        <ele>854.7</ele>
        <time>2019-04-10T14:00:04Z</time>
      </trkpt>
      <trkpt lat="-18.77117" lon="-47.101096">
        <ele>854.6</ele>
        <time>2019-04-10T14:00:06Z</time>
      </trkpt>
      <trkpt lat="-18.771182" lon="-47.101069">
        <ele>855.3</ele>
        <time>2019-04-10T14:00:09Z</time>
      </trkpt>
      <trkpt lat="-18.771209" lon="-47.101043">
        <ele>856</ele>
        <time>2019-04-10T14:00:12Z</time>
      </trkpt>
      <trkpt lat="-18.771234" lon="-47.10101">
        <ele>856</ele>
        <time>2019-04-10T14:00:14Z</time>
      </trkpt>
      <trkpt lat="-18.77125" lon="-47.100976">
        <ele>856.7</ele>
        <time>2019-04-10T14:00:16Z</time>
      </trkpt>
      <trkpt lat="-18.771266" lon="-47.100936">
        <ele>857.4</ele>
        <time>2019-04-10T14:00:18Z</time>
      </trkpt>
      <trkpt lat="-18.771278" lon="-47.100909">
        <ele>858.2</ele>
        <time>2019-04-10T14:00:19Z</time>
      </trkpt>
      <trkpt lat="-18.771287" lon="-47.10087">
        <ele>858.8</ele>
        <time>2019-04-10T14:00:21Z</time>
      </trkpt>
      <trkpt lat="-18.771291" lon="-47.100823">
        <ele>859.2</ele>
        <time>2019-04-10T14:00:23Z</time>
      </trkpt>
      <trkpt lat="-18.771286" lon="-47.100775">
        <ele>859.5</ele>
        <time>2019-04-10T14:00:25Z</time>
      </trkpt>
      <trkpt lat="-18.771285" lon="-47.100725">
        <ele>859.7</ele>
        <time>2019-04-10T14:00:27Z</time>
      </trkpt>
      <trkpt lat="-18.771268" lon="-47.100676">
        <ele>860</ele>
        <time>2019-04-10T14:00:29Z</time>
      </trkpt>
      <trkpt lat="-18.771258" lon="-47.10065">
        <ele>860.3</ele>
        <time>2019-04-10T14:00:30Z</time>
      </trkpt>
      <trkpt lat="-18.771236" lon="-47.100611">
        <ele>860.6</ele>
        <time>2019-04-10T14:00:32Z</time>
      </trkpt>
      <trkpt lat="-18.771218" lon="-47.100566">
        <ele>860.8</ele>
        <time>2019-04-10T14:00:34Z</time>
      </trkpt>
      <trkpt lat="-18.771215" lon="-47.100514">
        <ele>860.9</ele>
        <time>2019-04-10T14:00:36Z</time>
      </trkpt>
      <trkpt lat="-18.771216" lon="-47.100461">
        <ele>861.1</ele>
        <time>2019-04-10T14:00:38Z</time>
      </trkpt>
      <trkpt lat="-18.771212" lon="-47.100408">
        <ele>861.3</ele>
        <time>2019-04-10T14:00:40Z</time>
      </trkpt>
      <trkpt lat="-18.771217" lon="-47.100362">
        <ele>862</ele>
        <time>2019-04-10T14:00:42Z</time>
      </trkpt>
      <trkpt lat="-18.771213" lon="-47.100333">
        <ele>862</ele>
        <time>2019-04-10T14:00:43Z</time>
      </trkpt>
      <trkpt lat="-18.771224" lon="-47.100291">
        <ele>862.5</ele>
        <time>2019-04-10T14:00:45Z</time>
      </trkpt>
      <trkpt lat="-18.771228" lon="-47.100255">
        <ele>863.1</ele>
        <time>2019-04-10T14:00:47Z</time>
      </trkpt>
      <trkpt lat="-18.771228" lon="-47.100204">
        <ele>863.6</ele>
        <time>2019-04-10T14:00:49Z</time>
      </trkpt>
      <trkpt lat="-18.771233" lon="-47.100165">
        <ele>864</ele>
        <time>2019-04-10T14:00:51Z</time>
      </trkpt>
      <trkpt lat="-18.771238" lon="-47.100125">
        <ele>864.4</ele>
        <time>2019-04-10T14:00:53Z</time>
      </trkpt>
      <trkpt lat="-18.77125" lon="-47.100076">
        <ele>864.6</ele>
        <time>2019-04-10T14:00:55Z</time>
      </trkpt>
      <trkpt lat="-18.771259" lon="-47.100039">
        <ele>864.7</ele>
        <time>2019-04-10T14:00:57Z</time>
      </trkpt>
      <trkpt lat="-18.771258" lon="-47.100001">
        <ele>864.9</ele>
        <time>2019-04-10T14:00:59Z</time>
      </trkpt>
      <trkpt lat="-18.77125" lon="-47.099966">
        <ele>865.1</ele>
        <time>2019-04-10T14:01:01Z</time>
      </trkpt>
      <trkpt lat="-18.771255" lon="-47.099922">
        <ele>865.4</ele>
        <time>2019-04-10T14:01:03Z</time>
      </trkpt>
      <trkpt lat="-18.771256" lon="-47.099876">
        <ele>865.7</ele>
        <time>2019-04-10T14:01:05Z</time>
      </trkpt>
      <trkpt lat="-18.771259" lon="-47.099828">
        <ele>865.9</ele>
        <time>2019-04-10T14:01:07Z</time>
      </trkpt>
      <trkpt lat="-18.771261" lon="-47.099776">
        <ele>866</ele>
        <time>2019-04-10T14:01:09Z</time>
      </trkpt>
      <trkpt lat="-18.771259" lon="-47.099734">
        <ele>866.2</ele>
        <time>2019-04-10T14:01:11Z</time>
      </trkpt>
      <trkpt lat="-18.771269" lon="-47.099684">
        <ele>866.3</ele>
        <time>2019-04-10T14:01:13Z</time>
      </trkpt>
      <trkpt lat="-18.771271" lon="-47.099638">
        <ele>866.4</ele>
        <time>2019-04-10T14:01:15Z</time>
      </trkpt>
      <trkpt lat="-18.771278" lon="-47.099593">
        <ele>866.2</ele>
        <time>2019-04-10T14:01:17Z</time>
      </trkpt>
      <trkpt lat="-18.77129" lon="-47.099549">
        <ele>866.5</ele>
        <time>2019-04-10T14:01:19Z</time>
      </trkpt>
      <trkpt lat="-18.771318" lon="-47.09952">
        <ele>866.7</ele>
        <time>2019-04-10T14:01:21Z</time>
      </trkpt>
      <trkpt lat="-18.771332" lon="-47.099488">
        <ele>866.8</ele>
        <time>2019-04-10T14:01:23Z</time>
      </trkpt>
      <trkpt lat="-18.77136" lon="-47.099444">
        <ele>866.9</ele>
        <time>2019-04-10T14:01:25Z</time>
      </trkpt>
      <trkpt lat="-18.771378" lon="-47.099401">
        <ele>867.1</ele>
        <time>2019-04-10T14:01:27Z</time>
      </trkpt>
      <trkpt lat="-18.771403" lon="-47.09936">
        <ele>867.2</ele>
        <time>2019-04-10T14:01:29Z</time>
      </trkpt>
      <trkpt lat="-18.771431" lon="-47.099327">
        <ele>867.4</ele>
        <time>2019-04-10T14:01:30Z</time>
      </trkpt>
      <trkpt lat="-18.771463" lon="-47.099296">
        <ele>867.2</ele>
        <time>2019-04-10T14:01:31Z</time>
      </trkpt>
      <trkpt lat="-18.771487" lon="-47.099267">
        <ele>867.1</ele>
        <time>2019-04-10T14:01:32Z</time>
      </trkpt>
      <trkpt lat="-18.771517" lon="-47.099235">
        <ele>867.4</ele>
        <time>2019-04-10T14:01:33Z</time>
      </trkpt>
      <trkpt lat="-18.771551" lon="-47.099198">
        <ele>867.1</ele>
        <time>2019-04-10T14:01:34Z</time>
      </trkpt>
      <trkpt lat="-18.771588" lon="-47.099162">
        <ele>866.4</ele>
        <time>2019-04-10T14:01:35Z</time>
      </trkpt>
      <trkpt lat="-18.771624" lon="-47.099133">
        <ele>865.8</ele>
        <time>2019-04-10T14:01:36Z</time>
      </trkpt>
      <trkpt lat="-18.771659" lon="-47.099105">
        <ele>865</ele>
        <time>2019-04-10T14:01:37Z</time>
      </trkpt>
      <trkpt lat="-18.771686" lon="-47.099076">
        <ele>864</ele>
        <time>2019-04-10T14:01:38Z</time>
      </trkpt>
      <trkpt lat="-18.771715" lon="-47.099048">
        <ele>864</ele>
        <time>2019-04-10T14:01:39Z</time>
      </trkpt>
      <trkpt lat="-18.771749" lon="-47.099012">
        <ele>862.9</ele>
        <time>2019-04-10T14:01:40Z</time>
      </trkpt>
      <trkpt lat="-18.771772" lon="-47.098981">
        <ele>861.9</ele>
        <time>2019-04-10T14:01:41Z</time>
      </trkpt>
      <trkpt lat="-18.771796" lon="-47.098954">
        <ele>861.9</ele>
        <time>2019-04-10T14:01:42Z</time>
      </trkpt>
      <trkpt lat="-18.771825" lon="-47.098916">
        <ele>860.9</ele>
        <time>2019-04-10T14:01:43Z</time>
      </trkpt>
      <trkpt lat="-18.771852" lon="-47.098876">
        <ele>860</ele>
        <time>2019-04-10T14:01:44Z</time>
      </trkpt>
      <trkpt lat="-18.771883" lon="-47.098835">
        <ele>860</ele>
        <time>2019-04-10T14:01:45Z</time>
      </trkpt>
      <trkpt lat="-18.771912" lon="-47.098795">
        <ele>859.3</ele>
        <time>2019-04-10T14:01:46Z</time>
      </trkpt>
      <trkpt lat="-18.771934" lon="-47.098755">
        <ele>858.9</ele>
        <time>2019-04-10T14:01:47Z</time>
      </trkpt>
      <trkpt lat="-18.771952" lon="-47.098704">
        <ele>859.3</ele>
        <time>2019-04-10T14:01:48Z</time>
      </trkpt>
      <trkpt lat="-18.771966" lon="-47.098655">
        <ele>859.9</ele>
        <time>2019-04-10T14:01:49Z</time>
      </trkpt>
      <trkpt lat="-18.77199" lon="-47.098604">
        <ele>860</ele>
        <time>2019-04-10T14:01:50Z</time>
      </trkpt>
      <trkpt lat="-18.772012" lon="-47.098554">
        <ele>860.9</ele>
        <time>2019-04-10T14:01:51Z</time>
      </trkpt>
      <trkpt lat="-18.772031" lon="-47.098507">
        <ele>861.7</ele>
        <time>2019-04-10T14:01:52Z</time>
      </trkpt>
      <trkpt lat="-18.772051" lon="-47.098462">
        <ele>862.4</ele>
        <time>2019-04-10T14:01:53Z</time>
      </trkpt>
      <trkpt lat="-18.772073" lon="-47.098411">
        <ele>863.4</ele>
        <time>2019-04-10T14:01:54Z</time>
      </trkpt>
      <trkpt lat="-18.772091" lon="-47.098356">
        <ele>864.8</ele>
        <time>2019-04-10T14:01:55Z</time>
      </trkpt>
      <trkpt lat="-18.7721" lon="-47.098305">
        <ele>865.8</ele>
        <time>2019-04-10T14:01:56Z</time>
      </trkpt>
      <trkpt lat="-18.77211" lon="-47.098257">
        <ele>867.4</ele>
        <time>2019-04-10T14:01:57Z</time>
      </trkpt>
      <trkpt lat="-18.772117" lon="-47.098217">
        <ele>868</ele>
        <time>2019-04-10T14:01:58Z</time>
      </trkpt>
      <trkpt lat="-18.77212" lon="-47.098184">
        <ele>868</ele>
        <time>2019-04-10T14:01:59Z</time>
      </trkpt>
      <trkpt lat="-18.772124" lon="-47.098155">
        <ele>868.4</ele>
        <time>2019-04-10T14:02:00Z</time>
      </trkpt>
      <trkpt lat="-18.772128" lon="-47.098115">
        <ele>868.6</ele>
        <time>2019-04-10T14:02:02Z</time>
      </trkpt>
      <trkpt lat="-18.772164" lon="-47.098073">
        <ele>867.9</ele>
        <time>2019-04-10T14:02:04Z</time>
      </trkpt>
      <trkpt lat="-18.77218" lon="-47.098034">
        <ele>867.2</ele>
        <time>2019-04-10T14:02:06Z</time>
      </trkpt>
      <trkpt lat="-18.772193" lon="-47.097998">
        <ele>867.2</ele>
        <time>2019-04-10T14:02:08Z</time>
      </trkpt>
      <trkpt lat="-18.772218" lon="-47.097956">
        <ele>867</ele>
        <time>2019-04-10T14:02:10Z</time>
      </trkpt>
      <trkpt lat="-18.772237" lon="-47.097935">
        <ele>867</ele>
        <time>2019-04-10T14:02:11Z</time>
      </trkpt>
      <trkpt lat="-18.77226" lon="-47.097913">
        <ele>867</ele>
        <time>2019-04-10T14:02:12Z</time>
      </trkpt>
      <trkpt lat="-18.772295" lon="-47.097856">
        <ele>866.8</ele>
        <time>2019-04-10T14:02:14Z</time>
      </trkpt>
      <trkpt lat="-18.772313" lon="-47.097824">
        <ele>866.9</ele>
        <time>2019-04-10T14:02:15Z</time>
      </trkpt>
      <trkpt lat="-18.772322" lon="-47.097792">
        <ele>866.9</ele>
        <time>2019-04-10T14:02:16Z</time>
      </trkpt>
      <trkpt lat="-18.772329" lon="-47.097764">
        <ele>866.7</ele>
        <time>2019-04-10T14:02:17Z</time>
      </trkpt>
      <trkpt lat="-18.772339" lon="-47.097736">
        <ele>866</ele>
        <time>2019-04-10T14:02:18Z</time>
      </trkpt>
      <trkpt lat="-18.77235" lon="-47.097703">
        <ele>866</ele>
        <time>2019-04-10T14:02:19Z</time>
      </trkpt>
      <trkpt lat="-18.772351" lon="-47.097673">
        <ele>865.7</ele>
        <time>2019-04-10T14:02:20Z</time>
      </trkpt>
      <trkpt lat="-18.772355" lon="-47.097628">
        <ele>865.5</ele>
        <time>2019-04-10T14:02:22Z</time>
      </trkpt>
      <trkpt lat="-18.772356" lon="-47.097567">
        <ele>865.7</ele>
        <time>2019-04-10T14:02:24Z</time>
      </trkpt>
      <trkpt lat="-18.772351" lon="-47.097534">
        <ele>865.7</ele>
        <time>2019-04-10T14:02:25Z</time>
      </trkpt>
      <trkpt lat="-18.772356" lon="-47.097498">
        <ele>865.9</ele>
        <time>2019-04-10T14:02:26Z</time>
      </trkpt>
      <trkpt lat="-18.772362" lon="-47.097462">
        <ele>866.3</ele>
        <time>2019-04-10T14:02:27Z</time>
      </trkpt>
      <trkpt lat="-18.772365" lon="-47.097428">
        <ele>866.6</ele>
        <time>2019-04-10T14:02:28Z</time>
      </trkpt>
      <trkpt lat="-18.772368" lon="-47.097389">
        <ele>867</ele>
        <time>2019-04-10T14:02:29Z</time>
      </trkpt>
      <trkpt lat="-18.772374" lon="-47.097352">
        <ele>867.4</ele>
        <time>2019-04-10T14:02:30Z</time>
      </trkpt>
      <trkpt lat="-18.77238" lon="-47.097322">
        <ele>866.6</ele>
        <time>2019-04-10T14:02:31Z</time>
      </trkpt>
      <trkpt lat="-18.772389" lon="-47.097293">
        <ele>867.1</ele>
        <time>2019-04-10T14:02:32Z</time>
      </trkpt>
      <trkpt lat="-18.772394" lon="-47.097262">
        <ele>867.8</ele>
        <time>2019-04-10T14:02:33Z</time>
      </trkpt>
      <trkpt lat="-18.772397" lon="-47.097228">
        <ele>868.8</ele>
        <time>2019-04-10T14:02:34Z</time>
      </trkpt>
      <trkpt lat="-18.772408" lon="-47.097197">
        <ele>868.8</ele>
        <time>2019-04-10T14:02:35Z</time>
      </trkpt>
      <trkpt lat="-18.772426" lon="-47.09717">
        <ele>869.4</ele>
        <time>2019-04-10T14:02:36Z</time>
      </trkpt>
      <trkpt lat="-18.772431" lon="-47.097141">
        <ele>870.9</ele>
        <time>2019-04-10T14:02:37Z</time>
      </trkpt>
      <trkpt lat="-18.772439" lon="-47.097097">
        <ele>872.6</ele>
        <time>2019-04-10T14:02:39Z</time>
      </trkpt>
      <trkpt lat="-18.772439" lon="-47.097054">
        <ele>874.4</ele>
        <time>2019-04-10T14:02:42Z</time>
      </trkpt>
      <trkpt lat="-18.772456" lon="-47.097008">
        <ele>875.8</ele>
        <time>2019-04-10T14:02:44Z</time>
      </trkpt>
      <trkpt lat="-18.772465" lon="-47.096967">
        <ele>877.4</ele>
        <time>2019-04-10T14:02:46Z</time>
      </trkpt>
      <trkpt lat="-18.772487" lon="-47.09693">
        <ele>877.4</ele>
        <time>2019-04-10T14:02:48Z</time>
      </trkpt>
      <trkpt lat="-18.772528" lon="-47.096925">
        <ele>878.3</ele>
        <time>2019-04-10T14:02:50Z</time>
      </trkpt>
      <trkpt lat="-18.772567" lon="-47.096914">
        <ele>877.6</ele>
        <time>2019-04-10T14:02:52Z</time>
      </trkpt>
      <trkpt lat="-18.772609" lon="-47.0969">
        <ele>876.9</ele>
        <time>2019-04-10T14:02:54Z</time>
      </trkpt>
      <trkpt lat="-18.772659" lon="-47.096889">
        <ele>876</ele>
        <time>2019-04-10T14:02:56Z</time>
      </trkpt>
      <trkpt lat="-18.772712" lon="-47.096876">
        <ele>875.3</ele>
        <time>2019-04-10T14:02:58Z</time>
      </trkpt>
      <trkpt lat="-18.77274" lon="-47.09687">
        <ele>875.3</ele>
        <time>2019-04-10T14:02:59Z</time>
      </trkpt>
      <trkpt lat="-18.772768" lon="-47.096865">
        <ele>874.2</ele>
        <time>2019-04-10T14:03:00Z</time>
      </trkpt>
      <trkpt lat="-18.772822" lon="-47.096851">
        <ele>872.2</ele>
        <time>2019-04-10T14:03:02Z</time>
      </trkpt>
      <trkpt lat="-18.772851" lon="-47.09684">
        <ele>873.4</ele>
        <time>2019-04-10T14:03:03Z</time>
      </trkpt>
      <trkpt lat="-18.772886" lon="-47.096825">
        <ele>872.5</ele>
        <time>2019-04-10T14:03:04Z</time>
      </trkpt>
      <trkpt lat="-18.772918" lon="-47.096805">
        <ele>871.7</ele>
        <time>2019-04-10T14:03:05Z</time>
      </trkpt>
      <trkpt lat="-18.772948" lon="-47.096777">
        <ele>871.8</ele>
        <time>2019-04-10T14:03:06Z</time>
      </trkpt>
      <trkpt lat="-18.772975" lon="-47.096749">
        <ele>872.5</ele>
        <time>2019-04-10T14:03:07Z</time>
      </trkpt>
      <trkpt lat="-18.773001" lon="-47.096721">
        <ele>871.6</ele>
        <time>2019-04-10T14:03:08Z</time>
      </trkpt>
      <trkpt lat="-18.773032" lon="-47.096694">
        <ele>871.5</ele>
        <time>2019-04-10T14:03:09Z</time>
      </trkpt>
      <trkpt lat="-18.773069" lon="-47.096659">
        <ele>871.5</ele>
        <time>2019-04-10T14:03:10Z</time>
      </trkpt>
      <trkpt lat="-18.773105" lon="-47.096625">
        <ele>872.2</ele>
        <time>2019-04-10T14:03:11Z</time>
      </trkpt>
      <trkpt lat="-18.77314" lon="-47.096596">
        <ele>871.7</ele>
        <time>2019-04-10T14:03:12Z</time>
      </trkpt>
      <trkpt lat="-18.773168" lon="-47.09657">
        <ele>871.9</ele>
        <time>2019-04-10T14:03:13Z</time>
      </trkpt>
      <trkpt lat="-18.773202" lon="-47.096546">
        <ele>871.5</ele>
        <time>2019-04-10T14:03:14Z</time>
      </trkpt>
      <trkpt lat="-18.773231" lon="-47.096517">
        <ele>871.7</ele>
        <time>2019-04-10T14:03:15Z</time>
      </trkpt>
      <trkpt lat="-18.773261" lon="-47.096495">
        <ele>872.3</ele>
        <time>2019-04-10T14:03:16Z</time>
      </trkpt>
      <trkpt lat="-18.773293" lon="-47.096478">
        <ele>872</ele>
        <time>2019-04-10T14:03:17Z</time>
      </trkpt>
      <trkpt lat="-18.773317" lon="-47.096457">
        <ele>872.4</ele>
        <time>2019-04-10T14:03:18Z</time>
      </trkpt>
      <trkpt lat="-18.773339" lon="-47.096438">
        <ele>872.4</ele>
        <time>2019-04-10T14:03:19Z</time>
      </trkpt>
      <trkpt lat="-18.773367" lon="-47.096429">
        <ele>872.2</ele>
        <time>2019-04-10T14:03:20Z</time>
      </trkpt>
      <trkpt lat="-18.773421" lon="-47.096409">
        <ele>873</ele>
        <time>2019-04-10T14:03:22Z</time>
      </trkpt>
      <trkpt lat="-18.773462" lon="-47.096383">
        <ele>873.2</ele>
        <time>2019-04-10T14:03:24Z</time>
      </trkpt>
      <trkpt lat="-18.773501" lon="-47.096359">
        <ele>874.5</ele>
        <time>2019-04-10T14:03:26Z</time>
      </trkpt>
      <trkpt lat="-18.773533" lon="-47.096347">
        <ele>874.8</ele>
        <time>2019-04-10T14:03:28Z</time>
      </trkpt>
      <trkpt lat="-18.773583" lon="-47.096319">
        <ele>876.1</ele>
        <time>2019-04-10T14:03:30Z</time>
      </trkpt>
      <trkpt lat="-18.773608" lon="-47.096307">
        <ele>876.4</ele>
        <time>2019-04-10T14:03:31Z</time>
      </trkpt>
      <trkpt lat="-18.773646" lon="-47.096274">
        <ele>877.6</ele>
        <time>2019-04-10T14:03:33Z</time>
      </trkpt>
      <trkpt lat="-18.773679" lon="-47.096231">
        <ele>878.7</ele>
        <time>2019-04-10T14:03:35Z</time>
      </trkpt>
      <trkpt lat="-18.773694" lon="-47.096207">
        <ele>878.7</ele>
        <time>2019-04-10T14:03:36Z</time>
      </trkpt>
      <trkpt lat="-18.773727" lon="-47.096165">
        <ele>879.6</ele>
        <time>2019-04-10T14:03:38Z</time>
      </trkpt>
      <trkpt lat="-18.773749" lon="-47.096141">
        <ele>880.4</ele>
        <time>2019-04-10T14:03:39Z</time>
      </trkpt>
      <trkpt lat="-18.77377" lon="-47.096118">
        <ele>880.1</ele>
        <time>2019-04-10T14:03:40Z</time>
      </trkpt>
      <trkpt lat="-18.773808" lon="-47.096081">
        <ele>880.2</ele>
        <time>2019-04-10T14:03:42Z</time>
      </trkpt>
      <trkpt lat="-18.773855" lon="-47.096062">
        <ele>880.1</ele>
        <time>2019-04-10T14:03:44Z</time>
      </trkpt>
      <trkpt lat="-18.773888" lon="-47.096052">
        <ele>879.6</ele>
        <time>2019-04-10T14:03:45Z</time>
      </trkpt>
      <trkpt lat="-18.773917" lon="-47.096039">
        <ele>879.6</ele>
        <time>2019-04-10T14:03:46Z</time>
      </trkpt>
      <trkpt lat="-18.773946" lon="-47.096023">
        <ele>879.6</ele>
        <time>2019-04-10T14:03:47Z</time>
      </trkpt>
      <trkpt lat="-18.773971" lon="-47.096007">
        <ele>879.1</ele>
        <time>2019-04-10T14:03:48Z</time>
      </trkpt>
      <trkpt lat="-18.774011" lon="-47.095968">
        <ele>879.2</ele>
        <time>2019-04-10T14:03:50Z</time>
      </trkpt>
      <trkpt lat="-18.774033" lon="-47.095947">
        <ele>879.2</ele>
        <time>2019-04-10T14:03:51Z</time>
      </trkpt>
      <trkpt lat="-18.774061" lon="-47.095917">
        <ele>879.2</ele>
        <time>2019-04-10T14:03:53Z</time>
      </trkpt>
      <trkpt lat="-18.774082" lon="-47.095894">
        <ele>879</ele>
        <time>2019-04-10T14:03:55Z</time>
      </trkpt>
      <trkpt lat="-18.774112" lon="-47.09586">
        <ele>879</ele>
        <time>2019-04-10T14:03:57Z</time>
      </trkpt>
      <trkpt lat="-18.774134" lon="-47.095843">
        <ele>879</ele>
        <time>2019-04-10T14:03:58Z</time>
      </trkpt>
      <trkpt lat="-18.774157" lon="-47.095827">
        <ele>879</ele>
        <time>2019-04-10T14:03:59Z</time>
      </trkpt>
      <trkpt lat="-18.774182" lon="-47.095811">
        <ele>879.3</ele>
        <time>2019-04-10T14:04:00Z</time>
      </trkpt>
      <trkpt lat="-18.774222" lon="-47.095779">
        <ele>879.5</ele>
        <time>2019-04-10T14:04:02Z</time>
      </trkpt>
      <trkpt lat="-18.774249" lon="-47.095761">
        <ele>880.4</ele>
        <time>2019-04-10T14:04:03Z</time>
      </trkpt>
      <trkpt lat="-18.774288" lon="-47.095734">
        <ele>880.9</ele>
        <time>2019-04-10T14:04:05Z</time>
      </trkpt>
      <trkpt lat="-18.774324" lon="-47.095706">
        <ele>881.3</ele>
        <time>2019-04-10T14:04:07Z</time>
      </trkpt>
      <trkpt lat="-18.774374" lon="-47.095679">
        <ele>882.6</ele>
        <time>2019-04-10T14:04:09Z</time>
      </trkpt>
      <trkpt lat="-18.774399" lon="-47.095662">
        <ele>882.6</ele>
        <time>2019-04-10T14:04:10Z</time>
      </trkpt>
      <trkpt lat="-18.774434" lon="-47.095641">
        <ele>883.2</ele>
        <time>2019-04-10T14:04:12Z</time>
      </trkpt>
      <trkpt lat="-18.774481" lon="-47.095619">
        <ele>883.5</ele>
        <time>2019-04-10T14:04:14Z</time>
      </trkpt>
      <trkpt lat="-18.774528" lon="-47.095613">
        <ele>883.8</ele>
        <time>2019-04-10T14:04:16Z</time>
      </trkpt>
      <trkpt lat="-18.774574" lon="-47.095613">
        <ele>884.3</ele>
        <time>2019-04-10T14:04:18Z</time>
      </trkpt>
      <trkpt lat="-18.774604" lon="-47.095618">
        <ele>884.3</ele>
        <time>2019-04-10T14:04:19Z</time>
      </trkpt>
      <trkpt lat="-18.774634" lon="-47.095624">
        <ele>884.4</ele>
        <time>2019-04-10T14:04:20Z</time>
      </trkpt>
      <trkpt lat="-18.774683" lon="-47.095632">
        <ele>884.4</ele>
        <time>2019-04-10T14:04:22Z</time>
      </trkpt>
      <trkpt lat="-18.774729" lon="-47.095637">
        <ele>884.4</ele>
        <time>2019-04-10T14:04:24Z</time>
      </trkpt>
      <trkpt lat="-18.774769" lon="-47.095637">
        <ele>884.3</ele>
        <time>2019-04-10T14:04:26Z</time>
      </trkpt>
      <trkpt lat="-18.774817" lon="-47.095661">
        <ele>884</ele>
        <time>2019-04-10T14:04:29Z</time>
      </trkpt>
      <trkpt lat="-18.77485" lon="-47.095683">
        <ele>884</ele>
        <time>2019-04-10T14:04:30Z</time>
      </trkpt>
      <trkpt lat="-18.774885" lon="-47.095707">
        <ele>883.8</ele>
        <time>2019-04-10T14:04:31Z</time>
      </trkpt>
      <trkpt lat="-18.774913" lon="-47.095738">
        <ele>883.7</ele>
        <time>2019-04-10T14:04:32Z</time>
      </trkpt>
      <trkpt lat="-18.774933" lon="-47.095763">
        <ele>883.7</ele>
        <time>2019-04-10T14:04:33Z</time>
      </trkpt>
      <trkpt lat="-18.774975" lon="-47.095795">
        <ele>883.7</ele>
        <time>2019-04-10T14:04:35Z</time>
      </trkpt>
      <trkpt lat="-18.775008" lon="-47.095808">
        <ele>883.6</ele>
        <time>2019-04-10T14:04:36Z</time>
      </trkpt>
      <trkpt lat="-18.775042" lon="-47.095832">
        <ele>883.6</ele>
        <time>2019-04-10T14:04:37Z</time>
      </trkpt>
      <trkpt lat="-18.775076" lon="-47.095856">
        <ele>883.7</ele>
        <time>2019-04-10T14:04:38Z</time>
      </trkpt>
      <trkpt lat="-18.775104" lon="-47.095874">
        <ele>883.9</ele>
        <time>2019-04-10T14:04:39Z</time>
      </trkpt>
      <trkpt lat="-18.775127" lon="-47.095893">
        <ele>883.9</ele>
        <time>2019-04-10T14:04:40Z</time>
      </trkpt>
      <trkpt lat="-18.775149" lon="-47.09591">
        <ele>884</ele>
        <time>2019-04-10T14:04:41Z</time>
      </trkpt>
      <trkpt lat="-18.775172" lon="-47.095956">
        <ele>883.7</ele>
        <time>2019-04-10T14:04:43Z</time>
      </trkpt>
      <trkpt lat="-18.77519" lon="-47.095998">
        <ele>883.4</ele>
        <time>2019-04-10T14:04:45Z</time>
      </trkpt>
      <trkpt lat="-18.77521" lon="-47.096032">
        <ele>882.9</ele>
        <time>2019-04-10T14:04:47Z</time>
      </trkpt>
      <trkpt lat="-18.775253" lon="-47.095925">
        <ele>884.5</ele>
        <time>2019-04-10T14:05:22Z</time>
      </trkpt>
      <trkpt lat="-18.775251" lon="-47.095961">
        <ele>884.1</ele>
        <time>2019-04-10T14:05:24Z</time>
      </trkpt>
      <trkpt lat="-18.77524" lon="-47.095992">
        <ele>883.5</ele>
        <time>2019-04-10T14:05:26Z</time>
      </trkpt>
      <trkpt lat="-18.77527" lon="-47.096018">
        <ele>883.7</ele>
        <time>2019-04-10T14:05:32Z</time>
      </trkpt>
      <trkpt lat="-18.775285" lon="-47.096045">
        <ele>883.2</ele>
        <time>2019-04-10T14:05:36Z</time>
      </trkpt>
      <trkpt lat="-18.775309" lon="-47.096059">
        <ele>883.5</ele>
        <time>2019-04-10T14:05:42Z</time>
      </trkpt>
      <trkpt lat="-18.775333" lon="-47.096116">
        <ele>882.5</ele>
        <time>2019-04-10T14:05:44Z</time>
      </trkpt>
      <trkpt lat="-18.775334" lon="-47.096146">
        <ele>882.5</ele>
        <time>2019-04-10T14:05:45Z</time>
      </trkpt>
      <trkpt lat="-18.77534" lon="-47.096182">
        <ele>882.2</ele>
        <time>2019-04-10T14:05:46Z</time>
      </trkpt>
      <trkpt lat="-18.775357" lon="-47.096232">
        <ele>881.9</ele>
        <time>2019-04-10T14:05:48Z</time>
      </trkpt>
      <trkpt lat="-18.775371" lon="-47.096276">
        <ele>881.6</ele>
        <time>2019-04-10T14:05:50Z</time>
      </trkpt>
      <trkpt lat="-18.77538" lon="-47.096313">
        <ele>881.6</ele>
        <time>2019-04-10T14:05:51Z</time>
      </trkpt>
      <trkpt lat="-18.775391" lon="-47.096372">
        <ele>881.7</ele>
        <time>2019-04-10T14:05:53Z</time>
      </trkpt>
      <trkpt lat="-18.775394" lon="-47.096406">
        <ele>881.7</ele>
        <time>2019-04-10T14:05:54Z</time>
      </trkpt>
      <trkpt lat="-18.775398" lon="-47.096443">
        <ele>881.6</ele>
        <time>2019-04-10T14:05:55Z</time>
      </trkpt>
      <trkpt lat="-18.775404" lon="-47.09648">
        <ele>881.4</ele>
        <time>2019-04-10T14:05:56Z</time>
      </trkpt>
      <trkpt lat="-18.775411" lon="-47.096521">
        <ele>881.2</ele>
        <time>2019-04-10T14:05:57Z</time>
      </trkpt>
      <trkpt lat="-18.775419" lon="-47.096565">
        <ele>880.8</ele>
        <time>2019-04-10T14:05:58Z</time>
      </trkpt>
      <trkpt lat="-18.775429" lon="-47.096605">
        <ele>880.7</ele>
        <time>2019-04-10T14:05:59Z</time>
      </trkpt>
      <trkpt lat="-18.775436" lon="-47.096639">
        <ele>880.4</ele>
        <time>2019-04-10T14:06:00Z</time>
      </trkpt>
      <trkpt lat="-18.775438" lon="-47.096673">
        <ele>880.2</ele>
        <time>2019-04-10T14:06:01Z</time>
      </trkpt>
      <trkpt lat="-18.775432" lon="-47.096705">
        <ele>880.2</ele>
        <time>2019-04-10T14:06:02Z</time>
      </trkpt>
      <trkpt lat="-18.775431" lon="-47.096737">
        <ele>880</ele>
        <time>2019-04-10T14:06:03Z</time>
      </trkpt>
      <trkpt lat="-18.775428" lon="-47.096768">
        <ele>879.9</ele>
        <time>2019-04-10T14:06:04Z</time>
      </trkpt>
      <trkpt lat="-18.775425" lon="-47.096805">
        <ele>879.8</ele>
        <time>2019-04-10T14:06:05Z</time>
      </trkpt>
      <trkpt lat="-18.775421" lon="-47.096844">
        <ele>879.7</ele>
        <time>2019-04-10T14:06:06Z</time>
      </trkpt>
      <trkpt lat="-18.775425" lon="-47.096884">
        <ele>879.8</ele>
        <time>2019-04-10T14:06:07Z</time>
      </trkpt>
      <trkpt lat="-18.775426" lon="-47.096926">
        <ele>879.8</ele>
        <time>2019-04-10T14:06:08Z</time>
      </trkpt>
      <trkpt lat="-18.775426" lon="-47.096968">
        <ele>879.7</ele>
        <time>2019-04-10T14:06:09Z</time>
      </trkpt>
      <trkpt lat="-18.775428" lon="-47.097011">
        <ele>879.5</ele>
        <time>2019-04-10T14:06:10Z</time>
      </trkpt>
      <trkpt lat="-18.775431" lon="-47.097048">
        <ele>879.3</ele>
        <time>2019-04-10T14:06:11Z</time>
      </trkpt>
      <trkpt lat="-18.775439" lon="-47.097085">
        <ele>879</ele>
        <time>2019-04-10T14:06:12Z</time>
      </trkpt>
      <trkpt lat="-18.77545" lon="-47.097121">
        <ele>878.7</ele>
        <time>2019-04-10T14:06:13Z</time>
      </trkpt>
      <trkpt lat="-18.775461" lon="-47.097156">
        <ele>878.5</ele>
        <time>2019-04-10T14:06:14Z</time>
      </trkpt>
      <trkpt lat="-18.775476" lon="-47.097189">
        <ele>878.5</ele>
        <time>2019-04-10T14:06:15Z</time>
      </trkpt>
      <trkpt lat="-18.77549" lon="-47.097218">
        <ele>878.5</ele>
        <time>2019-04-10T14:06:16Z</time>
      </trkpt>
      <trkpt lat="-18.775506" lon="-47.097249">
        <ele>878.6</ele>
        <time>2019-04-10T14:06:17Z</time>
      </trkpt>
      <trkpt lat="-18.775522" lon="-47.097281">
        <ele>878.2</ele>
        <time>2019-04-10T14:06:18Z</time>
      </trkpt>
      <trkpt lat="-18.775539" lon="-47.097318">
        <ele>877.8</ele>
        <time>2019-04-10T14:06:19Z</time>
      </trkpt>
      <trkpt lat="-18.77556" lon="-47.09736">
        <ele>877.5</ele>
        <time>2019-04-10T14:06:20Z</time>
      </trkpt>
      <trkpt lat="-18.775583" lon="-47.097399">
        <ele>877.5</ele>
        <time>2019-04-10T14:06:21Z</time>
      </trkpt>
      <trkpt lat="-18.775606" lon="-47.097444">
        <ele>877</ele>
        <time>2019-04-10T14:06:22Z</time>
      </trkpt>
      <trkpt lat="-18.775632" lon="-47.097492">
        <ele>876.4</ele>
        <time>2019-04-10T14:06:23Z</time>
      </trkpt>
      <trkpt lat="-18.775657" lon="-47.097538">
        <ele>876.4</ele>
        <time>2019-04-10T14:06:24Z</time>
      </trkpt>
      <trkpt lat="-18.775674" lon="-47.097579">
        <ele>876.6</ele>
        <time>2019-04-10T14:06:25Z</time>
      </trkpt>
      <trkpt lat="-18.775685" lon="-47.097617">
        <ele>876.8</ele>
        <time>2019-04-10T14:06:26Z</time>
      </trkpt>
      <trkpt lat="-18.7757" lon="-47.097656">
        <ele>876.8</ele>
        <time>2019-04-10T14:06:27Z</time>
      </trkpt>
      <trkpt lat="-18.775711" lon="-47.097699">
        <ele>876.8</ele>
        <time>2019-04-10T14:06:28Z</time>
      </trkpt>
      <trkpt lat="-18.775722" lon="-47.097743">
        <ele>876.9</ele>
        <time>2019-04-10T14:06:29Z</time>
      </trkpt>
      <trkpt lat="-18.775729" lon="-47.097791">
        <ele>876.9</ele>
        <time>2019-04-10T14:06:30Z</time>
      </trkpt>
      <trkpt lat="-18.775725" lon="-47.097842">
        <ele>877</ele>
        <time>2019-04-10T14:06:31Z</time>
      </trkpt>
      <trkpt lat="-18.775714" lon="-47.097888">
        <ele>877</ele>
        <time>2019-04-10T14:06:32Z</time>
      </trkpt>
      <trkpt lat="-18.775697" lon="-47.097936">
        <ele>877.2</ele>
        <time>2019-04-10T14:06:33Z</time>
      </trkpt>
      <trkpt lat="-18.775668" lon="-47.097987">
        <ele>877.2</ele>
        <time>2019-04-10T14:06:34Z</time>
      </trkpt>
      <trkpt lat="-18.775635" lon="-47.098036">
        <ele>876.8</ele>
        <time>2019-04-10T14:06:35Z</time>
      </trkpt>
      <trkpt lat="-18.775601" lon="-47.098102">
        <ele>876</ele>
        <time>2019-04-10T14:06:36Z</time>
      </trkpt>
      <trkpt lat="-18.775563" lon="-47.098172">
        <ele>874.8</ele>
        <time>2019-04-10T14:06:37Z</time>
      </trkpt>
      <trkpt lat="-18.775519" lon="-47.098242">
        <ele>873.6</ele>
        <time>2019-04-10T14:06:38Z</time>
      </trkpt>
      <trkpt lat="-18.775464" lon="-47.09831">
        <ele>872.5</ele>
        <time>2019-04-10T14:06:39Z</time>
      </trkpt>
      <trkpt lat="-18.775403" lon="-47.098382">
        <ele>870.6</ele>
        <time>2019-04-10T14:06:40Z</time>
      </trkpt>
      <trkpt lat="-18.775344" lon="-47.098459">
        <ele>869</ele>
        <time>2019-04-10T14:06:41Z</time>
      </trkpt>
      <trkpt lat="-18.77529" lon="-47.098536">
        <ele>868.7</ele>
        <time>2019-04-10T14:06:42Z</time>
      </trkpt>
      <trkpt lat="-18.775239" lon="-47.098613">
        <ele>868.7</ele>
        <time>2019-04-10T14:06:43Z</time>
      </trkpt>
      <trkpt lat="-18.775188" lon="-47.098698">
        <ele>869</ele>
        <time>2019-04-10T14:06:44Z</time>
      </trkpt>
      <trkpt lat="-18.775124" lon="-47.098775">
        <ele>869</ele>
        <time>2019-04-10T14:06:45Z</time>
      </trkpt>
      <trkpt lat="-18.775066" lon="-47.098859">
        <ele>868.5</ele>
        <time>2019-04-10T14:06:46Z</time>
      </trkpt>
      <trkpt lat="-18.775008" lon="-47.098949">
        <ele>868.7</ele>
        <time>2019-04-10T14:06:47Z</time>
      </trkpt>
      <trkpt lat="-18.774958" lon="-47.09903">
        <ele>869.2</ele>
        <time>2019-04-10T14:06:48Z</time>
      </trkpt>
      <trkpt lat="-18.774907" lon="-47.099108">
        <ele>869.2</ele>
        <time>2019-04-10T14:06:49Z</time>
      </trkpt>
      <trkpt lat="-18.77487" lon="-47.099175">
        <ele>868.8</ele>
        <time>2019-04-10T14:06:50Z</time>
      </trkpt>
      <trkpt lat="-18.774843" lon="-47.099223">
        <ele>868.4</ele>
        <time>2019-04-10T14:06:51Z</time>
      </trkpt>
      <trkpt lat="-18.774824" lon="-47.099256">
        <ele>868.2</ele>
        <time>2019-04-10T14:06:52Z</time>
      </trkpt>
      <trkpt lat="-18.774807" lon="-47.099289">
        <ele>867.9</ele>
        <time>2019-04-10T14:06:53Z</time>
      </trkpt>
      <trkpt lat="-18.774773" lon="-47.099314">
        <ele>867.5</ele>
        <time>2019-04-10T14:06:54Z</time>
      </trkpt>
      <trkpt lat="-18.774738" lon="-47.099338">
        <ele>867.2</ele>
        <time>2019-04-10T14:06:55Z</time>
      </trkpt>
      <trkpt lat="-18.774702" lon="-47.099367">
        <ele>866.8</ele>
        <time>2019-04-10T14:06:56Z</time>
      </trkpt>
      <trkpt lat="-18.774677" lon="-47.0994">
        <ele>866.4</ele>
        <time>2019-04-10T14:06:57Z</time>
      </trkpt>
      <trkpt lat="-18.774661" lon="-47.09945">
        <ele>865.8</ele>
        <time>2019-04-10T14:06:58Z</time>
      </trkpt>
      <trkpt lat="-18.774653" lon="-47.099501">
        <ele>865.2</ele>
        <time>2019-04-10T14:06:59Z</time>
      </trkpt>
      <trkpt lat="-18.774649" lon="-47.099554">
        <ele>864.8</ele>
        <time>2019-04-10T14:07:00Z</time>
      </trkpt>
      <trkpt lat="-18.774647" lon="-47.099614">
        <ele>864.4</ele>
        <time>2019-04-10T14:07:01Z</time>
      </trkpt>
      <trkpt lat="-18.774634" lon="-47.09967">
        <ele>863.9</ele>
        <time>2019-04-10T14:07:02Z</time>
      </trkpt>
      <trkpt lat="-18.774617" lon="-47.099721">
        <ele>863.4</ele>
        <time>2019-04-10T14:07:03Z</time>
      </trkpt>
      <trkpt lat="-18.774601" lon="-47.099771">
        <ele>863.1</ele>
        <time>2019-04-10T14:07:04Z</time>
      </trkpt>
      <trkpt lat="-18.774583" lon="-47.099818">
        <ele>863</ele>
        <time>2019-04-10T14:07:05Z</time>
      </trkpt>
      <trkpt lat="-18.774568" lon="-47.099862">
        <ele>863</ele>
        <time>2019-04-10T14:07:06Z</time>
      </trkpt>
      <trkpt lat="-18.774553" lon="-47.099909">
        <ele>862.8</ele>
        <time>2019-04-10T14:07:07Z</time>
      </trkpt>
      <trkpt lat="-18.774535" lon="-47.099959">
        <ele>862.6</ele>
        <time>2019-04-10T14:07:08Z</time>
      </trkpt>
      <trkpt lat="-18.774519" lon="-47.100011">
        <ele>862.6</ele>
        <time>2019-04-10T14:07:09Z</time>
      </trkpt>
      <trkpt lat="-18.774502" lon="-47.100058">
        <ele>862.7</ele>
        <time>2019-04-10T14:07:10Z</time>
      </trkpt>
      <trkpt lat="-18.774488" lon="-47.100107">
        <ele>863</ele>
        <time>2019-04-10T14:07:11Z</time>
      </trkpt>
      <trkpt lat="-18.774479" lon="-47.100161">
        <ele>863.2</ele>
        <time>2019-04-10T14:07:12Z</time>
      </trkpt>
      <trkpt lat="-18.774464" lon="-47.100224">
        <ele>863.4</ele>
        <time>2019-04-10T14:07:13Z</time>
      </trkpt>
      <trkpt lat="-18.774458" lon="-47.100281">
        <ele>863.6</ele>
        <time>2019-04-10T14:07:14Z</time>
      </trkpt>
      <trkpt lat="-18.774444" lon="-47.100346">
        <ele>863.7</ele>
        <time>2019-04-10T14:07:15Z</time>
      </trkpt>
      <trkpt lat="-18.774432" lon="-47.100431">
        <ele>863.7</ele>
        <time>2019-04-10T14:07:16Z</time>
      </trkpt>
      <trkpt lat="-18.774412" lon="-47.100508">
        <ele>863.4</ele>
        <time>2019-04-10T14:07:17Z</time>
      </trkpt>
      <trkpt lat="-18.774394" lon="-47.100587">
        <ele>862.7</ele>
        <time>2019-04-10T14:07:18Z</time>
      </trkpt>
      <trkpt lat="-18.774376" lon="-47.100671">
        <ele>861.5</ele>
        <time>2019-04-10T14:07:19Z</time>
      </trkpt>
      <trkpt lat="-18.774352" lon="-47.100754">
        <ele>860.5</ele>
        <time>2019-04-10T14:07:20Z</time>
      </trkpt>
      <trkpt lat="-18.774328" lon="-47.10083">
        <ele>860.1</ele>
        <time>2019-04-10T14:07:21Z</time>
      </trkpt>
      <trkpt lat="-18.774307" lon="-47.100905">
        <ele>859.2</ele>
        <time>2019-04-10T14:07:22Z</time>
      </trkpt>
      <trkpt lat="-18.774285" lon="-47.100983">
        <ele>858.9</ele>
        <time>2019-04-10T14:07:23Z</time>
      </trkpt>
      <trkpt lat="-18.774264" lon="-47.10107">
        <ele>858.9</ele>
        <time>2019-04-10T14:07:24Z</time>
      </trkpt>
      <trkpt lat="-18.774243" lon="-47.101156">
        <ele>858.8</ele>
        <time>2019-04-10T14:07:25Z</time>
      </trkpt>
      <trkpt lat="-18.774224" lon="-47.101244">
        <ele>858.7</ele>
        <time>2019-04-10T14:07:26Z</time>
      </trkpt>
      <trkpt lat="-18.774203" lon="-47.101336">
        <ele>858.5</ele>
        <time>2019-04-10T14:07:27Z</time>
      </trkpt>
      <trkpt lat="-18.77418" lon="-47.101424">
        <ele>857.9</ele>
        <time>2019-04-10T14:07:28Z</time>
      </trkpt>
      <trkpt lat="-18.774161" lon="-47.101514">
        <ele>856.8</ele>
        <time>2019-04-10T14:07:29Z</time>
      </trkpt>
      <trkpt lat="-18.774147" lon="-47.101602">
        <ele>855.4</ele>
        <time>2019-04-10T14:07:30Z</time>
      </trkpt>
      <trkpt lat="-18.774126" lon="-47.10169">
        <ele>854.8</ele>
        <time>2019-04-10T14:07:31Z</time>
      </trkpt>
      <trkpt lat="-18.774104" lon="-47.101783">
        <ele>854.4</ele>
        <time>2019-04-10T14:07:32Z</time>
      </trkpt>
      <trkpt lat="-18.774079" lon="-47.101879">
        <ele>854.1</ele>
        <time>2019-04-10T14:07:33Z</time>
      </trkpt>
      <trkpt lat="-18.774053" lon="-47.10197">
        <ele>853.8</ele>
        <time>2019-04-10T14:07:34Z</time>
      </trkpt>
      <trkpt lat="-18.774024" lon="-47.10207">
        <ele>853.5</ele>
        <time>2019-04-10T14:07:35Z</time>
      </trkpt>
      <trkpt lat="-18.774002" lon="-47.10216">
        <ele>853</ele>
        <time>2019-04-10T14:07:36Z</time>
      </trkpt>
      <trkpt lat="-18.773976" lon="-47.10225">
        <ele>852.5</ele>
        <time>2019-04-10T14:07:37Z</time>
      </trkpt>
      <trkpt lat="-18.773954" lon="-47.102347">
        <ele>851.8</ele>
        <time>2019-04-10T14:07:38Z</time>
      </trkpt>
      <trkpt lat="-18.773929" lon="-47.102448">
        <ele>851</ele>
        <time>2019-04-10T14:07:39Z</time>
      </trkpt>
      <trkpt lat="-18.773903" lon="-47.102558">
        <ele>849.5</ele>
        <time>2019-04-10T14:07:40Z</time>
      </trkpt>
      <trkpt lat="-18.773882" lon="-47.102675">
        <ele>848.4</ele>
        <time>2019-04-10T14:07:41Z</time>
      </trkpt>
      <trkpt lat="-18.773867" lon="-47.102785">
        <ele>847.7</ele>
        <time>2019-04-10T14:07:42Z</time>
      </trkpt>
      <trkpt lat="-18.773869" lon="-47.1029">
        <ele>847</ele>
        <time>2019-04-10T14:07:43Z</time>
      </trkpt>
      <trkpt lat="-18.773869" lon="-47.10301">
        <ele>846.9</ele>
        <time>2019-04-10T14:07:44Z</time>
      </trkpt>
      <trkpt lat="-18.773873" lon="-47.103122">
        <ele>847.6</ele>
        <time>2019-04-10T14:07:45Z</time>
      </trkpt>
      <trkpt lat="-18.773867" lon="-47.103229">
        <ele>847.9</ele>
        <time>2019-04-10T14:07:46Z</time>
      </trkpt>
      <trkpt lat="-18.773864" lon="-47.10333">
        <ele>847.9</ele>
        <time>2019-04-10T14:07:47Z</time>
      </trkpt>
      <trkpt lat="-18.773864" lon="-47.103433">
        <ele>847.7</ele>
        <time>2019-04-10T14:07:48Z</time>
      </trkpt>
      <trkpt lat="-18.773863" lon="-47.103528">
        <ele>847.2</ele>
        <time>2019-04-10T14:07:49Z</time>
      </trkpt>
      <trkpt lat="-18.77387" lon="-47.103614">
        <ele>846.6</ele>
        <time>2019-04-10T14:07:50Z</time>
      </trkpt>
      <trkpt lat="-18.773886" lon="-47.103691">
        <ele>846.9</ele>
        <time>2019-04-10T14:07:51Z</time>
      </trkpt>
      <trkpt lat="-18.773907" lon="-47.103767">
        <ele>847.7</ele>
        <time>2019-04-10T14:07:52Z</time>
      </trkpt>
      <trkpt lat="-18.773926" lon="-47.103838">
        <ele>848.7</ele>
        <time>2019-04-10T14:07:53Z</time>
      </trkpt>
      <trkpt lat="-18.773939" lon="-47.103902">
        <ele>849.3</ele>
        <time>2019-04-10T14:07:54Z</time>
      </trkpt>
      <trkpt lat="-18.773947" lon="-47.103961">
        <ele>849.7</ele>
        <time>2019-04-10T14:07:55Z</time>
      </trkpt>
      <trkpt lat="-18.773958" lon="-47.104018">
        <ele>850</ele>
        <time>2019-04-10T14:07:56Z</time>
      </trkpt>
      <trkpt lat="-18.773961" lon="-47.104072">
        <ele>850.3</ele>
        <time>2019-04-10T14:07:57Z</time>
      </trkpt>
      <trkpt lat="-18.773962" lon="-47.104126">
        <ele>850.6</ele>
        <time>2019-04-10T14:07:58Z</time>
      </trkpt>
      <trkpt lat="-18.773964" lon="-47.104175">
        <ele>851.1</ele>
        <time>2019-04-10T14:07:59Z</time>
      </trkpt>
      <trkpt lat="-18.773968" lon="-47.104224">
        <ele>851.6</ele>
        <time>2019-04-10T14:08:00Z</time>
      </trkpt>
      <trkpt lat="-18.773957" lon="-47.104269">
        <ele>852.2</ele>
        <time>2019-04-10T14:08:01Z</time>
      </trkpt>
      <trkpt lat="-18.773951" lon="-47.104317">
        <ele>852.5</ele>
        <time>2019-04-10T14:08:02Z</time>
      </trkpt>
      <trkpt lat="-18.773943" lon="-47.104364">
        <ele>852.6</ele>
        <time>2019-04-10T14:08:03Z</time>
      </trkpt>
      <trkpt lat="-18.773941" lon="-47.104409">
        <ele>852.8</ele>
        <time>2019-04-10T14:08:04Z</time>
      </trkpt>
      <trkpt lat="-18.773933" lon="-47.104453">
        <ele>853</ele>
        <time>2019-04-10T14:08:05Z</time>
      </trkpt>
      <trkpt lat="-18.773924" lon="-47.104496">
        <ele>853.2</ele>
        <time>2019-04-10T14:08:06Z</time>
      </trkpt>
      <trkpt lat="-18.773919" lon="-47.104539">
        <ele>853.2</ele>
        <time>2019-04-10T14:08:07Z</time>
      </trkpt>
      <trkpt lat="-18.773913" lon="-47.104583">
        <ele>853.3</ele>
        <time>2019-04-10T14:08:08Z</time>
      </trkpt>
      <trkpt lat="-18.773906" lon="-47.104623">
        <ele>853.5</ele>
        <time>2019-04-10T14:08:09Z</time>
      </trkpt>
      <trkpt lat="-18.773909" lon="-47.104654">
        <ele>853.7</ele>
        <time>2019-04-10T14:08:10Z</time>
      </trkpt>
      <trkpt lat="-18.7739" lon="-47.104685">
        <ele>853.9</ele>
        <time>2019-04-10T14:08:11Z</time>
      </trkpt>
      <trkpt lat="-18.773882" lon="-47.104737">
        <ele>854.4</ele>
        <time>2019-04-10T14:08:13Z</time>
      </trkpt>
      <trkpt lat="-18.773875" lon="-47.104766">
        <ele>854.6</ele>
        <time>2019-04-10T14:08:14Z</time>
      </trkpt>
      <trkpt lat="-18.773846" lon="-47.104808">
        <ele>854.6</ele>
        <time>2019-04-10T14:08:16Z</time>
      </trkpt>
      <trkpt lat="-18.773837" lon="-47.104836">
        <ele>854.7</ele>
        <time>2019-04-10T14:08:17Z</time>
      </trkpt>
      <trkpt lat="-18.77383" lon="-47.104863">
        <ele>854.7</ele>
        <time>2019-04-10T14:08:18Z</time>
      </trkpt>
      <trkpt lat="-18.773795" lon="-47.104897">
        <ele>854.6</ele>
        <time>2019-04-10T14:08:20Z</time>
      </trkpt>
      <trkpt lat="-18.773784" lon="-47.104941">
        <ele>854.6</ele>
        <time>2019-04-10T14:08:21Z</time>
      </trkpt>
      <trkpt lat="-18.773771" lon="-47.10498">
        <ele>854.5</ele>
        <time>2019-04-10T14:08:22Z</time>
      </trkpt>
      <trkpt lat="-18.773775" lon="-47.10501">
        <ele>854.5</ele>
        <time>2019-04-10T14:08:23Z</time>
      </trkpt>
      <trkpt lat="-18.773766" lon="-47.105047">
        <ele>854.9</ele>
        <time>2019-04-10T14:08:24Z</time>
      </trkpt>
      <trkpt lat="-18.773768" lon="-47.105082">
        <ele>855.3</ele>
        <time>2019-04-10T14:08:25Z</time>
      </trkpt>
      <trkpt lat="-18.773746" lon="-47.105116">
        <ele>855.7</ele>
        <time>2019-04-10T14:08:26Z</time>
      </trkpt>
      <trkpt lat="-18.77373" lon="-47.105153">
        <ele>856.1</ele>
        <time>2019-04-10T14:08:27Z</time>
      </trkpt>
      <trkpt lat="-18.773704" lon="-47.105195">
        <ele>856.6</ele>
        <time>2019-04-10T14:08:28Z</time>
      </trkpt>
      <trkpt lat="-18.773686" lon="-47.105228">
        <ele>856.8</ele>
        <time>2019-04-10T14:08:29Z</time>
      </trkpt>
      <trkpt lat="-18.773669" lon="-47.105293">
        <ele>857</ele>
        <time>2019-04-10T14:08:31Z</time>
      </trkpt>
      <trkpt lat="-18.773656" lon="-47.105349">
        <ele>857.1</ele>
        <time>2019-04-10T14:08:32Z</time>
      </trkpt>
      <trkpt lat="-18.773637" lon="-47.105405">
        <ele>856.7</ele>
        <time>2019-04-10T14:08:33Z</time>
      </trkpt>
      <trkpt lat="-18.773618" lon="-47.105456">
        <ele>856.1</ele>
        <time>2019-04-10T14:08:34Z</time>
      </trkpt>
      <trkpt lat="-18.773602" lon="-47.105521">
        <ele>855.6</ele>
        <time>2019-04-10T14:08:35Z</time>
      </trkpt>
      <trkpt lat="-18.773584" lon="-47.105575">
        <ele>855.1</ele>
        <time>2019-04-10T14:08:36Z</time>
      </trkpt>
      <trkpt lat="-18.773574" lon="-47.105628">
        <ele>854.5</ele>
        <time>2019-04-10T14:08:37Z</time>
      </trkpt>
      <trkpt lat="-18.773567" lon="-47.105697">
        <ele>854</ele>
        <time>2019-04-10T14:08:38Z</time>
      </trkpt>
      <trkpt lat="-18.773551" lon="-47.105767">
        <ele>853.3</ele>
        <time>2019-04-10T14:08:39Z</time>
      </trkpt>
      <trkpt lat="-18.773539" lon="-47.105836">
        <ele>852.5</ele>
        <time>2019-04-10T14:08:40Z</time>
      </trkpt>
      <trkpt lat="-18.773531" lon="-47.105905">
        <ele>851.8</ele>
        <time>2019-04-10T14:08:41Z</time>
      </trkpt>
      <trkpt lat="-18.773532" lon="-47.105975">
        <ele>851.1</ele>
        <time>2019-04-10T14:08:42Z</time>
      </trkpt>
      <trkpt lat="-18.773532" lon="-47.106053">
        <ele>850.3</ele>
        <time>2019-04-10T14:08:43Z</time>
      </trkpt>
      <trkpt lat="-18.773535" lon="-47.106119">
        <ele>849.9</ele>
        <time>2019-04-10T14:08:44Z</time>
      </trkpt>
      <trkpt lat="-18.77355" lon="-47.106189">
        <ele>849.8</ele>
        <time>2019-04-10T14:08:45Z</time>
      </trkpt>
      <trkpt lat="-18.773561" lon="-47.10625">
        <ele>850.1</ele>
        <time>2019-04-10T14:08:46Z</time>
      </trkpt>
      <trkpt lat="-18.773578" lon="-47.106312">
        <ele>850.9</ele>
        <time>2019-04-10T14:08:47Z</time>
      </trkpt>
      <trkpt lat="-18.773592" lon="-47.106368">
        <ele>851.7</ele>
        <time>2019-04-10T14:08:48Z</time>
      </trkpt>
      <trkpt lat="-18.773611" lon="-47.106424">
        <ele>852.6</ele>
        <time>2019-04-10T14:08:49Z</time>
      </trkpt>
      <trkpt lat="-18.77363" lon="-47.106473">
        <ele>853.2</ele>
        <time>2019-04-10T14:08:50Z</time>
      </trkpt>
      <trkpt lat="-18.773636" lon="-47.106519">
        <ele>853.7</ele>
        <time>2019-04-10T14:08:51Z</time>
      </trkpt>
      <trkpt lat="-18.773643" lon="-47.106567">
        <ele>854.5</ele>
        <time>2019-04-10T14:08:52Z</time>
      </trkpt>
      <trkpt lat="-18.773652" lon="-47.106614">
        <ele>855.2</ele>
        <time>2019-04-10T14:08:53Z</time>
      </trkpt>
      <trkpt lat="-18.773661" lon="-47.106649">
        <ele>855.7</ele>
        <time>2019-04-10T14:08:54Z</time>
      </trkpt>
      <trkpt lat="-18.773673" lon="-47.106684">
        <ele>856.1</ele>
        <time>2019-04-10T14:08:55Z</time>
      </trkpt>
      <trkpt lat="-18.773682" lon="-47.106716">
        <ele>856.4</ele>
        <time>2019-04-10T14:08:56Z</time>
      </trkpt>
      <trkpt lat="-18.773691" lon="-47.106749">
        <ele>856.6</ele>
        <time>2019-04-10T14:08:57Z</time>
      </trkpt>
      <trkpt lat="-18.773701" lon="-47.106785">
        <ele>856.9</ele>
        <time>2019-04-10T14:08:58Z</time>
      </trkpt>
      <trkpt lat="-18.773703" lon="-47.106815">
        <ele>857</ele>
        <time>2019-04-10T14:08:59Z</time>
      </trkpt>
      <trkpt lat="-18.773711" lon="-47.106865">
        <ele>857.3</ele>
        <time>2019-04-10T14:09:01Z</time>
      </trkpt>
      <trkpt lat="-18.773712" lon="-47.106924">
        <ele>857.6</ele>
        <time>2019-04-10T14:09:03Z</time>
      </trkpt>
      <trkpt lat="-18.773716" lon="-47.106965">
        <ele>857.8</ele>
        <time>2019-04-10T14:09:04Z</time>
      </trkpt>
      <trkpt lat="-18.773719" lon="-47.107007">
        <ele>857.8</ele>
        <time>2019-04-10T14:09:05Z</time>
      </trkpt>
      <trkpt lat="-18.773727" lon="-47.107052">
        <ele>857.9</ele>
        <time>2019-04-10T14:09:06Z</time>
      </trkpt>
      <trkpt lat="-18.773747" lon="-47.107106">
        <ele>858</ele>
        <time>2019-04-10T14:09:07Z</time>
      </trkpt>
      <trkpt lat="-18.773752" lon="-47.107141">
        <ele>858.1</ele>
        <time>2019-04-10T14:09:08Z</time>
      </trkpt>
      <trkpt lat="-18.773762" lon="-47.107178">
        <ele>858.2</ele>
        <time>2019-04-10T14:09:09Z</time>
      </trkpt>
      <trkpt lat="-18.773774" lon="-47.107211">
        <ele>858.4</ele>
        <time>2019-04-10T14:09:10Z</time>
      </trkpt>
      <trkpt lat="-18.773768" lon="-47.107247">
        <ele>858.6</ele>
        <time>2019-04-10T14:09:12Z</time>
      </trkpt>
      <trkpt lat="-18.773776" lon="-47.107282">
        <ele>858.8</ele>
        <time>2019-04-10T14:09:13Z</time>
      </trkpt>
      <trkpt lat="-18.773787" lon="-47.10734">
        <ele>858.8</ele>
        <time>2019-04-10T14:09:15Z</time>
      </trkpt>
      <trkpt lat="-18.773787" lon="-47.107383">
        <ele>858.8</ele>
        <time>2019-04-10T14:09:16Z</time>
      </trkpt>
      <trkpt lat="-18.773786" lon="-47.107423">
        <ele>858.5</ele>
        <time>2019-04-10T14:09:17Z</time>
      </trkpt>
      <trkpt lat="-18.773779" lon="-47.107456">
        <ele>858.2</ele>
        <time>2019-04-10T14:09:18Z</time>
      </trkpt>
      <trkpt lat="-18.773772" lon="-47.107487">
        <ele>857.8</ele>
        <time>2019-04-10T14:09:19Z</time>
      </trkpt>
      <trkpt lat="-18.773757" lon="-47.107514">
        <ele>857.4</ele>
        <time>2019-04-10T14:09:20Z</time>
      </trkpt>
      <trkpt lat="-18.77374" lon="-47.107539">
        <ele>857.1</ele>
        <time>2019-04-10T14:09:21Z</time>
      </trkpt>
      <trkpt lat="-18.773749" lon="-47.107574">
        <ele>856.7</ele>
        <time>2019-04-10T14:09:23Z</time>
      </trkpt>
      <trkpt lat="-18.773737" lon="-47.10761">
        <ele>856.4</ele>
        <time>2019-04-10T14:09:27Z</time>
      </trkpt>
      <trkpt lat="-18.773704" lon="-47.107642">
        <ele>856.5</ele>
        <time>2019-04-10T14:10:31Z</time>
      </trkpt>
      <trkpt lat="-18.773687" lon="-47.107685">
        <ele>856.7</ele>
        <time>2019-04-10T14:10:33Z</time>
      </trkpt>
      <trkpt lat="-18.77368" lon="-47.107721">
        <ele>857.2</ele>
        <time>2019-04-10T14:10:34Z</time>
      </trkpt>
      <trkpt lat="-18.773666" lon="-47.107762">
        <ele>857.8</ele>
        <time>2019-04-10T14:10:35Z</time>
      </trkpt>
      <trkpt lat="-18.773649" lon="-47.107804">
        <ele>858.1</ele>
        <time>2019-04-10T14:10:36Z</time>
      </trkpt>
      <trkpt lat="-18.77363" lon="-47.107853">
        <ele>858.5</ele>
        <time>2019-04-10T14:10:37Z</time>
      </trkpt>
      <trkpt lat="-18.773612" lon="-47.107904">
        <ele>859</ele>
        <time>2019-04-10T14:10:38Z</time>
      </trkpt>
      <trkpt lat="-18.773589" lon="-47.107957">
        <ele>859.3</ele>
        <time>2019-04-10T14:10:39Z</time>
      </trkpt>
      <trkpt lat="-18.773564" lon="-47.108013">
        <ele>859.6</ele>
        <time>2019-04-10T14:10:40Z</time>
      </trkpt>
      <trkpt lat="-18.773537" lon="-47.108071">
        <ele>859.7</ele>
        <time>2019-04-10T14:10:41Z</time>
      </trkpt>
      <trkpt lat="-18.773512" lon="-47.108126">
        <ele>860.1</ele>
        <time>2019-04-10T14:10:42Z</time>
      </trkpt>
      <trkpt lat="-18.773489" lon="-47.108184">
        <ele>860.8</ele>
        <time>2019-04-10T14:10:43Z</time>
      </trkpt>
      <trkpt lat="-18.773469" lon="-47.108239">
        <ele>860.9</ele>
        <time>2019-04-10T14:10:44Z</time>
      </trkpt>
      <trkpt lat="-18.773446" lon="-47.1083">
        <ele>861</ele>
        <time>2019-04-10T14:10:45Z</time>
      </trkpt>
      <trkpt lat="-18.773424" lon="-47.108361">
        <ele>860.9</ele>
        <time>2019-04-10T14:10:46Z</time>
      </trkpt>
      <trkpt lat="-18.773399" lon="-47.108427">
        <ele>860.5</ele>
        <time>2019-04-10T14:10:47Z</time>
      </trkpt>
      <trkpt lat="-18.77337" lon="-47.108491">
        <ele>860.4</ele>
        <time>2019-04-10T14:10:48Z</time>
      </trkpt>
      <trkpt lat="-18.773343" lon="-47.108554">
        <ele>860.3</ele>
        <time>2019-04-10T14:10:49Z</time>
      </trkpt>
      <trkpt lat="-18.773312" lon="-47.10862">
        <ele>859.6</ele>
        <time>2019-04-10T14:10:50Z</time>
      </trkpt>
      <trkpt lat="-18.773286" lon="-47.108686">
        <ele>858.8</ele>
        <time>2019-04-10T14:10:51Z</time>
      </trkpt>
      <trkpt lat="-18.77326" lon="-47.10876">
        <ele>858.3</ele>
        <time>2019-04-10T14:10:52Z</time>
      </trkpt>
      <trkpt lat="-18.773235" lon="-47.108843">
        <ele>858.2</ele>
        <time>2019-04-10T14:10:53Z</time>
      </trkpt>
      <trkpt lat="-18.773208" lon="-47.108934">
        <ele>858.3</ele>
        <time>2019-04-10T14:10:54Z</time>
      </trkpt>
      <trkpt lat="-18.773178" lon="-47.109027">
        <ele>858.4</ele>
        <time>2019-04-10T14:10:55Z</time>
      </trkpt>
      <trkpt lat="-18.773151" lon="-47.109124">
        <ele>858.8</ele>
        <time>2019-04-10T14:10:56Z</time>
      </trkpt>
      <trkpt lat="-18.773124" lon="-47.109225">
        <ele>858.8</ele>
        <time>2019-04-10T14:10:57Z</time>
      </trkpt>
      <trkpt lat="-18.773098" lon="-47.109326">
        <ele>858.4</ele>
        <time>2019-04-10T14:10:58Z</time>
      </trkpt>
      <trkpt lat="-18.773069" lon="-47.109421">
        <ele>857.6</ele>
        <time>2019-04-10T14:10:59Z</time>
      </trkpt>
      <trkpt lat="-18.773046" lon="-47.109512">
        <ele>856.7</ele>
        <time>2019-04-10T14:11:00Z</time>
      </trkpt>
      <trkpt lat="-18.773018" lon="-47.109594">
        <ele>856.1</ele>
        <time>2019-04-10T14:11:01Z</time>
      </trkpt>
      <trkpt lat="-18.772987" lon="-47.109674">
        <ele>855.4</ele>
        <time>2019-04-10T14:11:02Z</time>
      </trkpt>
      <trkpt lat="-18.772969" lon="-47.109759">
        <ele>855.1</ele>
        <time>2019-04-10T14:11:03Z</time>
      </trkpt>
      <trkpt lat="-18.772948" lon="-47.109841">
        <ele>855.6</ele>
        <time>2019-04-10T14:11:04Z</time>
      </trkpt>
      <trkpt lat="-18.772925" lon="-47.109917">
        <ele>856.3</ele>
        <time>2019-04-10T14:11:05Z</time>
      </trkpt>
      <trkpt lat="-18.772903" lon="-47.109989">
        <ele>856.7</ele>
        <time>2019-04-10T14:11:06Z</time>
      </trkpt>
      <trkpt lat="-18.772884" lon="-47.110057">
        <ele>857.1</ele>
        <time>2019-04-10T14:11:07Z</time>
      </trkpt>
      <trkpt lat="-18.772866" lon="-47.110124">
        <ele>857.1</ele>
        <time>2019-04-10T14:11:08Z</time>
      </trkpt>
      <trkpt lat="-18.772849" lon="-47.110188">
        <ele>856.9</ele>
        <time>2019-04-10T14:11:09Z</time>
      </trkpt>
      <trkpt lat="-18.772831" lon="-47.110245">
        <ele>856.8</ele>
        <time>2019-04-10T14:11:10Z</time>
      </trkpt>
      <trkpt lat="-18.772814" lon="-47.110297">
        <ele>856.8</ele>
        <time>2019-04-10T14:11:11Z</time>
      </trkpt>
      <trkpt lat="-18.772798" lon="-47.110342">
        <ele>856.9</ele>
        <time>2019-04-10T14:11:12Z</time>
      </trkpt>
      <trkpt lat="-18.772782" lon="-47.11038">
        <ele>857.1</ele>
        <time>2019-04-10T14:11:13Z</time>
      </trkpt>
      <trkpt lat="-18.77277" lon="-47.110416">
        <ele>857.2</ele>
        <time>2019-04-10T14:11:14Z</time>
      </trkpt>
      <trkpt lat="-18.772755" lon="-47.110453">
        <ele>857.2</ele>
        <time>2019-04-10T14:11:15Z</time>
      </trkpt>
      <trkpt lat="-18.772741" lon="-47.110489">
        <ele>857.3</ele>
        <time>2019-04-10T14:11:16Z</time>
      </trkpt>
      <trkpt lat="-18.772729" lon="-47.110528">
        <ele>857.5</ele>
        <time>2019-04-10T14:11:17Z</time>
      </trkpt>
      <trkpt lat="-18.77272" lon="-47.110571">
        <ele>857.7</ele>
        <time>2019-04-10T14:11:18Z</time>
      </trkpt>
      <trkpt lat="-18.77271" lon="-47.110613">
        <ele>857.9</ele>
        <time>2019-04-10T14:11:19Z</time>
      </trkpt>
      <trkpt lat="-18.772698" lon="-47.110656">
        <ele>858</ele>
        <time>2019-04-10T14:11:20Z</time>
      </trkpt>
      <trkpt lat="-18.772684" lon="-47.110698">
        <ele>858.2</ele>
        <time>2019-04-10T14:11:21Z</time>
      </trkpt>
      <trkpt lat="-18.772674" lon="-47.110741">
        <ele>858.4</ele>
        <time>2019-04-10T14:11:22Z</time>
      </trkpt>
      <trkpt lat="-18.772665" lon="-47.11078">
        <ele>858.7</ele>
        <time>2019-04-10T14:11:23Z</time>
      </trkpt>
      <trkpt lat="-18.772655" lon="-47.110816">
        <ele>859.1</ele>
        <time>2019-04-10T14:11:24Z</time>
      </trkpt>
      <trkpt lat="-18.772642" lon="-47.110848">
        <ele>859.5</ele>
        <time>2019-04-10T14:11:25Z</time>
      </trkpt>
      <trkpt lat="-18.772622" lon="-47.110876">
        <ele>859.8</ele>
        <time>2019-04-10T14:11:26Z</time>
      </trkpt>
      <trkpt lat="-18.772609" lon="-47.11091">
        <ele>860.1</ele>
        <time>2019-04-10T14:11:27Z</time>
      </trkpt>
      <trkpt lat="-18.772596" lon="-47.110952">
        <ele>860.5</ele>
        <time>2019-04-10T14:11:28Z</time>
      </trkpt>
      <trkpt lat="-18.772579" lon="-47.110988">
        <ele>861</ele>
        <time>2019-04-10T14:11:29Z</time>
      </trkpt>
      <trkpt lat="-18.772568" lon="-47.111027">
        <ele>861.4</ele>
        <time>2019-04-10T14:11:30Z</time>
      </trkpt>
      <trkpt lat="-18.772559" lon="-47.111061">
        <ele>861.7</ele>
        <time>2019-04-10T14:11:31Z</time>
      </trkpt>
      <trkpt lat="-18.772554" lon="-47.111099">
        <ele>861.9</ele>
        <time>2019-04-10T14:11:32Z</time>
      </trkpt>
      <trkpt lat="-18.772546" lon="-47.111137">
        <ele>862.3</ele>
        <time>2019-04-10T14:11:33Z</time>
      </trkpt>
      <trkpt lat="-18.772536" lon="-47.111172">
        <ele>862.7</ele>
        <time>2019-04-10T14:11:34Z</time>
      </trkpt>
      <trkpt lat="-18.772523" lon="-47.111204">
        <ele>863.2</ele>
        <time>2019-04-10T14:11:35Z</time>
      </trkpt>
      <trkpt lat="-18.772512" lon="-47.111239">
        <ele>863.7</ele>
        <time>2019-04-10T14:11:36Z</time>
      </trkpt>
      <trkpt lat="-18.772505" lon="-47.111283">
        <ele>864.3</ele>
        <time>2019-04-10T14:11:37Z</time>
      </trkpt>
      <trkpt lat="-18.772494" lon="-47.111324">
        <ele>864.8</ele>
        <time>2019-04-10T14:11:38Z</time>
      </trkpt>
      <trkpt lat="-18.772486" lon="-47.111359">
        <ele>865.2</ele>
        <time>2019-04-10T14:11:39Z</time>
      </trkpt>
      <trkpt lat="-18.772473" lon="-47.111411">
        <ele>865.7</ele>
        <time>2019-04-10T14:11:41Z</time>
      </trkpt>
      <trkpt lat="-18.772461" lon="-47.111438">
        <ele>865.8</ele>
        <time>2019-04-10T14:11:42Z</time>
      </trkpt>
      <trkpt lat="-18.77245" lon="-47.11147">
        <ele>865.9</ele>
        <time>2019-04-10T14:11:43Z</time>
      </trkpt>
      <trkpt lat="-18.772438" lon="-47.111502">
        <ele>865.9</ele>
        <time>2019-04-10T14:11:44Z</time>
      </trkpt>
      <trkpt lat="-18.772426" lon="-47.111533">
        <ele>865.9</ele>
        <time>2019-04-10T14:11:45Z</time>
      </trkpt>
      <trkpt lat="-18.772417" lon="-47.111565">
        <ele>866</ele>
        <time>2019-04-10T14:11:46Z</time>
      </trkpt>
      <trkpt lat="-18.772408" lon="-47.111599">
        <ele>866</ele>
        <time>2019-04-10T14:11:47Z</time>
      </trkpt>
      <trkpt lat="-18.772401" lon="-47.111634">
        <ele>866.1</ele>
        <time>2019-04-10T14:11:48Z</time>
      </trkpt>
      <trkpt lat="-18.772392" lon="-47.111666">
        <ele>866.1</ele>
        <time>2019-04-10T14:11:49Z</time>
      </trkpt>
      <trkpt lat="-18.772379" lon="-47.111727">
        <ele>866.5</ele>
        <time>2019-04-10T14:11:51Z</time>
      </trkpt>
      <trkpt lat="-18.772371" lon="-47.111759">
        <ele>866.6</ele>
        <time>2019-04-10T14:11:52Z</time>
      </trkpt>
      <trkpt lat="-18.772361" lon="-47.111797">
        <ele>866.7</ele>
        <time>2019-04-10T14:11:53Z</time>
      </trkpt>
      <trkpt lat="-18.772352" lon="-47.111831">
        <ele>866.7</ele>
        <time>2019-04-10T14:11:54Z</time>
      </trkpt>
      <trkpt lat="-18.772342" lon="-47.111863">
        <ele>866.9</ele>
        <time>2019-04-10T14:11:55Z</time>
      </trkpt>
      <trkpt lat="-18.772332" lon="-47.111892">
        <ele>867.1</ele>
        <time>2019-04-10T14:11:56Z</time>
      </trkpt>
      <trkpt lat="-18.772319" lon="-47.111925">
        <ele>867.3</ele>
        <time>2019-04-10T14:11:57Z</time>
      </trkpt>
      <trkpt lat="-18.772308" lon="-47.111957">
        <ele>867.6</ele>
        <time>2019-04-10T14:11:58Z</time>
      </trkpt>
      <trkpt lat="-18.772302" lon="-47.111988">
        <ele>867.9</ele>
        <time>2019-04-10T14:11:59Z</time>
      </trkpt>
      <trkpt lat="-18.772284" lon="-47.112043">
        <ele>868.3</ele>
        <time>2019-04-10T14:12:01Z</time>
      </trkpt>
      <trkpt lat="-18.772274" lon="-47.112075">
        <ele>868.4</ele>
        <time>2019-04-10T14:12:02Z</time>
      </trkpt>
      <trkpt lat="-18.772265" lon="-47.112108">
        <ele>868.6</ele>
        <time>2019-04-10T14:12:03Z</time>
      </trkpt>
      <trkpt lat="-18.77226" lon="-47.112136">
        <ele>868.9</ele>
        <time>2019-04-10T14:12:04Z</time>
      </trkpt>
      <trkpt lat="-18.772256" lon="-47.112171">
        <ele>869.2</ele>
        <time>2019-04-10T14:12:05Z</time>
      </trkpt>
      <trkpt lat="-18.772248" lon="-47.112207">
        <ele>869.5</ele>
        <time>2019-04-10T14:12:06Z</time>
      </trkpt>
      <trkpt lat="-18.772239" lon="-47.112238">
        <ele>869.7</ele>
        <time>2019-04-10T14:12:07Z</time>
      </trkpt>
      <trkpt lat="-18.77223" lon="-47.112272">
        <ele>869.9</ele>
        <time>2019-04-10T14:12:08Z</time>
      </trkpt>
      <trkpt lat="-18.772219" lon="-47.112306">
        <ele>870</ele>
        <time>2019-04-10T14:12:09Z</time>
      </trkpt>
      <trkpt lat="-18.772208" lon="-47.112338">
        <ele>869.9</ele>
        <time>2019-04-10T14:12:10Z</time>
      </trkpt>
      <trkpt lat="-18.772197" lon="-47.112371">
        <ele>869.9</ele>
        <time>2019-04-10T14:12:11Z</time>
      </trkpt>
      <trkpt lat="-18.772188" lon="-47.1124">
        <ele>869.9</ele>
        <time>2019-04-10T14:12:12Z</time>
      </trkpt>
      <trkpt lat="-18.772172" lon="-47.112451">
        <ele>869.8</ele>
        <time>2019-04-10T14:12:14Z</time>
      </trkpt>
      <trkpt lat="-18.77216" lon="-47.112509">
        <ele>869.8</ele>
        <time>2019-04-10T14:12:16Z</time>
      </trkpt>
      <trkpt lat="-18.772153" lon="-47.112537">
        <ele>869.8</ele>
        <time>2019-04-10T14:12:17Z</time>
      </trkpt>
      <trkpt lat="-18.772144" lon="-47.112564">
        <ele>869.7</ele>
        <time>2019-04-10T14:12:18Z</time>
      </trkpt>
      <trkpt lat="-18.77212" lon="-47.112604">
        <ele>869.4</ele>
        <time>2019-04-10T14:12:20Z</time>
      </trkpt>
      <trkpt lat="-18.77211" lon="-47.112631">
        <ele>869.2</ele>
        <time>2019-04-10T14:12:21Z</time>
      </trkpt>
      <trkpt lat="-18.772099" lon="-47.112658">
        <ele>869.1</ele>
        <time>2019-04-10T14:12:22Z</time>
      </trkpt>
      <trkpt lat="-18.772085" lon="-47.112684">
        <ele>869</ele>
        <time>2019-04-10T14:12:23Z</time>
      </trkpt>
      <trkpt lat="-18.772074" lon="-47.112712">
        <ele>868.9</ele>
        <time>2019-04-10T14:12:24Z</time>
      </trkpt>
      <trkpt lat="-18.772047" lon="-47.11276">
        <ele>868.8</ele>
        <time>2019-04-10T14:12:26Z</time>
      </trkpt>
      <trkpt lat="-18.772035" lon="-47.112791">
        <ele>868.8</ele>
        <time>2019-04-10T14:12:27Z</time>
      </trkpt>
      <trkpt lat="-18.772002" lon="-47.112844">
        <ele>868.9</ele>
        <time>2019-04-10T14:12:29Z</time>
      </trkpt>
      <trkpt lat="-18.771983" lon="-47.112869">
        <ele>868.8</ele>
        <time>2019-04-10T14:12:30Z</time>
      </trkpt>
      <trkpt lat="-18.771966" lon="-47.112897">
        <ele>868.7</ele>
        <time>2019-04-10T14:12:31Z</time>
      </trkpt>
      <trkpt lat="-18.771951" lon="-47.112923">
        <ele>868.6</ele>
        <time>2019-04-10T14:12:32Z</time>
      </trkpt>
      <trkpt lat="-18.771934" lon="-47.112947">
        <ele>868.5</ele>
        <time>2019-04-10T14:12:33Z</time>
      </trkpt>
      <trkpt lat="-18.771916" lon="-47.112974">
        <ele>868.3</ele>
        <time>2019-04-10T14:12:34Z</time>
      </trkpt>
      <trkpt lat="-18.771896" lon="-47.113001">
        <ele>868.1</ele>
        <time>2019-04-10T14:12:35Z</time>
      </trkpt>
      <trkpt lat="-18.771871" lon="-47.113028">
        <ele>868</ele>
        <time>2019-04-10T14:12:36Z</time>
      </trkpt>
      <trkpt lat="-18.771846" lon="-47.113059">
        <ele>867.9</ele>
        <time>2019-04-10T14:12:37Z</time>
      </trkpt>
      <trkpt lat="-18.771823" lon="-47.113089">
        <ele>867.9</ele>
        <time>2019-04-10T14:12:38Z</time>
      </trkpt>
      <trkpt lat="-18.771793" lon="-47.113119">
        <ele>868</ele>
        <time>2019-04-10T14:12:39Z</time>
      </trkpt>
      <trkpt lat="-18.771763" lon="-47.113149">
        <ele>868.1</ele>
        <time>2019-04-10T14:12:40Z</time>
      </trkpt>
      <trkpt lat="-18.771731" lon="-47.113178">
        <ele>868.3</ele>
        <time>2019-04-10T14:12:41Z</time>
      </trkpt>
      <trkpt lat="-18.7717" lon="-47.113207">
        <ele>868.6</ele>
        <time>2019-04-10T14:12:42Z</time>
      </trkpt>
      <trkpt lat="-18.771665" lon="-47.113237">
        <ele>869</ele>
        <time>2019-04-10T14:12:43Z</time>
      </trkpt>
      <trkpt lat="-18.771632" lon="-47.113268">
        <ele>869.5</ele>
        <time>2019-04-10T14:12:44Z</time>
      </trkpt>
      <trkpt lat="-18.771602" lon="-47.113304">
        <ele>870</ele>
        <time>2019-04-10T14:12:45Z</time>
      </trkpt>
      <trkpt lat="-18.77157" lon="-47.113332">
        <ele>870.4</ele>
        <time>2019-04-10T14:12:46Z</time>
      </trkpt>
      <trkpt lat="-18.771537" lon="-47.11336">
        <ele>870.7</ele>
        <time>2019-04-10T14:12:47Z</time>
      </trkpt>
      <trkpt lat="-18.7715" lon="-47.113383">
        <ele>870.8</ele>
        <time>2019-04-10T14:12:48Z</time>
      </trkpt>
      <trkpt lat="-18.771466" lon="-47.113407">
        <ele>870.9</ele>
        <time>2019-04-10T14:12:49Z</time>
      </trkpt>
      <trkpt lat="-18.771431" lon="-47.113439">
        <ele>870.8</ele>
        <time>2019-04-10T14:12:50Z</time>
      </trkpt>
      <trkpt lat="-18.771399" lon="-47.113468">
        <ele>870.7</ele>
        <time>2019-04-10T14:12:51Z</time>
      </trkpt>
      <trkpt lat="-18.771373" lon="-47.113496">
        <ele>870.7</ele>
        <time>2019-04-10T14:12:52Z</time>
      </trkpt>
      <trkpt lat="-18.771344" lon="-47.113518">
        <ele>870.7</ele>
        <time>2019-04-10T14:12:53Z</time>
      </trkpt>
      <trkpt lat="-18.77131" lon="-47.113548">
        <ele>870.6</ele>
        <time>2019-04-10T14:12:54Z</time>
      </trkpt>
      <trkpt lat="-18.771276" lon="-47.113573">
        <ele>870.3</ele>
        <time>2019-04-10T14:12:55Z</time>
      </trkpt>
      <trkpt lat="-18.771242" lon="-47.113596">
        <ele>870.1</ele>
        <time>2019-04-10T14:12:56Z</time>
      </trkpt>
      <trkpt lat="-18.771204" lon="-47.113638">
        <ele>869.8</ele>
        <time>2019-04-10T14:12:57Z</time>
      </trkpt>
      <trkpt lat="-18.771166" lon="-47.113663">
        <ele>869.6</ele>
        <time>2019-04-10T14:12:58Z</time>
      </trkpt>
      <trkpt lat="-18.771125" lon="-47.11369">
        <ele>869.3</ele>
        <time>2019-04-10T14:12:59Z</time>
      </trkpt>
      <trkpt lat="-18.771078" lon="-47.113719">
        <ele>868.9</ele>
        <time>2019-04-10T14:13:00Z</time>
      </trkpt>
      <trkpt lat="-18.77104" lon="-47.113758">
        <ele>868.5</ele>
        <time>2019-04-10T14:13:01Z</time>
      </trkpt>
      <trkpt lat="-18.770996" lon="-47.113789">
        <ele>868.2</ele>
        <time>2019-04-10T14:13:02Z</time>
      </trkpt>
      <trkpt lat="-18.770956" lon="-47.113817">
        <ele>868</ele>
        <time>2019-04-10T14:13:03Z</time>
      </trkpt>
      <trkpt lat="-18.770914" lon="-47.113841">
        <ele>867.7</ele>
        <time>2019-04-10T14:13:04Z</time>
      </trkpt>
      <trkpt lat="-18.770868" lon="-47.113865">
        <ele>867.1</ele>
        <time>2019-04-10T14:13:05Z</time>
      </trkpt>
      <trkpt lat="-18.770825" lon="-47.113895">
        <ele>866.4</ele>
        <time>2019-04-10T14:13:06Z</time>
      </trkpt>
      <trkpt lat="-18.770777" lon="-47.113923">
        <ele>865.9</ele>
        <time>2019-04-10T14:13:07Z</time>
      </trkpt>
      <trkpt lat="-18.770728" lon="-47.11395">
        <ele>865.4</ele>
        <time>2019-04-10T14:13:08Z</time>
      </trkpt>
      <trkpt lat="-18.770675" lon="-47.113978">
        <ele>864.9</ele>
        <time>2019-04-10T14:13:09Z</time>
      </trkpt>
      <trkpt lat="-18.770618" lon="-47.114013">
        <ele>864.6</ele>
        <time>2019-04-10T14:13:10Z</time>
      </trkpt>
      <trkpt lat="-18.770555" lon="-47.114067">
        <ele>864.6</ele>
        <time>2019-04-10T14:13:11Z</time>
      </trkpt>
      <trkpt lat="-18.770488" lon="-47.114107">
        <ele>864</ele>
        <time>2019-04-10T14:13:12Z</time>
      </trkpt>
      <trkpt lat="-18.770409" lon="-47.114156">
        <ele>863.3</ele>
        <time>2019-04-10T14:13:13Z</time>
      </trkpt>
      <trkpt lat="-18.770329" lon="-47.11421">
        <ele>862.9</ele>
        <time>2019-04-10T14:13:14Z</time>
      </trkpt>
      <trkpt lat="-18.770247" lon="-47.114275">
        <ele>863.4</ele>
        <time>2019-04-10T14:13:15Z</time>
      </trkpt>
      <trkpt lat="-18.770175" lon="-47.114328">
        <ele>863.8</ele>
        <time>2019-04-10T14:13:16Z</time>
      </trkpt>
      <trkpt lat="-18.770117" lon="-47.11438">
        <ele>864.3</ele>
        <time>2019-04-10T14:13:17Z</time>
      </trkpt>
      <trkpt lat="-18.770056" lon="-47.114434">
        <ele>865.2</ele>
        <time>2019-04-10T14:13:18Z</time>
      </trkpt>
      <trkpt lat="-18.769992" lon="-47.114495">
        <ele>865.8</ele>
        <time>2019-04-10T14:13:19Z</time>
      </trkpt>
      <trkpt lat="-18.76994" lon="-47.114543">
        <ele>866</ele>
        <time>2019-04-10T14:13:20Z</time>
      </trkpt>
      <trkpt lat="-18.769888" lon="-47.114595">
        <ele>865.8</ele>
        <time>2019-04-10T14:13:21Z</time>
      </trkpt>
      <trkpt lat="-18.769843" lon="-47.114639">
        <ele>865.5</ele>
        <time>2019-04-10T14:13:22Z</time>
      </trkpt>
      <trkpt lat="-18.769801" lon="-47.114682">
        <ele>865.1</ele>
        <time>2019-04-10T14:13:23Z</time>
      </trkpt>
      <trkpt lat="-18.769763" lon="-47.114729">
        <ele>864.5</ele>
        <time>2019-04-10T14:13:24Z</time>
      </trkpt>
      <trkpt lat="-18.769723" lon="-47.11477">
        <ele>864.1</ele>
        <time>2019-04-10T14:13:25Z</time>
      </trkpt>
      <trkpt lat="-18.769686" lon="-47.114806">
        <ele>864.1</ele>
        <time>2019-04-10T14:13:26Z</time>
      </trkpt>
      <trkpt lat="-18.769652" lon="-47.114846">
        <ele>864.2</ele>
        <time>2019-04-10T14:13:27Z</time>
      </trkpt>
      <trkpt lat="-18.76962" lon="-47.114887">
        <ele>864.2</ele>
        <time>2019-04-10T14:13:28Z</time>
      </trkpt>
      <trkpt lat="-18.76959" lon="-47.114929">
        <ele>864.4</ele>
        <time>2019-04-10T14:13:29Z</time>
      </trkpt>
      <trkpt lat="-18.769562" lon="-47.114966">
        <ele>864.7</ele>
        <time>2019-04-10T14:13:30Z</time>
      </trkpt>
      <trkpt lat="-18.769537" lon="-47.115003">
        <ele>865.1</ele>
        <time>2019-04-10T14:13:31Z</time>
      </trkpt>
      <trkpt lat="-18.769515" lon="-47.115039">
        <ele>865.5</ele>
        <time>2019-04-10T14:13:32Z</time>
      </trkpt>
      <trkpt lat="-18.769493" lon="-47.115078">
        <ele>866.1</ele>
        <time>2019-04-10T14:13:33Z</time>
      </trkpt>
      <trkpt lat="-18.769472" lon="-47.115116">
        <ele>866.8</ele>
        <time>2019-04-10T14:13:34Z</time>
      </trkpt>
      <trkpt lat="-18.769452" lon="-47.115152">
        <ele>867.4</ele>
        <time>2019-04-10T14:13:35Z</time>
      </trkpt>
      <trkpt lat="-18.769434" lon="-47.115189">
        <ele>868</ele>
        <time>2019-04-10T14:13:36Z</time>
      </trkpt>
      <trkpt lat="-18.769417" lon="-47.115223">
        <ele>868.4</ele>
        <time>2019-04-10T14:13:37Z</time>
      </trkpt>
      <trkpt lat="-18.769401" lon="-47.115259">
        <ele>868.7</ele>
        <time>2019-04-10T14:13:38Z</time>
      </trkpt>
      <trkpt lat="-18.769382" lon="-47.115295">
        <ele>869.1</ele>
        <time>2019-04-10T14:13:39Z</time>
      </trkpt>
      <trkpt lat="-18.769366" lon="-47.115333">
        <ele>869.7</ele>
        <time>2019-04-10T14:13:40Z</time>
      </trkpt>
      <trkpt lat="-18.769351" lon="-47.115365">
        <ele>870.2</ele>
        <time>2019-04-10T14:13:41Z</time>
      </trkpt>
      <trkpt lat="-18.769337" lon="-47.115394">
        <ele>870.5</ele>
        <time>2019-04-10T14:13:42Z</time>
      </trkpt>
      <trkpt lat="-18.769325" lon="-47.115423">
        <ele>870.7</ele>
        <time>2019-04-10T14:13:43Z</time>
      </trkpt>
      <trkpt lat="-18.769312" lon="-47.115453">
        <ele>870.9</ele>
        <time>2019-04-10T14:13:44Z</time>
      </trkpt>
      <trkpt lat="-18.769303" lon="-47.115481">
        <ele>871</ele>
        <time>2019-04-10T14:13:45Z</time>
      </trkpt>
      <trkpt lat="-18.769292" lon="-47.115507">
        <ele>870.9</ele>
        <time>2019-04-10T14:13:46Z</time>
      </trkpt>
      <trkpt lat="-18.76928" lon="-47.115534">
        <ele>870.9</ele>
        <time>2019-04-10T14:13:47Z</time>
      </trkpt>
      <trkpt lat="-18.76927" lon="-47.115562">
        <ele>870.9</ele>
        <time>2019-04-10T14:13:48Z</time>
      </trkpt>
      <trkpt lat="-18.769261" lon="-47.115591">
        <ele>870.9</ele>
        <time>2019-04-10T14:13:49Z</time>
      </trkpt>
      <trkpt lat="-18.769252" lon="-47.11562">
        <ele>870.9</ele>
        <time>2019-04-10T14:13:50Z</time>
      </trkpt>
      <trkpt lat="-18.769234" lon="-47.115674">
        <ele>871.1</ele>
        <time>2019-04-10T14:13:52Z</time>
      </trkpt>
      <trkpt lat="-18.769225" lon="-47.115702">
        <ele>871.2</ele>
        <time>2019-04-10T14:13:53Z</time>
      </trkpt>
      <trkpt lat="-18.769217" lon="-47.11573">
        <ele>871.4</ele>
        <time>2019-04-10T14:13:54Z</time>
      </trkpt>
      <trkpt lat="-18.769202" lon="-47.115781">
        <ele>871.7</ele>
        <time>2019-04-10T14:13:56Z</time>
      </trkpt>
      <trkpt lat="-18.769186" lon="-47.115827">
        <ele>872.1</ele>
        <time>2019-04-10T14:13:58Z</time>
      </trkpt>
      <trkpt lat="-18.769162" lon="-47.115876">
        <ele>872.3</ele>
        <time>2019-04-10T14:14:00Z</time>
      </trkpt>
      <trkpt lat="-18.769149" lon="-47.115902">
        <ele>872.4</ele>
        <time>2019-04-10T14:14:01Z</time>
      </trkpt>
      <trkpt lat="-18.769139" lon="-47.11593">
        <ele>872.4</ele>
        <time>2019-04-10T14:14:02Z</time>
      </trkpt>
      <trkpt lat="-18.769128" lon="-47.115958">
        <ele>872.4</ele>
        <time>2019-04-10T14:14:03Z</time>
      </trkpt>
      <trkpt lat="-18.769117" lon="-47.115985">
        <ele>872.3</ele>
        <time>2019-04-10T14:14:04Z</time>
      </trkpt>
      <trkpt lat="-18.769098" lon="-47.116034">
        <ele>872.3</ele>
        <time>2019-04-10T14:14:06Z</time>
      </trkpt>
      <trkpt lat="-18.769077" lon="-47.116086">
        <ele>872.3</ele>
        <time>2019-04-10T14:14:08Z</time>
      </trkpt>
      <trkpt lat="-18.769067" lon="-47.116113">
        <ele>872.6</ele>
        <time>2019-04-10T14:14:09Z</time>
      </trkpt>
      <trkpt lat="-18.769047" lon="-47.116159">
        <ele>873.1</ele>
        <time>2019-04-10T14:14:11Z</time>
      </trkpt>
      <trkpt lat="-18.769034" lon="-47.116199">
        <ele>874.1</ele>
        <time>2019-04-10T14:14:13Z</time>
      </trkpt>
      <trkpt lat="-18.769021" lon="-47.11623">
        <ele>875</ele>
        <time>2019-04-10T14:14:15Z</time>
      </trkpt>
      <trkpt lat="-18.769006" lon="-47.116274">
        <ele>876.1</ele>
        <time>2019-04-10T14:14:17Z</time>
      </trkpt>
      <trkpt lat="-18.768992" lon="-47.116312">
        <ele>877</ele>
        <time>2019-04-10T14:14:19Z</time>
      </trkpt>
      <trkpt lat="-18.768974" lon="-47.116348">
        <ele>877.9</ele>
        <time>2019-04-10T14:14:21Z</time>
      </trkpt>
      <trkpt lat="-18.768961" lon="-47.116388">
        <ele>878.6</ele>
        <time>2019-04-10T14:14:23Z</time>
      </trkpt>
      <trkpt lat="-18.768943" lon="-47.116423">
        <ele>879.2</ele>
        <time>2019-04-10T14:14:25Z</time>
      </trkpt>
      <trkpt lat="-18.768928" lon="-47.116466">
        <ele>879.8</ele>
        <time>2019-04-10T14:14:27Z</time>
      </trkpt>
      <trkpt lat="-18.768916" lon="-47.116508">
        <ele>880.3</ele>
        <time>2019-04-10T14:14:29Z</time>
      </trkpt>
      <trkpt lat="-18.768901" lon="-47.116553">
        <ele>881</ele>
        <time>2019-04-10T14:14:31Z</time>
      </trkpt>
      <trkpt lat="-18.768882" lon="-47.116602">
        <ele>881.7</ele>
        <time>2019-04-10T14:14:33Z</time>
      </trkpt>
      <trkpt lat="-18.768864" lon="-47.116648">
        <ele>882.1</ele>
        <time>2019-04-10T14:14:35Z</time>
      </trkpt>
      <trkpt lat="-18.768846" lon="-47.116693">
        <ele>882.5</ele>
        <time>2019-04-10T14:14:37Z</time>
      </trkpt>
      <trkpt lat="-18.768829" lon="-47.116739">
        <ele>882.6</ele>
        <time>2019-04-10T14:14:39Z</time>
      </trkpt>
      <trkpt lat="-18.768821" lon="-47.116768">
        <ele>882.7</ele>
        <time>2019-04-10T14:14:40Z</time>
      </trkpt>
      <trkpt lat="-18.768813" lon="-47.116797">
        <ele>882.8</ele>
        <time>2019-04-10T14:14:41Z</time>
      </trkpt>
      <trkpt lat="-18.7688" lon="-47.116852">
        <ele>883</ele>
        <time>2019-04-10T14:14:43Z</time>
      </trkpt>
      <trkpt lat="-18.768788" lon="-47.11688">
        <ele>883.1</ele>
        <time>2019-04-10T14:14:44Z</time>
      </trkpt>
      <trkpt lat="-18.768776" lon="-47.116908">
        <ele>883.3</ele>
        <time>2019-04-10T14:14:45Z</time>
      </trkpt>
      <trkpt lat="-18.768766" lon="-47.116937">
        <ele>883.5</ele>
        <time>2019-04-10T14:14:46Z</time>
      </trkpt>
      <trkpt lat="-18.768761" lon="-47.116966">
        <ele>883.7</ele>
        <time>2019-04-10T14:14:47Z</time>
      </trkpt>
      <trkpt lat="-18.768745" lon="-47.117012">
        <ele>883.9</ele>
        <time>2019-04-10T14:14:49Z</time>
      </trkpt>
      <trkpt lat="-18.768735" lon="-47.117042">
        <ele>884</ele>
        <time>2019-04-10T14:14:50Z</time>
      </trkpt>
      <trkpt lat="-18.768729" lon="-47.117074">
        <ele>884</ele>
        <time>2019-04-10T14:14:51Z</time>
      </trkpt>
      <trkpt lat="-18.76872" lon="-47.117104">
        <ele>884</ele>
        <time>2019-04-10T14:14:52Z</time>
      </trkpt>
      <trkpt lat="-18.768709" lon="-47.117134">
        <ele>884</ele>
        <time>2019-04-10T14:14:53Z</time>
      </trkpt>
      <trkpt lat="-18.768697" lon="-47.117163">
        <ele>883.9</ele>
        <time>2019-04-10T14:14:54Z</time>
      </trkpt>
      <trkpt lat="-18.768685" lon="-47.117192">
        <ele>883.9</ele>
        <time>2019-04-10T14:14:55Z</time>
      </trkpt>
      <trkpt lat="-18.768675" lon="-47.117225">
        <ele>883.8</ele>
        <time>2019-04-10T14:14:56Z</time>
      </trkpt>
      <trkpt lat="-18.768668" lon="-47.117258">
        <ele>883.8</ele>
        <time>2019-04-10T14:14:57Z</time>
      </trkpt>
      <trkpt lat="-18.768657" lon="-47.117288">
        <ele>883.8</ele>
        <time>2019-04-10T14:14:58Z</time>
      </trkpt>
      <trkpt lat="-18.768645" lon="-47.117323">
        <ele>883.7</ele>
        <time>2019-04-10T14:14:59Z</time>
      </trkpt>
      <trkpt lat="-18.76863" lon="-47.11736">
        <ele>883.6</ele>
        <time>2019-04-10T14:15:00Z</time>
      </trkpt>
      <trkpt lat="-18.768616" lon="-47.117401">
        <ele>883.4</ele>
        <time>2019-04-10T14:15:01Z</time>
      </trkpt>
      <trkpt lat="-18.768604" lon="-47.11744">
        <ele>883.1</ele>
        <time>2019-04-10T14:15:02Z</time>
      </trkpt>
      <trkpt lat="-18.768592" lon="-47.11748">
        <ele>882.9</ele>
        <time>2019-04-10T14:15:03Z</time>
      </trkpt>
      <trkpt lat="-18.768578" lon="-47.117515">
        <ele>882.6</ele>
        <time>2019-04-10T14:15:04Z</time>
      </trkpt>
      <trkpt lat="-18.768565" lon="-47.11755">
        <ele>882.5</ele>
        <time>2019-04-10T14:15:05Z</time>
      </trkpt>
      <trkpt lat="-18.768557" lon="-47.117586">
        <ele>882.3</ele>
        <time>2019-04-10T14:15:06Z</time>
      </trkpt>
      <trkpt lat="-18.768541" lon="-47.117629">
        <ele>882.1</ele>
        <time>2019-04-10T14:15:07Z</time>
      </trkpt>
      <trkpt lat="-18.768529" lon="-47.117669">
        <ele>881.9</ele>
        <time>2019-04-10T14:15:08Z</time>
      </trkpt>
      <trkpt lat="-18.768515" lon="-47.117712">
        <ele>881.8</ele>
        <time>2019-04-10T14:15:09Z</time>
      </trkpt>
      <trkpt lat="-18.768498" lon="-47.117755">
        <ele>881.6</ele>
        <time>2019-04-10T14:15:10Z</time>
      </trkpt>
      <trkpt lat="-18.768479" lon="-47.117797">
        <ele>881.5</ele>
        <time>2019-04-10T14:15:11Z</time>
      </trkpt>
      <trkpt lat="-18.768468" lon="-47.11784">
        <ele>881.2</ele>
        <time>2019-04-10T14:15:12Z</time>
      </trkpt>
      <trkpt lat="-18.768461" lon="-47.117879">
        <ele>881.1</ele>
        <time>2019-04-10T14:15:13Z</time>
      </trkpt>
      <trkpt lat="-18.768451" lon="-47.117926">
        <ele>881.1</ele>
        <time>2019-04-10T14:15:14Z</time>
      </trkpt>
      <trkpt lat="-18.76844" lon="-47.11797">
        <ele>881.1</ele>
        <time>2019-04-10T14:15:15Z</time>
      </trkpt>
      <trkpt lat="-18.76843" lon="-47.118013">
        <ele>881</ele>
        <time>2019-04-10T14:15:16Z</time>
      </trkpt>
      <trkpt lat="-18.76842" lon="-47.118059">
        <ele>880.9</ele>
        <time>2019-04-10T14:15:17Z</time>
      </trkpt>
      <trkpt lat="-18.768409" lon="-47.118106">
        <ele>880.9</ele>
        <time>2019-04-10T14:15:18Z</time>
      </trkpt>
      <trkpt lat="-18.768396" lon="-47.118152">
        <ele>880.9</ele>
        <time>2019-04-10T14:15:19Z</time>
      </trkpt>
      <trkpt lat="-18.768379" lon="-47.118197">
        <ele>880.8</ele>
        <time>2019-04-10T14:15:20Z</time>
      </trkpt>
      <trkpt lat="-18.768364" lon="-47.118244">
        <ele>880.7</ele>
        <time>2019-04-10T14:15:21Z</time>
      </trkpt>
      <trkpt lat="-18.768348" lon="-47.118294">
        <ele>880.5</ele>
        <time>2019-04-10T14:15:22Z</time>
      </trkpt>
      <trkpt lat="-18.768334" lon="-47.118346">
        <ele>880.4</ele>
        <time>2019-04-10T14:15:23Z</time>
      </trkpt>
      <trkpt lat="-18.76832" lon="-47.1184">
        <ele>880.3</ele>
        <time>2019-04-10T14:15:24Z</time>
      </trkpt>
      <trkpt lat="-18.768302" lon="-47.118455">
        <ele>880.2</ele>
        <time>2019-04-10T14:15:25Z</time>
      </trkpt>
      <trkpt lat="-18.768286" lon="-47.118517">
        <ele>880</ele>
        <time>2019-04-10T14:15:26Z</time>
      </trkpt>
      <trkpt lat="-18.768268" lon="-47.118578">
        <ele>880</ele>
        <time>2019-04-10T14:15:27Z</time>
      </trkpt>
      <trkpt lat="-18.768247" lon="-47.118638">
        <ele>880</ele>
        <time>2019-04-10T14:15:28Z</time>
      </trkpt>
      <trkpt lat="-18.768229" lon="-47.118706">
        <ele>879.9</ele>
        <time>2019-04-10T14:15:29Z</time>
      </trkpt>
      <trkpt lat="-18.768211" lon="-47.118776">
        <ele>879.5</ele>
        <time>2019-04-10T14:15:30Z</time>
      </trkpt>
      <trkpt lat="-18.768193" lon="-47.118847">
        <ele>878.9</ele>
        <time>2019-04-10T14:15:31Z</time>
      </trkpt>
      <trkpt lat="-18.768174" lon="-47.118919">
        <ele>878.4</ele>
        <time>2019-04-10T14:15:32Z</time>
      </trkpt>
      <trkpt lat="-18.768156" lon="-47.118987">
        <ele>877.9</ele>
        <time>2019-04-10T14:15:33Z</time>
      </trkpt>
      <trkpt lat="-18.768133" lon="-47.119059">
        <ele>877.2</ele>
        <time>2019-04-10T14:15:34Z</time>
      </trkpt>
      <trkpt lat="-18.768113" lon="-47.119123">
        <ele>876.6</ele>
        <time>2019-04-10T14:15:35Z</time>
      </trkpt>
      <trkpt lat="-18.768091" lon="-47.119187">
        <ele>875.6</ele>
        <time>2019-04-10T14:15:36Z</time>
      </trkpt>
      <trkpt lat="-18.768064" lon="-47.119251">
        <ele>874.6</ele>
        <time>2019-04-10T14:15:37Z</time>
      </trkpt>
      <trkpt lat="-18.768033" lon="-47.119322">
        <ele>874</ele>
        <time>2019-04-10T14:15:38Z</time>
      </trkpt>
      <trkpt lat="-18.768004" lon="-47.119391">
        <ele>873.6</ele>
        <time>2019-04-10T14:15:39Z</time>
      </trkpt>
      <trkpt lat="-18.767973" lon="-47.119463">
        <ele>873.4</ele>
        <time>2019-04-10T14:15:40Z</time>
      </trkpt>
      <trkpt lat="-18.767941" lon="-47.119536">
        <ele>873.3</ele>
        <time>2019-04-10T14:15:41Z</time>
      </trkpt>
      <trkpt lat="-18.76791" lon="-47.119604">
        <ele>873.3</ele>
        <time>2019-04-10T14:15:42Z</time>
      </trkpt>
      <trkpt lat="-18.767879" lon="-47.119675">
        <ele>873.2</ele>
        <time>2019-04-10T14:15:43Z</time>
      </trkpt>
      <trkpt lat="-18.767848" lon="-47.119737">
        <ele>872.9</ele>
        <time>2019-04-10T14:15:44Z</time>
      </trkpt>
      <trkpt lat="-18.767812" lon="-47.119807">
        <ele>872.5</ele>
        <time>2019-04-10T14:15:45Z</time>
      </trkpt>
      <trkpt lat="-18.767774" lon="-47.119876">
        <ele>871.9</ele>
        <time>2019-04-10T14:15:46Z</time>
      </trkpt>
      <trkpt lat="-18.767731" lon="-47.119941">
        <ele>872</ele>
        <time>2019-04-10T14:15:47Z</time>
      </trkpt>
      <trkpt lat="-18.767687" lon="-47.120013">
        <ele>872</ele>
        <time>2019-04-10T14:15:48Z</time>
      </trkpt>
      <trkpt lat="-18.767645" lon="-47.120083">
        <ele>872</ele>
        <time>2019-04-10T14:15:49Z</time>
      </trkpt>
      <trkpt lat="-18.767602" lon="-47.120151">
        <ele>871.7</ele>
        <time>2019-04-10T14:15:50Z</time>
      </trkpt>
      <trkpt lat="-18.767562" lon="-47.120213">
        <ele>871.2</ele>
        <time>2019-04-10T14:15:51Z</time>
      </trkpt>
      <trkpt lat="-18.767524" lon="-47.120275">
        <ele>870.9</ele>
        <time>2019-04-10T14:15:52Z</time>
      </trkpt>
      <trkpt lat="-18.767487" lon="-47.120337">
        <ele>870.8</ele>
        <time>2019-04-10T14:15:53Z</time>
      </trkpt>
      <trkpt lat="-18.767455" lon="-47.120395">
        <ele>870.7</ele>
        <time>2019-04-10T14:15:54Z</time>
      </trkpt>
      <trkpt lat="-18.767429" lon="-47.120451">
        <ele>871</ele>
        <time>2019-04-10T14:15:55Z</time>
      </trkpt>
      <trkpt lat="-18.767399" lon="-47.120519">
        <ele>871.1</ele>
        <time>2019-04-10T14:15:56Z</time>
      </trkpt>
      <trkpt lat="-18.767373" lon="-47.12058">
        <ele>871.1</ele>
        <time>2019-04-10T14:15:57Z</time>
      </trkpt>
      <trkpt lat="-18.767352" lon="-47.120638">
        <ele>871.2</ele>
        <time>2019-04-10T14:15:58Z</time>
      </trkpt>
      <trkpt lat="-18.767332" lon="-47.1207">
        <ele>871.4</ele>
        <time>2019-04-10T14:15:59Z</time>
      </trkpt>
      <trkpt lat="-18.767314" lon="-47.120752">
        <ele>871.6</ele>
        <time>2019-04-10T14:16:00Z</time>
      </trkpt>
      <trkpt lat="-18.767296" lon="-47.120801">
        <ele>871.8</ele>
        <time>2019-04-10T14:16:01Z</time>
      </trkpt>
      <trkpt lat="-18.767275" lon="-47.120842">
        <ele>872.1</ele>
        <time>2019-04-10T14:16:02Z</time>
      </trkpt>
      <trkpt lat="-18.767256" lon="-47.120891">
        <ele>872.5</ele>
        <time>2019-04-10T14:16:03Z</time>
      </trkpt>
      <trkpt lat="-18.767245" lon="-47.120947">
        <ele>873</ele>
        <time>2019-04-10T14:16:04Z</time>
      </trkpt>
      <trkpt lat="-18.767232" lon="-47.120997">
        <ele>873.4</ele>
        <time>2019-04-10T14:16:05Z</time>
      </trkpt>
      <trkpt lat="-18.767221" lon="-47.121055">
        <ele>873.7</ele>
        <time>2019-04-10T14:16:06Z</time>
      </trkpt>
      <trkpt lat="-18.767209" lon="-47.121106">
        <ele>873.9</ele>
        <time>2019-04-10T14:16:07Z</time>
      </trkpt>
      <trkpt lat="-18.767196" lon="-47.121157">
        <ele>873.8</ele>
        <time>2019-04-10T14:16:08Z</time>
      </trkpt>
      <trkpt lat="-18.767185" lon="-47.121211">
        <ele>873.7</ele>
        <time>2019-04-10T14:16:09Z</time>
      </trkpt>
      <trkpt lat="-18.767174" lon="-47.121267">
        <ele>873.4</ele>
        <time>2019-04-10T14:16:10Z</time>
      </trkpt>
      <trkpt lat="-18.767163" lon="-47.121323">
        <ele>873.3</ele>
        <time>2019-04-10T14:16:11Z</time>
      </trkpt>
      <trkpt lat="-18.767153" lon="-47.121376">
        <ele>873.3</ele>
        <time>2019-04-10T14:16:12Z</time>
      </trkpt>
      <trkpt lat="-18.767143" lon="-47.121428">
        <ele>873.3</ele>
        <time>2019-04-10T14:16:13Z</time>
      </trkpt>
      <trkpt lat="-18.767133" lon="-47.121479">
        <ele>873.4</ele>
        <time>2019-04-10T14:16:14Z</time>
      </trkpt>
      <trkpt lat="-18.767123" lon="-47.121527">
        <ele>873.8</ele>
        <time>2019-04-10T14:16:15Z</time>
      </trkpt>
      <trkpt lat="-18.767111" lon="-47.121573">
        <ele>874.2</ele>
        <time>2019-04-10T14:16:16Z</time>
      </trkpt>
      <trkpt lat="-18.767104" lon="-47.121621">
        <ele>874.7</ele>
        <time>2019-04-10T14:16:17Z</time>
      </trkpt>
      <trkpt lat="-18.767097" lon="-47.121669">
        <ele>875.1</ele>
        <time>2019-04-10T14:16:18Z</time>
      </trkpt>
      <trkpt lat="-18.767093" lon="-47.121717">
        <ele>875.4</ele>
        <time>2019-04-10T14:16:19Z</time>
      </trkpt>
      <trkpt lat="-18.767092" lon="-47.121768">
        <ele>875.6</ele>
        <time>2019-04-10T14:16:20Z</time>
      </trkpt>
      <trkpt lat="-18.767092" lon="-47.121822">
        <ele>875.8</ele>
        <time>2019-04-10T14:16:21Z</time>
      </trkpt>
      <trkpt lat="-18.767092" lon="-47.121875">
        <ele>875.9</ele>
        <time>2019-04-10T14:16:22Z</time>
      </trkpt>
      <trkpt lat="-18.767087" lon="-47.121926">
        <ele>876</ele>
        <time>2019-04-10T14:16:23Z</time>
      </trkpt>
      <trkpt lat="-18.767082" lon="-47.121971">
        <ele>876.1</ele>
        <time>2019-04-10T14:16:24Z</time>
      </trkpt>
      <trkpt lat="-18.767078" lon="-47.122017">
        <ele>876.3</ele>
        <time>2019-04-10T14:16:25Z</time>
      </trkpt>
      <trkpt lat="-18.767074" lon="-47.12206">
        <ele>876.5</ele>
        <time>2019-04-10T14:16:26Z</time>
      </trkpt>
      <trkpt lat="-18.767068" lon="-47.122104">
        <ele>876.7</ele>
        <time>2019-04-10T14:16:27Z</time>
      </trkpt>
      <trkpt lat="-18.767065" lon="-47.122148">
        <ele>876.9</ele>
        <time>2019-04-10T14:16:28Z</time>
      </trkpt>
      <trkpt lat="-18.767066" lon="-47.12219">
        <ele>877</ele>
        <time>2019-04-10T14:16:29Z</time>
      </trkpt>
      <trkpt lat="-18.767065" lon="-47.122233">
        <ele>876.9</ele>
        <time>2019-04-10T14:16:30Z</time>
      </trkpt>
      <trkpt lat="-18.767061" lon="-47.122277">
        <ele>876.9</ele>
        <time>2019-04-10T14:16:31Z</time>
      </trkpt>
      <trkpt lat="-18.767057" lon="-47.122319">
        <ele>876.9</ele>
        <time>2019-04-10T14:16:32Z</time>
      </trkpt>
      <trkpt lat="-18.767055" lon="-47.122357">
        <ele>877</ele>
        <time>2019-04-10T14:16:33Z</time>
      </trkpt>
      <trkpt lat="-18.767059" lon="-47.122392">
        <ele>877.1</ele>
        <time>2019-04-10T14:16:34Z</time>
      </trkpt>
      <trkpt lat="-18.767066" lon="-47.122425">
        <ele>877.3</ele>
        <time>2019-04-10T14:16:35Z</time>
      </trkpt>
      <trkpt lat="-18.767071" lon="-47.122458">
        <ele>877.4</ele>
        <time>2019-04-10T14:16:36Z</time>
      </trkpt>
      <trkpt lat="-18.767074" lon="-47.122489">
        <ele>877.6</ele>
        <time>2019-04-10T14:16:37Z</time>
      </trkpt>
      <trkpt lat="-18.767074" lon="-47.122523">
        <ele>877.7</ele>
        <time>2019-04-10T14:16:38Z</time>
      </trkpt>
      <trkpt lat="-18.767067" lon="-47.122559">
        <ele>877.7</ele>
        <time>2019-04-10T14:16:39Z</time>
      </trkpt>
      <trkpt lat="-18.767063" lon="-47.122596">
        <ele>877.7</ele>
        <time>2019-04-10T14:16:40Z</time>
      </trkpt>
      <trkpt lat="-18.767059" lon="-47.122637">
        <ele>877.6</ele>
        <time>2019-04-10T14:16:41Z</time>
      </trkpt>
      <trkpt lat="-18.767056" lon="-47.122682">
        <ele>877.6</ele>
        <time>2019-04-10T14:16:42Z</time>
      </trkpt>
      <trkpt lat="-18.767052" lon="-47.122729">
        <ele>877.6</ele>
        <time>2019-04-10T14:16:43Z</time>
      </trkpt>
      <trkpt lat="-18.767053" lon="-47.122771">
        <ele>877.6</ele>
        <time>2019-04-10T14:16:44Z</time>
      </trkpt>
      <trkpt lat="-18.767054" lon="-47.122814">
        <ele>877.7</ele>
        <time>2019-04-10T14:16:45Z</time>
      </trkpt>
      <trkpt lat="-18.767057" lon="-47.122856">
        <ele>877.9</ele>
        <time>2019-04-10T14:16:46Z</time>
      </trkpt>
      <trkpt lat="-18.767061" lon="-47.122897">
        <ele>878.1</ele>
        <time>2019-04-10T14:16:47Z</time>
      </trkpt>
      <trkpt lat="-18.767062" lon="-47.122929">
        <ele>878.4</ele>
        <time>2019-04-10T14:16:48Z</time>
      </trkpt>
      <trkpt lat="-18.767063" lon="-47.122959">
        <ele>878.5</ele>
        <time>2019-04-10T14:16:49Z</time>
      </trkpt>
      <trkpt lat="-18.767067" lon="-47.122995">
        <ele>878.8</ele>
        <time>2019-04-10T14:16:50Z</time>
      </trkpt>
      <trkpt lat="-18.767069" lon="-47.123037">
        <ele>879</ele>
        <time>2019-04-10T14:16:51Z</time>
      </trkpt>
      <trkpt lat="-18.767072" lon="-47.123081">
        <ele>879.2</ele>
        <time>2019-04-10T14:16:52Z</time>
      </trkpt>
      <trkpt lat="-18.767076" lon="-47.12312">
        <ele>879.4</ele>
        <time>2019-04-10T14:16:53Z</time>
      </trkpt>
      <trkpt lat="-18.767079" lon="-47.123155">
        <ele>879.5</ele>
        <time>2019-04-10T14:16:54Z</time>
      </trkpt>
      <trkpt lat="-18.767079" lon="-47.123187">
        <ele>879.8</ele>
        <time>2019-04-10T14:16:55Z</time>
      </trkpt>
      <trkpt lat="-18.76708" lon="-47.123216">
        <ele>880.1</ele>
        <time>2019-04-10T14:16:56Z</time>
      </trkpt>
      <trkpt lat="-18.767077" lon="-47.123246">
        <ele>880.4</ele>
        <time>2019-04-10T14:16:57Z</time>
      </trkpt>
      <trkpt lat="-18.767078" lon="-47.123298">
        <ele>881.2</ele>
        <time>2019-04-10T14:16:59Z</time>
      </trkpt>
      <trkpt lat="-18.767079" lon="-47.123338">
        <ele>881.9</ele>
        <time>2019-04-10T14:17:00Z</time>
      </trkpt>
      <trkpt lat="-18.767079" lon="-47.123375">
        <ele>882.1</ele>
        <time>2019-04-10T14:17:01Z</time>
      </trkpt>
      <trkpt lat="-18.767084" lon="-47.123407">
        <ele>882.2</ele>
        <time>2019-04-10T14:17:02Z</time>
      </trkpt>
      <trkpt lat="-18.767089" lon="-47.123438">
        <ele>882.3</ele>
        <time>2019-04-10T14:17:03Z</time>
      </trkpt>
      <trkpt lat="-18.7671" lon="-47.123495">
        <ele>882.1</ele>
        <time>2019-04-10T14:17:05Z</time>
      </trkpt>
      <trkpt lat="-18.767106" lon="-47.123532">
        <ele>882.1</ele>
        <time>2019-04-10T14:17:06Z</time>
      </trkpt>
      <trkpt lat="-18.767111" lon="-47.123579">
        <ele>882</ele>
        <time>2019-04-10T14:17:07Z</time>
      </trkpt>
      <trkpt lat="-18.767114" lon="-47.123619">
        <ele>882</ele>
        <time>2019-04-10T14:17:08Z</time>
      </trkpt>
      <trkpt lat="-18.767114" lon="-47.123652">
        <ele>882</ele>
        <time>2019-04-10T14:17:09Z</time>
      </trkpt>
      <trkpt lat="-18.767118" lon="-47.123693">
        <ele>881.9</ele>
        <time>2019-04-10T14:17:10Z</time>
      </trkpt>
      <trkpt lat="-18.767133" lon="-47.123733">
        <ele>881.9</ele>
        <time>2019-04-10T14:17:11Z</time>
      </trkpt>
      <trkpt lat="-18.76714" lon="-47.123767">
        <ele>881.8</ele>
        <time>2019-04-10T14:17:12Z</time>
      </trkpt>
      <trkpt lat="-18.767146" lon="-47.123798">
        <ele>881.8</ele>
        <time>2019-04-10T14:17:13Z</time>
      </trkpt>
      <trkpt lat="-18.767152" lon="-47.123831">
        <ele>881.8</ele>
        <time>2019-04-10T14:17:14Z</time>
      </trkpt>
      <trkpt lat="-18.767156" lon="-47.123891">
        <ele>881.8</ele>
        <time>2019-04-10T14:17:16Z</time>
      </trkpt>
      <trkpt lat="-18.767156" lon="-47.123921">
        <ele>881.9</ele>
        <time>2019-04-10T14:17:17Z</time>
      </trkpt>
      <trkpt lat="-18.767155" lon="-47.123976">
        <ele>882.2</ele>
        <time>2019-04-10T14:17:19Z</time>
      </trkpt>
      <trkpt lat="-18.767163" lon="-47.124027">
        <ele>882.6</ele>
        <time>2019-04-10T14:17:21Z</time>
      </trkpt>
      <trkpt lat="-18.767168" lon="-47.124057">
        <ele>882.9</ele>
        <time>2019-04-10T14:17:22Z</time>
      </trkpt>
      <trkpt lat="-18.767174" lon="-47.124086">
        <ele>883.1</ele>
        <time>2019-04-10T14:17:23Z</time>
      </trkpt>
      <trkpt lat="-18.767179" lon="-47.124123">
        <ele>883.4</ele>
        <time>2019-04-10T14:17:24Z</time>
      </trkpt>
      <trkpt lat="-18.767183" lon="-47.124153">
        <ele>883.7</ele>
        <time>2019-04-10T14:17:25Z</time>
      </trkpt>
      <trkpt lat="-18.767187" lon="-47.124183">
        <ele>883.9</ele>
        <time>2019-04-10T14:17:26Z</time>
      </trkpt>
      <trkpt lat="-18.767188" lon="-47.124213">
        <ele>884.3</ele>
        <time>2019-04-10T14:17:27Z</time>
      </trkpt>
      <trkpt lat="-18.767192" lon="-47.124247">
        <ele>884.7</ele>
        <time>2019-04-10T14:17:28Z</time>
      </trkpt>
      <trkpt lat="-18.767196" lon="-47.124277">
        <ele>885</ele>
        <time>2019-04-10T14:17:29Z</time>
      </trkpt>
      <trkpt lat="-18.767198" lon="-47.124307">
        <ele>885.2</ele>
        <time>2019-04-10T14:17:30Z</time>
      </trkpt>
      <trkpt lat="-18.767205" lon="-47.124367">
        <ele>885.4</ele>
        <time>2019-04-10T14:17:32Z</time>
      </trkpt>
      <trkpt lat="-18.767213" lon="-47.124401">
        <ele>885.5</ele>
        <time>2019-04-10T14:17:33Z</time>
      </trkpt>
      <trkpt lat="-18.767218" lon="-47.124438">
        <ele>885.6</ele>
        <time>2019-04-10T14:17:34Z</time>
      </trkpt>
      <trkpt lat="-18.767222" lon="-47.124476">
        <ele>885.8</ele>
        <time>2019-04-10T14:17:35Z</time>
      </trkpt>
      <trkpt lat="-18.767229" lon="-47.124514">
        <ele>885.9</ele>
        <time>2019-04-10T14:17:36Z</time>
      </trkpt>
      <trkpt lat="-18.767233" lon="-47.12455">
        <ele>886.1</ele>
        <time>2019-04-10T14:17:37Z</time>
      </trkpt>
      <trkpt lat="-18.767237" lon="-47.124587">
        <ele>886.5</ele>
        <time>2019-04-10T14:17:38Z</time>
      </trkpt>
      <trkpt lat="-18.76724" lon="-47.124624">
        <ele>886.9</ele>
        <time>2019-04-10T14:17:39Z</time>
      </trkpt>
      <trkpt lat="-18.767244" lon="-47.124661">
        <ele>887.3</ele>
        <time>2019-04-10T14:17:40Z</time>
      </trkpt>
      <trkpt lat="-18.767244" lon="-47.124696">
        <ele>887.9</ele>
        <time>2019-04-10T14:17:41Z</time>
      </trkpt>
      <trkpt lat="-18.76724" lon="-47.124741">
        <ele>888.5</ele>
        <time>2019-04-10T14:17:42Z</time>
      </trkpt>
      <trkpt lat="-18.767244" lon="-47.12478">
        <ele>888.9</ele>
        <time>2019-04-10T14:17:43Z</time>
      </trkpt>
      <trkpt lat="-18.767245" lon="-47.124812">
        <ele>889.2</ele>
        <time>2019-04-10T14:17:44Z</time>
      </trkpt>
      <trkpt lat="-18.767249" lon="-47.124848">
        <ele>889.5</ele>
        <time>2019-04-10T14:17:45Z</time>
      </trkpt>
      <trkpt lat="-18.767253" lon="-47.124884">
        <ele>889.6</ele>
        <time>2019-04-10T14:17:46Z</time>
      </trkpt>
      <trkpt lat="-18.767255" lon="-47.124915">
        <ele>889.8</ele>
        <time>2019-04-10T14:17:47Z</time>
      </trkpt>
      <trkpt lat="-18.767256" lon="-47.124947">
        <ele>890</ele>
        <time>2019-04-10T14:17:48Z</time>
      </trkpt>
      <trkpt lat="-18.767252" lon="-47.124978">
        <ele>890.2</ele>
        <time>2019-04-10T14:17:49Z</time>
      </trkpt>
      <trkpt lat="-18.76725" lon="-47.125009">
        <ele>890.4</ele>
        <time>2019-04-10T14:17:50Z</time>
      </trkpt>
      <trkpt lat="-18.767253" lon="-47.125047">
        <ele>890.5</ele>
        <time>2019-04-10T14:17:51Z</time>
      </trkpt>
      <trkpt lat="-18.767255" lon="-47.12508">
        <ele>890.7</ele>
        <time>2019-04-10T14:17:52Z</time>
      </trkpt>
      <trkpt lat="-18.767257" lon="-47.125111">
        <ele>890.8</ele>
        <time>2019-04-10T14:17:53Z</time>
      </trkpt>
      <trkpt lat="-18.767259" lon="-47.125154">
        <ele>890.8</ele>
        <time>2019-04-10T14:17:54Z</time>
      </trkpt>
      <trkpt lat="-18.76726" lon="-47.125195">
        <ele>890.8</ele>
        <time>2019-04-10T14:17:55Z</time>
      </trkpt>
      <trkpt lat="-18.767262" lon="-47.125236">
        <ele>890.8</ele>
        <time>2019-04-10T14:17:56Z</time>
      </trkpt>
      <trkpt lat="-18.767256" lon="-47.125277">
        <ele>890.9</ele>
        <time>2019-04-10T14:17:57Z</time>
      </trkpt>
      <trkpt lat="-18.767254" lon="-47.125315">
        <ele>891.1</ele>
        <time>2019-04-10T14:17:58Z</time>
      </trkpt>
      <trkpt lat="-18.767255" lon="-47.125353">
        <ele>891.3</ele>
        <time>2019-04-10T14:17:59Z</time>
      </trkpt>
      <trkpt lat="-18.767259" lon="-47.125397">
        <ele>891.6</ele>
        <time>2019-04-10T14:18:00Z</time>
      </trkpt>
      <trkpt lat="-18.767266" lon="-47.125443">
        <ele>891.6</ele>
        <time>2019-04-10T14:18:01Z</time>
      </trkpt>
      <trkpt lat="-18.76727" lon="-47.125488">
        <ele>891.3</ele>
        <time>2019-04-10T14:18:02Z</time>
      </trkpt>
      <trkpt lat="-18.767275" lon="-47.125526">
        <ele>891.1</ele>
        <time>2019-04-10T14:18:03Z</time>
      </trkpt>
      <trkpt lat="-18.767277" lon="-47.125561">
        <ele>890.8</ele>
        <time>2019-04-10T14:18:04Z</time>
      </trkpt>
      <trkpt lat="-18.767278" lon="-47.125599">
        <ele>890.6</ele>
        <time>2019-04-10T14:18:05Z</time>
      </trkpt>
      <trkpt lat="-18.767281" lon="-47.125636">
        <ele>890.4</ele>
        <time>2019-04-10T14:18:06Z</time>
      </trkpt>
      <trkpt lat="-18.767283" lon="-47.125673">
        <ele>890.2</ele>
        <time>2019-04-10T14:18:07Z</time>
      </trkpt>
      <trkpt lat="-18.767285" lon="-47.125709">
        <ele>890</ele>
        <time>2019-04-10T14:18:08Z</time>
      </trkpt>
      <trkpt lat="-18.767284" lon="-47.125749">
        <ele>889.9</ele>
        <time>2019-04-10T14:18:09Z</time>
      </trkpt>
      <trkpt lat="-18.767282" lon="-47.125792">
        <ele>889.8</ele>
        <time>2019-04-10T14:18:10Z</time>
      </trkpt>
      <trkpt lat="-18.76728" lon="-47.125831">
        <ele>889.7</ele>
        <time>2019-04-10T14:18:11Z</time>
      </trkpt>
      <trkpt lat="-18.767275" lon="-47.125877">
        <ele>889.6</ele>
        <time>2019-04-10T14:18:12Z</time>
      </trkpt>
      <trkpt lat="-18.767271" lon="-47.125927">
        <ele>889.7</ele>
        <time>2019-04-10T14:18:13Z</time>
      </trkpt>
      <trkpt lat="-18.767265" lon="-47.125973">
        <ele>889.9</ele>
        <time>2019-04-10T14:18:14Z</time>
      </trkpt>
      <trkpt lat="-18.767257" lon="-47.126019">
        <ele>890.2</ele>
        <time>2019-04-10T14:18:15Z</time>
      </trkpt>
      <trkpt lat="-18.767249" lon="-47.126059">
        <ele>890.4</ele>
        <time>2019-04-10T14:18:16Z</time>
      </trkpt>
      <trkpt lat="-18.76724" lon="-47.126102">
        <ele>890.7</ele>
        <time>2019-04-10T14:18:17Z</time>
      </trkpt>
      <trkpt lat="-18.767226" lon="-47.126142">
        <ele>890.9</ele>
        <time>2019-04-10T14:18:18Z</time>
      </trkpt>
      <trkpt lat="-18.767212" lon="-47.12618">
        <ele>891</ele>
        <time>2019-04-10T14:18:19Z</time>
      </trkpt>
      <trkpt lat="-18.7672" lon="-47.126224">
        <ele>891</ele>
        <time>2019-04-10T14:18:20Z</time>
      </trkpt>
      <trkpt lat="-18.767189" lon="-47.126271">
        <ele>890.9</ele>
        <time>2019-04-10T14:18:21Z</time>
      </trkpt>
      <trkpt lat="-18.767176" lon="-47.126317">
        <ele>890.9</ele>
        <time>2019-04-10T14:18:22Z</time>
      </trkpt>
      <trkpt lat="-18.767164" lon="-47.126362">
        <ele>890.9</ele>
        <time>2019-04-10T14:18:23Z</time>
      </trkpt>
      <trkpt lat="-18.767149" lon="-47.126409">
        <ele>890.9</ele>
        <time>2019-04-10T14:18:24Z</time>
      </trkpt>
      <trkpt lat="-18.767135" lon="-47.126453">
        <ele>890.9</ele>
        <time>2019-04-10T14:18:25Z</time>
      </trkpt>
      <trkpt lat="-18.767119" lon="-47.126497">
        <ele>890.9</ele>
        <time>2019-04-10T14:18:26Z</time>
      </trkpt>
      <trkpt lat="-18.767105" lon="-47.126536">
        <ele>890.9</ele>
        <time>2019-04-10T14:18:27Z</time>
      </trkpt>
      <trkpt lat="-18.767087" lon="-47.126575">
        <ele>890.9</ele>
        <time>2019-04-10T14:18:28Z</time>
      </trkpt>
      <trkpt lat="-18.76707" lon="-47.12662">
        <ele>890.9</ele>
        <time>2019-04-10T14:18:29Z</time>
      </trkpt>
      <trkpt lat="-18.767053" lon="-47.126669">
        <ele>890.9</ele>
        <time>2019-04-10T14:18:30Z</time>
      </trkpt>
      <trkpt lat="-18.767035" lon="-47.126711">
        <ele>890.9</ele>
        <time>2019-04-10T14:18:31Z</time>
      </trkpt>
      <trkpt lat="-18.767013" lon="-47.126751">
        <ele>890.9</ele>
        <time>2019-04-10T14:18:32Z</time>
      </trkpt>
      <trkpt lat="-18.766987" lon="-47.126789">
        <ele>890.9</ele>
        <time>2019-04-10T14:18:33Z</time>
      </trkpt>
      <trkpt lat="-18.766967" lon="-47.126829">
        <ele>890.9</ele>
        <time>2019-04-10T14:18:34Z</time>
      </trkpt>
      <trkpt lat="-18.76694" lon="-47.126872">
        <ele>890.8</ele>
        <time>2019-04-10T14:18:35Z</time>
      </trkpt>
      <trkpt lat="-18.766913" lon="-47.126917">
        <ele>890.8</ele>
        <time>2019-04-10T14:18:36Z</time>
      </trkpt>
      <trkpt lat="-18.766886" lon="-47.126959">
        <ele>890.7</ele>
        <time>2019-04-10T14:18:37Z</time>
      </trkpt>
      <trkpt lat="-18.76686" lon="-47.127001">
        <ele>890.9</ele>
        <time>2019-04-10T14:18:38Z</time>
      </trkpt>
      <trkpt lat="-18.766826" lon="-47.127046">
        <ele>890.9</ele>
        <time>2019-04-10T14:18:39Z</time>
      </trkpt>
      <trkpt lat="-18.766799" lon="-47.127095">
        <ele>890.9</ele>
        <time>2019-04-10T14:18:40Z</time>
      </trkpt>
      <trkpt lat="-18.766766" lon="-47.127146">
        <ele>890.9</ele>
        <time>2019-04-10T14:18:41Z</time>
      </trkpt>
      <trkpt lat="-18.766734" lon="-47.127197">
        <ele>891</ele>
        <time>2019-04-10T14:18:42Z</time>
      </trkpt>
      <trkpt lat="-18.766703" lon="-47.127249">
        <ele>891.3</ele>
        <time>2019-04-10T14:18:43Z</time>
      </trkpt>
      <trkpt lat="-18.76668" lon="-47.127296">
        <ele>891.4</ele>
        <time>2019-04-10T14:18:44Z</time>
      </trkpt>
      <trkpt lat="-18.766656" lon="-47.127341">
        <ele>891.3</ele>
        <time>2019-04-10T14:18:45Z</time>
      </trkpt>
      <trkpt lat="-18.766632" lon="-47.127385">
        <ele>891</ele>
        <time>2019-04-10T14:18:46Z</time>
      </trkpt>
      <trkpt lat="-18.766608" lon="-47.127431">
        <ele>890.5</ele>
        <time>2019-04-10T14:18:47Z</time>
      </trkpt>
      <trkpt lat="-18.766588" lon="-47.127474">
        <ele>890.1</ele>
        <time>2019-04-10T14:18:48Z</time>
      </trkpt>
      <trkpt lat="-18.766572" lon="-47.127516">
        <ele>889.6</ele>
        <time>2019-04-10T14:18:49Z</time>
      </trkpt>
      <trkpt lat="-18.766547" lon="-47.127563">
        <ele>889.2</ele>
        <time>2019-04-10T14:18:50Z</time>
      </trkpt>
      <trkpt lat="-18.76652" lon="-47.127609">
        <ele>888.7</ele>
        <time>2019-04-10T14:18:51Z</time>
      </trkpt>
      <trkpt lat="-18.766499" lon="-47.127663">
        <ele>888.3</ele>
        <time>2019-04-10T14:18:52Z</time>
      </trkpt>
      <trkpt lat="-18.76648" lon="-47.127718">
        <ele>888.1</ele>
        <time>2019-04-10T14:18:53Z</time>
      </trkpt>
      <trkpt lat="-18.766461" lon="-47.127772">
        <ele>887.9</ele>
        <time>2019-04-10T14:18:54Z</time>
      </trkpt>
      <trkpt lat="-18.766439" lon="-47.127831">
        <ele>887.9</ele>
        <time>2019-04-10T14:18:55Z</time>
      </trkpt>
      <trkpt lat="-18.766417" lon="-47.127893">
        <ele>888</ele>
        <time>2019-04-10T14:18:56Z</time>
      </trkpt>
      <trkpt lat="-18.766396" lon="-47.127954">
        <ele>888.1</ele>
        <time>2019-04-10T14:18:57Z</time>
      </trkpt>
      <trkpt lat="-18.766376" lon="-47.128018">
        <ele>888.3</ele>
        <time>2019-04-10T14:18:58Z</time>
      </trkpt>
      <trkpt lat="-18.766356" lon="-47.128072">
        <ele>888.8</ele>
        <time>2019-04-10T14:18:59Z</time>
      </trkpt>
      <trkpt lat="-18.766337" lon="-47.128138">
        <ele>889.4</ele>
        <time>2019-04-10T14:19:00Z</time>
      </trkpt>
      <trkpt lat="-18.766313" lon="-47.128202">
        <ele>889.8</ele>
        <time>2019-04-10T14:19:01Z</time>
      </trkpt>
      <trkpt lat="-18.766294" lon="-47.128265">
        <ele>889.6</ele>
        <time>2019-04-10T14:19:02Z</time>
      </trkpt>
      <trkpt lat="-18.766278" lon="-47.128322">
        <ele>889.3</ele>
        <time>2019-04-10T14:19:03Z</time>
      </trkpt>
      <trkpt lat="-18.766256" lon="-47.128379">
        <ele>888.8</ele>
        <time>2019-04-10T14:19:04Z</time>
      </trkpt>
      <trkpt lat="-18.766238" lon="-47.12843">
        <ele>888.4</ele>
        <time>2019-04-10T14:19:05Z</time>
      </trkpt>
      <trkpt lat="-18.766217" lon="-47.128488">
        <ele>887.9</ele>
        <time>2019-04-10T14:19:06Z</time>
      </trkpt>
      <trkpt lat="-18.766198" lon="-47.128549">
        <ele>887.5</ele>
        <time>2019-04-10T14:19:07Z</time>
      </trkpt>
      <trkpt lat="-18.766177" lon="-47.128609">
        <ele>887</ele>
        <time>2019-04-10T14:19:08Z</time>
      </trkpt>
      <trkpt lat="-18.766154" lon="-47.128667">
        <ele>886.4</ele>
        <time>2019-04-10T14:19:09Z</time>
      </trkpt>
      <trkpt lat="-18.76613" lon="-47.128727">
        <ele>885.8</ele>
        <time>2019-04-10T14:19:10Z</time>
      </trkpt>
      <trkpt lat="-18.766107" lon="-47.12878">
        <ele>885.7</ele>
        <time>2019-04-10T14:19:11Z</time>
      </trkpt>
      <trkpt lat="-18.766081" lon="-47.128834">
        <ele>885.5</ele>
        <time>2019-04-10T14:19:12Z</time>
      </trkpt>
      <trkpt lat="-18.766057" lon="-47.128899">
        <ele>885.4</ele>
        <time>2019-04-10T14:19:13Z</time>
      </trkpt>
      <trkpt lat="-18.766034" lon="-47.128958">
        <ele>885.5</ele>
        <time>2019-04-10T14:19:14Z</time>
      </trkpt>
      <trkpt lat="-18.76601" lon="-47.129022">
        <ele>885.7</ele>
        <time>2019-04-10T14:19:15Z</time>
      </trkpt>
      <trkpt lat="-18.765985" lon="-47.129089">
        <ele>886</ele>
        <time>2019-04-10T14:19:16Z</time>
      </trkpt>
      <trkpt lat="-18.765961" lon="-47.129157">
        <ele>886.6</ele>
        <time>2019-04-10T14:19:17Z</time>
      </trkpt>
      <trkpt lat="-18.765936" lon="-47.129225">
        <ele>886.8</ele>
        <time>2019-04-10T14:19:18Z</time>
      </trkpt>
      <trkpt lat="-18.765911" lon="-47.129294">
        <ele>886.7</ele>
        <time>2019-04-10T14:19:19Z</time>
      </trkpt>
      <trkpt lat="-18.765885" lon="-47.12936">
        <ele>886.6</ele>
        <time>2019-04-10T14:19:20Z</time>
      </trkpt>
      <trkpt lat="-18.765857" lon="-47.129434">
        <ele>886.6</ele>
        <time>2019-04-10T14:19:21Z</time>
      </trkpt>
      <trkpt lat="-18.765831" lon="-47.12951">
        <ele>886.8</ele>
        <time>2019-04-10T14:19:22Z</time>
      </trkpt>
      <trkpt lat="-18.765808" lon="-47.129585">
        <ele>886.9</ele>
        <time>2019-04-10T14:19:23Z</time>
      </trkpt>
      <trkpt lat="-18.765784" lon="-47.129663">
        <ele>886.8</ele>
        <time>2019-04-10T14:19:24Z</time>
      </trkpt>
      <trkpt lat="-18.765756" lon="-47.129744">
        <ele>886.2</ele>
        <time>2019-04-10T14:19:25Z</time>
      </trkpt>
      <trkpt lat="-18.765727" lon="-47.129824">
        <ele>885</ele>
        <time>2019-04-10T14:19:26Z</time>
      </trkpt>
      <trkpt lat="-18.765694" lon="-47.129905">
        <ele>883.4</ele>
        <time>2019-04-10T14:19:27Z</time>
      </trkpt>
      <trkpt lat="-18.76566" lon="-47.129985">
        <ele>881.7</ele>
        <time>2019-04-10T14:19:28Z</time>
      </trkpt>
      <trkpt lat="-18.765628" lon="-47.130066">
        <ele>880.3</ele>
        <time>2019-04-10T14:19:29Z</time>
      </trkpt>
      <trkpt lat="-18.765596" lon="-47.13015">
        <ele>879.5</ele>
        <time>2019-04-10T14:19:30Z</time>
      </trkpt>
      <trkpt lat="-18.765565" lon="-47.130234">
        <ele>878.9</ele>
        <time>2019-04-10T14:19:31Z</time>
      </trkpt>
      <trkpt lat="-18.765533" lon="-47.130319">
        <ele>878.2</ele>
        <time>2019-04-10T14:19:32Z</time>
      </trkpt>
      <trkpt lat="-18.765499" lon="-47.130404">
        <ele>877.5</ele>
        <time>2019-04-10T14:19:33Z</time>
      </trkpt>
      <trkpt lat="-18.765463" lon="-47.13049">
        <ele>876.2</ele>
        <time>2019-04-10T14:19:34Z</time>
      </trkpt>
      <trkpt lat="-18.765424" lon="-47.130573">
        <ele>874.9</ele>
        <time>2019-04-10T14:19:35Z</time>
      </trkpt>
      <trkpt lat="-18.765377" lon="-47.130656">
        <ele>873.8</ele>
        <time>2019-04-10T14:19:36Z</time>
      </trkpt>
      <trkpt lat="-18.765326" lon="-47.130733">
        <ele>873.1</ele>
        <time>2019-04-10T14:19:37Z</time>
      </trkpt>
      <trkpt lat="-18.765271" lon="-47.130805">
        <ele>872.9</ele>
        <time>2019-04-10T14:19:38Z</time>
      </trkpt>
      <trkpt lat="-18.765208" lon="-47.130866">
        <ele>872.5</ele>
        <time>2019-04-10T14:19:39Z</time>
      </trkpt>
      <trkpt lat="-18.765144" lon="-47.130921">
        <ele>872.2</ele>
        <time>2019-04-10T14:19:40Z</time>
      </trkpt>
      <trkpt lat="-18.765081" lon="-47.130978">
        <ele>872.1</ele>
        <time>2019-04-10T14:19:41Z</time>
      </trkpt>
      <trkpt lat="-18.765015" lon="-47.131028">
        <ele>872.1</ele>
        <time>2019-04-10T14:19:42Z</time>
      </trkpt>
      <trkpt lat="-18.764954" lon="-47.131076">
        <ele>872.1</ele>
        <time>2019-04-10T14:19:43Z</time>
      </trkpt>
      <trkpt lat="-18.76489" lon="-47.131119">
        <ele>872.4</ele>
        <time>2019-04-10T14:19:44Z</time>
      </trkpt>
      <trkpt lat="-18.764829" lon="-47.131161">
        <ele>872.9</ele>
        <time>2019-04-10T14:19:45Z</time>
      </trkpt>
      <trkpt lat="-18.76477" lon="-47.131203">
        <ele>873.5</ele>
        <time>2019-04-10T14:19:46Z</time>
      </trkpt>
      <trkpt lat="-18.764713" lon="-47.131245">
        <ele>873.5</ele>
        <time>2019-04-10T14:19:47Z</time>
      </trkpt>
      <trkpt lat="-18.764658" lon="-47.131286">
        <ele>873.8</ele>
        <time>2019-04-10T14:19:48Z</time>
      </trkpt>
      <trkpt lat="-18.764604" lon="-47.131325">
        <ele>874.4</ele>
        <time>2019-04-10T14:19:49Z</time>
      </trkpt>
      <trkpt lat="-18.764555" lon="-47.131366">
        <ele>874.7</ele>
        <time>2019-04-10T14:19:50Z</time>
      </trkpt>
      <trkpt lat="-18.764504" lon="-47.131406">
        <ele>874.5</ele>
        <time>2019-04-10T14:19:51Z</time>
      </trkpt>
      <trkpt lat="-18.764451" lon="-47.131446">
        <ele>874.1</ele>
        <time>2019-04-10T14:19:52Z</time>
      </trkpt>
      <trkpt lat="-18.764399" lon="-47.131487">
        <ele>874</ele>
        <time>2019-04-10T14:19:53Z</time>
      </trkpt>
      <trkpt lat="-18.764351" lon="-47.131533">
        <ele>873.7</ele>
        <time>2019-04-10T14:19:54Z</time>
      </trkpt>
      <trkpt lat="-18.764305" lon="-47.131584">
        <ele>873.5</ele>
        <time>2019-04-10T14:19:55Z</time>
      </trkpt>
      <trkpt lat="-18.764254" lon="-47.131634">
        <ele>873.3</ele>
        <time>2019-04-10T14:19:56Z</time>
      </trkpt>
      <trkpt lat="-18.764205" lon="-47.131685">
        <ele>873.1</ele>
        <time>2019-04-10T14:19:57Z</time>
      </trkpt>
      <trkpt lat="-18.764155" lon="-47.131735">
        <ele>873.5</ele>
        <time>2019-04-10T14:19:58Z</time>
      </trkpt>
      <trkpt lat="-18.764106" lon="-47.131786">
        <ele>873.7</ele>
        <time>2019-04-10T14:19:59Z</time>
      </trkpt>
      <trkpt lat="-18.764054" lon="-47.131834">
        <ele>873.7</ele>
        <time>2019-04-10T14:20:00Z</time>
      </trkpt>
      <trkpt lat="-18.764006" lon="-47.131886">
        <ele>873.3</ele>
        <time>2019-04-10T14:20:01Z</time>
      </trkpt>
      <trkpt lat="-18.763955" lon="-47.131938">
        <ele>873.1</ele>
        <time>2019-04-10T14:20:02Z</time>
      </trkpt>
      <trkpt lat="-18.763903" lon="-47.131989">
        <ele>872.6</ele>
        <time>2019-04-10T14:20:03Z</time>
      </trkpt>
      <trkpt lat="-18.763859" lon="-47.132046">
        <ele>872.5</ele>
        <time>2019-04-10T14:20:04Z</time>
      </trkpt>
      <trkpt lat="-18.763812" lon="-47.132101">
        <ele>872.9</ele>
        <time>2019-04-10T14:20:05Z</time>
      </trkpt>
      <trkpt lat="-18.763765" lon="-47.132155">
        <ele>873.5</ele>
        <time>2019-04-10T14:20:06Z</time>
      </trkpt>
      <trkpt lat="-18.763714" lon="-47.132209">
        <ele>873.5</ele>
        <time>2019-04-10T14:20:07Z</time>
      </trkpt>
      <trkpt lat="-18.763661" lon="-47.132259">
        <ele>873.6</ele>
        <time>2019-04-10T14:20:08Z</time>
      </trkpt>
      <trkpt lat="-18.763609" lon="-47.132309">
        <ele>873.5</ele>
        <time>2019-04-10T14:20:09Z</time>
      </trkpt>
      <trkpt lat="-18.763556" lon="-47.132356">
        <ele>873.4</ele>
        <time>2019-04-10T14:20:10Z</time>
      </trkpt>
      <trkpt lat="-18.763505" lon="-47.132405">
        <ele>873.2</ele>
        <time>2019-04-10T14:20:11Z</time>
      </trkpt>
      <trkpt lat="-18.763456" lon="-47.132456">
        <ele>872.4</ele>
        <time>2019-04-10T14:20:12Z</time>
      </trkpt>
      <trkpt lat="-18.763406" lon="-47.132505">
        <ele>871.8</ele>
        <time>2019-04-10T14:20:13Z</time>
      </trkpt>
      <trkpt lat="-18.763358" lon="-47.132552">
        <ele>871.5</ele>
        <time>2019-04-10T14:20:14Z</time>
      </trkpt>
      <trkpt lat="-18.763307" lon="-47.132598">
        <ele>871.3</ele>
        <time>2019-04-10T14:20:15Z</time>
      </trkpt>
      <trkpt lat="-18.763258" lon="-47.132644">
        <ele>871.3</ele>
        <time>2019-04-10T14:20:16Z</time>
      </trkpt>
      <trkpt lat="-18.763208" lon="-47.132691">
        <ele>871.4</ele>
        <time>2019-04-10T14:20:17Z</time>
      </trkpt>
      <trkpt lat="-18.763158" lon="-47.132739">
        <ele>871.9</ele>
        <time>2019-04-10T14:20:18Z</time>
      </trkpt>
      <trkpt lat="-18.76311" lon="-47.13279">
        <ele>872</ele>
        <time>2019-04-10T14:20:19Z</time>
      </trkpt>
      <trkpt lat="-18.763064" lon="-47.132842">
        <ele>872</ele>
        <time>2019-04-10T14:20:20Z</time>
      </trkpt>
      <trkpt lat="-18.763017" lon="-47.132893">
        <ele>871.9</ele>
        <time>2019-04-10T14:20:21Z</time>
      </trkpt>
      <trkpt lat="-18.762968" lon="-47.132942">
        <ele>871.8</ele>
        <time>2019-04-10T14:20:22Z</time>
      </trkpt>
      <trkpt lat="-18.762918" lon="-47.13299">
        <ele>871.7</ele>
        <time>2019-04-10T14:20:23Z</time>
      </trkpt>
      <trkpt lat="-18.762869" lon="-47.133038">
        <ele>871.5</ele>
        <time>2019-04-10T14:20:24Z</time>
      </trkpt>
      <trkpt lat="-18.762821" lon="-47.133086">
        <ele>871.5</ele>
        <time>2019-04-10T14:20:25Z</time>
      </trkpt>
      <trkpt lat="-18.762773" lon="-47.133135">
        <ele>871.5</ele>
        <time>2019-04-10T14:20:26Z</time>
      </trkpt>
      <trkpt lat="-18.762726" lon="-47.133184">
        <ele>871.4</ele>
        <time>2019-04-10T14:20:27Z</time>
      </trkpt>
      <trkpt lat="-18.762677" lon="-47.133232">
        <ele>871.1</ele>
        <time>2019-04-10T14:20:28Z</time>
      </trkpt>
      <trkpt lat="-18.762629" lon="-47.13328">
        <ele>870.4</ele>
        <time>2019-04-10T14:20:29Z</time>
      </trkpt>
      <trkpt lat="-18.76258" lon="-47.13333">
        <ele>869.4</ele>
        <time>2019-04-10T14:20:30Z</time>
      </trkpt>
      <trkpt lat="-18.762532" lon="-47.13338">
        <ele>868.6</ele>
        <time>2019-04-10T14:20:31Z</time>
      </trkpt>
      <trkpt lat="-18.762483" lon="-47.133433">
        <ele>868.3</ele>
        <time>2019-04-10T14:20:32Z</time>
      </trkpt>
      <trkpt lat="-18.762432" lon="-47.133486">
        <ele>868.4</ele>
        <time>2019-04-10T14:20:33Z</time>
      </trkpt>
      <trkpt lat="-18.762382" lon="-47.13354">
        <ele>868.9</ele>
        <time>2019-04-10T14:20:34Z</time>
      </trkpt>
      <trkpt lat="-18.762332" lon="-47.133594">
        <ele>869.8</ele>
        <time>2019-04-10T14:20:35Z</time>
      </trkpt>
      <trkpt lat="-18.762285" lon="-47.133648">
        <ele>870.1</ele>
        <time>2019-04-10T14:20:36Z</time>
      </trkpt>
      <trkpt lat="-18.762239" lon="-47.133702">
        <ele>870.1</ele>
        <time>2019-04-10T14:20:37Z</time>
      </trkpt>
      <trkpt lat="-18.762194" lon="-47.133757">
        <ele>869.8</ele>
        <time>2019-04-10T14:20:38Z</time>
      </trkpt>
      <trkpt lat="-18.762143" lon="-47.133805">
        <ele>869.2</ele>
        <time>2019-04-10T14:20:39Z</time>
      </trkpt>
      <trkpt lat="-18.762099" lon="-47.133858">
        <ele>868.8</ele>
        <time>2019-04-10T14:20:40Z</time>
      </trkpt>
      <trkpt lat="-18.762058" lon="-47.133915">
        <ele>867.5</ele>
        <time>2019-04-10T14:20:41Z</time>
      </trkpt>
      <trkpt lat="-18.762026" lon="-47.133977">
        <ele>866.6</ele>
        <time>2019-04-10T14:20:42Z</time>
      </trkpt>
      <trkpt lat="-18.761999" lon="-47.134042">
        <ele>866</ele>
        <time>2019-04-10T14:20:43Z</time>
      </trkpt>
      <trkpt lat="-18.761973" lon="-47.134108">
        <ele>865.4</ele>
        <time>2019-04-10T14:20:44Z</time>
      </trkpt>
      <trkpt lat="-18.76195" lon="-47.134175">
        <ele>865.1</ele>
        <time>2019-04-10T14:20:45Z</time>
      </trkpt>
      <trkpt lat="-18.761929" lon="-47.134242">
        <ele>865.1</ele>
        <time>2019-04-10T14:20:46Z</time>
      </trkpt>
      <trkpt lat="-18.761911" lon="-47.13431">
        <ele>865.3</ele>
        <time>2019-04-10T14:20:47Z</time>
      </trkpt>
      <trkpt lat="-18.761891" lon="-47.134376">
        <ele>865.5</ele>
        <time>2019-04-10T14:20:48Z</time>
      </trkpt>
      <trkpt lat="-18.761871" lon="-47.13444">
        <ele>865.6</ele>
        <time>2019-04-10T14:20:49Z</time>
      </trkpt>
      <trkpt lat="-18.761853" lon="-47.134505">
        <ele>865.8</ele>
        <time>2019-04-10T14:20:50Z</time>
      </trkpt>
      <trkpt lat="-18.761843" lon="-47.134572">
        <ele>865.9</ele>
        <time>2019-04-10T14:20:51Z</time>
      </trkpt>
      <trkpt lat="-18.761832" lon="-47.134637">
        <ele>866</ele>
        <time>2019-04-10T14:20:52Z</time>
      </trkpt>
      <trkpt lat="-18.761817" lon="-47.134699">
        <ele>866.1</ele>
        <time>2019-04-10T14:20:53Z</time>
      </trkpt>
      <trkpt lat="-18.761802" lon="-47.134757">
        <ele>866.3</ele>
        <time>2019-04-10T14:20:54Z</time>
      </trkpt>
      <trkpt lat="-18.761789" lon="-47.134816">
        <ele>866.6</ele>
        <time>2019-04-10T14:20:55Z</time>
      </trkpt>
      <trkpt lat="-18.761773" lon="-47.134875">
        <ele>866.9</ele>
        <time>2019-04-10T14:20:56Z</time>
      </trkpt>
      <trkpt lat="-18.761759" lon="-47.134935">
        <ele>867</ele>
        <time>2019-04-10T14:20:57Z</time>
      </trkpt>
      <trkpt lat="-18.761748" lon="-47.134998">
        <ele>867</ele>
        <time>2019-04-10T14:20:58Z</time>
      </trkpt>
      <trkpt lat="-18.761727" lon="-47.135053">
        <ele>866.8</ele>
        <time>2019-04-10T14:20:59Z</time>
      </trkpt>
      <trkpt lat="-18.761698" lon="-47.1351">
        <ele>866.4</ele>
        <time>2019-04-10T14:21:00Z</time>
      </trkpt>
      <trkpt lat="-18.761666" lon="-47.135143">
        <ele>866</ele>
        <time>2019-04-10T14:21:01Z</time>
      </trkpt>
      <trkpt lat="-18.761633" lon="-47.13518">
        <ele>865.6</ele>
        <time>2019-04-10T14:21:02Z</time>
      </trkpt>
      <trkpt lat="-18.761598" lon="-47.135215">
        <ele>865.5</ele>
        <time>2019-04-10T14:21:03Z</time>
      </trkpt>
      <trkpt lat="-18.761562" lon="-47.135251">
        <ele>865.4</ele>
        <time>2019-04-10T14:21:04Z</time>
      </trkpt>
      <trkpt lat="-18.761535" lon="-47.135286">
        <ele>865.8</ele>
        <time>2019-04-10T14:21:05Z</time>
      </trkpt>
      <trkpt lat="-18.761509" lon="-47.135317">
        <ele>866.1</ele>
        <time>2019-04-10T14:21:06Z</time>
      </trkpt>
      <trkpt lat="-18.76148" lon="-47.135353">
        <ele>867.1</ele>
        <time>2019-04-10T14:21:07Z</time>
      </trkpt>
      <trkpt lat="-18.761452" lon="-47.135385">
        <ele>868.1</ele>
        <time>2019-04-10T14:21:08Z</time>
      </trkpt>
      <trkpt lat="-18.761429" lon="-47.135418">
        <ele>868.6</ele>
        <time>2019-04-10T14:21:09Z</time>
      </trkpt>
      <trkpt lat="-18.761409" lon="-47.135457">
        <ele>869.1</ele>
        <time>2019-04-10T14:21:10Z</time>
      </trkpt>
      <trkpt lat="-18.76139" lon="-47.135488">
        <ele>869.4</ele>
        <time>2019-04-10T14:21:11Z</time>
      </trkpt>
      <trkpt lat="-18.76137" lon="-47.135524">
        <ele>869.7</ele>
        <time>2019-04-10T14:21:12Z</time>
      </trkpt>
      <trkpt lat="-18.761351" lon="-47.135558">
        <ele>869.9</ele>
        <time>2019-04-10T14:21:13Z</time>
      </trkpt>
      <trkpt lat="-18.761335" lon="-47.135589">
        <ele>870</ele>
        <time>2019-04-10T14:21:14Z</time>
      </trkpt>
      <trkpt lat="-18.761317" lon="-47.135627">
        <ele>870.1</ele>
        <time>2019-04-10T14:21:15Z</time>
      </trkpt>
      <trkpt lat="-18.761297" lon="-47.135658">
        <ele>870.2</ele>
        <time>2019-04-10T14:21:16Z</time>
      </trkpt>
      <trkpt lat="-18.761279" lon="-47.135689">
        <ele>870.2</ele>
        <time>2019-04-10T14:21:17Z</time>
      </trkpt>
      <trkpt lat="-18.76126" lon="-47.135716">
        <ele>870.2</ele>
        <time>2019-04-10T14:21:18Z</time>
      </trkpt>
      <trkpt lat="-18.76124" lon="-47.135748">
        <ele>870.2</ele>
        <time>2019-04-10T14:21:19Z</time>
      </trkpt>
      <trkpt lat="-18.761224" lon="-47.135779">
        <ele>870.2</ele>
        <time>2019-04-10T14:21:20Z</time>
      </trkpt>
      <trkpt lat="-18.761208" lon="-47.135804">
        <ele>870.4</ele>
        <time>2019-04-10T14:21:21Z</time>
      </trkpt>
      <trkpt lat="-18.761186" lon="-47.135842">
        <ele>870.7</ele>
        <time>2019-04-10T14:21:22Z</time>
      </trkpt>
      <trkpt lat="-18.761169" lon="-47.135876">
        <ele>871.2</ele>
        <time>2019-04-10T14:21:23Z</time>
      </trkpt>
      <trkpt lat="-18.761151" lon="-47.135905">
        <ele>871.8</ele>
        <time>2019-04-10T14:21:24Z</time>
      </trkpt>
      <trkpt lat="-18.761132" lon="-47.135937">
        <ele>872.4</ele>
        <time>2019-04-10T14:21:25Z</time>
      </trkpt>
      <trkpt lat="-18.761118" lon="-47.135969">
        <ele>872.7</ele>
        <time>2019-04-10T14:21:26Z</time>
      </trkpt>
      <trkpt lat="-18.761099" lon="-47.136005">
        <ele>873</ele>
        <time>2019-04-10T14:21:27Z</time>
      </trkpt>
      <trkpt lat="-18.761086" lon="-47.13604">
        <ele>873.2</ele>
        <time>2019-04-10T14:21:28Z</time>
      </trkpt>
      <trkpt lat="-18.76107" lon="-47.13607">
        <ele>873.4</ele>
        <time>2019-04-10T14:21:29Z</time>
      </trkpt>
      <trkpt lat="-18.761051" lon="-47.136103">
        <ele>873.5</ele>
        <time>2019-04-10T14:21:30Z</time>
      </trkpt>
      <trkpt lat="-18.761037" lon="-47.136128">
        <ele>873.6</ele>
        <time>2019-04-10T14:21:31Z</time>
      </trkpt>
      <trkpt lat="-18.761025" lon="-47.136154">
        <ele>873.6</ele>
        <time>2019-04-10T14:21:32Z</time>
      </trkpt>
      <trkpt lat="-18.760996" lon="-47.1362">
        <ele>873.6</ele>
        <time>2019-04-10T14:21:34Z</time>
      </trkpt>
      <trkpt lat="-18.760988" lon="-47.136236">
        <ele>873.6</ele>
        <time>2019-04-10T14:21:36Z</time>
      </trkpt>
      <trkpt lat="-18.760974" lon="-47.136286">
        <ele>873.7</ele>
        <time>2019-04-10T14:21:38Z</time>
      </trkpt>
      <trkpt lat="-18.760956" lon="-47.136309">
        <ele>873.8</ele>
        <time>2019-04-10T14:21:39Z</time>
      </trkpt>
      <trkpt lat="-18.760932" lon="-47.136357">
        <ele>874.1</ele>
        <time>2019-04-10T14:21:41Z</time>
      </trkpt>
      <trkpt lat="-18.760918" lon="-47.136412">
        <ele>874.4</ele>
        <time>2019-04-10T14:21:43Z</time>
      </trkpt>
      <trkpt lat="-18.760909" lon="-47.13644">
        <ele>874.5</ele>
        <time>2019-04-10T14:21:44Z</time>
      </trkpt>
      <trkpt lat="-18.760901" lon="-47.136472">
        <ele>874.6</ele>
        <time>2019-04-10T14:21:45Z</time>
      </trkpt>
      <trkpt lat="-18.760894" lon="-47.136499">
        <ele>874.7</ele>
        <time>2019-04-10T14:21:46Z</time>
      </trkpt>
      <trkpt lat="-18.76089" lon="-47.136546">
        <ele>874.8</ele>
        <time>2019-04-10T14:21:48Z</time>
      </trkpt>
      <trkpt lat="-18.760884" lon="-47.1366">
        <ele>874.7</ele>
        <time>2019-04-10T14:21:50Z</time>
      </trkpt>
      <trkpt lat="-18.76088" lon="-47.136636">
        <ele>874.7</ele>
        <time>2019-04-10T14:21:51Z</time>
      </trkpt>
      <trkpt lat="-18.760876" lon="-47.136668">
        <ele>874.8</ele>
        <time>2019-04-10T14:21:52Z</time>
      </trkpt>
      <trkpt lat="-18.760877" lon="-47.1367">
        <ele>874.9</ele>
        <time>2019-04-10T14:21:53Z</time>
      </trkpt>
      <trkpt lat="-18.760884" lon="-47.136732">
        <ele>875</ele>
        <time>2019-04-10T14:21:54Z</time>
      </trkpt>
      <trkpt lat="-18.76089" lon="-47.136768">
        <ele>875</ele>
        <time>2019-04-10T14:21:55Z</time>
      </trkpt>
      <trkpt lat="-18.760893" lon="-47.136804">
        <ele>875</ele>
        <time>2019-04-10T14:21:56Z</time>
      </trkpt>
      <trkpt lat="-18.760897" lon="-47.136834">
        <ele>875.2</ele>
        <time>2019-04-10T14:21:57Z</time>
      </trkpt>
      <trkpt lat="-18.760898" lon="-47.136869">
        <ele>875.4</ele>
        <time>2019-04-10T14:21:58Z</time>
      </trkpt>
      <trkpt lat="-18.760897" lon="-47.136902">
        <ele>875.6</ele>
        <time>2019-04-10T14:21:59Z</time>
      </trkpt>
      <trkpt lat="-18.760894" lon="-47.136934">
        <ele>876</ele>
        <time>2019-04-10T14:22:00Z</time>
      </trkpt>
      <trkpt lat="-18.760895" lon="-47.136967">
        <ele>876.4</ele>
        <time>2019-04-10T14:22:01Z</time>
      </trkpt>
      <trkpt lat="-18.760899" lon="-47.137007">
        <ele>876.8</ele>
        <time>2019-04-10T14:22:02Z</time>
      </trkpt>
      <trkpt lat="-18.760899" lon="-47.137047">
        <ele>877</ele>
        <time>2019-04-10T14:22:03Z</time>
      </trkpt>
      <trkpt lat="-18.760899" lon="-47.13708">
        <ele>877.2</ele>
        <time>2019-04-10T14:22:04Z</time>
      </trkpt>
      <trkpt lat="-18.7609" lon="-47.137118">
        <ele>877.4</ele>
        <time>2019-04-10T14:22:05Z</time>
      </trkpt>
      <trkpt lat="-18.760899" lon="-47.137157">
        <ele>877.5</ele>
        <time>2019-04-10T14:22:06Z</time>
      </trkpt>
      <trkpt lat="-18.760902" lon="-47.137196">
        <ele>877.6</ele>
        <time>2019-04-10T14:22:07Z</time>
      </trkpt>
      <trkpt lat="-18.760901" lon="-47.137231">
        <ele>877.6</ele>
        <time>2019-04-10T14:22:08Z</time>
      </trkpt>
      <trkpt lat="-18.760903" lon="-47.137272">
        <ele>877.6</ele>
        <time>2019-04-10T14:22:09Z</time>
      </trkpt>
      <trkpt lat="-18.760899" lon="-47.137318">
        <ele>877.5</ele>
        <time>2019-04-10T14:22:10Z</time>
      </trkpt>
      <trkpt lat="-18.760897" lon="-47.137363">
        <ele>877.5</ele>
        <time>2019-04-10T14:22:11Z</time>
      </trkpt>
      <trkpt lat="-18.760897" lon="-47.137408">
        <ele>877.4</ele>
        <time>2019-04-10T14:22:12Z</time>
      </trkpt>
      <trkpt lat="-18.760905" lon="-47.137457">
        <ele>877.2</ele>
        <time>2019-04-10T14:22:13Z</time>
      </trkpt>
      <trkpt lat="-18.76091" lon="-47.137502">
        <ele>877.2</ele>
        <time>2019-04-10T14:22:14Z</time>
      </trkpt>
      <trkpt lat="-18.760917" lon="-47.137546">
        <ele>877.3</ele>
        <time>2019-04-10T14:22:15Z</time>
      </trkpt>
      <trkpt lat="-18.760917" lon="-47.137595">
        <ele>877.3</ele>
        <time>2019-04-10T14:22:16Z</time>
      </trkpt>
      <trkpt lat="-18.760919" lon="-47.137641">
        <ele>877.4</ele>
        <time>2019-04-10T14:22:17Z</time>
      </trkpt>
      <trkpt lat="-18.760923" lon="-47.137688">
        <ele>877.3</ele>
        <time>2019-04-10T14:22:18Z</time>
      </trkpt>
      <trkpt lat="-18.760934" lon="-47.137737">
        <ele>877.1</ele>
        <time>2019-04-10T14:22:19Z</time>
      </trkpt>
      <trkpt lat="-18.760938" lon="-47.137787">
        <ele>876.9</ele>
        <time>2019-04-10T14:22:20Z</time>
      </trkpt>
      <trkpt lat="-18.760944" lon="-47.137833">
        <ele>876.6</ele>
        <time>2019-04-10T14:22:21Z</time>
      </trkpt>
      <trkpt lat="-18.760946" lon="-47.137889">
        <ele>876</ele>
        <time>2019-04-10T14:22:22Z</time>
      </trkpt>
      <trkpt lat="-18.760951" lon="-47.137949">
        <ele>875.3</ele>
        <time>2019-04-10T14:22:23Z</time>
      </trkpt>
      <trkpt lat="-18.760962" lon="-47.138004">
        <ele>874.8</ele>
        <time>2019-04-10T14:22:24Z</time>
      </trkpt>
      <trkpt lat="-18.760975" lon="-47.13806">
        <ele>874.2</ele>
        <time>2019-04-10T14:22:25Z</time>
      </trkpt>
      <trkpt lat="-18.76099" lon="-47.138118">
        <ele>873.5</ele>
        <time>2019-04-10T14:22:26Z</time>
      </trkpt>
      <trkpt lat="-18.761004" lon="-47.138175">
        <ele>873</ele>
        <time>2019-04-10T14:22:27Z</time>
      </trkpt>
      <trkpt lat="-18.761015" lon="-47.138234">
        <ele>872.6</ele>
        <time>2019-04-10T14:22:28Z</time>
      </trkpt>
      <trkpt lat="-18.761025" lon="-47.138295">
        <ele>872.2</ele>
        <time>2019-04-10T14:22:29Z</time>
      </trkpt>
      <trkpt lat="-18.761029" lon="-47.138357">
        <ele>871.9</ele>
        <time>2019-04-10T14:22:30Z</time>
      </trkpt>
      <trkpt lat="-18.761036" lon="-47.138412">
        <ele>871.7</ele>
        <time>2019-04-10T14:22:31Z</time>
      </trkpt>
      <trkpt lat="-18.76104" lon="-47.138479">
        <ele>871.8</ele>
        <time>2019-04-10T14:22:32Z</time>
      </trkpt>
      <trkpt lat="-18.761042" lon="-47.138541">
        <ele>871.9</ele>
        <time>2019-04-10T14:22:33Z</time>
      </trkpt>
      <trkpt lat="-18.761047" lon="-47.138603">
        <ele>872.2</ele>
        <time>2019-04-10T14:22:34Z</time>
      </trkpt>
      <trkpt lat="-18.761056" lon="-47.138667">
        <ele>872.6</ele>
        <time>2019-04-10T14:22:35Z</time>
      </trkpt>
      <trkpt lat="-18.761062" lon="-47.138731">
        <ele>872.9</ele>
        <time>2019-04-10T14:22:36Z</time>
      </trkpt>
      <trkpt lat="-18.761065" lon="-47.138793">
        <ele>873</ele>
        <time>2019-04-10T14:22:37Z</time>
      </trkpt>
      <trkpt lat="-18.761072" lon="-47.138858">
        <ele>872.9</ele>
        <time>2019-04-10T14:22:38Z</time>
      </trkpt>
      <trkpt lat="-18.761079" lon="-47.138923">
        <ele>872.9</ele>
        <time>2019-04-10T14:22:39Z</time>
      </trkpt>
      <trkpt lat="-18.761085" lon="-47.138992">
        <ele>873</ele>
        <time>2019-04-10T14:22:40Z</time>
      </trkpt>
      <trkpt lat="-18.761081" lon="-47.139067">
        <ele>873</ele>
        <time>2019-04-10T14:22:41Z</time>
      </trkpt>
      <trkpt lat="-18.761083" lon="-47.139136">
        <ele>873</ele>
        <time>2019-04-10T14:22:42Z</time>
      </trkpt>
      <trkpt lat="-18.761094" lon="-47.139211">
        <ele>872.9</ele>
        <time>2019-04-10T14:22:43Z</time>
      </trkpt>
      <trkpt lat="-18.7611" lon="-47.13929">
        <ele>872.5</ele>
        <time>2019-04-10T14:22:44Z</time>
      </trkpt>
      <trkpt lat="-18.761105" lon="-47.139369">
        <ele>872</ele>
        <time>2019-04-10T14:22:45Z</time>
      </trkpt>
      <trkpt lat="-18.761109" lon="-47.139439">
        <ele>871.9</ele>
        <time>2019-04-10T14:22:46Z</time>
      </trkpt>
      <trkpt lat="-18.761113" lon="-47.139511">
        <ele>872</ele>
        <time>2019-04-10T14:22:47Z</time>
      </trkpt>
      <trkpt lat="-18.761119" lon="-47.139575">
        <ele>871.9</ele>
        <time>2019-04-10T14:22:48Z</time>
      </trkpt>
      <trkpt lat="-18.761122" lon="-47.139636">
        <ele>871.7</ele>
        <time>2019-04-10T14:22:49Z</time>
      </trkpt>
      <trkpt lat="-18.761125" lon="-47.139696">
        <ele>871.3</ele>
        <time>2019-04-10T14:22:50Z</time>
      </trkpt>
      <trkpt lat="-18.761129" lon="-47.139756">
        <ele>871</ele>
        <time>2019-04-10T14:22:51Z</time>
      </trkpt>
      <trkpt lat="-18.761138" lon="-47.139815">
        <ele>870.6</ele>
        <time>2019-04-10T14:22:52Z</time>
      </trkpt>
      <trkpt lat="-18.761146" lon="-47.139874">
        <ele>870.3</ele>
        <time>2019-04-10T14:22:53Z</time>
      </trkpt>
      <trkpt lat="-18.761154" lon="-47.13993">
        <ele>870</ele>
        <time>2019-04-10T14:22:54Z</time>
      </trkpt>
      <trkpt lat="-18.761162" lon="-47.139987">
        <ele>869.5</ele>
        <time>2019-04-10T14:22:55Z</time>
      </trkpt>
      <trkpt lat="-18.76117" lon="-47.140044">
        <ele>869.1</ele>
        <time>2019-04-10T14:22:56Z</time>
      </trkpt>
      <trkpt lat="-18.761178" lon="-47.140102">
        <ele>868.6</ele>
        <time>2019-04-10T14:22:57Z</time>
      </trkpt>
      <trkpt lat="-18.761178" lon="-47.140168">
        <ele>868</ele>
        <time>2019-04-10T14:22:58Z</time>
      </trkpt>
      <trkpt lat="-18.761183" lon="-47.140239">
        <ele>867.7</ele>
        <time>2019-04-10T14:22:59Z</time>
      </trkpt>
      <trkpt lat="-18.761185" lon="-47.140305">
        <ele>867.6</ele>
        <time>2019-04-10T14:23:00Z</time>
      </trkpt>
      <trkpt lat="-18.761188" lon="-47.140364">
        <ele>867.5</ele>
        <time>2019-04-10T14:23:01Z</time>
      </trkpt>
      <trkpt lat="-18.76119" lon="-47.140428">
        <ele>867.6</ele>
        <time>2019-04-10T14:23:02Z</time>
      </trkpt>
      <trkpt lat="-18.761198" lon="-47.14049">
        <ele>867.7</ele>
        <time>2019-04-10T14:23:03Z</time>
      </trkpt>
      <trkpt lat="-18.761209" lon="-47.14055">
        <ele>867.8</ele>
        <time>2019-04-10T14:23:04Z</time>
      </trkpt>
      <trkpt lat="-18.761226" lon="-47.140621">
        <ele>867.9</ele>
        <time>2019-04-10T14:23:05Z</time>
      </trkpt>
      <trkpt lat="-18.761239" lon="-47.140684">
        <ele>867.9</ele>
        <time>2019-04-10T14:23:06Z</time>
      </trkpt>
      <trkpt lat="-18.76125" lon="-47.140732">
        <ele>867.9</ele>
        <time>2019-04-10T14:23:07Z</time>
      </trkpt>
      <trkpt lat="-18.761257" lon="-47.140778">
        <ele>867.9</ele>
        <time>2019-04-10T14:23:08Z</time>
      </trkpt>
      <trkpt lat="-18.76126" lon="-47.140816">
        <ele>867.9</ele>
        <time>2019-04-10T14:23:09Z</time>
      </trkpt>
      <trkpt lat="-18.761254" lon="-47.140862">
        <ele>867.9</ele>
        <time>2019-04-10T14:23:11Z</time>
      </trkpt>
      <trkpt lat="-18.761254" lon="-47.140896">
        <ele>867.9</ele>
        <time>2019-04-10T14:23:12Z</time>
      </trkpt>
      <trkpt lat="-18.761253" lon="-47.140944">
        <ele>867.9</ele>
        <time>2019-04-10T14:23:13Z</time>
      </trkpt>
      <trkpt lat="-18.761257" lon="-47.141006">
        <ele>867.9</ele>
        <time>2019-04-10T14:23:15Z</time>
      </trkpt>
      <trkpt lat="-18.761254" lon="-47.141046">
        <ele>867.9</ele>
        <time>2019-04-10T14:23:16Z</time>
      </trkpt>
      <trkpt lat="-18.761254" lon="-47.141096">
        <ele>867.9</ele>
        <time>2019-04-10T14:23:17Z</time>
      </trkpt>
      <trkpt lat="-18.761251" lon="-47.141137">
        <ele>868</ele>
        <time>2019-04-10T14:23:18Z</time>
      </trkpt>
      <trkpt lat="-18.761247" lon="-47.141185">
        <ele>868.1</ele>
        <time>2019-04-10T14:23:19Z</time>
      </trkpt>
      <trkpt lat="-18.761247" lon="-47.14123">
        <ele>868.1</ele>
        <time>2019-04-10T14:23:20Z</time>
      </trkpt>
      <trkpt lat="-18.761245" lon="-47.141271">
        <ele>868.1</ele>
        <time>2019-04-10T14:23:21Z</time>
      </trkpt>
      <trkpt lat="-18.761242" lon="-47.141312">
        <ele>868.3</ele>
        <time>2019-04-10T14:23:22Z</time>
      </trkpt>
      <trkpt lat="-18.761241" lon="-47.141347">
        <ele>868.4</ele>
        <time>2019-04-10T14:23:23Z</time>
      </trkpt>
      <trkpt lat="-18.761245" lon="-47.141384">
        <ele>868.6</ele>
        <time>2019-04-10T14:23:24Z</time>
      </trkpt>
      <trkpt lat="-18.761252" lon="-47.141421">
        <ele>868.8</ele>
        <time>2019-04-10T14:23:25Z</time>
      </trkpt>
      <trkpt lat="-18.761258" lon="-47.141457">
        <ele>869</ele>
        <time>2019-04-10T14:23:26Z</time>
      </trkpt>
      <trkpt lat="-18.761268" lon="-47.141498">
        <ele>869.2</ele>
        <time>2019-04-10T14:23:27Z</time>
      </trkpt>
      <trkpt lat="-18.761274" lon="-47.141556">
        <ele>869.3</ele>
        <time>2019-04-10T14:23:28Z</time>
      </trkpt>
      <trkpt lat="-18.761284" lon="-47.141608">
        <ele>869.3</ele>
        <time>2019-04-10T14:23:29Z</time>
      </trkpt>
      <trkpt lat="-18.761295" lon="-47.141667">
        <ele>869.4</ele>
        <time>2019-04-10T14:23:30Z</time>
      </trkpt>
      <trkpt lat="-18.761309" lon="-47.141734">
        <ele>869.5</ele>
        <time>2019-04-10T14:23:31Z</time>
      </trkpt>
      <trkpt lat="-18.761321" lon="-47.141795">
        <ele>869.4</ele>
        <time>2019-04-10T14:23:32Z</time>
      </trkpt>
      <trkpt lat="-18.761334" lon="-47.141846">
        <ele>869.6</ele>
        <time>2019-04-10T14:23:33Z</time>
      </trkpt>
      <trkpt lat="-18.761349" lon="-47.141903">
        <ele>869.9</ele>
        <time>2019-04-10T14:23:34Z</time>
      </trkpt>
      <trkpt lat="-18.761358" lon="-47.141958">
        <ele>870.3</ele>
        <time>2019-04-10T14:23:35Z</time>
      </trkpt>
      <trkpt lat="-18.761365" lon="-47.142013">
        <ele>870.6</ele>
        <time>2019-04-10T14:23:36Z</time>
      </trkpt>
      <trkpt lat="-18.761373" lon="-47.142065">
        <ele>870.8</ele>
        <time>2019-04-10T14:23:37Z</time>
      </trkpt>
      <trkpt lat="-18.761376" lon="-47.142116">
        <ele>871.2</ele>
        <time>2019-04-10T14:23:38Z</time>
      </trkpt>
      <trkpt lat="-18.76138" lon="-47.142164">
        <ele>871.6</ele>
        <time>2019-04-10T14:23:39Z</time>
      </trkpt>
      <trkpt lat="-18.761385" lon="-47.142216">
        <ele>871.9</ele>
        <time>2019-04-10T14:23:40Z</time>
      </trkpt>
      <trkpt lat="-18.76139" lon="-47.142266">
        <ele>872.2</ele>
        <time>2019-04-10T14:23:41Z</time>
      </trkpt>
      <trkpt lat="-18.761392" lon="-47.142307">
        <ele>872.5</ele>
        <time>2019-04-10T14:23:42Z</time>
      </trkpt>
      <trkpt lat="-18.761392" lon="-47.14235">
        <ele>872.8</ele>
        <time>2019-04-10T14:23:43Z</time>
      </trkpt>
      <trkpt lat="-18.761393" lon="-47.142396">
        <ele>873.2</ele>
        <time>2019-04-10T14:23:44Z</time>
      </trkpt>
      <trkpt lat="-18.761393" lon="-47.142443">
        <ele>873.4</ele>
        <time>2019-04-10T14:23:45Z</time>
      </trkpt>
      <trkpt lat="-18.761397" lon="-47.142501">
        <ele>873.4</ele>
        <time>2019-04-10T14:23:47Z</time>
      </trkpt>
      <trkpt lat="-18.7614" lon="-47.14254">
        <ele>873.2</ele>
        <time>2019-04-10T14:23:48Z</time>
      </trkpt>
      <trkpt lat="-18.761401" lon="-47.142584">
        <ele>873</ele>
        <time>2019-04-10T14:23:49Z</time>
      </trkpt>
      <trkpt lat="-18.761401" lon="-47.142629">
        <ele>872.8</ele>
        <time>2019-04-10T14:23:50Z</time>
      </trkpt>
      <trkpt lat="-18.761402" lon="-47.142671">
        <ele>872.8</ele>
        <time>2019-04-10T14:23:51Z</time>
      </trkpt>
      <trkpt lat="-18.761397" lon="-47.142717">
        <ele>872.7</ele>
        <time>2019-04-10T14:23:52Z</time>
      </trkpt>
      <trkpt lat="-18.761393" lon="-47.142765">
        <ele>872.7</ele>
        <time>2019-04-10T14:23:53Z</time>
      </trkpt>
      <trkpt lat="-18.761384" lon="-47.142817">
        <ele>872.9</ele>
        <time>2019-04-10T14:23:54Z</time>
      </trkpt>
      <trkpt lat="-18.761375" lon="-47.142863">
        <ele>873.2</ele>
        <time>2019-04-10T14:23:55Z</time>
      </trkpt>
      <trkpt lat="-18.761362" lon="-47.142907">
        <ele>873.5</ele>
        <time>2019-04-10T14:23:56Z</time>
      </trkpt>
      <trkpt lat="-18.761354" lon="-47.142964">
        <ele>873.8</ele>
        <time>2019-04-10T14:23:57Z</time>
      </trkpt>
      <trkpt lat="-18.76134" lon="-47.143008">
        <ele>874.1</ele>
        <time>2019-04-10T14:23:58Z</time>
      </trkpt>
      <trkpt lat="-18.761321" lon="-47.14305">
        <ele>874.4</ele>
        <time>2019-04-10T14:23:59Z</time>
      </trkpt>
      <trkpt lat="-18.761302" lon="-47.143092">
        <ele>874.5</ele>
        <time>2019-04-10T14:24:00Z</time>
      </trkpt>
      <trkpt lat="-18.761281" lon="-47.143129">
        <ele>874.6</ele>
        <time>2019-04-10T14:24:01Z</time>
      </trkpt>
      <trkpt lat="-18.761261" lon="-47.143164">
        <ele>874.8</ele>
        <time>2019-04-10T14:24:02Z</time>
      </trkpt>
      <trkpt lat="-18.761242" lon="-47.143201">
        <ele>875</ele>
        <time>2019-04-10T14:24:03Z</time>
      </trkpt>
      <trkpt lat="-18.761223" lon="-47.143238">
        <ele>875.2</ele>
        <time>2019-04-10T14:24:04Z</time>
      </trkpt>
      <trkpt lat="-18.761205" lon="-47.143282">
        <ele>875.5</ele>
        <time>2019-04-10T14:24:05Z</time>
      </trkpt>
      <trkpt lat="-18.761185" lon="-47.143325">
        <ele>875.8</ele>
        <time>2019-04-10T14:24:06Z</time>
      </trkpt>
      <trkpt lat="-18.76116" lon="-47.143365">
        <ele>876</ele>
        <time>2019-04-10T14:24:07Z</time>
      </trkpt>
      <trkpt lat="-18.761135" lon="-47.143403">
        <ele>876.3</ele>
        <time>2019-04-10T14:24:08Z</time>
      </trkpt>
      <trkpt lat="-18.761106" lon="-47.143442">
        <ele>876.6</ele>
        <time>2019-04-10T14:24:09Z</time>
      </trkpt>
      <trkpt lat="-18.761072" lon="-47.143481">
        <ele>876.6</ele>
        <time>2019-04-10T14:24:10Z</time>
      </trkpt>
      <trkpt lat="-18.761037" lon="-47.143519">
        <ele>876.5</ele>
        <time>2019-04-10T14:24:11Z</time>
      </trkpt>
      <trkpt lat="-18.761007" lon="-47.143556">
        <ele>876.3</ele>
        <time>2019-04-10T14:24:12Z</time>
      </trkpt>
      <trkpt lat="-18.760976" lon="-47.143594">
        <ele>876.1</ele>
        <time>2019-04-10T14:24:13Z</time>
      </trkpt>
      <trkpt lat="-18.760943" lon="-47.143636">
        <ele>875.8</ele>
        <time>2019-04-10T14:24:14Z</time>
      </trkpt>
      <trkpt lat="-18.76091" lon="-47.143677">
        <ele>875.4</ele>
        <time>2019-04-10T14:24:15Z</time>
      </trkpt>
      <trkpt lat="-18.760877" lon="-47.143717">
        <ele>875</ele>
        <time>2019-04-10T14:24:16Z</time>
      </trkpt>
      <trkpt lat="-18.760843" lon="-47.14376">
        <ele>874.7</ele>
        <time>2019-04-10T14:24:17Z</time>
      </trkpt>
      <trkpt lat="-18.760807" lon="-47.143799">
        <ele>874.5</ele>
        <time>2019-04-10T14:24:18Z</time>
      </trkpt>
      <trkpt lat="-18.760771" lon="-47.143834">
        <ele>874.6</ele>
        <time>2019-04-10T14:24:19Z</time>
      </trkpt>
      <trkpt lat="-18.760735" lon="-47.143873">
        <ele>874.9</ele>
        <time>2019-04-10T14:24:20Z</time>
      </trkpt>
      <trkpt lat="-18.760698" lon="-47.143908">
        <ele>874.5</ele>
        <time>2019-04-10T14:24:21Z</time>
      </trkpt>
      <trkpt lat="-18.760663" lon="-47.143942">
        <ele>873.8</ele>
        <time>2019-04-10T14:24:22Z</time>
      </trkpt>
      <trkpt lat="-18.760628" lon="-47.143979">
        <ele>872.9</ele>
        <time>2019-04-10T14:24:23Z</time>
      </trkpt>
      <trkpt lat="-18.76059" lon="-47.144015">
        <ele>871.9</ele>
        <time>2019-04-10T14:24:24Z</time>
      </trkpt>
      <trkpt lat="-18.760554" lon="-47.144053">
        <ele>870.6</ele>
        <time>2019-04-10T14:24:25Z</time>
      </trkpt>
      <trkpt lat="-18.760516" lon="-47.144088">
        <ele>869.7</ele>
        <time>2019-04-10T14:24:26Z</time>
      </trkpt>
      <trkpt lat="-18.76047" lon="-47.144129">
        <ele>869</ele>
        <time>2019-04-10T14:24:27Z</time>
      </trkpt>
      <trkpt lat="-18.760427" lon="-47.144175">
        <ele>868.3</ele>
        <time>2019-04-10T14:24:28Z</time>
      </trkpt>
      <trkpt lat="-18.760383" lon="-47.144221">
        <ele>867.9</ele>
        <time>2019-04-10T14:24:29Z</time>
      </trkpt>
      <trkpt lat="-18.760345" lon="-47.144265">
        <ele>867.8</ele>
        <time>2019-04-10T14:24:30Z</time>
      </trkpt>
      <trkpt lat="-18.760303" lon="-47.144303">
        <ele>867.8</ele>
        <time>2019-04-10T14:24:31Z</time>
      </trkpt>
      <trkpt lat="-18.760269" lon="-47.14434">
        <ele>867.9</ele>
        <time>2019-04-10T14:24:32Z</time>
      </trkpt>
      <trkpt lat="-18.760234" lon="-47.144377">
        <ele>868</ele>
        <time>2019-04-10T14:24:33Z</time>
      </trkpt>
      <trkpt lat="-18.760199" lon="-47.144412">
        <ele>868.1</ele>
        <time>2019-04-10T14:24:34Z</time>
      </trkpt>
      <trkpt lat="-18.76016" lon="-47.144449">
        <ele>868.3</ele>
        <time>2019-04-10T14:24:35Z</time>
      </trkpt>
      <trkpt lat="-18.760123" lon="-47.144489">
        <ele>868.6</ele>
        <time>2019-04-10T14:24:36Z</time>
      </trkpt>
      <trkpt lat="-18.760086" lon="-47.144526">
        <ele>868.9</ele>
        <time>2019-04-10T14:24:37Z</time>
      </trkpt>
      <trkpt lat="-18.760049" lon="-47.144557">
        <ele>868.8</ele>
        <time>2019-04-10T14:24:38Z</time>
      </trkpt>
      <trkpt lat="-18.760015" lon="-47.144588">
        <ele>868.8</ele>
        <time>2019-04-10T14:24:39Z</time>
      </trkpt>
      <trkpt lat="-18.759977" lon="-47.144618">
        <ele>868.7</ele>
        <time>2019-04-10T14:24:40Z</time>
      </trkpt>
      <trkpt lat="-18.75994" lon="-47.144646">
        <ele>868.7</ele>
        <time>2019-04-10T14:24:41Z</time>
      </trkpt>
      <trkpt lat="-18.759903" lon="-47.144678">
        <ele>868.6</ele>
        <time>2019-04-10T14:24:42Z</time>
      </trkpt>
      <trkpt lat="-18.759868" lon="-47.144711">
        <ele>868.4</ele>
        <time>2019-04-10T14:24:43Z</time>
      </trkpt>
      <trkpt lat="-18.759837" lon="-47.144744">
        <ele>868.1</ele>
        <time>2019-04-10T14:24:44Z</time>
      </trkpt>
      <trkpt lat="-18.759809" lon="-47.144771">
        <ele>867.8</ele>
        <time>2019-04-10T14:24:45Z</time>
      </trkpt>
      <trkpt lat="-18.759781" lon="-47.1448">
        <ele>867.9</ele>
        <time>2019-04-10T14:24:46Z</time>
      </trkpt>
      <trkpt lat="-18.759752" lon="-47.144829">
        <ele>867.9</ele>
        <time>2019-04-10T14:24:47Z</time>
      </trkpt>
      <trkpt lat="-18.759721" lon="-47.144854">
        <ele>867.4</ele>
        <time>2019-04-10T14:24:48Z</time>
      </trkpt>
      <trkpt lat="-18.75968" lon="-47.144879">
        <ele>866.8</ele>
        <time>2019-04-10T14:24:49Z</time>
      </trkpt>
      <trkpt lat="-18.759636" lon="-47.144906">
        <ele>866.5</ele>
        <time>2019-04-10T14:24:50Z</time>
      </trkpt>
      <trkpt lat="-18.759592" lon="-47.144931">
        <ele>866.2</ele>
        <time>2019-04-10T14:24:51Z</time>
      </trkpt>
      <trkpt lat="-18.75954" lon="-47.144952">
        <ele>866.1</ele>
        <time>2019-04-10T14:24:52Z</time>
      </trkpt>
      <trkpt lat="-18.759488" lon="-47.144969">
        <ele>866.1</ele>
        <time>2019-04-10T14:24:53Z</time>
      </trkpt>
      <trkpt lat="-18.759428" lon="-47.144985">
        <ele>866</ele>
        <time>2019-04-10T14:24:54Z</time>
      </trkpt>
      <trkpt lat="-18.75936" lon="-47.144995">
        <ele>866</ele>
        <time>2019-04-10T14:24:55Z</time>
      </trkpt>
      <trkpt lat="-18.759298" lon="-47.145008">
        <ele>865.9</ele>
        <time>2019-04-10T14:24:56Z</time>
      </trkpt>
      <trkpt lat="-18.759239" lon="-47.145019">
        <ele>865.8</ele>
        <time>2019-04-10T14:24:57Z</time>
      </trkpt>
      <trkpt lat="-18.759186" lon="-47.145029">
        <ele>865.8</ele>
        <time>2019-04-10T14:24:58Z</time>
      </trkpt>
      <trkpt lat="-18.759133" lon="-47.145041">
        <ele>865.7</ele>
        <time>2019-04-10T14:24:59Z</time>
      </trkpt>
      <trkpt lat="-18.759074" lon="-47.145052">
        <ele>865.6</ele>
        <time>2019-04-10T14:25:00Z</time>
      </trkpt>
      <trkpt lat="-18.759021" lon="-47.145066">
        <ele>865.9</ele>
        <time>2019-04-10T14:25:01Z</time>
      </trkpt>
      <trkpt lat="-18.758969" lon="-47.145079">
        <ele>866.1</ele>
        <time>2019-04-10T14:25:02Z</time>
      </trkpt>
      <trkpt lat="-18.758913" lon="-47.145088">
        <ele>866.3</ele>
        <time>2019-04-10T14:25:03Z</time>
      </trkpt>
      <trkpt lat="-18.758854" lon="-47.145104">
        <ele>866.4</ele>
        <time>2019-04-10T14:25:04Z</time>
      </trkpt>
      <trkpt lat="-18.758797" lon="-47.145117">
        <ele>866.4</ele>
        <time>2019-04-10T14:25:05Z</time>
      </trkpt>
      <trkpt lat="-18.75874" lon="-47.145132">
        <ele>866.1</ele>
        <time>2019-04-10T14:25:06Z</time>
      </trkpt>
      <trkpt lat="-18.758682" lon="-47.145148">
        <ele>866.1</ele>
        <time>2019-04-10T14:25:07Z</time>
      </trkpt>
      <trkpt lat="-18.758615" lon="-47.145166">
        <ele>865.9</ele>
        <time>2019-04-10T14:25:08Z</time>
      </trkpt>
      <trkpt lat="-18.758557" lon="-47.145187">
        <ele>865.5</ele>
        <time>2019-04-10T14:25:09Z</time>
      </trkpt>
      <trkpt lat="-18.758483" lon="-47.145212">
        <ele>865.5</ele>
        <time>2019-04-10T14:25:10Z</time>
      </trkpt>
      <trkpt lat="-18.75841" lon="-47.145224">
        <ele>865.2</ele>
        <time>2019-04-10T14:25:11Z</time>
      </trkpt>
      <trkpt lat="-18.75833" lon="-47.145237">
        <ele>864.9</ele>
        <time>2019-04-10T14:25:12Z</time>
      </trkpt>
      <trkpt lat="-18.758255" lon="-47.145259">
        <ele>864.2</ele>
        <time>2019-04-10T14:25:13Z</time>
      </trkpt>
      <trkpt lat="-18.758167" lon="-47.145286">
        <ele>862.1</ele>
        <time>2019-04-10T14:25:14Z</time>
      </trkpt>
      <trkpt lat="-18.758077" lon="-47.145313">
        <ele>859.8</ele>
        <time>2019-04-10T14:25:15Z</time>
      </trkpt>
      <trkpt lat="-18.757984" lon="-47.145338">
        <ele>857.6</ele>
        <time>2019-04-10T14:25:16Z</time>
      </trkpt>
      <trkpt lat="-18.757889" lon="-47.145365">
        <ele>856.1</ele>
        <time>2019-04-10T14:25:17Z</time>
      </trkpt>
      <trkpt lat="-18.7578" lon="-47.14539">
        <ele>855</ele>
        <time>2019-04-10T14:25:18Z</time>
      </trkpt>
      <trkpt lat="-18.757707" lon="-47.145408">
        <ele>854.6</ele>
        <time>2019-04-10T14:25:19Z</time>
      </trkpt>
      <trkpt lat="-18.757603" lon="-47.145431">
        <ele>854</ele>
        <time>2019-04-10T14:25:20Z</time>
      </trkpt>
      <trkpt lat="-18.757499" lon="-47.145452">
        <ele>854.1</ele>
        <time>2019-04-10T14:25:21Z</time>
      </trkpt>
      <trkpt lat="-18.757393" lon="-47.145472">
        <ele>853</ele>
        <time>2019-04-10T14:25:22Z</time>
      </trkpt>
      <trkpt lat="-18.757285" lon="-47.145493">
        <ele>852</ele>
        <time>2019-04-10T14:25:23Z</time>
      </trkpt>
      <trkpt lat="-18.757182" lon="-47.145514">
        <ele>850.7</ele>
        <time>2019-04-10T14:25:24Z</time>
      </trkpt>
      <trkpt lat="-18.757077" lon="-47.145538">
        <ele>849.3</ele>
        <time>2019-04-10T14:25:25Z</time>
      </trkpt>
      <trkpt lat="-18.756973" lon="-47.145562">
        <ele>848.4</ele>
        <time>2019-04-10T14:25:26Z</time>
      </trkpt>
      <trkpt lat="-18.756871" lon="-47.145594">
        <ele>847.3</ele>
        <time>2019-04-10T14:25:27Z</time>
      </trkpt>
      <trkpt lat="-18.756764" lon="-47.145622">
        <ele>846.9</ele>
        <time>2019-04-10T14:25:28Z</time>
      </trkpt>
      <trkpt lat="-18.756657" lon="-47.145649">
        <ele>846</ele>
        <time>2019-04-10T14:25:29Z</time>
      </trkpt>
      <trkpt lat="-18.756551" lon="-47.145679">
        <ele>845.2</ele>
        <time>2019-04-10T14:25:30Z</time>
      </trkpt>
      <trkpt lat="-18.756448" lon="-47.145709">
        <ele>844.1</ele>
        <time>2019-04-10T14:25:31Z</time>
      </trkpt>
      <trkpt lat="-18.75635" lon="-47.145742">
        <ele>843.7</ele>
        <time>2019-04-10T14:25:32Z</time>
      </trkpt>
      <trkpt lat="-18.756247" lon="-47.145772">
        <ele>843.3</ele>
        <time>2019-04-10T14:25:33Z</time>
      </trkpt>
      <trkpt lat="-18.756142" lon="-47.145799">
        <ele>842.4</ele>
        <time>2019-04-10T14:25:34Z</time>
      </trkpt>
      <trkpt lat="-18.756031" lon="-47.145824">
        <ele>842.1</ele>
        <time>2019-04-10T14:25:35Z</time>
      </trkpt>
      <trkpt lat="-18.75592" lon="-47.145843">
        <ele>841.6</ele>
        <time>2019-04-10T14:25:36Z</time>
      </trkpt>
      <trkpt lat="-18.755804" lon="-47.145846">
        <ele>840.9</ele>
        <time>2019-04-10T14:25:37Z</time>
      </trkpt>
      <trkpt lat="-18.755687" lon="-47.145844">
        <ele>839.8</ele>
        <time>2019-04-10T14:25:38Z</time>
      </trkpt>
      <trkpt lat="-18.75557" lon="-47.145833">
        <ele>837.8</ele>
        <time>2019-04-10T14:25:39Z</time>
      </trkpt>
      <trkpt lat="-18.755456" lon="-47.14581">
        <ele>837</ele>
        <time>2019-04-10T14:25:40Z</time>
      </trkpt>
      <trkpt lat="-18.755341" lon="-47.145786">
        <ele>836.3</ele>
        <time>2019-04-10T14:25:41Z</time>
      </trkpt>
      <trkpt lat="-18.755227" lon="-47.145762">
        <ele>836.5</ele>
        <time>2019-04-10T14:25:42Z</time>
      </trkpt>
      <trkpt lat="-18.755113" lon="-47.145741">
        <ele>836.3</ele>
        <time>2019-04-10T14:25:43Z</time>
      </trkpt>
      <trkpt lat="-18.754997" lon="-47.145722">
        <ele>835.7</ele>
        <time>2019-04-10T14:25:44Z</time>
      </trkpt>
      <trkpt lat="-18.75488" lon="-47.145702">
        <ele>834.9</ele>
        <time>2019-04-10T14:25:45Z</time>
      </trkpt>
      <trkpt lat="-18.75476" lon="-47.14568">
        <ele>834</ele>
        <time>2019-04-10T14:25:46Z</time>
      </trkpt>
      <trkpt lat="-18.754639" lon="-47.14566">
        <ele>833.3</ele>
        <time>2019-04-10T14:25:47Z</time>
      </trkpt>
      <trkpt lat="-18.754517" lon="-47.145644">
        <ele>832</ele>
        <time>2019-04-10T14:25:48Z</time>
      </trkpt>
      <trkpt lat="-18.754392" lon="-47.145634">
        <ele>831.3</ele>
        <time>2019-04-10T14:25:49Z</time>
      </trkpt>
      <trkpt lat="-18.754268" lon="-47.145625">
        <ele>830.3</ele>
        <time>2019-04-10T14:25:50Z</time>
      </trkpt>
      <trkpt lat="-18.754146" lon="-47.14561">
        <ele>829.1</ele>
        <time>2019-04-10T14:25:51Z</time>
      </trkpt>
      <trkpt lat="-18.754025" lon="-47.145585">
        <ele>828.1</ele>
        <time>2019-04-10T14:25:52Z</time>
      </trkpt>
      <trkpt lat="-18.753903" lon="-47.145554">
        <ele>827.8</ele>
        <time>2019-04-10T14:25:53Z</time>
      </trkpt>
      <trkpt lat="-18.753783" lon="-47.145515">
        <ele>827.1</ele>
        <time>2019-04-10T14:25:54Z</time>
      </trkpt>
      <trkpt lat="-18.753663" lon="-47.145472">
        <ele>826.8</ele>
        <time>2019-04-10T14:25:55Z</time>
      </trkpt>
      <trkpt lat="-18.753543" lon="-47.145427">
        <ele>826.8</ele>
        <time>2019-04-10T14:25:56Z</time>
      </trkpt>
      <trkpt lat="-18.75342" lon="-47.14539">
        <ele>826.6</ele>
        <time>2019-04-10T14:25:57Z</time>
      </trkpt>
      <trkpt lat="-18.753299" lon="-47.145351">
        <ele>824.2</ele>
        <time>2019-04-10T14:25:58Z</time>
      </trkpt>
      <trkpt lat="-18.753177" lon="-47.14531">
        <ele>821.7</ele>
        <time>2019-04-10T14:25:59Z</time>
      </trkpt>
      <trkpt lat="-18.753058" lon="-47.145267">
        <ele>819.4</ele>
        <time>2019-04-10T14:26:00Z</time>
      </trkpt>
      <trkpt lat="-18.752942" lon="-47.145225">
        <ele>818.5</ele>
        <time>2019-04-10T14:26:01Z</time>
      </trkpt>
      <trkpt lat="-18.752824" lon="-47.145183">
        <ele>818.4</ele>
        <time>2019-04-10T14:26:02Z</time>
      </trkpt>
      <trkpt lat="-18.752708" lon="-47.145147">
        <ele>818.6</ele>
        <time>2019-04-10T14:26:03Z</time>
      </trkpt>
      <trkpt lat="-18.752593" lon="-47.145131">
        <ele>818.5</ele>
        <time>2019-04-10T14:26:04Z</time>
      </trkpt>
      <trkpt lat="-18.752482" lon="-47.14514">
        <ele>818.3</ele>
        <time>2019-04-10T14:26:05Z</time>
      </trkpt>
      <trkpt lat="-18.752371" lon="-47.145167">
        <ele>818</ele>
        <time>2019-04-10T14:26:06Z</time>
      </trkpt>
      <trkpt lat="-18.752266" lon="-47.145196">
        <ele>818</ele>
        <time>2019-04-10T14:26:07Z</time>
      </trkpt>
      <trkpt lat="-18.752163" lon="-47.145225">
        <ele>817.9</ele>
        <time>2019-04-10T14:26:08Z</time>
      </trkpt>
      <trkpt lat="-18.752062" lon="-47.145254">
        <ele>817.9</ele>
        <time>2019-04-10T14:26:09Z</time>
      </trkpt>
      <trkpt lat="-18.751963" lon="-47.145281">
        <ele>818</ele>
        <time>2019-04-10T14:26:10Z</time>
      </trkpt>
      <trkpt lat="-18.751866" lon="-47.145298">
        <ele>818.1</ele>
        <time>2019-04-10T14:26:11Z</time>
      </trkpt>
      <trkpt lat="-18.751773" lon="-47.145325">
        <ele>818.1</ele>
        <time>2019-04-10T14:26:12Z</time>
      </trkpt>
      <trkpt lat="-18.75168" lon="-47.145353">
        <ele>818.1</ele>
        <time>2019-04-10T14:26:13Z</time>
      </trkpt>
      <trkpt lat="-18.751591" lon="-47.145381">
        <ele>818.4</ele>
        <time>2019-04-10T14:26:14Z</time>
      </trkpt>
      <trkpt lat="-18.751506" lon="-47.145411">
        <ele>819.1</ele>
        <time>2019-04-10T14:26:15Z</time>
      </trkpt>
      <trkpt lat="-18.751421" lon="-47.145441">
        <ele>819.8</ele>
        <time>2019-04-10T14:26:16Z</time>
      </trkpt>
      <trkpt lat="-18.75134" lon="-47.145456">
        <ele>820.3</ele>
        <time>2019-04-10T14:26:17Z</time>
      </trkpt>
      <trkpt lat="-18.751273" lon="-47.145475">
        <ele>820.7</ele>
        <time>2019-04-10T14:26:18Z</time>
      </trkpt>
      <trkpt lat="-18.751215" lon="-47.145495">
        <ele>820.7</ele>
        <time>2019-04-10T14:26:19Z</time>
      </trkpt>
      <trkpt lat="-18.751161" lon="-47.145512">
        <ele>820.8</ele>
        <time>2019-04-10T14:26:20Z</time>
      </trkpt>
      <trkpt lat="-18.75111" lon="-47.145529">
        <ele>820.8</ele>
        <time>2019-04-10T14:26:21Z</time>
      </trkpt>
      <trkpt lat="-18.751057" lon="-47.145543">
        <ele>820.3</ele>
        <time>2019-04-10T14:26:22Z</time>
      </trkpt>
      <trkpt lat="-18.751002" lon="-47.145556">
        <ele>819.9</ele>
        <time>2019-04-10T14:26:23Z</time>
      </trkpt>
      <trkpt lat="-18.75095" lon="-47.145572">
        <ele>819.5</ele>
        <time>2019-04-10T14:26:24Z</time>
      </trkpt>
      <trkpt lat="-18.750901" lon="-47.145586">
        <ele>818.7</ele>
        <time>2019-04-10T14:26:25Z</time>
      </trkpt>
      <trkpt lat="-18.750854" lon="-47.145601">
        <ele>818</ele>
        <time>2019-04-10T14:26:26Z</time>
      </trkpt>
      <trkpt lat="-18.750812" lon="-47.145611">
        <ele>817.7</ele>
        <time>2019-04-10T14:26:27Z</time>
      </trkpt>
      <trkpt lat="-18.750773" lon="-47.145622">
        <ele>817.4</ele>
        <time>2019-04-10T14:26:28Z</time>
      </trkpt>
      <trkpt lat="-18.750738" lon="-47.14563">
        <ele>817.2</ele>
        <time>2019-04-10T14:26:29Z</time>
      </trkpt>
      <trkpt lat="-18.750705" lon="-47.145644">
        <ele>817</ele>
        <time>2019-04-10T14:26:30Z</time>
      </trkpt>
      <trkpt lat="-18.750673" lon="-47.145651">
        <ele>817</ele>
        <time>2019-04-10T14:26:31Z</time>
      </trkpt>
      <trkpt lat="-18.750643" lon="-47.145657">
        <ele>817</ele>
        <time>2019-04-10T14:26:32Z</time>
      </trkpt>
      <trkpt lat="-18.750613" lon="-47.145662">
        <ele>817</ele>
        <time>2019-04-10T14:26:33Z</time>
      </trkpt>
      <trkpt lat="-18.750573" lon="-47.14568">
        <ele>816.9</ele>
        <time>2019-04-10T14:26:35Z</time>
      </trkpt>
      <trkpt lat="-18.75054" lon="-47.145696">
        <ele>816.9</ele>
        <time>2019-04-10T14:26:37Z</time>
      </trkpt>
      <trkpt lat="-18.750509" lon="-47.145709">
        <ele>816.8</ele>
        <time>2019-04-10T14:26:39Z</time>
      </trkpt>
      <trkpt lat="-18.750464" lon="-47.14572">
        <ele>816.9</ele>
        <time>2019-04-10T14:26:41Z</time>
      </trkpt>
      <trkpt lat="-18.750416" lon="-47.145727">
        <ele>817</ele>
        <time>2019-04-10T14:26:43Z</time>
      </trkpt>
      <trkpt lat="-18.750366" lon="-47.145736">
        <ele>817</ele>
        <time>2019-04-10T14:26:45Z</time>
      </trkpt>
      <trkpt lat="-18.750337" lon="-47.145738">
        <ele>817</ele>
        <time>2019-04-10T14:26:46Z</time>
      </trkpt>
      <trkpt lat="-18.750306" lon="-47.145744">
        <ele>817.1</ele>
        <time>2019-04-10T14:26:47Z</time>
      </trkpt>
      <trkpt lat="-18.750268" lon="-47.145754">
        <ele>817.1</ele>
        <time>2019-04-10T14:26:48Z</time>
      </trkpt>
      <trkpt lat="-18.750225" lon="-47.145761">
        <ele>817.1</ele>
        <time>2019-04-10T14:26:49Z</time>
      </trkpt>
      <trkpt lat="-18.750178" lon="-47.14577">
        <ele>817.1</ele>
        <time>2019-04-10T14:26:50Z</time>
      </trkpt>
      <trkpt lat="-18.750129" lon="-47.145782">
        <ele>817</ele>
        <time>2019-04-10T14:26:51Z</time>
      </trkpt>
      <trkpt lat="-18.750082" lon="-47.145784">
        <ele>816.8</ele>
        <time>2019-04-10T14:26:52Z</time>
      </trkpt>
      <trkpt lat="-18.750035" lon="-47.145798">
        <ele>816.5</ele>
        <time>2019-04-10T14:26:53Z</time>
      </trkpt>
      <trkpt lat="-18.749986" lon="-47.145816">
        <ele>816.2</ele>
        <time>2019-04-10T14:26:54Z</time>
      </trkpt>
      <trkpt lat="-18.749942" lon="-47.145833">
        <ele>816</ele>
        <time>2019-04-10T14:26:55Z</time>
      </trkpt>
      <trkpt lat="-18.749895" lon="-47.145815">
        <ele>816</ele>
        <time>2019-04-10T14:26:56Z</time>
      </trkpt>
      <trkpt lat="-18.749847" lon="-47.145827">
        <ele>816</ele>
        <time>2019-04-10T14:26:57Z</time>
      </trkpt>
      <trkpt lat="-18.749788" lon="-47.14583">
        <ele>815.9</ele>
        <time>2019-04-10T14:26:58Z</time>
      </trkpt>
      <trkpt lat="-18.749725" lon="-47.145839">
        <ele>815.6</ele>
        <time>2019-04-10T14:26:59Z</time>
      </trkpt>
      <trkpt lat="-18.749647" lon="-47.145854">
        <ele>815.1</ele>
        <time>2019-04-10T14:27:00Z</time>
      </trkpt>
      <trkpt lat="-18.749575" lon="-47.145868">
        <ele>814.9</ele>
        <time>2019-04-10T14:27:01Z</time>
      </trkpt>
      <trkpt lat="-18.749504" lon="-47.145885">
        <ele>815</ele>
        <time>2019-04-10T14:27:02Z</time>
      </trkpt>
      <trkpt lat="-18.749433" lon="-47.1459">
        <ele>814.8</ele>
        <time>2019-04-10T14:27:03Z</time>
      </trkpt>
      <trkpt lat="-18.749368" lon="-47.145915">
        <ele>814.6</ele>
        <time>2019-04-10T14:27:04Z</time>
      </trkpt>
      <trkpt lat="-18.749297" lon="-47.145928">
        <ele>814.2</ele>
        <time>2019-04-10T14:27:05Z</time>
      </trkpt>
      <trkpt lat="-18.749226" lon="-47.145952">
        <ele>813.9</ele>
        <time>2019-04-10T14:27:06Z</time>
      </trkpt>
      <trkpt lat="-18.749154" lon="-47.145978">
        <ele>814</ele>
        <time>2019-04-10T14:27:07Z</time>
      </trkpt>
      <trkpt lat="-18.749086" lon="-47.146004">
        <ele>813.9</ele>
        <time>2019-04-10T14:27:08Z</time>
      </trkpt>
      <trkpt lat="-18.749021" lon="-47.146027">
        <ele>813.9</ele>
        <time>2019-04-10T14:27:09Z</time>
      </trkpt>
      <trkpt lat="-18.748962" lon="-47.146044">
        <ele>813.8</ele>
        <time>2019-04-10T14:27:10Z</time>
      </trkpt>
      <trkpt lat="-18.748894" lon="-47.146061">
        <ele>813.6</ele>
        <time>2019-04-10T14:27:11Z</time>
      </trkpt>
      <trkpt lat="-18.74884" lon="-47.146077">
        <ele>813.4</ele>
        <time>2019-04-10T14:27:12Z</time>
      </trkpt>
      <trkpt lat="-18.748791" lon="-47.146093">
        <ele>813.1</ele>
        <time>2019-04-10T14:27:13Z</time>
      </trkpt>
      <trkpt lat="-18.748752" lon="-47.146111">
        <ele>812.7</ele>
        <time>2019-04-10T14:27:14Z</time>
      </trkpt>
      <trkpt lat="-18.748709" lon="-47.146127">
        <ele>812.3</ele>
        <time>2019-04-10T14:27:15Z</time>
      </trkpt>
      <trkpt lat="-18.748669" lon="-47.146148">
        <ele>812.1</ele>
        <time>2019-04-10T14:27:16Z</time>
      </trkpt>
      <trkpt lat="-18.748633" lon="-47.146174">
        <ele>812</ele>
        <time>2019-04-10T14:27:17Z</time>
      </trkpt>
      <trkpt lat="-18.748592" lon="-47.146211">
        <ele>812</ele>
        <time>2019-04-10T14:27:18Z</time>
      </trkpt>
      <trkpt lat="-18.748557" lon="-47.146252">
        <ele>811.8</ele>
        <time>2019-04-10T14:27:19Z</time>
      </trkpt>
      <trkpt lat="-18.748529" lon="-47.146305">
        <ele>811.4</ele>
        <time>2019-04-10T14:27:20Z</time>
      </trkpt>
      <trkpt lat="-18.748517" lon="-47.146376">
        <ele>811</ele>
        <time>2019-04-10T14:27:21Z</time>
      </trkpt>
      <trkpt lat="-18.748503" lon="-47.146444">
        <ele>810.5</ele>
        <time>2019-04-10T14:27:22Z</time>
      </trkpt>
      <trkpt lat="-18.7485" lon="-47.146512">
        <ele>810.2</ele>
        <time>2019-04-10T14:27:23Z</time>
      </trkpt>
      <trkpt lat="-18.748509" lon="-47.146595">
        <ele>810</ele>
        <time>2019-04-10T14:27:24Z</time>
      </trkpt>
      <trkpt lat="-18.748518" lon="-47.146651">
        <ele>810</ele>
        <time>2019-04-10T14:27:25Z</time>
      </trkpt>
      <trkpt lat="-18.74853" lon="-47.146686">
        <ele>809.9</ele>
        <time>2019-04-10T14:27:26Z</time>
      </trkpt>
      <trkpt lat="-18.748541" lon="-47.146721">
        <ele>809.9</ele>
        <time>2019-04-10T14:27:27Z</time>
      </trkpt>
      <trkpt lat="-18.748555" lon="-47.146752">
        <ele>809.9</ele>
        <time>2019-04-10T14:27:29Z</time>
      </trkpt>
      <trkpt lat="-18.748571" lon="-47.146782">
        <ele>809.9</ele>
        <time>2019-04-10T14:27:31Z</time>
      </trkpt>
      <trkpt lat="-18.748594" lon="-47.146807">
        <ele>809.9</ele>
        <time>2019-04-10T14:27:45Z</time>
      </trkpt>
      <trkpt lat="-18.748614" lon="-47.146837">
        <ele>810.1</ele>
        <time>2019-04-10T14:27:47Z</time>
      </trkpt>
      <trkpt lat="-18.748641" lon="-47.146873">
        <ele>810.4</ele>
        <time>2019-04-10T14:27:49Z</time>
      </trkpt>
      <trkpt lat="-18.748651" lon="-47.146905">
        <ele>810.6</ele>
        <time>2019-04-10T14:27:51Z</time>
      </trkpt>
      <trkpt lat="-18.748669" lon="-47.146927">
        <ele>810.8</ele>
        <time>2019-04-10T14:27:53Z</time>
      </trkpt>
      <trkpt lat="-18.748699" lon="-47.146936">
        <ele>811</ele>
        <time>2019-04-10T14:27:54Z</time>
      </trkpt>
      <trkpt lat="-18.748744" lon="-47.146974">
        <ele>811.3</ele>
        <time>2019-04-10T14:27:58Z</time>
      </trkpt>
      <trkpt lat="-18.748763" lon="-47.146999">
        <ele>811.5</ele>
        <time>2019-04-10T14:28:06Z</time>
      </trkpt>
      <trkpt lat="-18.748782" lon="-47.147024">
        <ele>811.6</ele>
        <time>2019-04-10T14:28:07Z</time>
      </trkpt>
      <trkpt lat="-18.74882" lon="-47.147162">
        <ele>812.5</ele>
        <time>2019-04-10T14:28:22Z</time>
      </trkpt>
      <trkpt lat="-18.748847" lon="-47.147222">
        <ele>813.1</ele>
        <time>2019-04-10T14:29:43Z</time>
      </trkpt>
      <trkpt lat="-18.748875" lon="-47.147283">
        <ele>813.7</ele>
        <time>2019-04-10T14:29:44Z</time>
      </trkpt>
      <trkpt lat="-18.748892" lon="-47.147356">
        <ele>814.3</ele>
        <time>2019-04-10T14:29:45Z</time>
      </trkpt>
      <trkpt lat="-18.748909" lon="-47.147425">
        <ele>815</ele>
        <time>2019-04-10T14:29:46Z</time>
      </trkpt>
      <trkpt lat="-18.748923" lon="-47.147486">
        <ele>815.7</ele>
        <time>2019-04-10T14:29:47Z</time>
      </trkpt>
      <trkpt lat="-18.748936" lon="-47.147545">
        <ele>816.7</ele>
        <time>2019-04-10T14:29:48Z</time>
      </trkpt>
      <trkpt lat="-18.748942" lon="-47.147594">
        <ele>817.2</ele>
        <time>2019-04-10T14:29:49Z</time>
      </trkpt>
      <trkpt lat="-18.748949" lon="-47.147642">
        <ele>817.6</ele>
        <time>2019-04-10T14:29:50Z</time>
      </trkpt>
      <trkpt lat="-18.748959" lon="-47.147674">
        <ele>817.7</ele>
        <time>2019-04-10T14:29:51Z</time>
      </trkpt>
      <trkpt lat="-18.748969" lon="-47.147704">
        <ele>817.9</ele>
        <time>2019-04-10T14:29:52Z</time>
      </trkpt>
      <trkpt lat="-18.748978" lon="-47.147736">
        <ele>818</ele>
        <time>2019-04-10T14:29:53Z</time>
      </trkpt>
      <trkpt lat="-18.748994" lon="-47.147791">
        <ele>817.9</ele>
        <time>2019-04-10T14:29:55Z</time>
      </trkpt>
      <trkpt lat="-18.749009" lon="-47.147823">
        <ele>817.8</ele>
        <time>2019-04-10T14:29:56Z</time>
      </trkpt>
      <trkpt lat="-18.749028" lon="-47.14787">
        <ele>817.4</ele>
        <time>2019-04-10T14:29:58Z</time>
      </trkpt>
      <trkpt lat="-18.749035" lon="-47.147918">
        <ele>817.1</ele>
        <time>2019-04-10T14:30:00Z</time>
      </trkpt>
      <trkpt lat="-18.749058" lon="-47.147959">
        <ele>816.9</ele>
        <time>2019-04-10T14:30:02Z</time>
      </trkpt>
      <trkpt lat="-18.749061" lon="-47.14801">
        <ele>817</ele>
        <time>2019-04-10T14:30:04Z</time>
      </trkpt>
      <trkpt lat="-18.749056" lon="-47.148048">
        <ele>817.3</ele>
        <time>2019-04-10T14:30:06Z</time>
      </trkpt>
      <trkpt lat="-18.749048" lon="-47.148089">
        <ele>817.7</ele>
        <time>2019-04-10T14:30:08Z</time>
      </trkpt>
      <trkpt lat="-18.749037" lon="-47.148127">
        <ele>818.3</ele>
        <time>2019-04-10T14:30:10Z</time>
      </trkpt>
      <trkpt lat="-18.749027" lon="-47.148162">
        <ele>818.7</ele>
        <time>2019-04-10T14:30:12Z</time>
      </trkpt>
      <trkpt lat="-18.749015" lon="-47.14819">
        <ele>819</ele>
        <time>2019-04-10T14:30:14Z</time>
      </trkpt>
      <trkpt lat="-18.748997" lon="-47.148223">
        <ele>819.5</ele>
        <time>2019-04-10T14:30:16Z</time>
      </trkpt>
      <trkpt lat="-18.748975" lon="-47.148244">
        <ele>820</ele>
        <time>2019-04-10T14:30:18Z</time>
      </trkpt>
      <trkpt lat="-18.748954" lon="-47.148266">
        <ele>820.5</ele>
        <time>2019-04-10T14:30:20Z</time>
      </trkpt>
      <trkpt lat="-18.748936" lon="-47.148289">
        <ele>820.9</ele>
        <time>2019-04-10T14:30:22Z</time>
      </trkpt>
      <trkpt lat="-18.748916" lon="-47.148312">
        <ele>821.4</ele>
        <time>2019-04-10T14:30:24Z</time>
      </trkpt>
      <trkpt lat="-18.748906" lon="-47.148348">
        <ele>821.9</ele>
        <time>2019-04-10T14:30:26Z</time>
      </trkpt>
      <trkpt lat="-18.748891" lon="-47.14838">
        <ele>822.7</ele>
        <time>2019-04-10T14:30:28Z</time>
      </trkpt>
      <trkpt lat="-18.748882" lon="-47.14841">
        <ele>823.5</ele>
        <time>2019-04-10T14:30:30Z</time>
      </trkpt>
      <trkpt lat="-18.748866" lon="-47.148441">
        <ele>824.3</ele>
        <time>2019-04-10T14:30:33Z</time>
      </trkpt>
      <trkpt lat="-18.748838" lon="-47.148474">
        <ele>825.2</ele>
        <time>2019-04-10T14:30:36Z</time>
      </trkpt>
      <trkpt lat="-18.748816" lon="-47.1485">
        <ele>825.9</ele>
        <time>2019-04-10T14:30:38Z</time>
      </trkpt>
      <trkpt lat="-18.748806" lon="-47.148528">
        <ele>826.5</ele>
        <time>2019-04-10T14:30:40Z</time>
      </trkpt>
      <trkpt lat="-18.748791" lon="-47.148553">
        <ele>827.2</ele>
        <time>2019-04-10T14:30:42Z</time>
      </trkpt>
      <trkpt lat="-18.748774" lon="-47.14859">
        <ele>828.1</ele>
        <time>2019-04-10T14:30:45Z</time>
      </trkpt>
      <trkpt lat="-18.748762" lon="-47.148619">
        <ele>828.9</ele>
        <time>2019-04-10T14:30:47Z</time>
      </trkpt>
      <trkpt lat="-18.74875" lon="-47.148648">
        <ele>829.7</ele>
        <time>2019-04-10T14:30:49Z</time>
      </trkpt>
      <trkpt lat="-18.748737" lon="-47.148683">
        <ele>830.4</ele>
        <time>2019-04-10T14:30:52Z</time>
      </trkpt>
      <trkpt lat="-18.748714" lon="-47.148706">
        <ele>831</ele>
        <time>2019-04-10T14:30:54Z</time>
      </trkpt>
      <trkpt lat="-18.74869" lon="-47.148731">
        <ele>831.7</ele>
        <time>2019-04-10T14:30:57Z</time>
      </trkpt>
      <trkpt lat="-18.748681" lon="-47.148761">
        <ele>832</ele>
        <time>2019-04-10T14:30:59Z</time>
      </trkpt>
      <trkpt lat="-18.748665" lon="-47.148786">
        <ele>832.3</ele>
        <time>2019-04-10T14:31:01Z</time>
      </trkpt>
      <trkpt lat="-18.748637" lon="-47.148803">
        <ele>832.7</ele>
        <time>2019-04-10T14:31:04Z</time>
      </trkpt>
      <trkpt lat="-18.74862" lon="-47.148841">
        <ele>832.8</ele>
        <time>2019-04-10T14:31:06Z</time>
      </trkpt>
      <trkpt lat="-18.748603" lon="-47.148864">
        <ele>832.9</ele>
        <time>2019-04-10T14:31:10Z</time>
      </trkpt>
      <trkpt lat="-18.748544" lon="-47.148937">
        <ele>833.6</ele>
        <time>2019-04-10T14:32:19Z</time>
      </trkpt>
      <trkpt lat="-18.748515" lon="-47.148968">
        <ele>834.2</ele>
        <time>2019-04-10T14:32:21Z</time>
      </trkpt>
      <trkpt lat="-18.74849" lon="-47.148996">
        <ele>834.9</ele>
        <time>2019-04-10T14:32:23Z</time>
      </trkpt>
      <trkpt lat="-18.748469" lon="-47.149031">
        <ele>835.6</ele>
        <time>2019-04-10T14:32:25Z</time>
      </trkpt>
      <trkpt lat="-18.748443" lon="-47.149061">
        <ele>836.4</ele>
        <time>2019-04-10T14:32:27Z</time>
      </trkpt>
      <trkpt lat="-18.748424" lon="-47.149083">
        <ele>837.1</ele>
        <time>2019-04-10T14:32:33Z</time>
      </trkpt>
      <trkpt lat="-18.748386" lon="-47.14912">
        <ele>838.4</ele>
        <time>2019-04-10T14:33:10Z</time>
      </trkpt>
      <trkpt lat="-18.748351" lon="-47.149157">
        <ele>839.9</ele>
        <time>2019-04-10T14:33:12Z</time>
      </trkpt>
      <trkpt lat="-18.748311" lon="-47.149185">
        <ele>841</ele>
        <time>2019-04-10T14:33:14Z</time>
      </trkpt>
      <trkpt lat="-18.748285" lon="-47.149197">
        <ele>841.6</ele>
        <time>2019-04-10T14:33:15Z</time>
      </trkpt>
      <trkpt lat="-18.748258" lon="-47.149213">
        <ele>842.1</ele>
        <time>2019-04-10T14:33:16Z</time>
      </trkpt>
      <trkpt lat="-18.748232" lon="-47.14923">
        <ele>842.5</ele>
        <time>2019-04-10T14:33:17Z</time>
      </trkpt>
      <trkpt lat="-18.748205" lon="-47.149245">
        <ele>842.8</ele>
        <time>2019-04-10T14:33:18Z</time>
      </trkpt>
      <trkpt lat="-18.748177" lon="-47.14926">
        <ele>843</ele>
        <time>2019-04-10T14:33:19Z</time>
      </trkpt>
      <trkpt lat="-18.748152" lon="-47.149271">
        <ele>843.1</ele>
        <time>2019-04-10T14:33:20Z</time>
      </trkpt>
      <trkpt lat="-18.748132" lon="-47.149291">
        <ele>843.3</ele>
        <time>2019-04-10T14:33:21Z</time>
      </trkpt>
      <trkpt lat="-18.748093" lon="-47.14933">
        <ele>843.2</ele>
        <time>2019-04-10T14:33:23Z</time>
      </trkpt>
      <trkpt lat="-18.748051" lon="-47.149346">
        <ele>843.1</ele>
        <time>2019-04-10T14:33:25Z</time>
      </trkpt>
      <trkpt lat="-18.748008" lon="-47.149367">
        <ele>843.2</ele>
        <time>2019-04-10T14:33:27Z</time>
      </trkpt>
      <trkpt lat="-18.747961" lon="-47.149383">
        <ele>843.2</ele>
        <time>2019-04-10T14:33:29Z</time>
      </trkpt>
      <trkpt lat="-18.747917" lon="-47.149389">
        <ele>843.4</ele>
        <time>2019-04-10T14:33:31Z</time>
      </trkpt>
      <trkpt lat="-18.74787" lon="-47.149401">
        <ele>843.6</ele>
        <time>2019-04-10T14:33:33Z</time>
      </trkpt>
      <trkpt lat="-18.747836" lon="-47.149401">
        <ele>843.7</ele>
        <time>2019-04-10T14:33:34Z</time>
      </trkpt>
      <trkpt lat="-18.747805" lon="-47.149406">
        <ele>843.8</ele>
        <time>2019-04-10T14:33:35Z</time>
      </trkpt>
      <trkpt lat="-18.747773" lon="-47.149404">
        <ele>843.8</ele>
        <time>2019-04-10T14:33:36Z</time>
      </trkpt>
      <trkpt lat="-18.747745" lon="-47.149401">
        <ele>843.8</ele>
        <time>2019-04-10T14:33:37Z</time>
      </trkpt>
      <trkpt lat="-18.747715" lon="-47.149396">
        <ele>843.7</ele>
        <time>2019-04-10T14:33:38Z</time>
      </trkpt>
      <trkpt lat="-18.747682" lon="-47.149394">
        <ele>843.6</ele>
        <time>2019-04-10T14:33:39Z</time>
      </trkpt>
      <trkpt lat="-18.747643" lon="-47.149388">
        <ele>843.5</ele>
        <time>2019-04-10T14:33:40Z</time>
      </trkpt>
      <trkpt lat="-18.747605" lon="-47.149379">
        <ele>843.6</ele>
        <time>2019-04-10T14:33:41Z</time>
      </trkpt>
      <trkpt lat="-18.747572" lon="-47.149377">
        <ele>843.6</ele>
        <time>2019-04-10T14:33:42Z</time>
      </trkpt>
      <trkpt lat="-18.747536" lon="-47.149374">
        <ele>843.8</ele>
        <time>2019-04-10T14:33:43Z</time>
      </trkpt>
      <trkpt lat="-18.747504" lon="-47.149366">
        <ele>844.1</ele>
        <time>2019-04-10T14:33:44Z</time>
      </trkpt>
      <trkpt lat="-18.747473" lon="-47.149358">
        <ele>844.4</ele>
        <time>2019-04-10T14:33:45Z</time>
      </trkpt>
      <trkpt lat="-18.747435" lon="-47.149346">
        <ele>844.8</ele>
        <time>2019-04-10T14:33:46Z</time>
      </trkpt>
      <trkpt lat="-18.747399" lon="-47.149337">
        <ele>845.2</ele>
        <time>2019-04-10T14:33:47Z</time>
      </trkpt>
      <trkpt lat="-18.747363" lon="-47.149329">
        <ele>845.5</ele>
        <time>2019-04-10T14:33:48Z</time>
      </trkpt>
      <trkpt lat="-18.747327" lon="-47.149325">
        <ele>845.9</ele>
        <time>2019-04-10T14:33:49Z</time>
      </trkpt>
      <trkpt lat="-18.74729" lon="-47.14932">
        <ele>846.3</ele>
        <time>2019-04-10T14:33:50Z</time>
      </trkpt>
      <trkpt lat="-18.747256" lon="-47.149312">
        <ele>847</ele>
        <time>2019-04-10T14:33:51Z</time>
      </trkpt>
      <trkpt lat="-18.747225" lon="-47.149303">
        <ele>847.5</ele>
        <time>2019-04-10T14:33:52Z</time>
      </trkpt>
      <trkpt lat="-18.747189" lon="-47.149288">
        <ele>848</ele>
        <time>2019-04-10T14:33:53Z</time>
      </trkpt>
      <trkpt lat="-18.747148" lon="-47.149277">
        <ele>848.5</ele>
        <time>2019-04-10T14:33:54Z</time>
      </trkpt>
      <trkpt lat="-18.747102" lon="-47.14927">
        <ele>848.5</ele>
        <time>2019-04-10T14:33:55Z</time>
      </trkpt>
      <trkpt lat="-18.747052" lon="-47.149263">
        <ele>848.4</ele>
        <time>2019-04-10T14:33:56Z</time>
      </trkpt>
      <trkpt lat="-18.747006" lon="-47.149253">
        <ele>848.2</ele>
        <time>2019-04-10T14:33:57Z</time>
      </trkpt>
      <trkpt lat="-18.74695" lon="-47.149249">
        <ele>847.9</ele>
        <time>2019-04-10T14:33:58Z</time>
      </trkpt>
      <trkpt lat="-18.746891" lon="-47.149246">
        <ele>847.4</ele>
        <time>2019-04-10T14:33:59Z</time>
      </trkpt>
      <trkpt lat="-18.746843" lon="-47.149241">
        <ele>846.8</ele>
        <time>2019-04-10T14:34:00Z</time>
      </trkpt>
      <trkpt lat="-18.746786" lon="-47.149229">
        <ele>846.1</ele>
        <time>2019-04-10T14:34:01Z</time>
      </trkpt>
      <trkpt lat="-18.746724" lon="-47.149221">
        <ele>845.3</ele>
        <time>2019-04-10T14:34:02Z</time>
      </trkpt>
      <trkpt lat="-18.746661" lon="-47.14921">
        <ele>844.8</ele>
        <time>2019-04-10T14:34:03Z</time>
      </trkpt>
      <trkpt lat="-18.746596" lon="-47.149196">
        <ele>844.7</ele>
        <time>2019-04-10T14:34:04Z</time>
      </trkpt>
      <trkpt lat="-18.746529" lon="-47.149189">
        <ele>845</ele>
        <time>2019-04-10T14:34:05Z</time>
      </trkpt>
      <trkpt lat="-18.746452" lon="-47.149178">
        <ele>845.4</ele>
        <time>2019-04-10T14:34:06Z</time>
      </trkpt>
      <trkpt lat="-18.746372" lon="-47.149169">
        <ele>845.6</ele>
        <time>2019-04-10T14:34:07Z</time>
      </trkpt>
      <trkpt lat="-18.746297" lon="-47.149162">
        <ele>845.4</ele>
        <time>2019-04-10T14:34:08Z</time>
      </trkpt>
      <trkpt lat="-18.746229" lon="-47.149154">
        <ele>845</ele>
        <time>2019-04-10T14:34:09Z</time>
      </trkpt>
      <trkpt lat="-18.746169" lon="-47.149148">
        <ele>844.8</ele>
        <time>2019-04-10T14:34:10Z</time>
      </trkpt>
      <trkpt lat="-18.746115" lon="-47.14914">
        <ele>844.7</ele>
        <time>2019-04-10T14:34:11Z</time>
      </trkpt>
      <trkpt lat="-18.746053" lon="-47.149127">
        <ele>844.6</ele>
        <time>2019-04-10T14:34:12Z</time>
      </trkpt>
      <trkpt lat="-18.745992" lon="-47.149117">
        <ele>844.2</ele>
        <time>2019-04-10T14:34:13Z</time>
      </trkpt>
      <trkpt lat="-18.74592" lon="-47.1491">
        <ele>843.5</ele>
        <time>2019-04-10T14:34:14Z</time>
      </trkpt>
      <trkpt lat="-18.74585" lon="-47.149085">
        <ele>843</ele>
        <time>2019-04-10T14:34:15Z</time>
      </trkpt>
      <trkpt lat="-18.745789" lon="-47.149071">
        <ele>842.9</ele>
        <time>2019-04-10T14:34:16Z</time>
      </trkpt>
      <trkpt lat="-18.74572" lon="-47.149053">
        <ele>842.9</ele>
        <time>2019-04-10T14:34:17Z</time>
      </trkpt>
      <trkpt lat="-18.745653" lon="-47.149032">
        <ele>843</ele>
        <time>2019-04-10T14:34:18Z</time>
      </trkpt>
      <trkpt lat="-18.745584" lon="-47.14902">
        <ele>843</ele>
        <time>2019-04-10T14:34:19Z</time>
      </trkpt>
      <trkpt lat="-18.745512" lon="-47.149001">
        <ele>843</ele>
        <time>2019-04-10T14:34:20Z</time>
      </trkpt>
      <trkpt lat="-18.745444" lon="-47.14896">
        <ele>843.1</ele>
        <time>2019-04-10T14:34:21Z</time>
      </trkpt>
      <trkpt lat="-18.745393" lon="-47.14893">
        <ele>843</ele>
        <time>2019-04-10T14:34:22Z</time>
      </trkpt>
      <trkpt lat="-18.745327" lon="-47.148897">
        <ele>842.7</ele>
        <time>2019-04-10T14:34:23Z</time>
      </trkpt>
      <trkpt lat="-18.745267" lon="-47.148862">
        <ele>842.3</ele>
        <time>2019-04-10T14:34:24Z</time>
      </trkpt>
      <trkpt lat="-18.745211" lon="-47.148837">
        <ele>841.9</ele>
        <time>2019-04-10T14:34:25Z</time>
      </trkpt>
      <trkpt lat="-18.745158" lon="-47.148803">
        <ele>841.7</ele>
        <time>2019-04-10T14:34:26Z</time>
      </trkpt>
      <trkpt lat="-18.745102" lon="-47.14878">
        <ele>841.8</ele>
        <time>2019-04-10T14:34:27Z</time>
      </trkpt>
      <trkpt lat="-18.745047" lon="-47.148747">
        <ele>842.2</ele>
        <time>2019-04-10T14:34:28Z</time>
      </trkpt>
      <trkpt lat="-18.744992" lon="-47.148713">
        <ele>842.9</ele>
        <time>2019-04-10T14:34:29Z</time>
      </trkpt>
      <trkpt lat="-18.744947" lon="-47.148682">
        <ele>843.5</ele>
        <time>2019-04-10T14:34:30Z</time>
      </trkpt>
      <trkpt lat="-18.744911" lon="-47.148646">
        <ele>844</ele>
        <time>2019-04-10T14:34:31Z</time>
      </trkpt>
      <trkpt lat="-18.744877" lon="-47.148613">
        <ele>844.3</ele>
        <time>2019-04-10T14:34:32Z</time>
      </trkpt>
      <trkpt lat="-18.744833" lon="-47.148585">
        <ele>844.5</ele>
        <time>2019-04-10T14:34:33Z</time>
      </trkpt>
      <trkpt lat="-18.744784" lon="-47.148561">
        <ele>844.7</ele>
        <time>2019-04-10T14:34:34Z</time>
      </trkpt>
      <trkpt lat="-18.744725" lon="-47.148548">
        <ele>844.7</ele>
        <time>2019-04-10T14:34:35Z</time>
      </trkpt>
      <trkpt lat="-18.744659" lon="-47.148542">
        <ele>844.7</ele>
        <time>2019-04-10T14:34:36Z</time>
      </trkpt>
      <trkpt lat="-18.744587" lon="-47.148539">
        <ele>844.7</ele>
        <time>2019-04-10T14:34:37Z</time>
      </trkpt>
      <trkpt lat="-18.744507" lon="-47.148554">
        <ele>844.3</ele>
        <time>2019-04-10T14:34:38Z</time>
      </trkpt>
      <trkpt lat="-18.744423" lon="-47.148578">
        <ele>843.8</ele>
        <time>2019-04-10T14:34:39Z</time>
      </trkpt>
      <trkpt lat="-18.74434" lon="-47.148613">
        <ele>843.3</ele>
        <time>2019-04-10T14:34:40Z</time>
      </trkpt>
      <trkpt lat="-18.744261" lon="-47.148641">
        <ele>842.8</ele>
        <time>2019-04-10T14:34:41Z</time>
      </trkpt>
      <trkpt lat="-18.744185" lon="-47.148664">
        <ele>841.9</ele>
        <time>2019-04-10T14:34:42Z</time>
      </trkpt>
      <trkpt lat="-18.744108" lon="-47.148679">
        <ele>840.8</ele>
        <time>2019-04-10T14:34:43Z</time>
      </trkpt>
      <trkpt lat="-18.744037" lon="-47.148676">
        <ele>839.8</ele>
        <time>2019-04-10T14:34:44Z</time>
      </trkpt>
      <trkpt lat="-18.743952" lon="-47.148664">
        <ele>839.1</ele>
        <time>2019-04-10T14:34:45Z</time>
      </trkpt>
      <trkpt lat="-18.743859" lon="-47.14864">
        <ele>838.9</ele>
        <time>2019-04-10T14:34:46Z</time>
      </trkpt>
      <trkpt lat="-18.743767" lon="-47.148609">
        <ele>838.8</ele>
        <time>2019-04-10T14:34:47Z</time>
      </trkpt>
      <trkpt lat="-18.743679" lon="-47.148574">
        <ele>838.2</ele>
        <time>2019-04-10T14:34:48Z</time>
      </trkpt>
      <trkpt lat="-18.743588" lon="-47.148526">
        <ele>837.4</ele>
        <time>2019-04-10T14:34:49Z</time>
      </trkpt>
      <trkpt lat="-18.743499" lon="-47.148467">
        <ele>836.2</ele>
        <time>2019-04-10T14:34:50Z</time>
      </trkpt>
      <trkpt lat="-18.743403" lon="-47.148416">
        <ele>835.1</ele>
        <time>2019-04-10T14:34:51Z</time>
      </trkpt>
      <trkpt lat="-18.743308" lon="-47.148364">
        <ele>834.4</ele>
        <time>2019-04-10T14:34:52Z</time>
      </trkpt>
      <trkpt lat="-18.743217" lon="-47.148316">
        <ele>833.5</ele>
        <time>2019-04-10T14:34:53Z</time>
      </trkpt>
      <trkpt lat="-18.743116" lon="-47.148284">
        <ele>832.8</ele>
        <time>2019-04-10T14:34:54Z</time>
      </trkpt>
      <trkpt lat="-18.743018" lon="-47.148253">
        <ele>832.7</ele>
        <time>2019-04-10T14:34:55Z</time>
      </trkpt>
      <trkpt lat="-18.742923" lon="-47.148234">
        <ele>831.6</ele>
        <time>2019-04-10T14:34:56Z</time>
      </trkpt>
      <trkpt lat="-18.742831" lon="-47.14822">
        <ele>830.4</ele>
        <time>2019-04-10T14:34:57Z</time>
      </trkpt>
      <trkpt lat="-18.742739" lon="-47.148213">
        <ele>830</ele>
        <time>2019-04-10T14:34:58Z</time>
      </trkpt>
      <trkpt lat="-18.742648" lon="-47.14821">
        <ele>830.1</ele>
        <time>2019-04-10T14:34:59Z</time>
      </trkpt>
      <trkpt lat="-18.742561" lon="-47.148199">
        <ele>830</ele>
        <time>2019-04-10T14:35:00Z</time>
      </trkpt>
      <trkpt lat="-18.742472" lon="-47.148185">
        <ele>830.1</ele>
        <time>2019-04-10T14:35:01Z</time>
      </trkpt>
      <trkpt lat="-18.742385" lon="-47.148159">
        <ele>830.1</ele>
        <time>2019-04-10T14:35:02Z</time>
      </trkpt>
      <trkpt lat="-18.742305" lon="-47.148129">
        <ele>829.3</ele>
        <time>2019-04-10T14:35:03Z</time>
      </trkpt>
      <trkpt lat="-18.742228" lon="-47.148088">
        <ele>828</ele>
        <time>2019-04-10T14:35:04Z</time>
      </trkpt>
      <trkpt lat="-18.742167" lon="-47.148034">
        <ele>827</ele>
        <time>2019-04-10T14:35:05Z</time>
      </trkpt>
      <trkpt lat="-18.742109" lon="-47.14798">
        <ele>826.8</ele>
        <time>2019-04-10T14:35:06Z</time>
      </trkpt>
      <trkpt lat="-18.742051" lon="-47.147919">
        <ele>827.3</ele>
        <time>2019-04-10T14:35:07Z</time>
      </trkpt>
      <trkpt lat="-18.741997" lon="-47.147855">
        <ele>827.2</ele>
        <time>2019-04-10T14:35:08Z</time>
      </trkpt>
      <trkpt lat="-18.741943" lon="-47.147797">
        <ele>827.3</ele>
        <time>2019-04-10T14:35:09Z</time>
      </trkpt>
      <trkpt lat="-18.741891" lon="-47.147733">
        <ele>827.2</ele>
        <time>2019-04-10T14:35:10Z</time>
      </trkpt>
      <trkpt lat="-18.741838" lon="-47.147665">
        <ele>826.7</ele>
        <time>2019-04-10T14:35:11Z</time>
      </trkpt>
      <trkpt lat="-18.741785" lon="-47.147609">
        <ele>826.4</ele>
        <time>2019-04-10T14:35:12Z</time>
      </trkpt>
      <trkpt lat="-18.741736" lon="-47.147559">
        <ele>826.1</ele>
        <time>2019-04-10T14:35:13Z</time>
      </trkpt>
      <trkpt lat="-18.741677" lon="-47.147529">
        <ele>826</ele>
        <time>2019-04-10T14:35:14Z</time>
      </trkpt>
      <trkpt lat="-18.741612" lon="-47.147522">
        <ele>826.1</ele>
        <time>2019-04-10T14:35:15Z</time>
      </trkpt>
      <trkpt lat="-18.741539" lon="-47.147542">
        <ele>826.2</ele>
        <time>2019-04-10T14:35:16Z</time>
      </trkpt>
      <trkpt lat="-18.741472" lon="-47.147584">
        <ele>826.4</ele>
        <time>2019-04-10T14:35:17Z</time>
      </trkpt>
      <trkpt lat="-18.741422" lon="-47.147652">
        <ele>826.4</ele>
        <time>2019-04-10T14:35:18Z</time>
      </trkpt>
      <trkpt lat="-18.741363" lon="-47.147719">
        <ele>826.9</ele>
        <time>2019-04-10T14:35:19Z</time>
      </trkpt>
      <trkpt lat="-18.741308" lon="-47.147796">
        <ele>826.6</ele>
        <time>2019-04-10T14:35:20Z</time>
      </trkpt>
      <trkpt lat="-18.741258" lon="-47.147889">
        <ele>825.8</ele>
        <time>2019-04-10T14:35:21Z</time>
      </trkpt>
      <trkpt lat="-18.741225" lon="-47.147977">
        <ele>825.4</ele>
        <time>2019-04-10T14:35:22Z</time>
      </trkpt>
      <trkpt lat="-18.741193" lon="-47.148054">
        <ele>825</ele>
        <time>2019-04-10T14:35:23Z</time>
      </trkpt>
      <trkpt lat="-18.741167" lon="-47.148126">
        <ele>825</ele>
        <time>2019-04-10T14:35:24Z</time>
      </trkpt>
      <trkpt lat="-18.741151" lon="-47.148194">
        <ele>825.2</ele>
        <time>2019-04-10T14:35:25Z</time>
      </trkpt>
      <trkpt lat="-18.74114" lon="-47.148247">
        <ele>825.7</ele>
        <time>2019-04-10T14:35:26Z</time>
      </trkpt>
      <trkpt lat="-18.741146" lon="-47.148291">
        <ele>826.5</ele>
        <time>2019-04-10T14:35:27Z</time>
      </trkpt>
      <trkpt lat="-18.741155" lon="-47.148322">
        <ele>827.1</ele>
        <time>2019-04-10T14:35:28Z</time>
      </trkpt>
      <trkpt lat="-18.741155" lon="-47.148358">
        <ele>828</ele>
        <time>2019-04-10T14:35:30Z</time>
      </trkpt>
      <trkpt lat="-18.741156" lon="-47.148405">
        <ele>829.2</ele>
        <time>2019-04-10T14:35:32Z</time>
      </trkpt>
      <trkpt lat="-18.741174" lon="-47.148455">
        <ele>830</ele>
        <time>2019-04-10T14:35:34Z</time>
      </trkpt>
      <trkpt lat="-18.741189" lon="-47.148505">
        <ele>830.3</ele>
        <time>2019-04-10T14:35:36Z</time>
      </trkpt>
      <trkpt lat="-18.741193" lon="-47.148543">
        <ele>830.1</ele>
        <time>2019-04-10T14:35:38Z</time>
      </trkpt>
      <trkpt lat="-18.741196" lon="-47.148583">
        <ele>829.7</ele>
        <time>2019-04-10T14:35:40Z</time>
      </trkpt>
      <trkpt lat="-18.741204" lon="-47.148631">
        <ele>828.9</ele>
        <time>2019-04-10T14:35:42Z</time>
      </trkpt>
      <trkpt lat="-18.741207" lon="-47.148665">
        <ele>828.4</ele>
        <time>2019-04-10T14:35:45Z</time>
      </trkpt>
      <trkpt lat="-18.741201" lon="-47.148702">
        <ele>827.8</ele>
        <time>2019-04-10T14:35:48Z</time>
      </trkpt>
      <trkpt lat="-18.741191" lon="-47.148744">
        <ele>827.1</ele>
        <time>2019-04-10T14:35:52Z</time>
      </trkpt>
      <trkpt lat="-18.741183" lon="-47.148777">
        <ele>826.5</ele>
        <time>2019-04-10T14:35:54Z</time>
      </trkpt>
      <trkpt lat="-18.741158" lon="-47.148808">
        <ele>826.2</ele>
        <time>2019-04-10T14:35:56Z</time>
      </trkpt>
      <trkpt lat="-18.741137" lon="-47.148826">
        <ele>826.4</ele>
        <time>2019-04-10T14:35:57Z</time>
      </trkpt>
      <trkpt lat="-18.741096" lon="-47.148854">
        <ele>826.8</ele>
        <time>2019-04-10T14:35:59Z</time>
      </trkpt>
      <trkpt lat="-18.741069" lon="-47.148872">
        <ele>827.5</ele>
        <time>2019-04-10T14:36:00Z</time>
      </trkpt>
      <trkpt lat="-18.741044" lon="-47.148891">
        <ele>828.1</ele>
        <time>2019-04-10T14:36:01Z</time>
      </trkpt>
      <trkpt lat="-18.741016" lon="-47.148916">
        <ele>828.6</ele>
        <time>2019-04-10T14:36:02Z</time>
      </trkpt>
      <trkpt lat="-18.740991" lon="-47.148932">
        <ele>828.9</ele>
        <time>2019-04-10T14:36:04Z</time>
      </trkpt>
      <trkpt lat="-18.740966" lon="-47.148958">
        <ele>829.1</ele>
        <time>2019-04-10T14:36:06Z</time>
      </trkpt>
      <trkpt lat="-18.740946" lon="-47.148979">
        <ele>829.7</ele>
        <time>2019-04-10T14:36:08Z</time>
      </trkpt>
      <trkpt lat="-18.740909" lon="-47.149002">
        <ele>830.6</ele>
        <time>2019-04-10T14:36:11Z</time>
      </trkpt>
      <trkpt lat="-18.740869" lon="-47.149039">
        <ele>831.5</ele>
        <time>2019-04-10T14:36:13Z</time>
      </trkpt>
      <trkpt lat="-18.74083" lon="-47.149073">
        <ele>832.2</ele>
        <time>2019-04-10T14:36:15Z</time>
      </trkpt>
      <trkpt lat="-18.74079" lon="-47.14909">
        <ele>832.7</ele>
        <time>2019-04-10T14:36:17Z</time>
      </trkpt>
      <trkpt lat="-18.740754" lon="-47.149099">
        <ele>833.2</ele>
        <time>2019-04-10T14:36:19Z</time>
      </trkpt>
      <trkpt lat="-18.740723" lon="-47.14909">
        <ele>833.6</ele>
        <time>2019-04-10T14:36:21Z</time>
      </trkpt>
      <trkpt lat="-18.740689" lon="-47.149099">
        <ele>834</ele>
        <time>2019-04-10T14:36:23Z</time>
      </trkpt>
      <trkpt lat="-18.740652" lon="-47.149104">
        <ele>834.5</ele>
        <time>2019-04-10T14:36:25Z</time>
      </trkpt>
      <trkpt lat="-18.74062" lon="-47.149097">
        <ele>834.8</ele>
        <time>2019-04-10T14:36:27Z</time>
      </trkpt>
      <trkpt lat="-18.740585" lon="-47.149069">
        <ele>835.1</ele>
        <time>2019-04-10T14:36:30Z</time>
      </trkpt>
      <trkpt lat="-18.74055" lon="-47.149055">
        <ele>835.2</ele>
        <time>2019-04-10T14:36:32Z</time>
      </trkpt>
      <trkpt lat="-18.740515" lon="-47.149042">
        <ele>835.5</ele>
        <time>2019-04-10T14:36:34Z</time>
      </trkpt>
      <trkpt lat="-18.740484" lon="-47.14902">
        <ele>835.8</ele>
        <time>2019-04-10T14:36:36Z</time>
      </trkpt>
      <trkpt lat="-18.740446" lon="-47.149003">
        <ele>836.1</ele>
        <time>2019-04-10T14:36:38Z</time>
      </trkpt>
      <trkpt lat="-18.74041" lon="-47.148989">
        <ele>836.5</ele>
        <time>2019-04-10T14:36:40Z</time>
      </trkpt>
      <trkpt lat="-18.740381" lon="-47.148978">
        <ele>836.8</ele>
        <time>2019-04-10T14:36:42Z</time>
      </trkpt>
      <trkpt lat="-18.740342" lon="-47.148966">
        <ele>837.2</ele>
        <time>2019-04-10T14:36:44Z</time>
      </trkpt>
      <trkpt lat="-18.740307" lon="-47.148961">
        <ele>837.6</ele>
        <time>2019-04-10T14:36:46Z</time>
      </trkpt>
      <trkpt lat="-18.740278" lon="-47.148953">
        <ele>837.9</ele>
        <time>2019-04-10T14:36:48Z</time>
      </trkpt>
      <trkpt lat="-18.74024" lon="-47.14893">
        <ele>838.4</ele>
        <time>2019-04-10T14:36:50Z</time>
      </trkpt>
      <trkpt lat="-18.740205" lon="-47.148917">
        <ele>838.8</ele>
        <time>2019-04-10T14:36:52Z</time>
      </trkpt>
      <trkpt lat="-18.740164" lon="-47.148909">
        <ele>839.1</ele>
        <time>2019-04-10T14:36:54Z</time>
      </trkpt>
      <trkpt lat="-18.740133" lon="-47.148901">
        <ele>839.4</ele>
        <time>2019-04-10T14:36:56Z</time>
      </trkpt>
      <trkpt lat="-18.740097" lon="-47.148891">
        <ele>839.6</ele>
        <time>2019-04-10T14:36:58Z</time>
      </trkpt>
      <trkpt lat="-18.74007" lon="-47.148884">
        <ele>839.8</ele>
        <time>2019-04-10T14:37:00Z</time>
      </trkpt>
      <trkpt lat="-18.740035" lon="-47.148876">
        <ele>839.9</ele>
        <time>2019-04-10T14:37:02Z</time>
      </trkpt>
      <trkpt lat="-18.739999" lon="-47.148868">
        <ele>840.1</ele>
        <time>2019-04-10T14:37:04Z</time>
      </trkpt>
      <trkpt lat="-18.739966" lon="-47.148865">
        <ele>840.2</ele>
        <time>2019-04-10T14:37:06Z</time>
      </trkpt>
      <trkpt lat="-18.739929" lon="-47.148855">
        <ele>840.2</ele>
        <time>2019-04-10T14:37:08Z</time>
      </trkpt>
      <trkpt lat="-18.739888" lon="-47.148847">
        <ele>840.2</ele>
        <time>2019-04-10T14:37:10Z</time>
      </trkpt>
      <trkpt lat="-18.739858" lon="-47.148846">
        <ele>840.1</ele>
        <time>2019-04-10T14:37:12Z</time>
      </trkpt>
      <trkpt lat="-18.739819" lon="-47.148835">
        <ele>839.9</ele>
        <time>2019-04-10T14:37:14Z</time>
      </trkpt>
      <trkpt lat="-18.739781" lon="-47.148835">
        <ele>839.7</ele>
        <time>2019-04-10T14:37:16Z</time>
      </trkpt>
      <trkpt lat="-18.739745" lon="-47.148832">
        <ele>839.4</ele>
        <time>2019-04-10T14:37:18Z</time>
      </trkpt>
      <trkpt lat="-18.739708" lon="-47.148815">
        <ele>839.3</ele>
        <time>2019-04-10T14:37:20Z</time>
      </trkpt>
      <trkpt lat="-18.739673" lon="-47.148805">
        <ele>839.6</ele>
        <time>2019-04-10T14:37:22Z</time>
      </trkpt>
      <trkpt lat="-18.739644" lon="-47.148794">
        <ele>839.9</ele>
        <time>2019-04-10T14:37:24Z</time>
      </trkpt>
      <trkpt lat="-18.739613" lon="-47.14879">
        <ele>840.2</ele>
        <time>2019-04-10T14:37:26Z</time>
      </trkpt>
      <trkpt lat="-18.739583" lon="-47.148779">
        <ele>840.7</ele>
        <time>2019-04-10T14:37:28Z</time>
      </trkpt>
      <trkpt lat="-18.739551" lon="-47.148774">
        <ele>841.1</ele>
        <time>2019-04-10T14:37:30Z</time>
      </trkpt>
      <trkpt lat="-18.739513" lon="-47.148765">
        <ele>841.7</ele>
        <time>2019-04-10T14:37:32Z</time>
      </trkpt>
      <trkpt lat="-18.73947" lon="-47.148756">
        <ele>842.4</ele>
        <time>2019-04-10T14:37:34Z</time>
      </trkpt>
      <trkpt lat="-18.73944" lon="-47.148754">
        <ele>843.3</ele>
        <time>2019-04-10T14:37:36Z</time>
      </trkpt>
      <trkpt lat="-18.739408" lon="-47.148751">
        <ele>844.3</ele>
        <time>2019-04-10T14:37:38Z</time>
      </trkpt>
      <trkpt lat="-18.739366" lon="-47.148746">
        <ele>845.1</ele>
        <time>2019-04-10T14:37:40Z</time>
      </trkpt>
      <trkpt lat="-18.739317" lon="-47.148751">
        <ele>845.5</ele>
        <time>2019-04-10T14:37:42Z</time>
      </trkpt>
      <trkpt lat="-18.73927" lon="-47.148753">
        <ele>845.7</ele>
        <time>2019-04-10T14:37:44Z</time>
      </trkpt>
      <trkpt lat="-18.739239" lon="-47.148751">
        <ele>845.8</ele>
        <time>2019-04-10T14:37:46Z</time>
      </trkpt>
      <trkpt lat="-18.739202" lon="-47.148747">
        <ele>846</ele>
        <time>2019-04-10T14:37:48Z</time>
      </trkpt>
      <trkpt lat="-18.739169" lon="-47.148749">
        <ele>846.3</ele>
        <time>2019-04-10T14:37:50Z</time>
      </trkpt>
      <trkpt lat="-18.739136" lon="-47.148744">
        <ele>846.5</ele>
        <time>2019-04-10T14:37:52Z</time>
      </trkpt>
      <trkpt lat="-18.739105" lon="-47.148743">
        <ele>846.9</ele>
        <time>2019-04-10T14:37:54Z</time>
      </trkpt>
      <trkpt lat="-18.739072" lon="-47.14874">
        <ele>847.2</ele>
        <time>2019-04-10T14:37:56Z</time>
      </trkpt>
      <trkpt lat="-18.739035" lon="-47.148738">
        <ele>847.7</ele>
        <time>2019-04-10T14:37:58Z</time>
      </trkpt>
      <trkpt lat="-18.739005" lon="-47.148729">
        <ele>848.2</ele>
        <time>2019-04-10T14:38:00Z</time>
      </trkpt>
      <trkpt lat="-18.738965" lon="-47.148728">
        <ele>848.8</ele>
        <time>2019-04-10T14:38:02Z</time>
      </trkpt>
      <trkpt lat="-18.738926" lon="-47.14872">
        <ele>849.4</ele>
        <time>2019-04-10T14:38:04Z</time>
      </trkpt>
      <trkpt lat="-18.738893" lon="-47.148721">
        <ele>849.9</ele>
        <time>2019-04-10T14:38:06Z</time>
      </trkpt>
      <trkpt lat="-18.73886" lon="-47.148723">
        <ele>850.3</ele>
        <time>2019-04-10T14:38:08Z</time>
      </trkpt>
      <trkpt lat="-18.738825" lon="-47.148718">
        <ele>850.7</ele>
        <time>2019-04-10T14:38:10Z</time>
      </trkpt>
      <trkpt lat="-18.738798" lon="-47.14871">
        <ele>851</ele>
        <time>2019-04-10T14:38:12Z</time>
      </trkpt>
      <trkpt lat="-18.738758" lon="-47.148705">
        <ele>851.5</ele>
        <time>2019-04-10T14:38:14Z</time>
      </trkpt>
      <trkpt lat="-18.738714" lon="-47.148708">
        <ele>852</ele>
        <time>2019-04-10T14:38:16Z</time>
      </trkpt>
      <trkpt lat="-18.738669" lon="-47.148709">
        <ele>852.5</ele>
        <time>2019-04-10T14:38:18Z</time>
      </trkpt>
      <trkpt lat="-18.738628" lon="-47.148719">
        <ele>852.7</ele>
        <time>2019-04-10T14:38:20Z</time>
      </trkpt>
      <trkpt lat="-18.73859" lon="-47.148746">
        <ele>852.9</ele>
        <time>2019-04-10T14:38:22Z</time>
      </trkpt>
      <trkpt lat="-18.738554" lon="-47.148768">
        <ele>853</ele>
        <time>2019-04-10T14:38:24Z</time>
      </trkpt>
      <trkpt lat="-18.738514" lon="-47.148789">
        <ele>853.1</ele>
        <time>2019-04-10T14:38:26Z</time>
      </trkpt>
      <trkpt lat="-18.738476" lon="-47.148805">
        <ele>853.4</ele>
        <time>2019-04-10T14:38:28Z</time>
      </trkpt>
      <trkpt lat="-18.738439" lon="-47.148822">
        <ele>853.7</ele>
        <time>2019-04-10T14:38:30Z</time>
      </trkpt>
      <trkpt lat="-18.738405" lon="-47.148844">
        <ele>853.9</ele>
        <time>2019-04-10T14:38:32Z</time>
      </trkpt>
      <trkpt lat="-18.738373" lon="-47.14886">
        <ele>854</ele>
        <time>2019-04-10T14:38:34Z</time>
      </trkpt>
      <trkpt lat="-18.738331" lon="-47.148884">
        <ele>854.2</ele>
        <time>2019-04-10T14:38:36Z</time>
      </trkpt>
      <trkpt lat="-18.738294" lon="-47.1489">
        <ele>854.3</ele>
        <time>2019-04-10T14:38:38Z</time>
      </trkpt>
      <trkpt lat="-18.738251" lon="-47.148919">
        <ele>854.5</ele>
        <time>2019-04-10T14:38:40Z</time>
      </trkpt>
      <trkpt lat="-18.738212" lon="-47.148939">
        <ele>854.7</ele>
        <time>2019-04-10T14:38:42Z</time>
      </trkpt>
      <trkpt lat="-18.738186" lon="-47.148951">
        <ele>854.9</ele>
        <time>2019-04-10T14:38:44Z</time>
      </trkpt>
      <trkpt lat="-18.738158" lon="-47.148964">
        <ele>855.2</ele>
        <time>2019-04-10T14:38:46Z</time>
      </trkpt>
      <trkpt lat="-18.73812" lon="-47.148976">
        <ele>855.7</ele>
        <time>2019-04-10T14:38:48Z</time>
      </trkpt>
      <trkpt lat="-18.738081" lon="-47.148994">
        <ele>856.3</ele>
        <time>2019-04-10T14:38:50Z</time>
      </trkpt>
      <trkpt lat="-18.738045" lon="-47.149011">
        <ele>856.8</ele>
        <time>2019-04-10T14:38:52Z</time>
      </trkpt>
      <trkpt lat="-18.738003" lon="-47.149022">
        <ele>857.4</ele>
        <time>2019-04-10T14:38:54Z</time>
      </trkpt>
      <trkpt lat="-18.737964" lon="-47.149036">
        <ele>857.9</ele>
        <time>2019-04-10T14:38:56Z</time>
      </trkpt>
      <trkpt lat="-18.737922" lon="-47.149056">
        <ele>858.4</ele>
        <time>2019-04-10T14:38:58Z</time>
      </trkpt>
      <trkpt lat="-18.737884" lon="-47.149073">
        <ele>858.8</ele>
        <time>2019-04-10T14:39:00Z</time>
      </trkpt>
      <trkpt lat="-18.737859" lon="-47.149087">
        <ele>859</ele>
        <time>2019-04-10T14:39:01Z</time>
      </trkpt>
      <trkpt lat="-18.737819" lon="-47.149104">
        <ele>859.4</ele>
        <time>2019-04-10T14:39:03Z</time>
      </trkpt>
      <trkpt lat="-18.737783" lon="-47.149117">
        <ele>859.8</ele>
        <time>2019-04-10T14:39:05Z</time>
      </trkpt>
      <trkpt lat="-18.737744" lon="-47.149128">
        <ele>860.4</ele>
        <time>2019-04-10T14:39:07Z</time>
      </trkpt>
      <trkpt lat="-18.737698" lon="-47.149138">
        <ele>861.1</ele>
        <time>2019-04-10T14:39:09Z</time>
      </trkpt>
      <trkpt lat="-18.737658" lon="-47.149142">
        <ele>861.5</ele>
        <time>2019-04-10T14:39:11Z</time>
      </trkpt>
      <trkpt lat="-18.737614" lon="-47.149145">
        <ele>861.9</ele>
        <time>2019-04-10T14:39:13Z</time>
      </trkpt>
      <trkpt lat="-18.73756" lon="-47.149147">
        <ele>862.3</ele>
        <time>2019-04-10T14:39:15Z</time>
      </trkpt>
      <trkpt lat="-18.737513" lon="-47.149141">
        <ele>862.6</ele>
        <time>2019-04-10T14:39:17Z</time>
      </trkpt>
      <trkpt lat="-18.737472" lon="-47.149129">
        <ele>862.6</ele>
        <time>2019-04-10T14:39:19Z</time>
      </trkpt>
      <trkpt lat="-18.737424" lon="-47.149129">
        <ele>862.8</ele>
        <time>2019-04-10T14:39:21Z</time>
      </trkpt>
      <trkpt lat="-18.737379" lon="-47.149122">
        <ele>863.1</ele>
        <time>2019-04-10T14:39:23Z</time>
      </trkpt>
      <trkpt lat="-18.737334" lon="-47.149106">
        <ele>863.4</ele>
        <time>2019-04-10T14:39:25Z</time>
      </trkpt>
      <trkpt lat="-18.737288" lon="-47.149096">
        <ele>863.8</ele>
        <time>2019-04-10T14:39:27Z</time>
      </trkpt>
      <trkpt lat="-18.737246" lon="-47.149095">
        <ele>864.1</ele>
        <time>2019-04-10T14:39:29Z</time>
      </trkpt>
      <trkpt lat="-18.737197" lon="-47.149093">
        <ele>864.3</ele>
        <time>2019-04-10T14:39:31Z</time>
      </trkpt>
      <trkpt lat="-18.73715" lon="-47.14909">
        <ele>864.6</ele>
        <time>2019-04-10T14:39:33Z</time>
      </trkpt>
      <trkpt lat="-18.737103" lon="-47.149093">
        <ele>864.9</ele>
        <time>2019-04-10T14:39:35Z</time>
      </trkpt>
      <trkpt lat="-18.737058" lon="-47.149096">
        <ele>865.4</ele>
        <time>2019-04-10T14:39:37Z</time>
      </trkpt>
      <trkpt lat="-18.737014" lon="-47.149089">
        <ele>865.9</ele>
        <time>2019-04-10T14:39:39Z</time>
      </trkpt>
      <trkpt lat="-18.736971" lon="-47.14908">
        <ele>866.4</ele>
        <time>2019-04-10T14:39:41Z</time>
      </trkpt>
      <trkpt lat="-18.736927" lon="-47.14907">
        <ele>867</ele>
        <time>2019-04-10T14:39:43Z</time>
      </trkpt>
      <trkpt lat="-18.73688" lon="-47.149061">
        <ele>867.4</ele>
        <time>2019-04-10T14:39:45Z</time>
      </trkpt>
      <trkpt lat="-18.736852" lon="-47.149061">
        <ele>867.6</ele>
        <time>2019-04-10T14:39:46Z</time>
      </trkpt>
      <trkpt lat="-18.736823" lon="-47.149063">
        <ele>867.7</ele>
        <time>2019-04-10T14:39:47Z</time>
      </trkpt>
      <trkpt lat="-18.736776" lon="-47.149059">
        <ele>867.9</ele>
        <time>2019-04-10T14:39:49Z</time>
      </trkpt>
      <trkpt lat="-18.736731" lon="-47.14906">
        <ele>868.2</ele>
        <time>2019-04-10T14:39:51Z</time>
      </trkpt>
      <trkpt lat="-18.736677" lon="-47.149058">
        <ele>868.5</ele>
        <time>2019-04-10T14:39:53Z</time>
      </trkpt>
      <trkpt lat="-18.73663" lon="-47.149054">
        <ele>868.7</ele>
        <time>2019-04-10T14:39:55Z</time>
      </trkpt>
      <trkpt lat="-18.736586" lon="-47.149056">
        <ele>868.9</ele>
        <time>2019-04-10T14:39:57Z</time>
      </trkpt>
      <trkpt lat="-18.736545" lon="-47.149051">
        <ele>869.1</ele>
        <time>2019-04-10T14:39:59Z</time>
      </trkpt>
      <trkpt lat="-18.7365" lon="-47.149043">
        <ele>869.3</ele>
        <time>2019-04-10T14:40:01Z</time>
      </trkpt>
      <trkpt lat="-18.736466" lon="-47.149044">
        <ele>869.4</ele>
        <time>2019-04-10T14:40:03Z</time>
      </trkpt>
      <trkpt lat="-18.736419" lon="-47.149039">
        <ele>869.6</ele>
        <time>2019-04-10T14:40:05Z</time>
      </trkpt>
      <trkpt lat="-18.736389" lon="-47.149037">
        <ele>869.7</ele>
        <time>2019-04-10T14:40:06Z</time>
      </trkpt>
      <trkpt lat="-18.73635" lon="-47.149032">
        <ele>869.9</ele>
        <time>2019-04-10T14:40:08Z</time>
      </trkpt>
      <trkpt lat="-18.736313" lon="-47.149024">
        <ele>870</ele>
        <time>2019-04-10T14:40:10Z</time>
      </trkpt>
      <trkpt lat="-18.736272" lon="-47.149018">
        <ele>870</ele>
        <time>2019-04-10T14:40:12Z</time>
      </trkpt>
      <trkpt lat="-18.736228" lon="-47.149013">
        <ele>870</ele>
        <time>2019-04-10T14:40:14Z</time>
      </trkpt>
      <trkpt lat="-18.736178" lon="-47.149008">
        <ele>870</ele>
        <time>2019-04-10T14:40:16Z</time>
      </trkpt>
      <trkpt lat="-18.736137" lon="-47.148999">
        <ele>870</ele>
        <time>2019-04-10T14:40:18Z</time>
      </trkpt>
      <trkpt lat="-18.73609" lon="-47.148994">
        <ele>870</ele>
        <time>2019-04-10T14:40:20Z</time>
      </trkpt>
      <trkpt lat="-18.736045" lon="-47.148989">
        <ele>870.1</ele>
        <time>2019-04-10T14:40:22Z</time>
      </trkpt>
      <trkpt lat="-18.735999" lon="-47.148987">
        <ele>870.3</ele>
        <time>2019-04-10T14:40:24Z</time>
      </trkpt>
      <trkpt lat="-18.735954" lon="-47.148986">
        <ele>870.5</ele>
        <time>2019-04-10T14:40:26Z</time>
      </trkpt>
      <trkpt lat="-18.73591" lon="-47.148984">
        <ele>870.8</ele>
        <time>2019-04-10T14:40:28Z</time>
      </trkpt>
      <trkpt lat="-18.735864" lon="-47.148984">
        <ele>871.1</ele>
        <time>2019-04-10T14:40:30Z</time>
      </trkpt>
      <trkpt lat="-18.735823" lon="-47.148982">
        <ele>871.3</ele>
        <time>2019-04-10T14:40:32Z</time>
      </trkpt>
      <trkpt lat="-18.735783" lon="-47.148981">
        <ele>871.5</ele>
        <time>2019-04-10T14:40:34Z</time>
      </trkpt>
      <trkpt lat="-18.735739" lon="-47.148977">
        <ele>871.7</ele>
        <time>2019-04-10T14:40:36Z</time>
      </trkpt>
      <trkpt lat="-18.735694" lon="-47.148975">
        <ele>871.9</ele>
        <time>2019-04-10T14:40:38Z</time>
      </trkpt>
      <trkpt lat="-18.735645" lon="-47.14897">
        <ele>872.1</ele>
        <time>2019-04-10T14:40:40Z</time>
      </trkpt>
      <trkpt lat="-18.735596" lon="-47.14896">
        <ele>872.5</ele>
        <time>2019-04-10T14:40:42Z</time>
      </trkpt>
      <trkpt lat="-18.735547" lon="-47.148955">
        <ele>873</ele>
        <time>2019-04-10T14:40:44Z</time>
      </trkpt>
      <trkpt lat="-18.735501" lon="-47.148952">
        <ele>873.5</ele>
        <time>2019-04-10T14:40:46Z</time>
      </trkpt>
      <trkpt lat="-18.735455" lon="-47.148953">
        <ele>873.9</ele>
        <time>2019-04-10T14:40:48Z</time>
      </trkpt>
      <trkpt lat="-18.73541" lon="-47.148955">
        <ele>874.3</ele>
        <time>2019-04-10T14:40:50Z</time>
      </trkpt>
      <trkpt lat="-18.735372" lon="-47.148963">
        <ele>874.7</ele>
        <time>2019-04-10T14:40:52Z</time>
      </trkpt>
      <trkpt lat="-18.735331" lon="-47.148965">
        <ele>875</ele>
        <time>2019-04-10T14:40:54Z</time>
      </trkpt>
      <trkpt lat="-18.735287" lon="-47.148972">
        <ele>875.3</ele>
        <time>2019-04-10T14:40:56Z</time>
      </trkpt>
      <trkpt lat="-18.73526" lon="-47.148982">
        <ele>875.5</ele>
        <time>2019-04-10T14:40:57Z</time>
      </trkpt>
      <trkpt lat="-18.735223" lon="-47.148985">
        <ele>875.7</ele>
        <time>2019-04-10T14:40:59Z</time>
      </trkpt>
      <trkpt lat="-18.735169" lon="-47.148992">
        <ele>876</ele>
        <time>2019-04-10T14:41:01Z</time>
      </trkpt>
      <trkpt lat="-18.735119" lon="-47.149">
        <ele>876.2</ele>
        <time>2019-04-10T14:41:03Z</time>
      </trkpt>
      <trkpt lat="-18.735092" lon="-47.149005">
        <ele>876.4</ele>
        <time>2019-04-10T14:41:04Z</time>
      </trkpt>
      <trkpt lat="-18.735064" lon="-47.149009">
        <ele>876.6</ele>
        <time>2019-04-10T14:41:05Z</time>
      </trkpt>
      <trkpt lat="-18.735037" lon="-47.14901">
        <ele>876.8</ele>
        <time>2019-04-10T14:41:06Z</time>
      </trkpt>
      <trkpt lat="-18.734994" lon="-47.149012">
        <ele>877.1</ele>
        <time>2019-04-10T14:41:08Z</time>
      </trkpt>
      <trkpt lat="-18.734945" lon="-47.14902">
        <ele>877.4</ele>
        <time>2019-04-10T14:41:10Z</time>
      </trkpt>
      <trkpt lat="-18.734898" lon="-47.14902">
        <ele>877.7</ele>
        <time>2019-04-10T14:41:12Z</time>
      </trkpt>
      <trkpt lat="-18.73485" lon="-47.149028">
        <ele>878</ele>
        <time>2019-04-10T14:41:14Z</time>
      </trkpt>
      <trkpt lat="-18.734802" lon="-47.149034">
        <ele>878.2</ele>
        <time>2019-04-10T14:41:16Z</time>
      </trkpt>
      <trkpt lat="-18.734746" lon="-47.149044">
        <ele>878.5</ele>
        <time>2019-04-10T14:41:18Z</time>
      </trkpt>
      <trkpt lat="-18.734716" lon="-47.149051">
        <ele>878.7</ele>
        <time>2019-04-10T14:41:19Z</time>
      </trkpt>
      <trkpt lat="-18.73469" lon="-47.149057">
        <ele>878.8</ele>
        <time>2019-04-10T14:41:20Z</time>
      </trkpt>
      <trkpt lat="-18.734661" lon="-47.149068">
        <ele>879</ele>
        <time>2019-04-10T14:41:21Z</time>
      </trkpt>
      <trkpt lat="-18.734632" lon="-47.149081">
        <ele>879.2</ele>
        <time>2019-04-10T14:41:22Z</time>
      </trkpt>
      <trkpt lat="-18.734589" lon="-47.149101">
        <ele>879.5</ele>
        <time>2019-04-10T14:41:24Z</time>
      </trkpt>
      <trkpt lat="-18.734542" lon="-47.149124">
        <ele>879.8</ele>
        <time>2019-04-10T14:41:26Z</time>
      </trkpt>
      <trkpt lat="-18.734517" lon="-47.149146">
        <ele>879.9</ele>
        <time>2019-04-10T14:41:27Z</time>
      </trkpt>
      <trkpt lat="-18.734495" lon="-47.149162">
        <ele>879.9</ele>
        <time>2019-04-10T14:41:28Z</time>
      </trkpt>
      <trkpt lat="-18.734469" lon="-47.149178">
        <ele>880</ele>
        <time>2019-04-10T14:41:29Z</time>
      </trkpt>
      <trkpt lat="-18.734441" lon="-47.149198">
        <ele>880.1</ele>
        <time>2019-04-10T14:41:30Z</time>
      </trkpt>
      <trkpt lat="-18.734416" lon="-47.149211">
        <ele>880.2</ele>
        <time>2019-04-10T14:41:31Z</time>
      </trkpt>
      <trkpt lat="-18.73439" lon="-47.149227">
        <ele>880.2</ele>
        <time>2019-04-10T14:41:32Z</time>
      </trkpt>
      <trkpt lat="-18.734362" lon="-47.149247">
        <ele>880.2</ele>
        <time>2019-04-10T14:41:33Z</time>
      </trkpt>
      <trkpt lat="-18.734316" lon="-47.149282">
        <ele>880.4</ele>
        <time>2019-04-10T14:41:35Z</time>
      </trkpt>
      <trkpt lat="-18.734292" lon="-47.149301">
        <ele>880.5</ele>
        <time>2019-04-10T14:41:36Z</time>
      </trkpt>
      <trkpt lat="-18.73425" lon="-47.14933">
        <ele>880.9</ele>
        <time>2019-04-10T14:41:38Z</time>
      </trkpt>
      <trkpt lat="-18.734219" lon="-47.149351">
        <ele>881.2</ele>
        <time>2019-04-10T14:41:39Z</time>
      </trkpt>
      <trkpt lat="-18.73419" lon="-47.149371">
        <ele>881.6</ele>
        <time>2019-04-10T14:41:40Z</time>
      </trkpt>
      <trkpt lat="-18.734163" lon="-47.149393">
        <ele>881.9</ele>
        <time>2019-04-10T14:41:41Z</time>
      </trkpt>
      <trkpt lat="-18.734142" lon="-47.149412">
        <ele>882.2</ele>
        <time>2019-04-10T14:41:42Z</time>
      </trkpt>
      <trkpt lat="-18.734097" lon="-47.149442">
        <ele>882.8</ele>
        <time>2019-04-10T14:41:44Z</time>
      </trkpt>
      <trkpt lat="-18.734072" lon="-47.149458">
        <ele>883.1</ele>
        <time>2019-04-10T14:41:45Z</time>
      </trkpt>
      <trkpt lat="-18.73402" lon="-47.149481">
        <ele>883.4</ele>
        <time>2019-04-10T14:41:47Z</time>
      </trkpt>
      <trkpt lat="-18.733989" lon="-47.14949">
        <ele>883.5</ele>
        <time>2019-04-10T14:41:48Z</time>
      </trkpt>
      <trkpt lat="-18.733961" lon="-47.149499">
        <ele>883.5</ele>
        <time>2019-04-10T14:41:49Z</time>
      </trkpt>
      <trkpt lat="-18.733935" lon="-47.14951">
        <ele>883.6</ele>
        <time>2019-04-10T14:41:50Z</time>
      </trkpt>
      <trkpt lat="-18.733892" lon="-47.149533">
        <ele>883.6</ele>
        <time>2019-04-10T14:41:52Z</time>
      </trkpt>
      <trkpt lat="-18.733847" lon="-47.149558">
        <ele>884</ele>
        <time>2019-04-10T14:41:54Z</time>
      </trkpt>
      <trkpt lat="-18.733818" lon="-47.149576">
        <ele>884.2</ele>
        <time>2019-04-10T14:41:55Z</time>
      </trkpt>
      <trkpt lat="-18.733765" lon="-47.149603">
        <ele>884.8</ele>
        <time>2019-04-10T14:41:57Z</time>
      </trkpt>
      <trkpt lat="-18.733737" lon="-47.149612">
        <ele>885.1</ele>
        <time>2019-04-10T14:41:58Z</time>
      </trkpt>
      <trkpt lat="-18.733712" lon="-47.149625">
        <ele>885.3</ele>
        <time>2019-04-10T14:41:59Z</time>
      </trkpt>
      <trkpt lat="-18.733683" lon="-47.149629">
        <ele>885.4</ele>
        <time>2019-04-10T14:42:00Z</time>
      </trkpt>
      <trkpt lat="-18.73365" lon="-47.149638">
        <ele>885.6</ele>
        <time>2019-04-10T14:42:01Z</time>
      </trkpt>
      <trkpt lat="-18.733617" lon="-47.149649">
        <ele>885.6</ele>
        <time>2019-04-10T14:42:02Z</time>
      </trkpt>
      <trkpt lat="-18.733584" lon="-47.14966">
        <ele>885.7</ele>
        <time>2019-04-10T14:42:03Z</time>
      </trkpt>
      <trkpt lat="-18.733557" lon="-47.14967">
        <ele>885.8</ele>
        <time>2019-04-10T14:42:04Z</time>
      </trkpt>
      <trkpt lat="-18.733524" lon="-47.149681">
        <ele>885.9</ele>
        <time>2019-04-10T14:42:05Z</time>
      </trkpt>
      <trkpt lat="-18.733494" lon="-47.149694">
        <ele>886</ele>
        <time>2019-04-10T14:42:06Z</time>
      </trkpt>
      <trkpt lat="-18.733466" lon="-47.149709">
        <ele>886.2</ele>
        <time>2019-04-10T14:42:07Z</time>
      </trkpt>
      <trkpt lat="-18.733441" lon="-47.149726">
        <ele>886.4</ele>
        <time>2019-04-10T14:42:08Z</time>
      </trkpt>
      <trkpt lat="-18.733413" lon="-47.14974">
        <ele>886.6</ele>
        <time>2019-04-10T14:42:09Z</time>
      </trkpt>
      <trkpt lat="-18.733379" lon="-47.149743">
        <ele>886.7</ele>
        <time>2019-04-10T14:42:10Z</time>
      </trkpt>
      <trkpt lat="-18.733351" lon="-47.149756">
        <ele>886.8</ele>
        <time>2019-04-10T14:42:11Z</time>
      </trkpt>
      <trkpt lat="-18.733322" lon="-47.14977">
        <ele>886.9</ele>
        <time>2019-04-10T14:42:12Z</time>
      </trkpt>
      <trkpt lat="-18.733299" lon="-47.149786">
        <ele>886.9</ele>
        <time>2019-04-10T14:42:13Z</time>
      </trkpt>
      <trkpt lat="-18.733274" lon="-47.149799">
        <ele>887</ele>
        <time>2019-04-10T14:42:14Z</time>
      </trkpt>
      <trkpt lat="-18.73325" lon="-47.149815">
        <ele>887</ele>
        <time>2019-04-10T14:42:15Z</time>
      </trkpt>
      <trkpt lat="-18.733227" lon="-47.14983">
        <ele>887</ele>
        <time>2019-04-10T14:42:16Z</time>
      </trkpt>
      <trkpt lat="-18.7332" lon="-47.149848">
        <ele>887</ele>
        <time>2019-04-10T14:42:17Z</time>
      </trkpt>
      <trkpt lat="-18.733176" lon="-47.149864">
        <ele>887</ele>
        <time>2019-04-10T14:42:18Z</time>
      </trkpt>
      <trkpt lat="-18.733138" lon="-47.149894">
        <ele>887</ele>
        <time>2019-04-10T14:42:20Z</time>
      </trkpt>
      <trkpt lat="-18.733117" lon="-47.149918">
        <ele>887.1</ele>
        <time>2019-04-10T14:42:25Z</time>
      </trkpt>
      <trkpt lat="-18.733094" lon="-47.149945">
        <ele>887.1</ele>
        <time>2019-04-10T14:42:31Z</time>
      </trkpt>
      <trkpt lat="-18.733069" lon="-47.149977">
        <ele>887.3</ele>
        <time>2019-04-10T14:42:34Z</time>
      </trkpt>
      <trkpt lat="-18.733042" lon="-47.15">
        <ele>887.5</ele>
        <time>2019-04-10T14:42:35Z</time>
      </trkpt>
      <trkpt lat="-18.733021" lon="-47.150019">
        <ele>887.6</ele>
        <time>2019-04-10T14:42:36Z</time>
      </trkpt>
      <trkpt lat="-18.733007" lon="-47.150045">
        <ele>887.7</ele>
        <time>2019-04-10T14:42:37Z</time>
      </trkpt>
      <trkpt lat="-18.732985" lon="-47.150089">
        <ele>887.9</ele>
        <time>2019-04-10T14:42:39Z</time>
      </trkpt>
      <trkpt lat="-18.732961" lon="-47.150128">
        <ele>888</ele>
        <time>2019-04-10T14:42:41Z</time>
      </trkpt>
      <trkpt lat="-18.732936" lon="-47.150178">
        <ele>888.1</ele>
        <time>2019-04-10T14:42:43Z</time>
      </trkpt>
      <trkpt lat="-18.732916" lon="-47.150199">
        <ele>888.1</ele>
        <time>2019-04-10T14:42:44Z</time>
      </trkpt>
      <trkpt lat="-18.732898" lon="-47.150231">
        <ele>888.1</ele>
        <time>2019-04-10T14:42:45Z</time>
      </trkpt>
      <trkpt lat="-18.732876" lon="-47.150264">
        <ele>888.2</ele>
        <time>2019-04-10T14:42:46Z</time>
      </trkpt>
      <trkpt lat="-18.732854" lon="-47.150297">
        <ele>888.3</ele>
        <time>2019-04-10T14:42:47Z</time>
      </trkpt>
      <trkpt lat="-18.732832" lon="-47.150329">
        <ele>888.4</ele>
        <time>2019-04-10T14:42:48Z</time>
      </trkpt>
      <trkpt lat="-18.732811" lon="-47.150357">
        <ele>888.5</ele>
        <time>2019-04-10T14:42:49Z</time>
      </trkpt>
      <trkpt lat="-18.732794" lon="-47.150394">
        <ele>888.7</ele>
        <time>2019-04-10T14:42:50Z</time>
      </trkpt>
      <trkpt lat="-18.732774" lon="-47.150428">
        <ele>888.7</ele>
        <time>2019-04-10T14:42:51Z</time>
      </trkpt>
      <trkpt lat="-18.732761" lon="-47.15046">
        <ele>888.8</ele>
        <time>2019-04-10T14:42:52Z</time>
      </trkpt>
      <trkpt lat="-18.732743" lon="-47.150493">
        <ele>888.9</ele>
        <time>2019-04-10T14:42:53Z</time>
      </trkpt>
      <trkpt lat="-18.732726" lon="-47.150526">
        <ele>888.9</ele>
        <time>2019-04-10T14:42:54Z</time>
      </trkpt>
      <trkpt lat="-18.732706" lon="-47.150557">
        <ele>889</ele>
        <time>2019-04-10T14:42:55Z</time>
      </trkpt>
      <trkpt lat="-18.732691" lon="-47.150592">
        <ele>889</ele>
        <time>2019-04-10T14:42:56Z</time>
      </trkpt>
      <trkpt lat="-18.73268" lon="-47.150623">
        <ele>889.1</ele>
        <time>2019-04-10T14:42:57Z</time>
      </trkpt>
      <trkpt lat="-18.732664" lon="-47.15067">
        <ele>889.1</ele>
        <time>2019-04-10T14:42:59Z</time>
      </trkpt>
      <trkpt lat="-18.732644" lon="-47.150722">
        <ele>889</ele>
        <time>2019-04-10T14:43:01Z</time>
      </trkpt>
      <trkpt lat="-18.732633" lon="-47.150751">
        <ele>889</ele>
        <time>2019-04-10T14:43:02Z</time>
      </trkpt>
      <trkpt lat="-18.732626" lon="-47.150782">
        <ele>889</ele>
        <time>2019-04-10T14:43:03Z</time>
      </trkpt>
      <trkpt lat="-18.732614" lon="-47.150815">
        <ele>889</ele>
        <time>2019-04-10T14:43:04Z</time>
      </trkpt>
      <trkpt lat="-18.732595" lon="-47.150847">
        <ele>889</ele>
        <time>2019-04-10T14:43:05Z</time>
      </trkpt>
      <trkpt lat="-18.732585" lon="-47.150879">
        <ele>889.1</ele>
        <time>2019-04-10T14:43:06Z</time>
      </trkpt>
      <trkpt lat="-18.732568" lon="-47.150912">
        <ele>889.1</ele>
        <time>2019-04-10T14:43:07Z</time>
      </trkpt>
      <trkpt lat="-18.732563" lon="-47.150946">
        <ele>889.1</ele>
        <time>2019-04-10T14:43:08Z</time>
      </trkpt>
      <trkpt lat="-18.73256" lon="-47.15098">
        <ele>889.2</ele>
        <time>2019-04-10T14:43:09Z</time>
      </trkpt>
      <trkpt lat="-18.732553" lon="-47.151016">
        <ele>889.2</ele>
        <time>2019-04-10T14:43:10Z</time>
      </trkpt>
      <trkpt lat="-18.732545" lon="-47.151052">
        <ele>889.2</ele>
        <time>2019-04-10T14:43:11Z</time>
      </trkpt>
      <trkpt lat="-18.732537" lon="-47.151091">
        <ele>889.1</ele>
        <time>2019-04-10T14:43:12Z</time>
      </trkpt>
      <trkpt lat="-18.732531" lon="-47.151123">
        <ele>889</ele>
        <time>2019-04-10T14:43:13Z</time>
      </trkpt>
      <trkpt lat="-18.732524" lon="-47.151158">
        <ele>889.1</ele>
        <time>2019-04-10T14:43:14Z</time>
      </trkpt>
      <trkpt lat="-18.732516" lon="-47.151199">
        <ele>889.5</ele>
        <time>2019-04-10T14:43:15Z</time>
      </trkpt>
      <trkpt lat="-18.732506" lon="-47.151229">
        <ele>889.9</ele>
        <time>2019-04-10T14:43:16Z</time>
      </trkpt>
      <trkpt lat="-18.732497" lon="-47.151266">
        <ele>890.1</ele>
        <time>2019-04-10T14:43:17Z</time>
      </trkpt>
      <trkpt lat="-18.732487" lon="-47.151297">
        <ele>890.2</ele>
        <time>2019-04-10T14:43:18Z</time>
      </trkpt>
      <trkpt lat="-18.732478" lon="-47.151325">
        <ele>890.4</ele>
        <time>2019-04-10T14:43:19Z</time>
      </trkpt>
      <trkpt lat="-18.732472" lon="-47.151356">
        <ele>890.5</ele>
        <time>2019-04-10T14:43:20Z</time>
      </trkpt>
      <trkpt lat="-18.732466" lon="-47.15139">
        <ele>890.7</ele>
        <time>2019-04-10T14:43:21Z</time>
      </trkpt>
      <trkpt lat="-18.732464" lon="-47.151422">
        <ele>890.8</ele>
        <time>2019-04-10T14:43:22Z</time>
      </trkpt>
      <trkpt lat="-18.732464" lon="-47.151456">
        <ele>890.8</ele>
        <time>2019-04-10T14:43:23Z</time>
      </trkpt>
      <trkpt lat="-18.732458" lon="-47.151489">
        <ele>890.7</ele>
        <time>2019-04-10T14:43:24Z</time>
      </trkpt>
      <trkpt lat="-18.732456" lon="-47.151521">
        <ele>890.7</ele>
        <time>2019-04-10T14:43:25Z</time>
      </trkpt>
      <trkpt lat="-18.732452" lon="-47.15155">
        <ele>890.6</ele>
        <time>2019-04-10T14:43:26Z</time>
      </trkpt>
      <trkpt lat="-18.732446" lon="-47.151579">
        <ele>890.6</ele>
        <time>2019-04-10T14:43:27Z</time>
      </trkpt>
      <trkpt lat="-18.732443" lon="-47.151609">
        <ele>890.5</ele>
        <time>2019-04-10T14:43:28Z</time>
      </trkpt>
      <trkpt lat="-18.732436" lon="-47.151661">
        <ele>890.2</ele>
        <time>2019-04-10T14:43:30Z</time>
      </trkpt>
      <trkpt lat="-18.732433" lon="-47.151693">
        <ele>890</ele>
        <time>2019-04-10T14:43:31Z</time>
      </trkpt>
      <trkpt lat="-18.732424" lon="-47.151724">
        <ele>890.1</ele>
        <time>2019-04-10T14:43:32Z</time>
      </trkpt>
      <trkpt lat="-18.732413" lon="-47.151754">
        <ele>890.1</ele>
        <time>2019-04-10T14:43:33Z</time>
      </trkpt>
      <trkpt lat="-18.732402" lon="-47.151781">
        <ele>890.2</ele>
        <time>2019-04-10T14:43:34Z</time>
      </trkpt>
      <trkpt lat="-18.732393" lon="-47.151812">
        <ele>890.4</ele>
        <time>2019-04-10T14:43:35Z</time>
      </trkpt>
      <trkpt lat="-18.732383" lon="-47.15184">
        <ele>890.6</ele>
        <time>2019-04-10T14:43:36Z</time>
      </trkpt>
      <trkpt lat="-18.732372" lon="-47.151871">
        <ele>890.8</ele>
        <time>2019-04-10T14:43:37Z</time>
      </trkpt>
      <trkpt lat="-18.732362" lon="-47.151902">
        <ele>891</ele>
        <time>2019-04-10T14:43:38Z</time>
      </trkpt>
      <trkpt lat="-18.732353" lon="-47.151932">
        <ele>891.2</ele>
        <time>2019-04-10T14:43:39Z</time>
      </trkpt>
      <trkpt lat="-18.732345" lon="-47.151961">
        <ele>891.4</ele>
        <time>2019-04-10T14:43:40Z</time>
      </trkpt>
      <trkpt lat="-18.732334" lon="-47.151995">
        <ele>891.7</ele>
        <time>2019-04-10T14:43:41Z</time>
      </trkpt>
      <trkpt lat="-18.732316" lon="-47.152046">
        <ele>892.1</ele>
        <time>2019-04-10T14:43:43Z</time>
      </trkpt>
      <trkpt lat="-18.732309" lon="-47.152075">
        <ele>892.3</ele>
        <time>2019-04-10T14:43:44Z</time>
      </trkpt>
      <trkpt lat="-18.732297" lon="-47.152105">
        <ele>892.4</ele>
        <time>2019-04-10T14:43:45Z</time>
      </trkpt>
      <trkpt lat="-18.732287" lon="-47.152133">
        <ele>892.6</ele>
        <time>2019-04-10T14:43:46Z</time>
      </trkpt>
      <trkpt lat="-18.732277" lon="-47.152161">
        <ele>892.7</ele>
        <time>2019-04-10T14:43:47Z</time>
      </trkpt>
      <trkpt lat="-18.732257" lon="-47.152211">
        <ele>893</ele>
        <time>2019-04-10T14:43:49Z</time>
      </trkpt>
      <trkpt lat="-18.732244" lon="-47.152257">
        <ele>893.2</ele>
        <time>2019-04-10T14:43:51Z</time>
      </trkpt>
      <trkpt lat="-18.732228" lon="-47.152285">
        <ele>893.4</ele>
        <time>2019-04-10T14:43:52Z</time>
      </trkpt>
      <trkpt lat="-18.732219" lon="-47.152316">
        <ele>893.5</ele>
        <time>2019-04-10T14:43:53Z</time>
      </trkpt>
      <trkpt lat="-18.732199" lon="-47.152356">
        <ele>893.8</ele>
        <time>2019-04-10T14:43:55Z</time>
      </trkpt>
      <trkpt lat="-18.732178" lon="-47.152406">
        <ele>894.1</ele>
        <time>2019-04-10T14:43:57Z</time>
      </trkpt>
      <trkpt lat="-18.732163" lon="-47.152433">
        <ele>894.3</ele>
        <time>2019-04-10T14:43:58Z</time>
      </trkpt>
      <trkpt lat="-18.732154" lon="-47.15246">
        <ele>894.5</ele>
        <time>2019-04-10T14:43:59Z</time>
      </trkpt>
      <trkpt lat="-18.732136" lon="-47.152511">
        <ele>894.8</ele>
        <time>2019-04-10T14:44:01Z</time>
      </trkpt>
      <trkpt lat="-18.732121" lon="-47.152535">
        <ele>895</ele>
        <time>2019-04-10T14:44:02Z</time>
      </trkpt>
      <trkpt lat="-18.732103" lon="-47.15256">
        <ele>895.1</ele>
        <time>2019-04-10T14:44:03Z</time>
      </trkpt>
      <trkpt lat="-18.732076" lon="-47.152611">
        <ele>895.1</ele>
        <time>2019-04-10T14:44:05Z</time>
      </trkpt>
      <trkpt lat="-18.732065" lon="-47.152639">
        <ele>895</ele>
        <time>2019-04-10T14:44:06Z</time>
      </trkpt>
      <trkpt lat="-18.732058" lon="-47.15267">
        <ele>895</ele>
        <time>2019-04-10T14:44:07Z</time>
      </trkpt>
      <trkpt lat="-18.732053" lon="-47.152702">
        <ele>895</ele>
        <time>2019-04-10T14:44:08Z</time>
      </trkpt>
      <trkpt lat="-18.732041" lon="-47.152739">
        <ele>895</ele>
        <time>2019-04-10T14:44:10Z</time>
      </trkpt>
      <trkpt lat="-18.732016" lon="-47.152781">
        <ele>895.1</ele>
        <time>2019-04-10T14:44:12Z</time>
      </trkpt>
      <trkpt lat="-18.731995" lon="-47.152806">
        <ele>895.3</ele>
        <time>2019-04-10T14:44:14Z</time>
      </trkpt>
      <trkpt lat="-18.731977" lon="-47.152836">
        <ele>895.5</ele>
        <time>2019-04-10T14:44:17Z</time>
      </trkpt>
      <trkpt lat="-18.731945" lon="-47.152852">
        <ele>895.8</ele>
        <time>2019-04-10T14:44:29Z</time>
      </trkpt>
      <trkpt lat="-18.731925" lon="-47.152907">
        <ele>896.3</ele>
        <time>2019-04-10T14:44:31Z</time>
      </trkpt>
      <trkpt lat="-18.731905" lon="-47.152953">
        <ele>896.9</ele>
        <time>2019-04-10T14:44:33Z</time>
      </trkpt>
      <trkpt lat="-18.731884" lon="-47.153001">
        <ele>897.5</ele>
        <time>2019-04-10T14:44:35Z</time>
      </trkpt>
      <trkpt lat="-18.731867" lon="-47.15305">
        <ele>898</ele>
        <time>2019-04-10T14:44:37Z</time>
      </trkpt>
      <trkpt lat="-18.73185" lon="-47.153095">
        <ele>898.3</ele>
        <time>2019-04-10T14:44:39Z</time>
      </trkpt>
      <trkpt lat="-18.731823" lon="-47.153137">
        <ele>898.6</ele>
        <time>2019-04-10T14:44:41Z</time>
      </trkpt>
      <trkpt lat="-18.731799" lon="-47.153181">
        <ele>899</ele>
        <time>2019-04-10T14:44:43Z</time>
      </trkpt>
      <trkpt lat="-18.731784" lon="-47.153209">
        <ele>899.2</ele>
        <time>2019-04-10T14:44:44Z</time>
      </trkpt>
      <trkpt lat="-18.731774" lon="-47.153236">
        <ele>899.5</ele>
        <time>2019-04-10T14:44:45Z</time>
      </trkpt>
      <trkpt lat="-18.731757" lon="-47.153287">
        <ele>900.2</ele>
        <time>2019-04-10T14:44:47Z</time>
      </trkpt>
      <trkpt lat="-18.731744" lon="-47.15333">
        <ele>900.8</ele>
        <time>2019-04-10T14:44:49Z</time>
      </trkpt>
      <trkpt lat="-18.731744" lon="-47.153364">
        <ele>901.2</ele>
        <time>2019-04-10T14:44:51Z</time>
      </trkpt>
      <trkpt lat="-18.731724" lon="-47.153407">
        <ele>901.6</ele>
        <time>2019-04-10T14:44:53Z</time>
      </trkpt>
      <trkpt lat="-18.731706" lon="-47.153448">
        <ele>901.9</ele>
        <time>2019-04-10T14:44:55Z</time>
      </trkpt>
      <trkpt lat="-18.731685" lon="-47.153491">
        <ele>902.2</ele>
        <time>2019-04-10T14:44:57Z</time>
      </trkpt>
      <trkpt lat="-18.731677" lon="-47.153538">
        <ele>902.3</ele>
        <time>2019-04-10T14:44:59Z</time>
      </trkpt>
      <trkpt lat="-18.731657" lon="-47.15358">
        <ele>902.4</ele>
        <time>2019-04-10T14:45:01Z</time>
      </trkpt>
      <trkpt lat="-18.731638" lon="-47.153635">
        <ele>902.3</ele>
        <time>2019-04-10T14:45:03Z</time>
      </trkpt>
      <trkpt lat="-18.731615" lon="-47.153679">
        <ele>902.1</ele>
        <time>2019-04-10T14:45:05Z</time>
      </trkpt>
      <trkpt lat="-18.731597" lon="-47.153713">
        <ele>902.2</ele>
        <time>2019-04-10T14:45:07Z</time>
      </trkpt>
      <trkpt lat="-18.731577" lon="-47.15374">
        <ele>902.2</ele>
        <time>2019-04-10T14:45:08Z</time>
      </trkpt>
      <trkpt lat="-18.731562" lon="-47.153769">
        <ele>902.2</ele>
        <time>2019-04-10T14:45:09Z</time>
      </trkpt>
      <trkpt lat="-18.73155" lon="-47.153796">
        <ele>902.3</ele>
        <time>2019-04-10T14:45:10Z</time>
      </trkpt>
      <trkpt lat="-18.731534" lon="-47.153823">
        <ele>902.4</ele>
        <time>2019-04-10T14:45:11Z</time>
      </trkpt>
      <trkpt lat="-18.731521" lon="-47.153851">
        <ele>902.6</ele>
        <time>2019-04-10T14:45:12Z</time>
      </trkpt>
      <trkpt lat="-18.731506" lon="-47.153876">
        <ele>903</ele>
        <time>2019-04-10T14:45:13Z</time>
      </trkpt>
      <trkpt lat="-18.731494" lon="-47.153901">
        <ele>903.4</ele>
        <time>2019-04-10T14:45:14Z</time>
      </trkpt>
      <trkpt lat="-18.731481" lon="-47.153957">
        <ele>904</ele>
        <time>2019-04-10T14:45:16Z</time>
      </trkpt>
      <trkpt lat="-18.731468" lon="-47.153987">
        <ele>904.4</ele>
        <time>2019-04-10T14:45:17Z</time>
      </trkpt>
      <trkpt lat="-18.731441" lon="-47.154037">
        <ele>904.9</ele>
        <time>2019-04-10T14:45:19Z</time>
      </trkpt>
      <trkpt lat="-18.731433" lon="-47.154065">
        <ele>905.2</ele>
        <time>2019-04-10T14:45:20Z</time>
      </trkpt>
      <trkpt lat="-18.731423" lon="-47.154093">
        <ele>905.4</ele>
        <time>2019-04-10T14:45:21Z</time>
      </trkpt>
      <trkpt lat="-18.731419" lon="-47.154123">
        <ele>905.7</ele>
        <time>2019-04-10T14:45:22Z</time>
      </trkpt>
      <trkpt lat="-18.73141" lon="-47.15415">
        <ele>905.9</ele>
        <time>2019-04-10T14:45:23Z</time>
      </trkpt>
      <trkpt lat="-18.731393" lon="-47.154198">
        <ele>906.2</ele>
        <time>2019-04-10T14:45:25Z</time>
      </trkpt>
      <trkpt lat="-18.731377" lon="-47.15425">
        <ele>906.6</ele>
        <time>2019-04-10T14:45:27Z</time>
      </trkpt>
      <trkpt lat="-18.731357" lon="-47.154297">
        <ele>907</ele>
        <time>2019-04-10T14:45:29Z</time>
      </trkpt>
      <trkpt lat="-18.731327" lon="-47.154346">
        <ele>907.5</ele>
        <time>2019-04-10T14:45:31Z</time>
      </trkpt>
      <trkpt lat="-18.731302" lon="-47.154396">
        <ele>908</ele>
        <time>2019-04-10T14:45:33Z</time>
      </trkpt>
      <trkpt lat="-18.731276" lon="-47.154441">
        <ele>908.4</ele>
        <time>2019-04-10T14:45:35Z</time>
      </trkpt>
      <trkpt lat="-18.731246" lon="-47.15449">
        <ele>908.7</ele>
        <time>2019-04-10T14:45:37Z</time>
      </trkpt>
      <trkpt lat="-18.731233" lon="-47.154516">
        <ele>908.9</ele>
        <time>2019-04-10T14:45:38Z</time>
      </trkpt>
      <trkpt lat="-18.731218" lon="-47.154553">
        <ele>909.1</ele>
        <time>2019-04-10T14:45:40Z</time>
      </trkpt>
      <trkpt lat="-18.731198" lon="-47.154612">
        <ele>909.5</ele>
        <time>2019-04-10T14:45:42Z</time>
      </trkpt>
      <trkpt lat="-18.731188" lon="-47.154644">
        <ele>909.7</ele>
        <time>2019-04-10T14:45:43Z</time>
      </trkpt>
      <trkpt lat="-18.73118" lon="-47.154675">
        <ele>909.9</ele>
        <time>2019-04-10T14:45:44Z</time>
      </trkpt>
      <trkpt lat="-18.731171" lon="-47.154709">
        <ele>910</ele>
        <time>2019-04-10T14:45:45Z</time>
      </trkpt>
      <trkpt lat="-18.731162" lon="-47.15476">
        <ele>910.2</ele>
        <time>2019-04-10T14:45:47Z</time>
      </trkpt>
      <trkpt lat="-18.731151" lon="-47.154805">
        <ele>910.4</ele>
        <time>2019-04-10T14:45:49Z</time>
      </trkpt>
      <trkpt lat="-18.73113" lon="-47.154837">
        <ele>910.6</ele>
        <time>2019-04-10T14:45:51Z</time>
      </trkpt>
      <trkpt lat="-18.731107" lon="-47.154866">
        <ele>910.9</ele>
        <time>2019-04-10T14:45:53Z</time>
      </trkpt>
      <trkpt lat="-18.731084" lon="-47.154911">
        <ele>911.2</ele>
        <time>2019-04-10T14:45:55Z</time>
      </trkpt>
      <trkpt lat="-18.731059" lon="-47.15496">
        <ele>911.6</ele>
        <time>2019-04-10T14:45:57Z</time>
      </trkpt>
      <trkpt lat="-18.731044" lon="-47.154988">
        <ele>911.7</ele>
        <time>2019-04-10T14:45:58Z</time>
      </trkpt>
      <trkpt lat="-18.731031" lon="-47.155013">
        <ele>911.9</ele>
        <time>2019-04-10T14:45:59Z</time>
      </trkpt>
      <trkpt lat="-18.731007" lon="-47.155059">
        <ele>912</ele>
        <time>2019-04-10T14:46:01Z</time>
      </trkpt>
      <trkpt lat="-18.730996" lon="-47.155095">
        <ele>912</ele>
        <time>2019-04-10T14:46:02Z</time>
      </trkpt>
      <trkpt lat="-18.730979" lon="-47.155146">
        <ele>912</ele>
        <time>2019-04-10T14:46:04Z</time>
      </trkpt>
      <trkpt lat="-18.730965" lon="-47.155177">
        <ele>912</ele>
        <time>2019-04-10T14:46:05Z</time>
      </trkpt>
      <trkpt lat="-18.73095" lon="-47.155207">
        <ele>912</ele>
        <time>2019-04-10T14:46:06Z</time>
      </trkpt>
      <trkpt lat="-18.730939" lon="-47.155236">
        <ele>912</ele>
        <time>2019-04-10T14:46:07Z</time>
      </trkpt>
      <trkpt lat="-18.730924" lon="-47.155265">
        <ele>912</ele>
        <time>2019-04-10T14:46:08Z</time>
      </trkpt>
      <trkpt lat="-18.7309" lon="-47.155308">
        <ele>912</ele>
        <time>2019-04-10T14:46:10Z</time>
      </trkpt>
      <trkpt lat="-18.73088" lon="-47.155345">
        <ele>912</ele>
        <time>2019-04-10T14:46:12Z</time>
      </trkpt>
      <trkpt lat="-18.730855" lon="-47.15539">
        <ele>912</ele>
        <time>2019-04-10T14:46:14Z</time>
      </trkpt>
      <trkpt lat="-18.730842" lon="-47.155417">
        <ele>911.9</ele>
        <time>2019-04-10T14:46:15Z</time>
      </trkpt>
      <trkpt lat="-18.730835" lon="-47.155449">
        <ele>911.9</ele>
        <time>2019-04-10T14:46:16Z</time>
      </trkpt>
      <trkpt lat="-18.730825" lon="-47.155482">
        <ele>911.8</ele>
        <time>2019-04-10T14:46:17Z</time>
      </trkpt>
      <trkpt lat="-18.7308" lon="-47.15553">
        <ele>911.8</ele>
        <time>2019-04-10T14:46:19Z</time>
      </trkpt>
      <trkpt lat="-18.730766" lon="-47.155571">
        <ele>911.9</ele>
        <time>2019-04-10T14:46:21Z</time>
      </trkpt>
      <trkpt lat="-18.730746" lon="-47.155594">
        <ele>911.9</ele>
        <time>2019-04-10T14:46:22Z</time>
      </trkpt>
      <trkpt lat="-18.730727" lon="-47.155623">
        <ele>912</ele>
        <time>2019-04-10T14:46:23Z</time>
      </trkpt>
      <trkpt lat="-18.730711" lon="-47.155654">
        <ele>912.1</ele>
        <time>2019-04-10T14:46:24Z</time>
      </trkpt>
      <trkpt lat="-18.730703" lon="-47.155689">
        <ele>912.2</ele>
        <time>2019-04-10T14:46:25Z</time>
      </trkpt>
      <trkpt lat="-18.730685" lon="-47.155711">
        <ele>912.3</ele>
        <time>2019-04-10T14:46:26Z</time>
      </trkpt>
      <trkpt lat="-18.73066" lon="-47.155755">
        <ele>912.6</ele>
        <time>2019-04-10T14:46:28Z</time>
      </trkpt>
      <trkpt lat="-18.730647" lon="-47.155784">
        <ele>912.8</ele>
        <time>2019-04-10T14:46:29Z</time>
      </trkpt>
      <trkpt lat="-18.730635" lon="-47.15581">
        <ele>913</ele>
        <time>2019-04-10T14:46:30Z</time>
      </trkpt>
      <trkpt lat="-18.73062" lon="-47.155844">
        <ele>913.3</ele>
        <time>2019-04-10T14:46:31Z</time>
      </trkpt>
      <trkpt lat="-18.730604" lon="-47.155875">
        <ele>913.6</ele>
        <time>2019-04-10T14:46:32Z</time>
      </trkpt>
      <trkpt lat="-18.730584" lon="-47.155923">
        <ele>914.3</ele>
        <time>2019-04-10T14:46:34Z</time>
      </trkpt>
      <trkpt lat="-18.730572" lon="-47.15595">
        <ele>914.7</ele>
        <time>2019-04-10T14:46:35Z</time>
      </trkpt>
      <trkpt lat="-18.73055" lon="-47.155996">
        <ele>915.3</ele>
        <time>2019-04-10T14:46:37Z</time>
      </trkpt>
      <trkpt lat="-18.73052" lon="-47.156043">
        <ele>915.9</ele>
        <time>2019-04-10T14:46:39Z</time>
      </trkpt>
      <trkpt lat="-18.7305" lon="-47.156079">
        <ele>916</ele>
        <time>2019-04-10T14:46:41Z</time>
      </trkpt>
      <trkpt lat="-18.730484" lon="-47.156125">
        <ele>916</ele>
        <time>2019-04-10T14:46:43Z</time>
      </trkpt>
      <trkpt lat="-18.730464" lon="-47.156181">
        <ele>916</ele>
        <time>2019-04-10T14:46:45Z</time>
      </trkpt>
      <trkpt lat="-18.730457" lon="-47.156217">
        <ele>915.9</ele>
        <time>2019-04-10T14:46:46Z</time>
      </trkpt>
      <trkpt lat="-18.730449" lon="-47.156248">
        <ele>916</ele>
        <time>2019-04-10T14:46:47Z</time>
      </trkpt>
      <trkpt lat="-18.730442" lon="-47.156277">
        <ele>916.1</ele>
        <time>2019-04-10T14:46:48Z</time>
      </trkpt>
      <trkpt lat="-18.730425" lon="-47.156307">
        <ele>916.4</ele>
        <time>2019-04-10T14:46:49Z</time>
      </trkpt>
      <trkpt lat="-18.730405" lon="-47.156348">
        <ele>916.6</ele>
        <time>2019-04-10T14:46:50Z</time>
      </trkpt>
      <trkpt lat="-18.730387" lon="-47.156386">
        <ele>916.8</ele>
        <time>2019-04-10T14:46:51Z</time>
      </trkpt>
      <trkpt lat="-18.730368" lon="-47.156424">
        <ele>917</ele>
        <time>2019-04-10T14:46:52Z</time>
      </trkpt>
      <trkpt lat="-18.730352" lon="-47.156463">
        <ele>917.2</ele>
        <time>2019-04-10T14:46:53Z</time>
      </trkpt>
      <trkpt lat="-18.730336" lon="-47.156497">
        <ele>917.5</ele>
        <time>2019-04-10T14:46:54Z</time>
      </trkpt>
      <trkpt lat="-18.730321" lon="-47.156536">
        <ele>917.7</ele>
        <time>2019-04-10T14:46:55Z</time>
      </trkpt>
      <trkpt lat="-18.730307" lon="-47.156576">
        <ele>918</ele>
        <time>2019-04-10T14:46:56Z</time>
      </trkpt>
      <trkpt lat="-18.730297" lon="-47.156611">
        <ele>918.2</ele>
        <time>2019-04-10T14:46:57Z</time>
      </trkpt>
      <trkpt lat="-18.73028" lon="-47.156642">
        <ele>918.5</ele>
        <time>2019-04-10T14:46:58Z</time>
      </trkpt>
      <trkpt lat="-18.730265" lon="-47.15668">
        <ele>918.7</ele>
        <time>2019-04-10T14:46:59Z</time>
      </trkpt>
      <trkpt lat="-18.730254" lon="-47.156717">
        <ele>918.9</ele>
        <time>2019-04-10T14:47:00Z</time>
      </trkpt>
      <trkpt lat="-18.730241" lon="-47.156751">
        <ele>918.9</ele>
        <time>2019-04-10T14:47:01Z</time>
      </trkpt>
      <trkpt lat="-18.730234" lon="-47.156786">
        <ele>919</ele>
        <time>2019-04-10T14:47:02Z</time>
      </trkpt>
      <trkpt lat="-18.730223" lon="-47.156826">
        <ele>919.2</ele>
        <time>2019-04-10T14:47:03Z</time>
      </trkpt>
      <trkpt lat="-18.730211" lon="-47.156863">
        <ele>919.4</ele>
        <time>2019-04-10T14:47:04Z</time>
      </trkpt>
      <trkpt lat="-18.730205" lon="-47.156902">
        <ele>919.6</ele>
        <time>2019-04-10T14:47:05Z</time>
      </trkpt>
      <trkpt lat="-18.730196" lon="-47.156944">
        <ele>919.7</ele>
        <time>2019-04-10T14:47:06Z</time>
      </trkpt>
      <trkpt lat="-18.730187" lon="-47.156987">
        <ele>919.9</ele>
        <time>2019-04-10T14:47:07Z</time>
      </trkpt>
      <trkpt lat="-18.730177" lon="-47.157028">
        <ele>920</ele>
        <time>2019-04-10T14:47:08Z</time>
      </trkpt>
      <trkpt lat="-18.730163" lon="-47.157066">
        <ele>920</ele>
        <time>2019-04-10T14:47:09Z</time>
      </trkpt>
      <trkpt lat="-18.730152" lon="-47.157102">
        <ele>920</ele>
        <time>2019-04-10T14:47:10Z</time>
      </trkpt>
      <trkpt lat="-18.730141" lon="-47.15714">
        <ele>920.2</ele>
        <time>2019-04-10T14:47:11Z</time>
      </trkpt>
      <trkpt lat="-18.730125" lon="-47.157182">
        <ele>920.4</ele>
        <time>2019-04-10T14:47:12Z</time>
      </trkpt>
      <trkpt lat="-18.730113" lon="-47.157222">
        <ele>920.6</ele>
        <time>2019-04-10T14:47:13Z</time>
      </trkpt>
      <trkpt lat="-18.730101" lon="-47.15726">
        <ele>920.9</ele>
        <time>2019-04-10T14:47:14Z</time>
      </trkpt>
      <trkpt lat="-18.730087" lon="-47.157298">
        <ele>921.1</ele>
        <time>2019-04-10T14:47:15Z</time>
      </trkpt>
      <trkpt lat="-18.730072" lon="-47.157336">
        <ele>921.3</ele>
        <time>2019-04-10T14:47:16Z</time>
      </trkpt>
      <trkpt lat="-18.730055" lon="-47.157374">
        <ele>921.5</ele>
        <time>2019-04-10T14:47:17Z</time>
      </trkpt>
      <trkpt lat="-18.730036" lon="-47.15741">
        <ele>921.6</ele>
        <time>2019-04-10T14:47:18Z</time>
      </trkpt>
      <trkpt lat="-18.730018" lon="-47.157448">
        <ele>921.8</ele>
        <time>2019-04-10T14:47:19Z</time>
      </trkpt>
      <trkpt lat="-18.730003" lon="-47.157491">
        <ele>922</ele>
        <time>2019-04-10T14:47:20Z</time>
      </trkpt>
      <trkpt lat="-18.729986" lon="-47.157532">
        <ele>922.1</ele>
        <time>2019-04-10T14:47:21Z</time>
      </trkpt>
      <trkpt lat="-18.729971" lon="-47.157569">
        <ele>922.2</ele>
        <time>2019-04-10T14:47:22Z</time>
      </trkpt>
      <trkpt lat="-18.729957" lon="-47.157605">
        <ele>922.3</ele>
        <time>2019-04-10T14:47:23Z</time>
      </trkpt>
      <trkpt lat="-18.729944" lon="-47.15764">
        <ele>922.2</ele>
        <time>2019-04-10T14:47:24Z</time>
      </trkpt>
      <trkpt lat="-18.729929" lon="-47.157674">
        <ele>922</ele>
        <time>2019-04-10T14:47:25Z</time>
      </trkpt>
      <trkpt lat="-18.729919" lon="-47.157708">
        <ele>921.9</ele>
        <time>2019-04-10T14:47:26Z</time>
      </trkpt>
      <trkpt lat="-18.729914" lon="-47.157742">
        <ele>921.7</ele>
        <time>2019-04-10T14:47:27Z</time>
      </trkpt>
      <trkpt lat="-18.729909" lon="-47.157777">
        <ele>921.4</ele>
        <time>2019-04-10T14:47:28Z</time>
      </trkpt>
      <trkpt lat="-18.729912" lon="-47.157815">
        <ele>921.2</ele>
        <time>2019-04-10T14:47:29Z</time>
      </trkpt>
      <trkpt lat="-18.729913" lon="-47.157847">
        <ele>921</ele>
        <time>2019-04-10T14:47:30Z</time>
      </trkpt>
      <trkpt lat="-18.729915" lon="-47.157879">
        <ele>920.9</ele>
        <time>2019-04-10T14:47:31Z</time>
      </trkpt>
      <trkpt lat="-18.729921" lon="-47.157936">
        <ele>920.9</ele>
        <time>2019-04-10T14:47:33Z</time>
      </trkpt>
      <trkpt lat="-18.729926" lon="-47.157964">
        <ele>921.1</ele>
        <time>2019-04-10T14:47:34Z</time>
      </trkpt>
      <trkpt lat="-18.729932" lon="-47.158">
        <ele>921.2</ele>
        <time>2019-04-10T14:47:35Z</time>
      </trkpt>
      <trkpt lat="-18.729936" lon="-47.158044">
        <ele>921.3</ele>
        <time>2019-04-10T14:47:36Z</time>
      </trkpt>
      <trkpt lat="-18.729943" lon="-47.158079">
        <ele>921.4</ele>
        <time>2019-04-10T14:47:37Z</time>
      </trkpt>
      <trkpt lat="-18.729945" lon="-47.158112">
        <ele>921.5</ele>
        <time>2019-04-10T14:47:38Z</time>
      </trkpt>
      <trkpt lat="-18.729949" lon="-47.158145">
        <ele>921.7</ele>
        <time>2019-04-10T14:47:39Z</time>
      </trkpt>
      <trkpt lat="-18.729953" lon="-47.158179">
        <ele>921.8</ele>
        <time>2019-04-10T14:47:40Z</time>
      </trkpt>
      <trkpt lat="-18.72996" lon="-47.158209">
        <ele>921.7</ele>
        <time>2019-04-10T14:47:41Z</time>
      </trkpt>
      <trkpt lat="-18.729968" lon="-47.15824">
        <ele>921.7</ele>
        <time>2019-04-10T14:47:42Z</time>
      </trkpt>
      <trkpt lat="-18.72997" lon="-47.158272">
        <ele>921.7</ele>
        <time>2019-04-10T14:47:43Z</time>
      </trkpt>
      <trkpt lat="-18.729977" lon="-47.158308">
        <ele>921.7</ele>
        <time>2019-04-10T14:47:44Z</time>
      </trkpt>
      <trkpt lat="-18.729985" lon="-47.158344">
        <ele>921.7</ele>
        <time>2019-04-10T14:47:45Z</time>
      </trkpt>
      <trkpt lat="-18.729988" lon="-47.158378">
        <ele>921.6</ele>
        <time>2019-04-10T14:47:46Z</time>
      </trkpt>
      <trkpt lat="-18.729992" lon="-47.158411">
        <ele>921.4</ele>
        <time>2019-04-10T14:47:47Z</time>
      </trkpt>
      <trkpt lat="-18.729995" lon="-47.158451">
        <ele>921.1</ele>
        <time>2019-04-10T14:47:48Z</time>
      </trkpt>
      <trkpt lat="-18.730005" lon="-47.158491">
        <ele>920.8</ele>
        <time>2019-04-10T14:47:49Z</time>
      </trkpt>
      <trkpt lat="-18.730016" lon="-47.15853">
        <ele>920.6</ele>
        <time>2019-04-10T14:47:50Z</time>
      </trkpt>
      <trkpt lat="-18.730033" lon="-47.15857">
        <ele>920.3</ele>
        <time>2019-04-10T14:47:51Z</time>
      </trkpt>
      <trkpt lat="-18.730048" lon="-47.158616">
        <ele>920</ele>
        <time>2019-04-10T14:47:52Z</time>
      </trkpt>
      <trkpt lat="-18.730058" lon="-47.158662">
        <ele>920</ele>
        <time>2019-04-10T14:47:53Z</time>
      </trkpt>
      <trkpt lat="-18.730063" lon="-47.158707">
        <ele>920.1</ele>
        <time>2019-04-10T14:47:54Z</time>
      </trkpt>
      <trkpt lat="-18.730065" lon="-47.158738">
        <ele>920.3</ele>
        <time>2019-04-10T14:47:55Z</time>
      </trkpt>
      <trkpt lat="-18.730073" lon="-47.158783">
        <ele>920.6</ele>
        <time>2019-04-10T14:47:56Z</time>
      </trkpt>
      <trkpt lat="-18.730082" lon="-47.15883">
        <ele>921</ele>
        <time>2019-04-10T14:47:57Z</time>
      </trkpt>
      <trkpt lat="-18.730085" lon="-47.158878">
        <ele>921.2</ele>
        <time>2019-04-10T14:47:58Z</time>
      </trkpt>
      <trkpt lat="-18.730089" lon="-47.158921">
        <ele>921.4</ele>
        <time>2019-04-10T14:47:59Z</time>
      </trkpt>
      <trkpt lat="-18.730094" lon="-47.158969">
        <ele>921.6</ele>
        <time>2019-04-10T14:48:00Z</time>
      </trkpt>
      <trkpt lat="-18.730103" lon="-47.15902">
        <ele>921.6</ele>
        <time>2019-04-10T14:48:01Z</time>
      </trkpt>
      <trkpt lat="-18.730114" lon="-47.159066">
        <ele>921.2</ele>
        <time>2019-04-10T14:48:02Z</time>
      </trkpt>
      <trkpt lat="-18.730124" lon="-47.159112">
        <ele>920.9</ele>
        <time>2019-04-10T14:48:03Z</time>
      </trkpt>
      <trkpt lat="-18.730135" lon="-47.15915">
        <ele>920.7</ele>
        <time>2019-04-10T14:48:04Z</time>
      </trkpt>
      <trkpt lat="-18.73015" lon="-47.159188">
        <ele>920.5</ele>
        <time>2019-04-10T14:48:05Z</time>
      </trkpt>
      <trkpt lat="-18.730164" lon="-47.159226">
        <ele>920.4</ele>
        <time>2019-04-10T14:48:06Z</time>
      </trkpt>
      <trkpt lat="-18.730175" lon="-47.159266">
        <ele>920.2</ele>
        <time>2019-04-10T14:48:07Z</time>
      </trkpt>
      <trkpt lat="-18.730188" lon="-47.159307">
        <ele>920.2</ele>
        <time>2019-04-10T14:48:08Z</time>
      </trkpt>
      <trkpt lat="-18.730202" lon="-47.159348">
        <ele>920.2</ele>
        <time>2019-04-10T14:48:09Z</time>
      </trkpt>
      <trkpt lat="-18.730217" lon="-47.159389">
        <ele>920.2</ele>
        <time>2019-04-10T14:48:10Z</time>
      </trkpt>
      <trkpt lat="-18.730233" lon="-47.159431">
        <ele>920.1</ele>
        <time>2019-04-10T14:48:11Z</time>
      </trkpt>
      <trkpt lat="-18.730251" lon="-47.159475">
        <ele>919.9</ele>
        <time>2019-04-10T14:48:12Z</time>
      </trkpt>
      <trkpt lat="-18.730266" lon="-47.159515">
        <ele>919.7</ele>
        <time>2019-04-10T14:48:13Z</time>
      </trkpt>
      <trkpt lat="-18.730282" lon="-47.15956">
        <ele>919.3</ele>
        <time>2019-04-10T14:48:14Z</time>
      </trkpt>
      <trkpt lat="-18.730296" lon="-47.159606">
        <ele>918.9</ele>
        <time>2019-04-10T14:48:15Z</time>
      </trkpt>
      <trkpt lat="-18.730316" lon="-47.159654">
        <ele>918.8</ele>
        <time>2019-04-10T14:48:16Z</time>
      </trkpt>
      <trkpt lat="-18.730333" lon="-47.159696">
        <ele>918.9</ele>
        <time>2019-04-10T14:48:17Z</time>
      </trkpt>
      <trkpt lat="-18.730347" lon="-47.159734">
        <ele>918.8</ele>
        <time>2019-04-10T14:48:18Z</time>
      </trkpt>
      <trkpt lat="-18.73036" lon="-47.159774">
        <ele>918.8</ele>
        <time>2019-04-10T14:48:19Z</time>
      </trkpt>
      <trkpt lat="-18.730377" lon="-47.159818">
        <ele>918.8</ele>
        <time>2019-04-10T14:48:20Z</time>
      </trkpt>
      <trkpt lat="-18.730395" lon="-47.159865">
        <ele>918.9</ele>
        <time>2019-04-10T14:48:21Z</time>
      </trkpt>
      <trkpt lat="-18.730411" lon="-47.159912">
        <ele>919.3</ele>
        <time>2019-04-10T14:48:22Z</time>
      </trkpt>
      <trkpt lat="-18.730427" lon="-47.159955">
        <ele>919.7</ele>
        <time>2019-04-10T14:48:23Z</time>
      </trkpt>
      <trkpt lat="-18.730439" lon="-47.160003">
        <ele>920.1</ele>
        <time>2019-04-10T14:48:24Z</time>
      </trkpt>
      <trkpt lat="-18.730449" lon="-47.160048">
        <ele>920.5</ele>
        <time>2019-04-10T14:48:25Z</time>
      </trkpt>
      <trkpt lat="-18.730462" lon="-47.160096">
        <ele>920.8</ele>
        <time>2019-04-10T14:48:26Z</time>
      </trkpt>
      <trkpt lat="-18.730474" lon="-47.160139">
        <ele>921.1</ele>
        <time>2019-04-10T14:48:27Z</time>
      </trkpt>
      <trkpt lat="-18.730484" lon="-47.16018">
        <ele>921</ele>
        <time>2019-04-10T14:48:28Z</time>
      </trkpt>
      <trkpt lat="-18.730497" lon="-47.160222">
        <ele>920.8</ele>
        <time>2019-04-10T14:48:29Z</time>
      </trkpt>
      <trkpt lat="-18.730514" lon="-47.160265">
        <ele>920.7</ele>
        <time>2019-04-10T14:48:30Z</time>
      </trkpt>
      <trkpt lat="-18.73053" lon="-47.160305">
        <ele>920.6</ele>
        <time>2019-04-10T14:48:31Z</time>
      </trkpt>
      <trkpt lat="-18.73055" lon="-47.160348">
        <ele>920.3</ele>
        <time>2019-04-10T14:48:32Z</time>
      </trkpt>
      <trkpt lat="-18.730565" lon="-47.160388">
        <ele>920.1</ele>
        <time>2019-04-10T14:48:33Z</time>
      </trkpt>
      <trkpt lat="-18.730579" lon="-47.160431">
        <ele>920</ele>
        <time>2019-04-10T14:48:34Z</time>
      </trkpt>
      <trkpt lat="-18.73059" lon="-47.160461">
        <ele>920</ele>
        <time>2019-04-10T14:48:35Z</time>
      </trkpt>
      <trkpt lat="-18.730597" lon="-47.160493">
        <ele>920</ele>
        <time>2019-04-10T14:48:36Z</time>
      </trkpt>
      <trkpt lat="-18.730602" lon="-47.160525">
        <ele>920.2</ele>
        <time>2019-04-10T14:48:37Z</time>
      </trkpt>
      <trkpt lat="-18.730607" lon="-47.16056">
        <ele>920.4</ele>
        <time>2019-04-10T14:48:38Z</time>
      </trkpt>
      <trkpt lat="-18.730624" lon="-47.160609">
        <ele>920.5</ele>
        <time>2019-04-10T14:48:40Z</time>
      </trkpt>
      <trkpt lat="-18.730636" lon="-47.160637">
        <ele>920.5</ele>
        <time>2019-04-10T14:48:41Z</time>
      </trkpt>
      <trkpt lat="-18.730648" lon="-47.160665">
        <ele>920.6</ele>
        <time>2019-04-10T14:48:42Z</time>
      </trkpt>
      <trkpt lat="-18.730662" lon="-47.160694">
        <ele>920.6</ele>
        <time>2019-04-10T14:48:43Z</time>
      </trkpt>
      <trkpt lat="-18.730679" lon="-47.16073">
        <ele>920.6</ele>
        <time>2019-04-10T14:48:44Z</time>
      </trkpt>
      <trkpt lat="-18.730696" lon="-47.160767">
        <ele>920.6</ele>
        <time>2019-04-10T14:48:45Z</time>
      </trkpt>
      <trkpt lat="-18.73071" lon="-47.160799">
        <ele>920.5</ele>
        <time>2019-04-10T14:48:46Z</time>
      </trkpt>
      <trkpt lat="-18.73072" lon="-47.160829">
        <ele>920.5</ele>
        <time>2019-04-10T14:48:47Z</time>
      </trkpt>
      <trkpt lat="-18.730726" lon="-47.160862">
        <ele>920.6</ele>
        <time>2019-04-10T14:48:48Z</time>
      </trkpt>
      <trkpt lat="-18.730722" lon="-47.160891">
        <ele>920.8</ele>
        <time>2019-04-10T14:48:49Z</time>
      </trkpt>
      <trkpt lat="-18.730672" lon="-47.160899">
        <ele>921</ele>
        <time>2019-04-10T14:48:51Z</time>
      </trkpt>
      <trkpt lat="-18.730644" lon="-47.160892">
        <ele>920.9</ele>
        <time>2019-04-10T14:48:52Z</time>
      </trkpt>
      <trkpt lat="-18.730596" lon="-47.16088">
        <ele>921.9</ele>
        <time>2019-04-10T14:48:54Z</time>
      </trkpt>
      <trkpt lat="-18.730557" lon="-47.160877">
        <ele>922.2</ele>
        <time>2019-04-10T14:48:56Z</time>
      </trkpt>
      <trkpt lat="-18.730519" lon="-47.16087">
        <ele>922.4</ele>
        <time>2019-04-10T14:48:59Z</time>
      </trkpt>
      <trkpt lat="-18.730476" lon="-47.160859">
        <ele>922.4</ele>
        <time>2019-04-10T14:49:01Z</time>
      </trkpt>
      <trkpt lat="-18.730426" lon="-47.160852">
        <ele>922.4</ele>
        <time>2019-04-10T14:49:03Z</time>
      </trkpt>
      <trkpt lat="-18.730396" lon="-47.160851">
        <ele>922.3</ele>
        <time>2019-04-10T14:49:04Z</time>
      </trkpt>
      <trkpt lat="-18.730346" lon="-47.160854">
        <ele>922.2</ele>
        <time>2019-04-10T14:49:06Z</time>
      </trkpt>
      <trkpt lat="-18.730313" lon="-47.16086">
        <ele>922.1</ele>
        <time>2019-04-10T14:49:07Z</time>
      </trkpt>
      <trkpt lat="-18.730282" lon="-47.160867">
        <ele>922</ele>
        <time>2019-04-10T14:49:08Z</time>
      </trkpt>
      <trkpt lat="-18.730243" lon="-47.160876">
        <ele>922</ele>
        <time>2019-04-10T14:49:09Z</time>
      </trkpt>
      <trkpt lat="-18.730214" lon="-47.160881">
        <ele>922</ele>
        <time>2019-04-10T14:49:10Z</time>
      </trkpt>
      <trkpt lat="-18.730181" lon="-47.160889">
        <ele>922.1</ele>
        <time>2019-04-10T14:49:11Z</time>
      </trkpt>
      <trkpt lat="-18.730151" lon="-47.160899">
        <ele>922.3</ele>
        <time>2019-04-10T14:49:12Z</time>
      </trkpt>
      <trkpt lat="-18.730122" lon="-47.160905">
        <ele>922.4</ele>
        <time>2019-04-10T14:49:13Z</time>
      </trkpt>
      <trkpt lat="-18.730086" lon="-47.160915">
        <ele>922.6</ele>
        <time>2019-04-10T14:49:14Z</time>
      </trkpt>
      <trkpt lat="-18.730054" lon="-47.160922">
        <ele>922.8</ele>
        <time>2019-04-10T14:49:15Z</time>
      </trkpt>
      <trkpt lat="-18.730019" lon="-47.160937">
        <ele>922.8</ele>
        <time>2019-04-10T14:49:16Z</time>
      </trkpt>
      <trkpt lat="-18.729989" lon="-47.16095">
        <ele>922.8</ele>
        <time>2019-04-10T14:49:17Z</time>
      </trkpt>
      <trkpt lat="-18.72996" lon="-47.160961">
        <ele>922.8</ele>
        <time>2019-04-10T14:49:18Z</time>
      </trkpt>
      <trkpt lat="-18.729925" lon="-47.160968">
        <ele>922.9</ele>
        <time>2019-04-10T14:49:19Z</time>
      </trkpt>
      <trkpt lat="-18.729883" lon="-47.160978">
        <ele>923.1</ele>
        <time>2019-04-10T14:49:20Z</time>
      </trkpt>
      <trkpt lat="-18.729844" lon="-47.160986">
        <ele>923.2</ele>
        <time>2019-04-10T14:49:21Z</time>
      </trkpt>
      <trkpt lat="-18.729813" lon="-47.161">
        <ele>923.2</ele>
        <time>2019-04-10T14:49:22Z</time>
      </trkpt>
      <trkpt lat="-18.729782" lon="-47.161014">
        <ele>923.3</ele>
        <time>2019-04-10T14:49:23Z</time>
      </trkpt>
      <trkpt lat="-18.72975" lon="-47.161028">
        <ele>923.4</ele>
        <time>2019-04-10T14:49:24Z</time>
      </trkpt>
      <trkpt lat="-18.729721" lon="-47.161043">
        <ele>923.4</ele>
        <time>2019-04-10T14:49:25Z</time>
      </trkpt>
      <trkpt lat="-18.729691" lon="-47.161057">
        <ele>923.3</ele>
        <time>2019-04-10T14:49:26Z</time>
      </trkpt>
      <trkpt lat="-18.729655" lon="-47.161073">
        <ele>923.2</ele>
        <time>2019-04-10T14:49:27Z</time>
      </trkpt>
      <trkpt lat="-18.72962" lon="-47.161087">
        <ele>923.2</ele>
        <time>2019-04-10T14:49:28Z</time>
      </trkpt>
      <trkpt lat="-18.72959" lon="-47.161102">
        <ele>923.3</ele>
        <time>2019-04-10T14:49:29Z</time>
      </trkpt>
      <trkpt lat="-18.729562" lon="-47.161119">
        <ele>923.5</ele>
        <time>2019-04-10T14:49:30Z</time>
      </trkpt>
      <trkpt lat="-18.729538" lon="-47.161139">
        <ele>923.8</ele>
        <time>2019-04-10T14:49:31Z</time>
      </trkpt>
      <trkpt lat="-18.729507" lon="-47.161153">
        <ele>924.2</ele>
        <time>2019-04-10T14:49:32Z</time>
      </trkpt>
      <trkpt lat="-18.729482" lon="-47.161167">
        <ele>924.2</ele>
        <time>2019-04-10T14:49:33Z</time>
      </trkpt>
      <trkpt lat="-18.729454" lon="-47.161184">
        <ele>924.3</ele>
        <time>2019-04-10T14:49:34Z</time>
      </trkpt>
      <trkpt lat="-18.729424" lon="-47.161203">
        <ele>924.3</ele>
        <time>2019-04-10T14:49:35Z</time>
      </trkpt>
      <trkpt lat="-18.729399" lon="-47.161225">
        <ele>924.3</ele>
        <time>2019-04-10T14:49:36Z</time>
      </trkpt>
      <trkpt lat="-18.729372" lon="-47.161241">
        <ele>924.2</ele>
        <time>2019-04-10T14:49:37Z</time>
      </trkpt>
      <trkpt lat="-18.729342" lon="-47.161263">
        <ele>924.1</ele>
        <time>2019-04-10T14:49:38Z</time>
      </trkpt>
      <trkpt lat="-18.729312" lon="-47.161285">
        <ele>924</ele>
        <time>2019-04-10T14:49:39Z</time>
      </trkpt>
      <trkpt lat="-18.729284" lon="-47.161301">
        <ele>924</ele>
        <time>2019-04-10T14:49:40Z</time>
      </trkpt>
      <trkpt lat="-18.729242" lon="-47.161324">
        <ele>924.1</ele>
        <time>2019-04-10T14:49:42Z</time>
      </trkpt>
      <trkpt lat="-18.7292" lon="-47.161359">
        <ele>924.4</ele>
        <time>2019-04-10T14:49:44Z</time>
      </trkpt>
      <trkpt lat="-18.729176" lon="-47.161378">
        <ele>924.6</ele>
        <time>2019-04-10T14:49:45Z</time>
      </trkpt>
      <trkpt lat="-18.729126" lon="-47.161402">
        <ele>924.6</ele>
        <time>2019-04-10T14:49:47Z</time>
      </trkpt>
      <trkpt lat="-18.729099" lon="-47.161416">
        <ele>924.6</ele>
        <time>2019-04-10T14:49:48Z</time>
      </trkpt>
      <trkpt lat="-18.72907" lon="-47.16143">
        <ele>924.7</ele>
        <time>2019-04-10T14:49:49Z</time>
      </trkpt>
      <trkpt lat="-18.72904" lon="-47.161445">
        <ele>924.8</ele>
        <time>2019-04-10T14:49:50Z</time>
      </trkpt>
      <trkpt lat="-18.729011" lon="-47.161459">
        <ele>925</ele>
        <time>2019-04-10T14:49:51Z</time>
      </trkpt>
      <trkpt lat="-18.728984" lon="-47.161468">
        <ele>925</ele>
        <time>2019-04-10T14:49:52Z</time>
      </trkpt>
      <trkpt lat="-18.728954" lon="-47.161475">
        <ele>925.1</ele>
        <time>2019-04-10T14:49:53Z</time>
      </trkpt>
      <trkpt lat="-18.728927" lon="-47.161487">
        <ele>925.2</ele>
        <time>2019-04-10T14:49:54Z</time>
      </trkpt>
      <trkpt lat="-18.728889" lon="-47.161497">
        <ele>925.4</ele>
        <time>2019-04-10T14:49:55Z</time>
      </trkpt>
      <trkpt lat="-18.728856" lon="-47.161509">
        <ele>925.4</ele>
        <time>2019-04-10T14:49:56Z</time>
      </trkpt>
      <trkpt lat="-18.72882" lon="-47.16152">
        <ele>925.3</ele>
        <time>2019-04-10T14:49:57Z</time>
      </trkpt>
      <trkpt lat="-18.728789" lon="-47.161529">
        <ele>925.2</ele>
        <time>2019-04-10T14:49:58Z</time>
      </trkpt>
      <trkpt lat="-18.728758" lon="-47.161535">
        <ele>925.2</ele>
        <time>2019-04-10T14:49:59Z</time>
      </trkpt>
      <trkpt lat="-18.728726" lon="-47.161541">
        <ele>925.2</ele>
        <time>2019-04-10T14:50:00Z</time>
      </trkpt>
      <trkpt lat="-18.728691" lon="-47.161544">
        <ele>925.3</ele>
        <time>2019-04-10T14:50:01Z</time>
      </trkpt>
      <trkpt lat="-18.728653" lon="-47.161549">
        <ele>925.5</ele>
        <time>2019-04-10T14:50:02Z</time>
      </trkpt>
      <trkpt lat="-18.728621" lon="-47.161548">
        <ele>925.7</ele>
        <time>2019-04-10T14:50:03Z</time>
      </trkpt>
      <trkpt lat="-18.728592" lon="-47.16155">
        <ele>925.8</ele>
        <time>2019-04-10T14:50:04Z</time>
      </trkpt>
      <trkpt lat="-18.728549" lon="-47.161553">
        <ele>926</ele>
        <time>2019-04-10T14:50:05Z</time>
      </trkpt>
      <trkpt lat="-18.728509" lon="-47.16156">
        <ele>926.3</ele>
        <time>2019-04-10T14:50:06Z</time>
      </trkpt>
      <trkpt lat="-18.72848" lon="-47.16157">
        <ele>926.5</ele>
        <time>2019-04-10T14:50:07Z</time>
      </trkpt>
      <trkpt lat="-18.728441" lon="-47.161581">
        <ele>926.7</ele>
        <time>2019-04-10T14:50:08Z</time>
      </trkpt>
      <trkpt lat="-18.728403" lon="-47.161597">
        <ele>927</ele>
        <time>2019-04-10T14:50:09Z</time>
      </trkpt>
      <trkpt lat="-18.728365" lon="-47.161615">
        <ele>927.2</ele>
        <time>2019-04-10T14:50:10Z</time>
      </trkpt>
      <trkpt lat="-18.728333" lon="-47.161635">
        <ele>927.3</ele>
        <time>2019-04-10T14:50:11Z</time>
      </trkpt>
      <trkpt lat="-18.728303" lon="-47.161662">
        <ele>927.3</ele>
        <time>2019-04-10T14:50:12Z</time>
      </trkpt>
      <trkpt lat="-18.728277" lon="-47.161697">
        <ele>927.3</ele>
        <time>2019-04-10T14:50:13Z</time>
      </trkpt>
      <trkpt lat="-18.728254" lon="-47.16173">
        <ele>927.2</ele>
        <time>2019-04-10T14:50:14Z</time>
      </trkpt>
      <trkpt lat="-18.728231" lon="-47.161767">
        <ele>926.9</ele>
        <time>2019-04-10T14:50:15Z</time>
      </trkpt>
      <trkpt lat="-18.728212" lon="-47.161805">
        <ele>926.7</ele>
        <time>2019-04-10T14:50:16Z</time>
      </trkpt>
      <trkpt lat="-18.728192" lon="-47.161842">
        <ele>926.5</ele>
        <time>2019-04-10T14:50:17Z</time>
      </trkpt>
      <trkpt lat="-18.728178" lon="-47.161884">
        <ele>926.4</ele>
        <time>2019-04-10T14:50:18Z</time>
      </trkpt>
      <trkpt lat="-18.728168" lon="-47.161927">
        <ele>926.3</ele>
        <time>2019-04-10T14:50:19Z</time>
      </trkpt>
      <trkpt lat="-18.728159" lon="-47.161973">
        <ele>926.2</ele>
        <time>2019-04-10T14:50:20Z</time>
      </trkpt>
      <trkpt lat="-18.728145" lon="-47.162008">
        <ele>926.3</ele>
        <time>2019-04-10T14:50:21Z</time>
      </trkpt>
      <trkpt lat="-18.728131" lon="-47.162043">
        <ele>926.4</ele>
        <time>2019-04-10T14:50:22Z</time>
      </trkpt>
      <trkpt lat="-18.728114" lon="-47.162085">
        <ele>926.4</ele>
        <time>2019-04-10T14:50:23Z</time>
      </trkpt>
      <trkpt lat="-18.728098" lon="-47.162125">
        <ele>926.5</ele>
        <time>2019-04-10T14:50:24Z</time>
      </trkpt>
      <trkpt lat="-18.728081" lon="-47.162168">
        <ele>926.5</ele>
        <time>2019-04-10T14:50:25Z</time>
      </trkpt>
      <trkpt lat="-18.728065" lon="-47.162212">
        <ele>926.5</ele>
        <time>2019-04-10T14:50:26Z</time>
      </trkpt>
      <trkpt lat="-18.728042" lon="-47.162258">
        <ele>926.4</ele>
        <time>2019-04-10T14:50:27Z</time>
      </trkpt>
      <trkpt lat="-18.728018" lon="-47.16231">
        <ele>926.1</ele>
        <time>2019-04-10T14:50:28Z</time>
      </trkpt>
      <trkpt lat="-18.727994" lon="-47.16237">
        <ele>925.7</ele>
        <time>2019-04-10T14:50:29Z</time>
      </trkpt>
      <trkpt lat="-18.727975" lon="-47.162429">
        <ele>925.2</ele>
        <time>2019-04-10T14:50:30Z</time>
      </trkpt>
      <trkpt lat="-18.727954" lon="-47.162488">
        <ele>924.8</ele>
        <time>2019-04-10T14:50:31Z</time>
      </trkpt>
      <trkpt lat="-18.727929" lon="-47.162547">
        <ele>924.5</ele>
        <time>2019-04-10T14:50:32Z</time>
      </trkpt>
      <trkpt lat="-18.727899" lon="-47.162607">
        <ele>924.7</ele>
        <time>2019-04-10T14:50:33Z</time>
      </trkpt>
      <trkpt lat="-18.727869" lon="-47.162659">
        <ele>924.9</ele>
        <time>2019-04-10T14:50:34Z</time>
      </trkpt>
      <trkpt lat="-18.727845" lon="-47.162718">
        <ele>925.2</ele>
        <time>2019-04-10T14:50:35Z</time>
      </trkpt>
      <trkpt lat="-18.727823" lon="-47.16277">
        <ele>925.6</ele>
        <time>2019-04-10T14:50:36Z</time>
      </trkpt>
      <trkpt lat="-18.7278" lon="-47.162819">
        <ele>925.9</ele>
        <time>2019-04-10T14:50:37Z</time>
      </trkpt>
      <trkpt lat="-18.727771" lon="-47.162863">
        <ele>926.1</ele>
        <time>2019-04-10T14:50:38Z</time>
      </trkpt>
      <trkpt lat="-18.727736" lon="-47.162892">
        <ele>926.3</ele>
        <time>2019-04-10T14:50:39Z</time>
      </trkpt>
      <trkpt lat="-18.727705" lon="-47.162921">
        <ele>926.4</ele>
        <time>2019-04-10T14:50:40Z</time>
      </trkpt>
      <trkpt lat="-18.727684" lon="-47.162958">
        <ele>926.3</ele>
        <time>2019-04-10T14:50:41Z</time>
      </trkpt>
      <trkpt lat="-18.727653" lon="-47.162984">
        <ele>926.2</ele>
        <time>2019-04-10T14:50:42Z</time>
      </trkpt>
      <trkpt lat="-18.727626" lon="-47.163022">
        <ele>925.9</ele>
        <time>2019-04-10T14:50:43Z</time>
      </trkpt>
      <trkpt lat="-18.727597" lon="-47.163057">
        <ele>925.7</ele>
        <time>2019-04-10T14:50:44Z</time>
      </trkpt>
      <trkpt lat="-18.727572" lon="-47.163089">
        <ele>925.6</ele>
        <time>2019-04-10T14:50:45Z</time>
      </trkpt>
      <trkpt lat="-18.727552" lon="-47.163119">
        <ele>925.5</ele>
        <time>2019-04-10T14:50:46Z</time>
      </trkpt>
      <trkpt lat="-18.727533" lon="-47.163147">
        <ele>925.5</ele>
        <time>2019-04-10T14:50:47Z</time>
      </trkpt>
      <trkpt lat="-18.727509" lon="-47.163174">
        <ele>925.5</ele>
        <time>2019-04-10T14:50:48Z</time>
      </trkpt>
      <trkpt lat="-18.727497" lon="-47.163205">
        <ele>925.5</ele>
        <time>2019-04-10T14:50:49Z</time>
      </trkpt>
      <trkpt lat="-18.727482" lon="-47.163236">
        <ele>925.7</ele>
        <time>2019-04-10T14:50:50Z</time>
      </trkpt>
      <trkpt lat="-18.727467" lon="-47.163267">
        <ele>926</ele>
        <time>2019-04-10T14:50:51Z</time>
      </trkpt>
      <trkpt lat="-18.72744" lon="-47.163318">
        <ele>926.3</ele>
        <time>2019-04-10T14:50:53Z</time>
      </trkpt>
      <trkpt lat="-18.72743" lon="-47.16335">
        <ele>926.5</ele>
        <time>2019-04-10T14:50:54Z</time>
      </trkpt>
      <trkpt lat="-18.727408" lon="-47.163391">
        <ele>926.8</ele>
        <time>2019-04-10T14:50:56Z</time>
      </trkpt>
      <trkpt lat="-18.727392" lon="-47.163416">
        <ele>927</ele>
        <time>2019-04-10T14:50:57Z</time>
      </trkpt>
      <trkpt lat="-18.727373" lon="-47.163458">
        <ele>927.3</ele>
        <time>2019-04-10T14:50:59Z</time>
      </trkpt>
      <trkpt lat="-18.727348" lon="-47.163495">
        <ele>927.8</ele>
        <time>2019-04-10T14:51:01Z</time>
      </trkpt>
      <trkpt lat="-18.727313" lon="-47.16353">
        <ele>928.4</ele>
        <time>2019-04-10T14:51:03Z</time>
      </trkpt>
      <trkpt lat="-18.72729" lon="-47.163565">
        <ele>929.2</ele>
        <time>2019-04-10T14:51:05Z</time>
      </trkpt>
      <trkpt lat="-18.727266" lon="-47.163603">
        <ele>930</ele>
        <time>2019-04-10T14:51:07Z</time>
      </trkpt>
      <trkpt lat="-18.727244" lon="-47.163645">
        <ele>930.8</ele>
        <time>2019-04-10T14:51:09Z</time>
      </trkpt>
      <trkpt lat="-18.727231" lon="-47.163675">
        <ele>931.4</ele>
        <time>2019-04-10T14:51:10Z</time>
      </trkpt>
      <trkpt lat="-18.727217" lon="-47.163701">
        <ele>931.5</ele>
        <time>2019-04-10T14:51:11Z</time>
      </trkpt>
      <trkpt lat="-18.727206" lon="-47.163731">
        <ele>931.6</ele>
        <time>2019-04-10T14:51:12Z</time>
      </trkpt>
      <trkpt lat="-18.727185" lon="-47.163783">
        <ele>931.9</ele>
        <time>2019-04-10T14:51:14Z</time>
      </trkpt>
      <trkpt lat="-18.727178" lon="-47.163812">
        <ele>932.1</ele>
        <time>2019-04-10T14:51:15Z</time>
      </trkpt>
      <trkpt lat="-18.727169" lon="-47.163841">
        <ele>932.2</ele>
        <time>2019-04-10T14:51:16Z</time>
      </trkpt>
      <trkpt lat="-18.727153" lon="-47.163869">
        <ele>932.4</ele>
        <time>2019-04-10T14:51:17Z</time>
      </trkpt>
      <trkpt lat="-18.727137" lon="-47.163898">
        <ele>932.6</ele>
        <time>2019-04-10T14:51:18Z</time>
      </trkpt>
      <trkpt lat="-18.727117" lon="-47.163941">
        <ele>932.6</ele>
        <time>2019-04-10T14:51:20Z</time>
      </trkpt>
      <trkpt lat="-18.727082" lon="-47.163986">
        <ele>932.6</ele>
        <time>2019-04-10T14:51:22Z</time>
      </trkpt>
      <trkpt lat="-18.727048" lon="-47.164021">
        <ele>932.4</ele>
        <time>2019-04-10T14:51:24Z</time>
      </trkpt>
      <trkpt lat="-18.727032" lon="-47.164066">
        <ele>932.2</ele>
        <time>2019-04-10T14:51:26Z</time>
      </trkpt>
      <trkpt lat="-18.727012" lon="-47.16411">
        <ele>932</ele>
        <time>2019-04-10T14:51:28Z</time>
      </trkpt>
      <trkpt lat="-18.726993" lon="-47.16415">
        <ele>932</ele>
        <time>2019-04-10T14:51:30Z</time>
      </trkpt>
      <trkpt lat="-18.726971" lon="-47.164192">
        <ele>932.2</ele>
        <time>2019-04-10T14:51:32Z</time>
      </trkpt>
      <trkpt lat="-18.726958" lon="-47.164218">
        <ele>932.3</ele>
        <time>2019-04-10T14:51:33Z</time>
      </trkpt>
      <trkpt lat="-18.72693" lon="-47.164255">
        <ele>932.5</ele>
        <time>2019-04-10T14:51:35Z</time>
      </trkpt>
      <trkpt lat="-18.726904" lon="-47.164292">
        <ele>932.6</ele>
        <time>2019-04-10T14:51:37Z</time>
      </trkpt>
      <trkpt lat="-18.726876" lon="-47.164329">
        <ele>932.7</ele>
        <time>2019-04-10T14:51:39Z</time>
      </trkpt>
      <trkpt lat="-18.726844" lon="-47.164368">
        <ele>932.9</ele>
        <time>2019-04-10T14:51:41Z</time>
      </trkpt>
      <trkpt lat="-18.726834" lon="-47.1644">
        <ele>933.1</ele>
        <time>2019-04-10T14:51:42Z</time>
      </trkpt>
      <trkpt lat="-18.726824" lon="-47.164433">
        <ele>933.3</ele>
        <time>2019-04-10T14:51:43Z</time>
      </trkpt>
      <trkpt lat="-18.726808" lon="-47.164463">
        <ele>933.3</ele>
        <time>2019-04-10T14:51:44Z</time>
      </trkpt>
      <trkpt lat="-18.726784" lon="-47.164495">
        <ele>933.4</ele>
        <time>2019-04-10T14:51:45Z</time>
      </trkpt>
      <trkpt lat="-18.726755" lon="-47.16453">
        <ele>933.4</ele>
        <time>2019-04-10T14:51:46Z</time>
      </trkpt>
      <trkpt lat="-18.726722" lon="-47.164573">
        <ele>933.3</ele>
        <time>2019-04-10T14:51:47Z</time>
      </trkpt>
      <trkpt lat="-18.726691" lon="-47.164614">
        <ele>933.1</ele>
        <time>2019-04-10T14:51:48Z</time>
      </trkpt>
      <trkpt lat="-18.726668" lon="-47.16466">
        <ele>933</ele>
        <time>2019-04-10T14:51:49Z</time>
      </trkpt>
      <trkpt lat="-18.726651" lon="-47.164716">
        <ele>932.7</ele>
        <time>2019-04-10T14:51:50Z</time>
      </trkpt>
      <trkpt lat="-18.72663" lon="-47.16477">
        <ele>932.1</ele>
        <time>2019-04-10T14:51:51Z</time>
      </trkpt>
      <trkpt lat="-18.726608" lon="-47.164834">
        <ele>932</ele>
        <time>2019-04-10T14:51:52Z</time>
      </trkpt>
      <trkpt lat="-18.726592" lon="-47.164903">
        <ele>932.2</ele>
        <time>2019-04-10T14:51:53Z</time>
      </trkpt>
      <trkpt lat="-18.726581" lon="-47.164971">
        <ele>932.2</ele>
        <time>2019-04-10T14:51:54Z</time>
      </trkpt>
      <trkpt lat="-18.726575" lon="-47.165053">
        <ele>932</ele>
        <time>2019-04-10T14:51:55Z</time>
      </trkpt>
      <trkpt lat="-18.726571" lon="-47.165133">
        <ele>931.5</ele>
        <time>2019-04-10T14:51:56Z</time>
      </trkpt>
      <trkpt lat="-18.726574" lon="-47.165208">
        <ele>931.6</ele>
        <time>2019-04-10T14:51:57Z</time>
      </trkpt>
      <trkpt lat="-18.726576" lon="-47.165278">
        <ele>931.3</ele>
        <time>2019-04-10T14:51:58Z</time>
      </trkpt>
      <trkpt lat="-18.726581" lon="-47.165344">
        <ele>931</ele>
        <time>2019-04-10T14:51:59Z</time>
      </trkpt>
      <trkpt lat="-18.726576" lon="-47.16541">
        <ele>930.4</ele>
        <time>2019-04-10T14:52:00Z</time>
      </trkpt>
      <trkpt lat="-18.726569" lon="-47.165475">
        <ele>929.5</ele>
        <time>2019-04-10T14:52:01Z</time>
      </trkpt>
      <trkpt lat="-18.726558" lon="-47.165546">
        <ele>928.7</ele>
        <time>2019-04-10T14:52:02Z</time>
      </trkpt>
      <trkpt lat="-18.726545" lon="-47.16562">
        <ele>928</ele>
        <time>2019-04-10T14:52:03Z</time>
      </trkpt>
      <trkpt lat="-18.726531" lon="-47.165684">
        <ele>927</ele>
        <time>2019-04-10T14:52:04Z</time>
      </trkpt>
      <trkpt lat="-18.726493" lon="-47.165729">
        <ele>925.8</ele>
        <time>2019-04-10T14:52:05Z</time>
      </trkpt>
      <trkpt lat="-18.726438" lon="-47.165764">
        <ele>925.2</ele>
        <time>2019-04-10T14:52:06Z</time>
      </trkpt>
      <trkpt lat="-18.726372" lon="-47.165794">
        <ele>925.4</ele>
        <time>2019-04-10T14:52:07Z</time>
      </trkpt>
      <trkpt lat="-18.726303" lon="-47.16582">
        <ele>925.9</ele>
        <time>2019-04-10T14:52:08Z</time>
      </trkpt>
      <trkpt lat="-18.726233" lon="-47.165843">
        <ele>925.9</ele>
        <time>2019-04-10T14:52:09Z</time>
      </trkpt>
      <trkpt lat="-18.726174" lon="-47.165879">
        <ele>925.4</ele>
        <time>2019-04-10T14:52:10Z</time>
      </trkpt>
      <trkpt lat="-18.726109" lon="-47.165917">
        <ele>925.9</ele>
        <time>2019-04-10T14:52:11Z</time>
      </trkpt>
      <trkpt lat="-18.726038" lon="-47.165961">
        <ele>925.2</ele>
        <time>2019-04-10T14:52:12Z</time>
      </trkpt>
      <trkpt lat="-18.725971" lon="-47.166002">
        <ele>925.2</ele>
        <time>2019-04-10T14:52:13Z</time>
      </trkpt>
      <trkpt lat="-18.725911" lon="-47.166042">
        <ele>925.5</ele>
        <time>2019-04-10T14:52:14Z</time>
      </trkpt>
      <trkpt lat="-18.725856" lon="-47.166076">
        <ele>926.2</ele>
        <time>2019-04-10T14:52:15Z</time>
      </trkpt>
      <trkpt lat="-18.725802" lon="-47.16611">
        <ele>926.7</ele>
        <time>2019-04-10T14:52:16Z</time>
      </trkpt>
      <trkpt lat="-18.725749" lon="-47.166148">
        <ele>926.1</ele>
        <time>2019-04-10T14:52:17Z</time>
      </trkpt>
      <trkpt lat="-18.725693" lon="-47.166181">
        <ele>924.7</ele>
        <time>2019-04-10T14:52:18Z</time>
      </trkpt>
      <trkpt lat="-18.725638" lon="-47.166214">
        <ele>923.3</ele>
        <time>2019-04-10T14:52:19Z</time>
      </trkpt>
      <trkpt lat="-18.725587" lon="-47.16624">
        <ele>922.2</ele>
        <time>2019-04-10T14:52:20Z</time>
      </trkpt>
      <trkpt lat="-18.725539" lon="-47.166266">
        <ele>921.9</ele>
        <time>2019-04-10T14:52:21Z</time>
      </trkpt>
      <trkpt lat="-18.725485" lon="-47.166288">
        <ele>921.2</ele>
        <time>2019-04-10T14:52:22Z</time>
      </trkpt>
      <trkpt lat="-18.725432" lon="-47.166306">
        <ele>920.5</ele>
        <time>2019-04-10T14:52:23Z</time>
      </trkpt>
      <trkpt lat="-18.725376" lon="-47.166329">
        <ele>920</ele>
        <time>2019-04-10T14:52:24Z</time>
      </trkpt>
      <trkpt lat="-18.725317" lon="-47.166363">
        <ele>920.1</ele>
        <time>2019-04-10T14:52:25Z</time>
      </trkpt>
      <trkpt lat="-18.725267" lon="-47.166397">
        <ele>920.1</ele>
        <time>2019-04-10T14:52:26Z</time>
      </trkpt>
      <trkpt lat="-18.725214" lon="-47.16643">
        <ele>920.1</ele>
        <time>2019-04-10T14:52:27Z</time>
      </trkpt>
      <trkpt lat="-18.725167" lon="-47.166471">
        <ele>920.3</ele>
        <time>2019-04-10T14:52:28Z</time>
      </trkpt>
      <trkpt lat="-18.725113" lon="-47.166499">
        <ele>921.1</ele>
        <time>2019-04-10T14:52:29Z</time>
      </trkpt>
      <trkpt lat="-18.725072" lon="-47.166532">
        <ele>922.1</ele>
        <time>2019-04-10T14:52:30Z</time>
      </trkpt>
      <trkpt lat="-18.725034" lon="-47.166554">
        <ele>923.2</ele>
        <time>2019-04-10T14:52:31Z</time>
      </trkpt>
      <trkpt lat="-18.725002" lon="-47.166573">
        <ele>924.1</ele>
        <time>2019-04-10T14:52:32Z</time>
      </trkpt>
      <trkpt lat="-18.724977" lon="-47.16659">
        <ele>924.8</ele>
        <time>2019-04-10T14:52:33Z</time>
      </trkpt>
      <trkpt lat="-18.724929" lon="-47.166611">
        <ele>926.1</ele>
        <time>2019-04-10T14:52:35Z</time>
      </trkpt>
      <trkpt lat="-18.724905" lon="-47.166628">
        <ele>926.5</ele>
        <time>2019-04-10T14:52:36Z</time>
      </trkpt>
      <trkpt lat="-18.724884" lon="-47.166648">
        <ele>926.8</ele>
        <time>2019-04-10T14:52:37Z</time>
      </trkpt>
      <trkpt lat="-18.724864" lon="-47.166668">
        <ele>927.2</ele>
        <time>2019-04-10T14:52:38Z</time>
      </trkpt>
      <trkpt lat="-18.724842" lon="-47.166687">
        <ele>927.4</ele>
        <time>2019-04-10T14:52:39Z</time>
      </trkpt>
      <trkpt lat="-18.724817" lon="-47.166708">
        <ele>927.6</ele>
        <time>2019-04-10T14:52:40Z</time>
      </trkpt>
      <trkpt lat="-18.724784" lon="-47.166731">
        <ele>927.9</ele>
        <time>2019-04-10T14:52:41Z</time>
      </trkpt>
      <trkpt lat="-18.724745" lon="-47.166753">
        <ele>928.3</ele>
        <time>2019-04-10T14:52:42Z</time>
      </trkpt>
      <trkpt lat="-18.724699" lon="-47.166776">
        <ele>928.3</ele>
        <time>2019-04-10T14:52:43Z</time>
      </trkpt>
      <trkpt lat="-18.724652" lon="-47.166805">
        <ele>928.1</ele>
        <time>2019-04-10T14:52:44Z</time>
      </trkpt>
      <trkpt lat="-18.724604" lon="-47.166836">
        <ele>927.8</ele>
        <time>2019-04-10T14:52:45Z</time>
      </trkpt>
      <trkpt lat="-18.72456" lon="-47.166865">
        <ele>927.7</ele>
        <time>2019-04-10T14:52:46Z</time>
      </trkpt>
      <trkpt lat="-18.724521" lon="-47.166883">
        <ele>927.6</ele>
        <time>2019-04-10T14:52:47Z</time>
      </trkpt>
      <trkpt lat="-18.724491" lon="-47.166894">
        <ele>927.4</ele>
        <time>2019-04-10T14:52:48Z</time>
      </trkpt>
      <trkpt lat="-18.724452" lon="-47.166913">
        <ele>926.9</ele>
        <time>2019-04-10T14:52:50Z</time>
      </trkpt>
      <trkpt lat="-18.724416" lon="-47.166929">
        <ele>926.5</ele>
        <time>2019-04-10T14:52:52Z</time>
      </trkpt>
      <trkpt lat="-18.724378" lon="-47.166957">
        <ele>926.3</ele>
        <time>2019-04-10T14:52:54Z</time>
      </trkpt>
      <trkpt lat="-18.72435" lon="-47.16698">
        <ele>926.2</ele>
        <time>2019-04-10T14:52:56Z</time>
      </trkpt>
      <trkpt lat="-18.72431" lon="-47.167015">
        <ele>926.5</ele>
        <time>2019-04-10T14:52:58Z</time>
      </trkpt>
      <trkpt lat="-18.724285" lon="-47.167031">
        <ele>926.6</ele>
        <time>2019-04-10T14:52:59Z</time>
      </trkpt>
      <trkpt lat="-18.724263" lon="-47.16705">
        <ele>926.9</ele>
        <time>2019-04-10T14:53:00Z</time>
      </trkpt>
      <trkpt lat="-18.724238" lon="-47.167082">
        <ele>927.3</ele>
        <time>2019-04-10T14:53:01Z</time>
      </trkpt>
      <trkpt lat="-18.724219" lon="-47.167107">
        <ele>927.7</ele>
        <time>2019-04-10T14:53:02Z</time>
      </trkpt>
      <trkpt lat="-18.724201" lon="-47.167133">
        <ele>928.4</ele>
        <time>2019-04-10T14:53:03Z</time>
      </trkpt>
      <trkpt lat="-18.724181" lon="-47.167165">
        <ele>929.2</ele>
        <time>2019-04-10T14:53:04Z</time>
      </trkpt>
      <trkpt lat="-18.724152" lon="-47.167206">
        <ele>930</ele>
        <time>2019-04-10T14:53:06Z</time>
      </trkpt>
      <trkpt lat="-18.724134" lon="-47.167233">
        <ele>930.6</ele>
        <time>2019-04-10T14:53:07Z</time>
      </trkpt>
      <trkpt lat="-18.724118" lon="-47.167258">
        <ele>931</ele>
        <time>2019-04-10T14:53:08Z</time>
      </trkpt>
      <trkpt lat="-18.724094" lon="-47.167303">
        <ele>931.4</ele>
        <time>2019-04-10T14:53:10Z</time>
      </trkpt>
      <trkpt lat="-18.724074" lon="-47.167355">
        <ele>931.9</ele>
        <time>2019-04-10T14:53:12Z</time>
      </trkpt>
      <trkpt lat="-18.724056" lon="-47.167385">
        <ele>932.1</ele>
        <time>2019-04-10T14:53:13Z</time>
      </trkpt>
      <trkpt lat="-18.724039" lon="-47.16742">
        <ele>932.3</ele>
        <time>2019-04-10T14:53:15Z</time>
      </trkpt>
      <trkpt lat="-18.724023" lon="-47.167458">
        <ele>932.5</ele>
        <time>2019-04-10T14:53:17Z</time>
      </trkpt>
      <trkpt lat="-18.724007" lon="-47.167498">
        <ele>932.7</ele>
        <time>2019-04-10T14:53:19Z</time>
      </trkpt>
      <trkpt lat="-18.724002" lon="-47.167548">
        <ele>932.7</ele>
        <time>2019-04-10T14:53:21Z</time>
      </trkpt>
      <trkpt lat="-18.72399" lon="-47.167576">
        <ele>932.7</ele>
        <time>2019-04-10T14:53:22Z</time>
      </trkpt>
      <trkpt lat="-18.72398" lon="-47.167607">
        <ele>932.8</ele>
        <time>2019-04-10T14:53:23Z</time>
      </trkpt>
      <trkpt lat="-18.723955" lon="-47.167652">
        <ele>932.8</ele>
        <time>2019-04-10T14:53:25Z</time>
      </trkpt>
      <trkpt lat="-18.723943" lon="-47.167707">
        <ele>933.2</ele>
        <time>2019-04-10T14:53:27Z</time>
      </trkpt>
      <trkpt lat="-18.723929" lon="-47.167761">
        <ele>933.8</ele>
        <time>2019-04-10T14:53:29Z</time>
      </trkpt>
      <trkpt lat="-18.723921" lon="-47.16779">
        <ele>934.1</ele>
        <time>2019-04-10T14:53:30Z</time>
      </trkpt>
      <trkpt lat="-18.723903" lon="-47.167844">
        <ele>934.6</ele>
        <time>2019-04-10T14:53:32Z</time>
      </trkpt>
      <trkpt lat="-18.723884" lon="-47.167889">
        <ele>934.7</ele>
        <time>2019-04-10T14:53:34Z</time>
      </trkpt>
      <trkpt lat="-18.723866" lon="-47.167925">
        <ele>935</ele>
        <time>2019-04-10T14:53:36Z</time>
      </trkpt>
      <trkpt lat="-18.723838" lon="-47.167966">
        <ele>935.6</ele>
        <time>2019-04-10T14:53:38Z</time>
      </trkpt>
      <trkpt lat="-18.723817" lon="-47.168009">
        <ele>936.1</ele>
        <time>2019-04-10T14:53:40Z</time>
      </trkpt>
      <trkpt lat="-18.723812" lon="-47.168058">
        <ele>936.5</ele>
        <time>2019-04-10T14:53:42Z</time>
      </trkpt>
      <trkpt lat="-18.7238" lon="-47.1681">
        <ele>936.9</ele>
        <time>2019-04-10T14:53:44Z</time>
      </trkpt>
      <trkpt lat="-18.723784" lon="-47.168132">
        <ele>937.1</ele>
        <time>2019-04-10T14:53:46Z</time>
      </trkpt>
      <trkpt lat="-18.723762" lon="-47.168173">
        <ele>937.6</ele>
        <time>2019-04-10T14:53:48Z</time>
      </trkpt>
      <trkpt lat="-18.723742" lon="-47.168212">
        <ele>938.1</ele>
        <time>2019-04-10T14:53:50Z</time>
      </trkpt>
      <trkpt lat="-18.723708" lon="-47.168256">
        <ele>939.2</ele>
        <time>2019-04-10T14:53:52Z</time>
      </trkpt>
      <trkpt lat="-18.723684" lon="-47.168282">
        <ele>940</ele>
        <time>2019-04-10T14:53:53Z</time>
      </trkpt>
      <trkpt lat="-18.723657" lon="-47.168311">
        <ele>941</ele>
        <time>2019-04-10T14:53:54Z</time>
      </trkpt>
      <trkpt lat="-18.723635" lon="-47.168343">
        <ele>941.9</ele>
        <time>2019-04-10T14:53:55Z</time>
      </trkpt>
      <trkpt lat="-18.72361" lon="-47.16836">
        <ele>942</ele>
        <time>2019-04-10T14:53:56Z</time>
      </trkpt>
      <trkpt lat="-18.723586" lon="-47.168374">
        <ele>942</ele>
        <time>2019-04-10T14:53:57Z</time>
      </trkpt>
      <trkpt lat="-18.723559" lon="-47.168384">
        <ele>942.1</ele>
        <time>2019-04-10T14:53:58Z</time>
      </trkpt>
      <trkpt lat="-18.723525" lon="-47.168398">
        <ele>942</ele>
        <time>2019-04-10T14:53:59Z</time>
      </trkpt>
      <trkpt lat="-18.723495" lon="-47.168412">
        <ele>942</ele>
        <time>2019-04-10T14:54:00Z</time>
      </trkpt>
      <trkpt lat="-18.723463" lon="-47.16843">
        <ele>942</ele>
        <time>2019-04-10T14:54:01Z</time>
      </trkpt>
      <trkpt lat="-18.72343" lon="-47.168433">
        <ele>941.9</ele>
        <time>2019-04-10T14:54:02Z</time>
      </trkpt>
      <trkpt lat="-18.723396" lon="-47.168435">
        <ele>941.6</ele>
        <time>2019-04-10T14:54:03Z</time>
      </trkpt>
      <trkpt lat="-18.723361" lon="-47.168439">
        <ele>941.1</ele>
        <time>2019-04-10T14:54:04Z</time>
      </trkpt>
      <trkpt lat="-18.723328" lon="-47.168438">
        <ele>940.6</ele>
        <time>2019-04-10T14:54:05Z</time>
      </trkpt>
      <trkpt lat="-18.723295" lon="-47.168433">
        <ele>940.1</ele>
        <time>2019-04-10T14:54:06Z</time>
      </trkpt>
      <trkpt lat="-18.723267" lon="-47.168427">
        <ele>939.6</ele>
        <time>2019-04-10T14:54:07Z</time>
      </trkpt>
      <trkpt lat="-18.723234" lon="-47.168418">
        <ele>939.2</ele>
        <time>2019-04-10T14:54:08Z</time>
      </trkpt>
      <trkpt lat="-18.7232" lon="-47.168413">
        <ele>938.7</ele>
        <time>2019-04-10T14:54:09Z</time>
      </trkpt>
      <trkpt lat="-18.723163" lon="-47.168403">
        <ele>938.3</ele>
        <time>2019-04-10T14:54:10Z</time>
      </trkpt>
      <trkpt lat="-18.723137" lon="-47.168392">
        <ele>938</ele>
        <time>2019-04-10T14:54:11Z</time>
      </trkpt>
      <trkpt lat="-18.723097" lon="-47.168397">
        <ele>937.6</ele>
        <time>2019-04-10T14:54:12Z</time>
      </trkpt>
      <trkpt lat="-18.723058" lon="-47.168404">
        <ele>937.4</ele>
        <time>2019-04-10T14:54:13Z</time>
      </trkpt>
      <trkpt lat="-18.723017" lon="-47.168407">
        <ele>937.3</ele>
        <time>2019-04-10T14:54:14Z</time>
      </trkpt>
      <trkpt lat="-18.722982" lon="-47.16841">
        <ele>937.4</ele>
        <time>2019-04-10T14:54:15Z</time>
      </trkpt>
      <trkpt lat="-18.722934" lon="-47.168398">
        <ele>937.7</ele>
        <time>2019-04-10T14:54:16Z</time>
      </trkpt>
      <trkpt lat="-18.722893" lon="-47.168389">
        <ele>937.9</ele>
        <time>2019-04-10T14:54:17Z</time>
      </trkpt>
      <trkpt lat="-18.722844" lon="-47.168382">
        <ele>938.1</ele>
        <time>2019-04-10T14:54:18Z</time>
      </trkpt>
      <trkpt lat="-18.722795" lon="-47.16839">
        <ele>938.1</ele>
        <time>2019-04-10T14:54:19Z</time>
      </trkpt>
      <trkpt lat="-18.722758" lon="-47.168392">
        <ele>938.1</ele>
        <time>2019-04-10T14:54:20Z</time>
      </trkpt>
      <trkpt lat="-18.72272" lon="-47.168394">
        <ele>938.1</ele>
        <time>2019-04-10T14:54:21Z</time>
      </trkpt>
      <trkpt lat="-18.722677" lon="-47.168395">
        <ele>938</ele>
        <time>2019-04-10T14:54:22Z</time>
      </trkpt>
      <trkpt lat="-18.722637" lon="-47.168393">
        <ele>938</ele>
        <time>2019-04-10T14:54:23Z</time>
      </trkpt>
      <trkpt lat="-18.7226" lon="-47.168393">
        <ele>938</ele>
        <time>2019-04-10T14:54:24Z</time>
      </trkpt>
      <trkpt lat="-18.722566" lon="-47.168395">
        <ele>938.1</ele>
        <time>2019-04-10T14:54:25Z</time>
      </trkpt>
      <trkpt lat="-18.722532" lon="-47.168401">
        <ele>938.2</ele>
        <time>2019-04-10T14:54:26Z</time>
      </trkpt>
      <trkpt lat="-18.722501" lon="-47.168406">
        <ele>938.4</ele>
        <time>2019-04-10T14:54:27Z</time>
      </trkpt>
      <trkpt lat="-18.722471" lon="-47.168411">
        <ele>938.5</ele>
        <time>2019-04-10T14:54:28Z</time>
      </trkpt>
      <trkpt lat="-18.722437" lon="-47.168409">
        <ele>938.7</ele>
        <time>2019-04-10T14:54:29Z</time>
      </trkpt>
      <trkpt lat="-18.722402" lon="-47.168413">
        <ele>939</ele>
        <time>2019-04-10T14:54:30Z</time>
      </trkpt>
      <trkpt lat="-18.72237" lon="-47.16841">
        <ele>939.2</ele>
        <time>2019-04-10T14:54:31Z</time>
      </trkpt>
      <trkpt lat="-18.722336" lon="-47.168407">
        <ele>939.4</ele>
        <time>2019-04-10T14:54:32Z</time>
      </trkpt>
      <trkpt lat="-18.722306" lon="-47.168407">
        <ele>939.6</ele>
        <time>2019-04-10T14:54:33Z</time>
      </trkpt>
      <trkpt lat="-18.722278" lon="-47.168413">
        <ele>939.7</ele>
        <time>2019-04-10T14:54:34Z</time>
      </trkpt>
      <trkpt lat="-18.722253" lon="-47.168425">
        <ele>939.9</ele>
        <time>2019-04-10T14:54:35Z</time>
      </trkpt>
      <trkpt lat="-18.722222" lon="-47.168441">
        <ele>940.1</ele>
        <time>2019-04-10T14:54:36Z</time>
      </trkpt>
      <trkpt lat="-18.722194" lon="-47.168448">
        <ele>940.3</ele>
        <time>2019-04-10T14:54:37Z</time>
      </trkpt>
      <trkpt lat="-18.722165" lon="-47.168457">
        <ele>940.4</ele>
        <time>2019-04-10T14:54:38Z</time>
      </trkpt>
      <trkpt lat="-18.722131" lon="-47.168471">
        <ele>940.6</ele>
        <time>2019-04-10T14:54:39Z</time>
      </trkpt>
      <trkpt lat="-18.722103" lon="-47.168492">
        <ele>940.8</ele>
        <time>2019-04-10T14:54:40Z</time>
      </trkpt>
      <trkpt lat="-18.72207" lon="-47.168513">
        <ele>941</ele>
        <time>2019-04-10T14:54:41Z</time>
      </trkpt>
      <trkpt lat="-18.722041" lon="-47.168529">
        <ele>941.2</ele>
        <time>2019-04-10T14:54:42Z</time>
      </trkpt>
      <trkpt lat="-18.722013" lon="-47.168547">
        <ele>941.4</ele>
        <time>2019-04-10T14:54:43Z</time>
      </trkpt>
      <trkpt lat="-18.721988" lon="-47.168567">
        <ele>941.6</ele>
        <time>2019-04-10T14:54:44Z</time>
      </trkpt>
      <trkpt lat="-18.721963" lon="-47.16859">
        <ele>941.8</ele>
        <time>2019-04-10T14:54:45Z</time>
      </trkpt>
      <trkpt lat="-18.721935" lon="-47.168606">
        <ele>942</ele>
        <time>2019-04-10T14:54:46Z</time>
      </trkpt>
      <trkpt lat="-18.721911" lon="-47.168627">
        <ele>942.3</ele>
        <time>2019-04-10T14:54:47Z</time>
      </trkpt>
      <trkpt lat="-18.721889" lon="-47.168647">
        <ele>942.5</ele>
        <time>2019-04-10T14:54:48Z</time>
      </trkpt>
      <trkpt lat="-18.721842" lon="-47.168667">
        <ele>942.9</ele>
        <time>2019-04-10T14:54:50Z</time>
      </trkpt>
      <trkpt lat="-18.721818" lon="-47.168685">
        <ele>943.1</ele>
        <time>2019-04-10T14:54:51Z</time>
      </trkpt>
      <trkpt lat="-18.721792" lon="-47.168705">
        <ele>943.3</ele>
        <time>2019-04-10T14:54:52Z</time>
      </trkpt>
      <trkpt lat="-18.721766" lon="-47.168725">
        <ele>943.5</ele>
        <time>2019-04-10T14:54:53Z</time>
      </trkpt>
      <trkpt lat="-18.721743" lon="-47.168739">
        <ele>943.7</ele>
        <time>2019-04-10T14:54:54Z</time>
      </trkpt>
      <trkpt lat="-18.721701" lon="-47.168771">
        <ele>944.2</ele>
        <time>2019-04-10T14:54:56Z</time>
      </trkpt>
      <trkpt lat="-18.721666" lon="-47.168802">
        <ele>944.6</ele>
        <time>2019-04-10T14:54:58Z</time>
      </trkpt>
      <trkpt lat="-18.721624" lon="-47.168838">
        <ele>945.2</ele>
        <time>2019-04-10T14:55:00Z</time>
      </trkpt>
      <trkpt lat="-18.721604" lon="-47.168861">
        <ele>945.6</ele>
        <time>2019-04-10T14:55:01Z</time>
      </trkpt>
      <trkpt lat="-18.721569" lon="-47.168895">
        <ele>946.2</ele>
        <time>2019-04-10T14:55:03Z</time>
      </trkpt>
      <trkpt lat="-18.721526" lon="-47.168935">
        <ele>946.9</ele>
        <time>2019-04-10T14:55:05Z</time>
      </trkpt>
      <trkpt lat="-18.721504" lon="-47.168961">
        <ele>947.1</ele>
        <time>2019-04-10T14:55:06Z</time>
      </trkpt>
      <trkpt lat="-18.721478" lon="-47.168983">
        <ele>947.2</ele>
        <time>2019-04-10T14:55:07Z</time>
      </trkpt>
      <trkpt lat="-18.721457" lon="-47.169006">
        <ele>947.3</ele>
        <time>2019-04-10T14:55:08Z</time>
      </trkpt>
      <trkpt lat="-18.721432" lon="-47.169029">
        <ele>947.4</ele>
        <time>2019-04-10T14:55:09Z</time>
      </trkpt>
      <trkpt lat="-18.721408" lon="-47.169056">
        <ele>947.6</ele>
        <time>2019-04-10T14:55:10Z</time>
      </trkpt>
      <trkpt lat="-18.721388" lon="-47.169082">
        <ele>947.9</ele>
        <time>2019-04-10T14:55:11Z</time>
      </trkpt>
      <trkpt lat="-18.721367" lon="-47.169105">
        <ele>948.2</ele>
        <time>2019-04-10T14:55:12Z</time>
      </trkpt>
      <trkpt lat="-18.721344" lon="-47.169128">
        <ele>948.5</ele>
        <time>2019-04-10T14:55:13Z</time>
      </trkpt>
      <trkpt lat="-18.72132" lon="-47.169152">
        <ele>948.8</ele>
        <time>2019-04-10T14:55:14Z</time>
      </trkpt>
      <trkpt lat="-18.721297" lon="-47.169172">
        <ele>949.1</ele>
        <time>2019-04-10T14:55:15Z</time>
      </trkpt>
      <trkpt lat="-18.721268" lon="-47.169187">
        <ele>949.4</ele>
        <time>2019-04-10T14:55:16Z</time>
      </trkpt>
      <trkpt lat="-18.721233" lon="-47.169199">
        <ele>949.9</ele>
        <time>2019-04-10T14:55:17Z</time>
      </trkpt>
      <trkpt lat="-18.721201" lon="-47.169214">
        <ele>950.3</ele>
        <time>2019-04-10T14:55:18Z</time>
      </trkpt>
      <trkpt lat="-18.72117" lon="-47.169229">
        <ele>950.5</ele>
        <time>2019-04-10T14:55:19Z</time>
      </trkpt>
      <trkpt lat="-18.72114" lon="-47.16925">
        <ele>950.7</ele>
        <time>2019-04-10T14:55:20Z</time>
      </trkpt>
      <trkpt lat="-18.721113" lon="-47.169268">
        <ele>951</ele>
        <time>2019-04-10T14:55:21Z</time>
      </trkpt>
      <trkpt lat="-18.721084" lon="-47.169287">
        <ele>951.3</ele>
        <time>2019-04-10T14:55:22Z</time>
      </trkpt>
      <trkpt lat="-18.721054" lon="-47.169302">
        <ele>951.6</ele>
        <time>2019-04-10T14:55:23Z</time>
      </trkpt>
      <trkpt lat="-18.721021" lon="-47.169318">
        <ele>952</ele>
        <time>2019-04-10T14:55:24Z</time>
      </trkpt>
      <trkpt lat="-18.720992" lon="-47.169335">
        <ele>952.3</ele>
        <time>2019-04-10T14:55:25Z</time>
      </trkpt>
      <trkpt lat="-18.720961" lon="-47.169355">
        <ele>952.4</ele>
        <time>2019-04-10T14:55:26Z</time>
      </trkpt>
      <trkpt lat="-18.720932" lon="-47.169375">
        <ele>952.5</ele>
        <time>2019-04-10T14:55:27Z</time>
      </trkpt>
      <trkpt lat="-18.720908" lon="-47.169392">
        <ele>952.6</ele>
        <time>2019-04-10T14:55:28Z</time>
      </trkpt>
      <trkpt lat="-18.720871" lon="-47.16943">
        <ele>952.6</ele>
        <time>2019-04-10T14:55:30Z</time>
      </trkpt>
      <trkpt lat="-18.720851" lon="-47.169454">
        <ele>952.6</ele>
        <time>2019-04-10T14:55:31Z</time>
      </trkpt>
      <trkpt lat="-18.720825" lon="-47.16948">
        <ele>952.5</ele>
        <time>2019-04-10T14:55:32Z</time>
      </trkpt>
      <trkpt lat="-18.720796" lon="-47.169499">
        <ele>952.4</ele>
        <time>2019-04-10T14:55:33Z</time>
      </trkpt>
      <trkpt lat="-18.720766" lon="-47.169517">
        <ele>952.3</ele>
        <time>2019-04-10T14:55:34Z</time>
      </trkpt>
      <trkpt lat="-18.720724" lon="-47.169541">
        <ele>952.2</ele>
        <time>2019-04-10T14:55:36Z</time>
      </trkpt>
      <trkpt lat="-18.720697" lon="-47.169551">
        <ele>952.1</ele>
        <time>2019-04-10T14:55:37Z</time>
      </trkpt>
      <trkpt lat="-18.720672" lon="-47.169568">
        <ele>951.9</ele>
        <time>2019-04-10T14:55:38Z</time>
      </trkpt>
      <trkpt lat="-18.720647" lon="-47.169581">
        <ele>951.7</ele>
        <time>2019-04-10T14:55:39Z</time>
      </trkpt>
      <trkpt lat="-18.72062" lon="-47.169595">
        <ele>951.5</ele>
        <time>2019-04-10T14:55:40Z</time>
      </trkpt>
      <trkpt lat="-18.72059" lon="-47.169613">
        <ele>951.2</ele>
        <time>2019-04-10T14:55:41Z</time>
      </trkpt>
      <trkpt lat="-18.720561" lon="-47.169638">
        <ele>951.1</ele>
        <time>2019-04-10T14:55:42Z</time>
      </trkpt>
      <trkpt lat="-18.72053" lon="-47.169662">
        <ele>951</ele>
        <time>2019-04-10T14:55:43Z</time>
      </trkpt>
      <trkpt lat="-18.720498" lon="-47.169685">
        <ele>951</ele>
        <time>2019-04-10T14:55:44Z</time>
      </trkpt>
      <trkpt lat="-18.720464" lon="-47.169698">
        <ele>951</ele>
        <time>2019-04-10T14:55:45Z</time>
      </trkpt>
      <trkpt lat="-18.720433" lon="-47.169709">
        <ele>951.2</ele>
        <time>2019-04-10T14:55:46Z</time>
      </trkpt>
      <trkpt lat="-18.720404" lon="-47.169715">
        <ele>951.5</ele>
        <time>2019-04-10T14:55:47Z</time>
      </trkpt>
      <trkpt lat="-18.720378" lon="-47.169722">
        <ele>951.8</ele>
        <time>2019-04-10T14:55:48Z</time>
      </trkpt>
      <trkpt lat="-18.72033" lon="-47.169731">
        <ele>952.1</ele>
        <time>2019-04-10T14:55:50Z</time>
      </trkpt>
      <trkpt lat="-18.720298" lon="-47.169738">
        <ele>952.3</ele>
        <time>2019-04-10T14:55:51Z</time>
      </trkpt>
      <trkpt lat="-18.72026" lon="-47.169747">
        <ele>952.6</ele>
        <time>2019-04-10T14:55:52Z</time>
      </trkpt>
      <trkpt lat="-18.720223" lon="-47.169759">
        <ele>953</ele>
        <time>2019-04-10T14:55:53Z</time>
      </trkpt>
      <trkpt lat="-18.720188" lon="-47.16977">
        <ele>953.2</ele>
        <time>2019-04-10T14:55:54Z</time>
      </trkpt>
      <trkpt lat="-18.720155" lon="-47.169779">
        <ele>953.3</ele>
        <time>2019-04-10T14:55:55Z</time>
      </trkpt>
      <trkpt lat="-18.720105" lon="-47.169795">
        <ele>953.5</ele>
        <time>2019-04-10T14:55:57Z</time>
      </trkpt>
      <trkpt lat="-18.720074" lon="-47.169808">
        <ele>953.6</ele>
        <time>2019-04-10T14:55:58Z</time>
      </trkpt>
      <trkpt lat="-18.72004" lon="-47.169817">
        <ele>953.7</ele>
        <time>2019-04-10T14:55:59Z</time>
      </trkpt>
      <trkpt lat="-18.719992" lon="-47.169834">
        <ele>953.7</ele>
        <time>2019-04-10T14:56:01Z</time>
      </trkpt>
      <trkpt lat="-18.719962" lon="-47.169845">
        <ele>953.7</ele>
        <time>2019-04-10T14:56:02Z</time>
      </trkpt>
      <trkpt lat="-18.71993" lon="-47.169859">
        <ele>953.7</ele>
        <time>2019-04-10T14:56:03Z</time>
      </trkpt>
      <trkpt lat="-18.719894" lon="-47.169875">
        <ele>953.7</ele>
        <time>2019-04-10T14:56:04Z</time>
      </trkpt>
      <trkpt lat="-18.719858" lon="-47.169889">
        <ele>953.8</ele>
        <time>2019-04-10T14:56:05Z</time>
      </trkpt>
      <trkpt lat="-18.719824" lon="-47.169901">
        <ele>954</ele>
        <time>2019-04-10T14:56:06Z</time>
      </trkpt>
      <trkpt lat="-18.719785" lon="-47.169923">
        <ele>954</ele>
        <time>2019-04-10T14:56:07Z</time>
      </trkpt>
      <trkpt lat="-18.719752" lon="-47.169944">
        <ele>953.9</ele>
        <time>2019-04-10T14:56:08Z</time>
      </trkpt>
      <trkpt lat="-18.71972" lon="-47.169966">
        <ele>953.8</ele>
        <time>2019-04-10T14:56:09Z</time>
      </trkpt>
      <trkpt lat="-18.719688" lon="-47.169991">
        <ele>953.7</ele>
        <time>2019-04-10T14:56:10Z</time>
      </trkpt>
      <trkpt lat="-18.719658" lon="-47.170017">
        <ele>953.7</ele>
        <time>2019-04-10T14:56:11Z</time>
      </trkpt>
      <trkpt lat="-18.719631" lon="-47.170042">
        <ele>953.7</ele>
        <time>2019-04-10T14:56:12Z</time>
      </trkpt>
      <trkpt lat="-18.719602" lon="-47.170067">
        <ele>953.6</ele>
        <time>2019-04-10T14:56:13Z</time>
      </trkpt>
      <trkpt lat="-18.719574" lon="-47.170095">
        <ele>953.6</ele>
        <time>2019-04-10T14:56:14Z</time>
      </trkpt>
      <trkpt lat="-18.719544" lon="-47.17012">
        <ele>953.6</ele>
        <time>2019-04-10T14:56:15Z</time>
      </trkpt>
      <trkpt lat="-18.719518" lon="-47.17014">
        <ele>953.6</ele>
        <time>2019-04-10T14:56:16Z</time>
      </trkpt>
      <trkpt lat="-18.719493" lon="-47.170161">
        <ele>953.6</ele>
        <time>2019-04-10T14:56:17Z</time>
      </trkpt>
      <trkpt lat="-18.719465" lon="-47.170189">
        <ele>953.5</ele>
        <time>2019-04-10T14:56:19Z</time>
      </trkpt>
      <trkpt lat="-18.719442" lon="-47.170214">
        <ele>953.4</ele>
        <time>2019-04-10T14:56:21Z</time>
      </trkpt>
      <trkpt lat="-18.719418" lon="-47.170242">
        <ele>953.2</ele>
        <time>2019-04-10T14:56:23Z</time>
      </trkpt>
      <trkpt lat="-18.719395" lon="-47.170268">
        <ele>953.1</ele>
        <time>2019-04-10T14:56:26Z</time>
      </trkpt>
      <trkpt lat="-18.719377" lon="-47.170293">
        <ele>953</ele>
        <time>2019-04-10T14:56:39Z</time>
      </trkpt>
      <trkpt lat="-18.719357" lon="-47.170328">
        <ele>952.8</ele>
        <time>2019-04-10T14:56:41Z</time>
      </trkpt>
      <trkpt lat="-18.719316" lon="-47.170377">
        <ele>953.1</ele>
        <time>2019-04-10T14:56:43Z</time>
      </trkpt>
      <trkpt lat="-18.719294" lon="-47.170401">
        <ele>953.2</ele>
        <time>2019-04-10T14:56:44Z</time>
      </trkpt>
      <trkpt lat="-18.719272" lon="-47.170423">
        <ele>953.1</ele>
        <time>2019-04-10T14:56:45Z</time>
      </trkpt>
      <trkpt lat="-18.719244" lon="-47.170457">
        <ele>953</ele>
        <time>2019-04-10T14:56:47Z</time>
      </trkpt>
      <trkpt lat="-18.719214" lon="-47.170482">
        <ele>952.7</ele>
        <time>2019-04-10T14:56:49Z</time>
      </trkpt>
      <trkpt lat="-18.719192" lon="-47.170506">
        <ele>952.3</ele>
        <time>2019-04-10T14:56:51Z</time>
      </trkpt>
      <trkpt lat="-18.719173" lon="-47.170526">
        <ele>952.1</ele>
        <time>2019-04-10T14:56:52Z</time>
      </trkpt>
      <trkpt lat="-18.719154" lon="-47.17055">
        <ele>951.9</ele>
        <time>2019-04-10T14:56:53Z</time>
      </trkpt>
      <trkpt lat="-18.719131" lon="-47.170575">
        <ele>951.7</ele>
        <time>2019-04-10T14:56:54Z</time>
      </trkpt>
      <trkpt lat="-18.719102" lon="-47.170606">
        <ele>951.8</ele>
        <time>2019-04-10T14:56:55Z</time>
      </trkpt>
      <trkpt lat="-18.71907" lon="-47.170642">
        <ele>952</ele>
        <time>2019-04-10T14:56:56Z</time>
      </trkpt>
      <trkpt lat="-18.719033" lon="-47.170677">
        <ele>952.3</ele>
        <time>2019-04-10T14:56:57Z</time>
      </trkpt>
      <trkpt lat="-18.719002" lon="-47.170723">
        <ele>952.8</ele>
        <time>2019-04-10T14:56:58Z</time>
      </trkpt>
      <trkpt lat="-18.718978" lon="-47.170774">
        <ele>953.9</ele>
        <time>2019-04-10T14:56:59Z</time>
      </trkpt>
      <trkpt lat="-18.718959" lon="-47.170813">
        <ele>954.5</ele>
        <time>2019-04-10T14:57:00Z</time>
      </trkpt>
      <trkpt lat="-18.71895" lon="-47.170847">
        <ele>954.7</ele>
        <time>2019-04-10T14:57:01Z</time>
      </trkpt>
      <trkpt lat="-18.71894" lon="-47.170876">
        <ele>954.9</ele>
        <time>2019-04-10T14:57:02Z</time>
      </trkpt>
      <trkpt lat="-18.718936" lon="-47.170905">
        <ele>955.1</ele>
        <time>2019-04-10T14:57:03Z</time>
      </trkpt>
      <trkpt lat="-18.71893" lon="-47.170943">
        <ele>955.3</ele>
        <time>2019-04-10T14:57:04Z</time>
      </trkpt>
      <trkpt lat="-18.71891" lon="-47.170976">
        <ele>955.8</ele>
        <time>2019-04-10T14:57:05Z</time>
      </trkpt>
      <trkpt lat="-18.718891" lon="-47.171009">
        <ele>956.6</ele>
        <time>2019-04-10T14:57:06Z</time>
      </trkpt>
      <trkpt lat="-18.718876" lon="-47.17104">
        <ele>957.3</ele>
        <time>2019-04-10T14:57:07Z</time>
      </trkpt>
      <trkpt lat="-18.718861" lon="-47.171064">
        <ele>958.1</ele>
        <time>2019-04-10T14:57:08Z</time>
      </trkpt>
      <trkpt lat="-18.718847" lon="-47.17109">
        <ele>959</ele>
        <time>2019-04-10T14:57:09Z</time>
      </trkpt>
      <trkpt lat="-18.71883" lon="-47.171119">
        <ele>960.1</ele>
        <time>2019-04-10T14:57:10Z</time>
      </trkpt>
      <trkpt lat="-18.718812" lon="-47.171148">
        <ele>960.4</ele>
        <time>2019-04-10T14:57:11Z</time>
      </trkpt>
      <trkpt lat="-18.718794" lon="-47.171181">
        <ele>960.8</ele>
        <time>2019-04-10T14:57:12Z</time>
      </trkpt>
      <trkpt lat="-18.718779" lon="-47.171205">
        <ele>961</ele>
        <time>2019-04-10T14:57:13Z</time>
      </trkpt>
      <trkpt lat="-18.718762" lon="-47.171227">
        <ele>961.2</ele>
        <time>2019-04-10T14:57:14Z</time>
      </trkpt>
      <trkpt lat="-18.718748" lon="-47.171252">
        <ele>961.4</ele>
        <time>2019-04-10T14:57:15Z</time>
      </trkpt>
      <trkpt lat="-18.718721" lon="-47.171285">
        <ele>961.3</ele>
        <time>2019-04-10T14:57:17Z</time>
      </trkpt>
      <trkpt lat="-18.718695" lon="-47.171304">
        <ele>961</ele>
        <time>2019-04-10T14:57:19Z</time>
      </trkpt>
      <trkpt lat="-18.718664" lon="-47.171336">
        <ele>960.7</ele>
        <time>2019-04-10T14:57:21Z</time>
      </trkpt>
      <trkpt lat="-18.718646" lon="-47.171363">
        <ele>960.5</ele>
        <time>2019-04-10T14:57:22Z</time>
      </trkpt>
      <trkpt lat="-18.71862" lon="-47.171385">
        <ele>960.3</ele>
        <time>2019-04-10T14:57:23Z</time>
      </trkpt>
      <trkpt lat="-18.71859" lon="-47.171392">
        <ele>960.2</ele>
        <time>2019-04-10T14:57:24Z</time>
      </trkpt>
      <trkpt lat="-18.71855" lon="-47.171394">
        <ele>960.1</ele>
        <time>2019-04-10T14:57:26Z</time>
      </trkpt>
      <trkpt lat="-18.718522" lon="-47.171398">
        <ele>960</ele>
        <time>2019-04-10T14:57:27Z</time>
      </trkpt>
      <trkpt lat="-18.718483" lon="-47.171422">
        <ele>959.9</ele>
        <time>2019-04-10T14:57:29Z</time>
      </trkpt>
      <trkpt lat="-18.718464" lon="-47.171442">
        <ele>959.9</ele>
        <time>2019-04-10T14:57:30Z</time>
      </trkpt>
      <trkpt lat="-18.718441" lon="-47.171459">
        <ele>959.8</ele>
        <time>2019-04-10T14:57:31Z</time>
      </trkpt>
      <trkpt lat="-18.718416" lon="-47.171474">
        <ele>959.8</ele>
        <time>2019-04-10T14:57:32Z</time>
      </trkpt>
      <trkpt lat="-18.718374" lon="-47.171509">
        <ele>959.8</ele>
        <time>2019-04-10T14:57:34Z</time>
      </trkpt>
      <trkpt lat="-18.718332" lon="-47.171546">
        <ele>959.8</ele>
        <time>2019-04-10T14:57:36Z</time>
      </trkpt>
      <trkpt lat="-18.718312" lon="-47.171565">
        <ele>959.7</ele>
        <time>2019-04-10T14:57:37Z</time>
      </trkpt>
      <trkpt lat="-18.718291" lon="-47.171585">
        <ele>959.7</ele>
        <time>2019-04-10T14:57:38Z</time>
      </trkpt>
      <trkpt lat="-18.718267" lon="-47.171601">
        <ele>959.7</ele>
        <time>2019-04-10T14:57:39Z</time>
      </trkpt>
      <trkpt lat="-18.71824" lon="-47.171618">
        <ele>959.7</ele>
        <time>2019-04-10T14:57:40Z</time>
      </trkpt>
      <trkpt lat="-18.718209" lon="-47.171644">
        <ele>959.7</ele>
        <time>2019-04-10T14:57:41Z</time>
      </trkpt>
      <trkpt lat="-18.718177" lon="-47.17167">
        <ele>959.8</ele>
        <time>2019-04-10T14:57:42Z</time>
      </trkpt>
      <trkpt lat="-18.718148" lon="-47.171692">
        <ele>960</ele>
        <time>2019-04-10T14:57:43Z</time>
      </trkpt>
      <trkpt lat="-18.718115" lon="-47.171714">
        <ele>960.2</ele>
        <time>2019-04-10T14:57:44Z</time>
      </trkpt>
      <trkpt lat="-18.718083" lon="-47.171737">
        <ele>960.5</ele>
        <time>2019-04-10T14:57:45Z</time>
      </trkpt>
      <trkpt lat="-18.718054" lon="-47.171758">
        <ele>960.7</ele>
        <time>2019-04-10T14:57:46Z</time>
      </trkpt>
      <trkpt lat="-18.718026" lon="-47.171779">
        <ele>960.9</ele>
        <time>2019-04-10T14:57:47Z</time>
      </trkpt>
      <trkpt lat="-18.717994" lon="-47.171796">
        <ele>961.1</ele>
        <time>2019-04-10T14:57:48Z</time>
      </trkpt>
      <trkpt lat="-18.717961" lon="-47.171809">
        <ele>961.3</ele>
        <time>2019-04-10T14:57:49Z</time>
      </trkpt>
      <trkpt lat="-18.717925" lon="-47.171814">
        <ele>961.4</ele>
        <time>2019-04-10T14:57:50Z</time>
      </trkpt>
      <trkpt lat="-18.717897" lon="-47.17184">
        <ele>961.5</ele>
        <time>2019-04-10T14:57:51Z</time>
      </trkpt>
      <trkpt lat="-18.717863" lon="-47.171841">
        <ele>961.5</ele>
        <time>2019-04-10T14:57:52Z</time>
      </trkpt>
      <trkpt lat="-18.717819" lon="-47.171834">
        <ele>961.5</ele>
        <time>2019-04-10T14:57:53Z</time>
      </trkpt>
      <trkpt lat="-18.717786" lon="-47.171833">
        <ele>961.5</ele>
        <time>2019-04-10T14:57:54Z</time>
      </trkpt>
      <trkpt lat="-18.717759" lon="-47.171836">
        <ele>961.5</ele>
        <time>2019-04-10T14:57:55Z</time>
      </trkpt>
      <trkpt lat="-18.717728" lon="-47.171842">
        <ele>961.5</ele>
        <time>2019-04-10T14:57:56Z</time>
      </trkpt>
      <trkpt lat="-18.717679" lon="-47.171845">
        <ele>961.9</ele>
        <time>2019-04-10T14:57:58Z</time>
      </trkpt>
      <trkpt lat="-18.717636" lon="-47.171824">
        <ele>962.3</ele>
        <time>2019-04-10T14:58:00Z</time>
      </trkpt>
      <trkpt lat="-18.717605" lon="-47.171784">
        <ele>962.6</ele>
        <time>2019-04-10T14:58:02Z</time>
      </trkpt>
      <trkpt lat="-18.717576" lon="-47.171752">
        <ele>962.8</ele>
        <time>2019-04-10T14:58:04Z</time>
      </trkpt>
      <trkpt lat="-18.717558" lon="-47.171709">
        <ele>963.1</ele>
        <time>2019-04-10T14:58:06Z</time>
      </trkpt>
      <trkpt lat="-18.717535" lon="-47.171667">
        <ele>963.5</ele>
        <time>2019-04-10T14:58:08Z</time>
      </trkpt>
      <trkpt lat="-18.717511" lon="-47.171634">
        <ele>964.1</ele>
        <time>2019-04-10T14:58:10Z</time>
      </trkpt>
      <trkpt lat="-18.717481" lon="-47.171596">
        <ele>964.7</ele>
        <time>2019-04-10T14:58:12Z</time>
      </trkpt>
      <trkpt lat="-18.717455" lon="-47.171571">
        <ele>964.7</ele>
        <time>2019-04-10T14:58:14Z</time>
      </trkpt>
      <trkpt lat="-18.717416" lon="-47.171555">
        <ele>964.8</ele>
        <time>2019-04-10T14:58:16Z</time>
      </trkpt>
      <trkpt lat="-18.717373" lon="-47.171529">
        <ele>964.7</ele>
        <time>2019-04-10T14:58:18Z</time>
      </trkpt>
      <trkpt lat="-18.717351" lon="-47.171499">
        <ele>964.7</ele>
        <time>2019-04-10T14:58:19Z</time>
      </trkpt>
      <trkpt lat="-18.717327" lon="-47.171471">
        <ele>965</ele>
        <time>2019-04-10T14:58:21Z</time>
      </trkpt>
      <trkpt lat="-18.717287" lon="-47.171449">
        <ele>965.4</ele>
        <time>2019-04-10T14:58:23Z</time>
      </trkpt>
      <trkpt lat="-18.717251" lon="-47.171423">
        <ele>965.5</ele>
        <time>2019-04-10T14:58:25Z</time>
      </trkpt>
      <trkpt lat="-18.71723" lon="-47.171405">
        <ele>965.5</ele>
        <time>2019-04-10T14:58:26Z</time>
      </trkpt>
      <trkpt lat="-18.717193" lon="-47.17137">
        <ele>965.7</ele>
        <time>2019-04-10T14:58:28Z</time>
      </trkpt>
      <trkpt lat="-18.717151" lon="-47.171343">
        <ele>966.1</ele>
        <time>2019-04-10T14:58:30Z</time>
      </trkpt>
      <trkpt lat="-18.717124" lon="-47.171337">
        <ele>966.6</ele>
        <time>2019-04-10T14:58:31Z</time>
      </trkpt>
      <trkpt lat="-18.717097" lon="-47.171304">
        <ele>967.6</ele>
        <time>2019-04-10T14:58:33Z</time>
      </trkpt>
      <trkpt lat="-18.717062" lon="-47.171273">
        <ele>968.7</ele>
        <time>2019-04-10T14:58:36Z</time>
      </trkpt>
      <trkpt lat="-18.717014" lon="-47.17124">
        <ele>970.1</ele>
        <time>2019-04-10T14:58:38Z</time>
      </trkpt>
      <trkpt lat="-18.716987" lon="-47.171225">
        <ele>970.5</ele>
        <time>2019-04-10T14:58:39Z</time>
      </trkpt>
      <trkpt lat="-18.716964" lon="-47.171205">
        <ele>970.8</ele>
        <time>2019-04-10T14:58:40Z</time>
      </trkpt>
      <trkpt lat="-18.716934" lon="-47.171177">
        <ele>971</ele>
        <time>2019-04-10T14:58:42Z</time>
      </trkpt>
      <trkpt lat="-18.7169" lon="-47.171152">
        <ele>970.7</ele>
        <time>2019-04-10T14:58:44Z</time>
      </trkpt>
      <trkpt lat="-18.716864" lon="-47.17114">
        <ele>970.5</ele>
        <time>2019-04-10T14:58:46Z</time>
      </trkpt>
      <trkpt lat="-18.716832" lon="-47.171132">
        <ele>970.2</ele>
        <time>2019-04-10T14:58:48Z</time>
      </trkpt>
      <trkpt lat="-18.716803" lon="-47.171127">
        <ele>970</ele>
        <time>2019-04-10T14:58:50Z</time>
      </trkpt>
      <trkpt lat="-18.716765" lon="-47.171122">
        <ele>969.6</ele>
        <time>2019-04-10T14:58:52Z</time>
      </trkpt>
      <trkpt lat="-18.716713" lon="-47.171115">
        <ele>969</ele>
        <time>2019-04-10T14:58:54Z</time>
      </trkpt>
      <trkpt lat="-18.71666" lon="-47.171101">
        <ele>968.7</ele>
        <time>2019-04-10T14:58:56Z</time>
      </trkpt>
      <trkpt lat="-18.716631" lon="-47.171102">
        <ele>968.6</ele>
        <time>2019-04-10T14:58:57Z</time>
      </trkpt>
      <trkpt lat="-18.716603" lon="-47.1711">
        <ele>968.6</ele>
        <time>2019-04-10T14:58:58Z</time>
      </trkpt>
      <trkpt lat="-18.716567" lon="-47.171097">
        <ele>968.7</ele>
        <time>2019-04-10T14:58:59Z</time>
      </trkpt>
      <trkpt lat="-18.716533" lon="-47.171095">
        <ele>968.8</ele>
        <time>2019-04-10T14:59:00Z</time>
      </trkpt>
      <trkpt lat="-18.716499" lon="-47.171072">
        <ele>969.1</ele>
        <time>2019-04-10T14:59:01Z</time>
      </trkpt>
      <trkpt lat="-18.716461" lon="-47.171057">
        <ele>969.4</ele>
        <time>2019-04-10T14:59:02Z</time>
      </trkpt>
      <trkpt lat="-18.716427" lon="-47.171048">
        <ele>969.4</ele>
        <time>2019-04-10T14:59:03Z</time>
      </trkpt>
      <trkpt lat="-18.716387" lon="-47.171039">
        <ele>969.4</ele>
        <time>2019-04-10T14:59:04Z</time>
      </trkpt>
      <trkpt lat="-18.716354" lon="-47.171032">
        <ele>969.6</ele>
        <time>2019-04-10T14:59:05Z</time>
      </trkpt>
      <trkpt lat="-18.716326" lon="-47.171025">
        <ele>969.7</ele>
        <time>2019-04-10T14:59:06Z</time>
      </trkpt>
      <trkpt lat="-18.716291" lon="-47.17102">
        <ele>969.9</ele>
        <time>2019-04-10T14:59:07Z</time>
      </trkpt>
      <trkpt lat="-18.716256" lon="-47.171012">
        <ele>970.2</ele>
        <time>2019-04-10T14:59:08Z</time>
      </trkpt>
      <trkpt lat="-18.716219" lon="-47.170998">
        <ele>970.5</ele>
        <time>2019-04-10T14:59:09Z</time>
      </trkpt>
      <trkpt lat="-18.716185" lon="-47.170988">
        <ele>970.8</ele>
        <time>2019-04-10T14:59:10Z</time>
      </trkpt>
      <trkpt lat="-18.716154" lon="-47.170976">
        <ele>970.9</ele>
        <time>2019-04-10T14:59:11Z</time>
      </trkpt>
      <trkpt lat="-18.716122" lon="-47.170963">
        <ele>971.1</ele>
        <time>2019-04-10T14:59:12Z</time>
      </trkpt>
      <trkpt lat="-18.716086" lon="-47.170947">
        <ele>971.2</ele>
        <time>2019-04-10T14:59:13Z</time>
      </trkpt>
      <trkpt lat="-18.716044" lon="-47.170939">
        <ele>971.4</ele>
        <time>2019-04-10T14:59:14Z</time>
      </trkpt>
      <trkpt lat="-18.715992" lon="-47.170924">
        <ele>971.5</ele>
        <time>2019-04-10T14:59:15Z</time>
      </trkpt>
      <trkpt lat="-18.715947" lon="-47.170903">
        <ele>971.4</ele>
        <time>2019-04-10T14:59:16Z</time>
      </trkpt>
      <trkpt lat="-18.715892" lon="-47.170891">
        <ele>971.5</ele>
        <time>2019-04-10T14:59:17Z</time>
      </trkpt>
      <trkpt lat="-18.715841" lon="-47.170878">
        <ele>971.5</ele>
        <time>2019-04-10T14:59:18Z</time>
      </trkpt>
      <trkpt lat="-18.715796" lon="-47.170863">
        <ele>971.1</ele>
        <time>2019-04-10T14:59:19Z</time>
      </trkpt>
      <trkpt lat="-18.715749" lon="-47.170852">
        <ele>970.8</ele>
        <time>2019-04-10T14:59:20Z</time>
      </trkpt>
      <trkpt lat="-18.715708" lon="-47.170843">
        <ele>970.5</ele>
        <time>2019-04-10T14:59:21Z</time>
      </trkpt>
      <trkpt lat="-18.715663" lon="-47.170824">
        <ele>970.2</ele>
        <time>2019-04-10T14:59:22Z</time>
      </trkpt>
      <trkpt lat="-18.715618" lon="-47.170804">
        <ele>969.9</ele>
        <time>2019-04-10T14:59:23Z</time>
      </trkpt>
      <trkpt lat="-18.715572" lon="-47.170788">
        <ele>969.4</ele>
        <time>2019-04-10T14:59:24Z</time>
      </trkpt>
      <trkpt lat="-18.715518" lon="-47.170776">
        <ele>968.9</ele>
        <time>2019-04-10T14:59:25Z</time>
      </trkpt>
      <trkpt lat="-18.715464" lon="-47.17076">
        <ele>968.4</ele>
        <time>2019-04-10T14:59:26Z</time>
      </trkpt>
      <trkpt lat="-18.715408" lon="-47.170745">
        <ele>967.8</ele>
        <time>2019-04-10T14:59:27Z</time>
      </trkpt>
      <trkpt lat="-18.715355" lon="-47.170732">
        <ele>967.1</ele>
        <time>2019-04-10T14:59:28Z</time>
      </trkpt>
      <trkpt lat="-18.715303" lon="-47.170711">
        <ele>966.7</ele>
        <time>2019-04-10T14:59:29Z</time>
      </trkpt>
      <trkpt lat="-18.71525" lon="-47.170691">
        <ele>966.5</ele>
        <time>2019-04-10T14:59:30Z</time>
      </trkpt>
      <trkpt lat="-18.715195" lon="-47.170673">
        <ele>966.1</ele>
        <time>2019-04-10T14:59:31Z</time>
      </trkpt>
      <trkpt lat="-18.715139" lon="-47.170653">
        <ele>966</ele>
        <time>2019-04-10T14:59:32Z</time>
      </trkpt>
      <trkpt lat="-18.715083" lon="-47.17063">
        <ele>965.9</ele>
        <time>2019-04-10T14:59:33Z</time>
      </trkpt>
      <trkpt lat="-18.71502" lon="-47.17061">
        <ele>965.9</ele>
        <time>2019-04-10T14:59:34Z</time>
      </trkpt>
      <trkpt lat="-18.714972" lon="-47.17059">
        <ele>966</ele>
        <time>2019-04-10T14:59:35Z</time>
      </trkpt>
      <trkpt lat="-18.714926" lon="-47.170571">
        <ele>966.1</ele>
        <time>2019-04-10T14:59:36Z</time>
      </trkpt>
      <trkpt lat="-18.714881" lon="-47.170554">
        <ele>966.2</ele>
        <time>2019-04-10T14:59:37Z</time>
      </trkpt>
      <trkpt lat="-18.714835" lon="-47.170541">
        <ele>966.3</ele>
        <time>2019-04-10T14:59:38Z</time>
      </trkpt>
      <trkpt lat="-18.714789" lon="-47.170529">
        <ele>966.5</ele>
        <time>2019-04-10T14:59:39Z</time>
      </trkpt>
      <trkpt lat="-18.714728" lon="-47.170503">
        <ele>966.5</ele>
        <time>2019-04-10T14:59:40Z</time>
      </trkpt>
      <trkpt lat="-18.714677" lon="-47.170484">
        <ele>966.4</ele>
        <time>2019-04-10T14:59:41Z</time>
      </trkpt>
      <trkpt lat="-18.714623" lon="-47.170466">
        <ele>966.4</ele>
        <time>2019-04-10T14:59:42Z</time>
      </trkpt>
      <trkpt lat="-18.714566" lon="-47.170445">
        <ele>966.3</ele>
        <time>2019-04-10T14:59:43Z</time>
      </trkpt>
      <trkpt lat="-18.714511" lon="-47.170425">
        <ele>965.8</ele>
        <time>2019-04-10T14:59:44Z</time>
      </trkpt>
      <trkpt lat="-18.714454" lon="-47.170408">
        <ele>965.4</ele>
        <time>2019-04-10T14:59:45Z</time>
      </trkpt>
      <trkpt lat="-18.714396" lon="-47.170388">
        <ele>965</ele>
        <time>2019-04-10T14:59:46Z</time>
      </trkpt>
      <trkpt lat="-18.714338" lon="-47.170372">
        <ele>964.5</ele>
        <time>2019-04-10T14:59:47Z</time>
      </trkpt>
      <trkpt lat="-18.714278" lon="-47.170354">
        <ele>964</ele>
        <time>2019-04-10T14:59:48Z</time>
      </trkpt>
      <trkpt lat="-18.714216" lon="-47.170335">
        <ele>963.5</ele>
        <time>2019-04-10T14:59:49Z</time>
      </trkpt>
      <trkpt lat="-18.714148" lon="-47.170315">
        <ele>962.9</ele>
        <time>2019-04-10T14:59:50Z</time>
      </trkpt>
      <trkpt lat="-18.714081" lon="-47.170293">
        <ele>962.5</ele>
        <time>2019-04-10T14:59:51Z</time>
      </trkpt>
      <trkpt lat="-18.714007" lon="-47.170277">
        <ele>962</ele>
        <time>2019-04-10T14:59:52Z</time>
      </trkpt>
      <trkpt lat="-18.713935" lon="-47.170251">
        <ele>961.6</ele>
        <time>2019-04-10T14:59:53Z</time>
      </trkpt>
      <trkpt lat="-18.713848" lon="-47.170239">
        <ele>960.7</ele>
        <time>2019-04-10T14:59:54Z</time>
      </trkpt>
      <trkpt lat="-18.713756" lon="-47.170226">
        <ele>959.8</ele>
        <time>2019-04-10T14:59:55Z</time>
      </trkpt>
      <trkpt lat="-18.713672" lon="-47.170208">
        <ele>959.2</ele>
        <time>2019-04-10T14:59:56Z</time>
      </trkpt>
      <trkpt lat="-18.713589" lon="-47.170195">
        <ele>958.7</ele>
        <time>2019-04-10T14:59:57Z</time>
      </trkpt>
      <trkpt lat="-18.713505" lon="-47.170186">
        <ele>958.4</ele>
        <time>2019-04-10T14:59:58Z</time>
      </trkpt>
      <trkpt lat="-18.713429" lon="-47.170164">
        <ele>958.7</ele>
        <time>2019-04-10T14:59:59Z</time>
      </trkpt>
      <trkpt lat="-18.71335" lon="-47.170152">
        <ele>958.9</ele>
        <time>2019-04-10T15:00:00Z</time>
      </trkpt>
      <trkpt lat="-18.713273" lon="-47.170131">
        <ele>959</ele>
        <time>2019-04-10T15:00:01Z</time>
      </trkpt>
      <trkpt lat="-18.713201" lon="-47.170107">
        <ele>958.7</ele>
        <time>2019-04-10T15:00:02Z</time>
      </trkpt>
      <trkpt lat="-18.713134" lon="-47.170092">
        <ele>958.6</ele>
        <time>2019-04-10T15:00:03Z</time>
      </trkpt>
      <trkpt lat="-18.713063" lon="-47.170076">
        <ele>958.5</ele>
        <time>2019-04-10T15:00:04Z</time>
      </trkpt>
      <trkpt lat="-18.712986" lon="-47.170064">
        <ele>958.2</ele>
        <time>2019-04-10T15:00:05Z</time>
      </trkpt>
      <trkpt lat="-18.712917" lon="-47.17005">
        <ele>957.9</ele>
        <time>2019-04-10T15:00:06Z</time>
      </trkpt>
      <trkpt lat="-18.712849" lon="-47.170036">
        <ele>957.7</ele>
        <time>2019-04-10T15:00:07Z</time>
      </trkpt>
      <trkpt lat="-18.712794" lon="-47.170022">
        <ele>957.5</ele>
        <time>2019-04-10T15:00:08Z</time>
      </trkpt>
      <trkpt lat="-18.712735" lon="-47.170006">
        <ele>957.1</ele>
        <time>2019-04-10T15:00:09Z</time>
      </trkpt>
      <trkpt lat="-18.712678" lon="-47.169993">
        <ele>956.6</ele>
        <time>2019-04-10T15:00:10Z</time>
      </trkpt>
      <trkpt lat="-18.712621" lon="-47.169975">
        <ele>955.9</ele>
        <time>2019-04-10T15:00:11Z</time>
      </trkpt>
      <trkpt lat="-18.712553" lon="-47.169952">
        <ele>955.1</ele>
        <time>2019-04-10T15:00:12Z</time>
      </trkpt>
      <trkpt lat="-18.712487" lon="-47.169931">
        <ele>954.4</ele>
        <time>2019-04-10T15:00:13Z</time>
      </trkpt>
      <trkpt lat="-18.71242" lon="-47.16991">
        <ele>953.8</ele>
        <time>2019-04-10T15:00:14Z</time>
      </trkpt>
      <trkpt lat="-18.71235" lon="-47.16989">
        <ele>953</ele>
        <time>2019-04-10T15:00:15Z</time>
      </trkpt>
      <trkpt lat="-18.71228" lon="-47.169872">
        <ele>952.6</ele>
        <time>2019-04-10T15:00:16Z</time>
      </trkpt>
      <trkpt lat="-18.712215" lon="-47.169851">
        <ele>952.7</ele>
        <time>2019-04-10T15:00:17Z</time>
      </trkpt>
      <trkpt lat="-18.712159" lon="-47.169832">
        <ele>952.8</ele>
        <time>2019-04-10T15:00:18Z</time>
      </trkpt>
      <trkpt lat="-18.712108" lon="-47.169809">
        <ele>952.8</ele>
        <time>2019-04-10T15:00:19Z</time>
      </trkpt>
      <trkpt lat="-18.71205" lon="-47.169779">
        <ele>952.6</ele>
        <time>2019-04-10T15:00:20Z</time>
      </trkpt>
      <trkpt lat="-18.711993" lon="-47.169758">
        <ele>952.2</ele>
        <time>2019-04-10T15:00:21Z</time>
      </trkpt>
      <trkpt lat="-18.711938" lon="-47.169738">
        <ele>951.5</ele>
        <time>2019-04-10T15:00:22Z</time>
      </trkpt>
      <trkpt lat="-18.711884" lon="-47.169714">
        <ele>950.7</ele>
        <time>2019-04-10T15:00:23Z</time>
      </trkpt>
      <trkpt lat="-18.71181" lon="-47.169678">
        <ele>949.4</ele>
        <time>2019-04-10T15:00:24Z</time>
      </trkpt>
      <trkpt lat="-18.711737" lon="-47.169648">
        <ele>948.3</ele>
        <time>2019-04-10T15:00:25Z</time>
      </trkpt>
      <trkpt lat="-18.711665" lon="-47.169613">
        <ele>947.6</ele>
        <time>2019-04-10T15:00:26Z</time>
      </trkpt>
      <trkpt lat="-18.711599" lon="-47.16959">
        <ele>947.5</ele>
        <time>2019-04-10T15:00:27Z</time>
      </trkpt>
      <trkpt lat="-18.711516" lon="-47.169565">
        <ele>947.2</ele>
        <time>2019-04-10T15:00:28Z</time>
      </trkpt>
      <trkpt lat="-18.711456" lon="-47.169545">
        <ele>946.9</ele>
        <time>2019-04-10T15:00:29Z</time>
      </trkpt>
      <trkpt lat="-18.711377" lon="-47.169516">
        <ele>946.7</ele>
        <time>2019-04-10T15:00:30Z</time>
      </trkpt>
      <trkpt lat="-18.711309" lon="-47.169494">
        <ele>946.9</ele>
        <time>2019-04-10T15:00:31Z</time>
      </trkpt>
      <trkpt lat="-18.711246" lon="-47.16948">
        <ele>947</ele>
        <time>2019-04-10T15:00:32Z</time>
      </trkpt>
      <trkpt lat="-18.711187" lon="-47.169462">
        <ele>947.2</ele>
        <time>2019-04-10T15:00:33Z</time>
      </trkpt>
      <trkpt lat="-18.711123" lon="-47.169451">
        <ele>947.3</ele>
        <time>2019-04-10T15:00:34Z</time>
      </trkpt>
      <trkpt lat="-18.711059" lon="-47.169439">
        <ele>947.2</ele>
        <time>2019-04-10T15:00:35Z</time>
      </trkpt>
      <trkpt lat="-18.710977" lon="-47.169421">
        <ele>947</ele>
        <time>2019-04-10T15:00:36Z</time>
      </trkpt>
      <trkpt lat="-18.710902" lon="-47.169405">
        <ele>946.4</ele>
        <time>2019-04-10T15:00:37Z</time>
      </trkpt>
      <trkpt lat="-18.710828" lon="-47.169392">
        <ele>945.6</ele>
        <time>2019-04-10T15:00:38Z</time>
      </trkpt>
      <trkpt lat="-18.710755" lon="-47.169381">
        <ele>945.1</ele>
        <time>2019-04-10T15:00:39Z</time>
      </trkpt>
      <trkpt lat="-18.710675" lon="-47.169369">
        <ele>944.7</ele>
        <time>2019-04-10T15:00:40Z</time>
      </trkpt>
      <trkpt lat="-18.710603" lon="-47.169358">
        <ele>944.4</ele>
        <time>2019-04-10T15:00:41Z</time>
      </trkpt>
      <trkpt lat="-18.710528" lon="-47.169344">
        <ele>944.5</ele>
        <time>2019-04-10T15:00:42Z</time>
      </trkpt>
      <trkpt lat="-18.710456" lon="-47.169327">
        <ele>944.2</ele>
        <time>2019-04-10T15:00:43Z</time>
      </trkpt>
      <trkpt lat="-18.710381" lon="-47.169307">
        <ele>944.3</ele>
        <time>2019-04-10T15:00:44Z</time>
      </trkpt>
      <trkpt lat="-18.710309" lon="-47.169287">
        <ele>944.5</ele>
        <time>2019-04-10T15:00:45Z</time>
      </trkpt>
      <trkpt lat="-18.710239" lon="-47.16927">
        <ele>944.6</ele>
        <time>2019-04-10T15:00:46Z</time>
      </trkpt>
      <trkpt lat="-18.710173" lon="-47.169249">
        <ele>944.6</ele>
        <time>2019-04-10T15:00:47Z</time>
      </trkpt>
      <trkpt lat="-18.710112" lon="-47.169225">
        <ele>944.6</ele>
        <time>2019-04-10T15:00:48Z</time>
      </trkpt>
      <trkpt lat="-18.710042" lon="-47.169201">
        <ele>944.6</ele>
        <time>2019-04-10T15:00:49Z</time>
      </trkpt>
      <trkpt lat="-18.709976" lon="-47.169169">
        <ele>944.3</ele>
        <time>2019-04-10T15:00:50Z</time>
      </trkpt>
      <trkpt lat="-18.709907" lon="-47.169146">
        <ele>943.8</ele>
        <time>2019-04-10T15:00:51Z</time>
      </trkpt>
      <trkpt lat="-18.709831" lon="-47.169119">
        <ele>943.1</ele>
        <time>2019-04-10T15:00:52Z</time>
      </trkpt>
      <trkpt lat="-18.709765" lon="-47.169102">
        <ele>942.5</ele>
        <time>2019-04-10T15:00:53Z</time>
      </trkpt>
      <trkpt lat="-18.709699" lon="-47.169082">
        <ele>942.1</ele>
        <time>2019-04-10T15:00:54Z</time>
      </trkpt>
      <trkpt lat="-18.709631" lon="-47.169061">
        <ele>941.8</ele>
        <time>2019-04-10T15:00:55Z</time>
      </trkpt>
      <trkpt lat="-18.709564" lon="-47.169042">
        <ele>941.7</ele>
        <time>2019-04-10T15:00:56Z</time>
      </trkpt>
      <trkpt lat="-18.709495" lon="-47.169016">
        <ele>942</ele>
        <time>2019-04-10T15:00:57Z</time>
      </trkpt>
      <trkpt lat="-18.709429" lon="-47.168995">
        <ele>941.7</ele>
        <time>2019-04-10T15:00:58Z</time>
      </trkpt>
      <trkpt lat="-18.709367" lon="-47.168977">
        <ele>941.4</ele>
        <time>2019-04-10T15:00:59Z</time>
      </trkpt>
      <trkpt lat="-18.709302" lon="-47.16896">
        <ele>941.2</ele>
        <time>2019-04-10T15:01:00Z</time>
      </trkpt>
      <trkpt lat="-18.709243" lon="-47.168934">
        <ele>941.1</ele>
        <time>2019-04-10T15:01:01Z</time>
      </trkpt>
      <trkpt lat="-18.709182" lon="-47.168916">
        <ele>941.3</ele>
        <time>2019-04-10T15:01:02Z</time>
      </trkpt>
      <trkpt lat="-18.709125" lon="-47.168897">
        <ele>941.4</ele>
        <time>2019-04-10T15:01:03Z</time>
      </trkpt>
      <trkpt lat="-18.709067" lon="-47.168877">
        <ele>941.4</ele>
        <time>2019-04-10T15:01:04Z</time>
      </trkpt>
      <trkpt lat="-18.709011" lon="-47.168842">
        <ele>941.4</ele>
        <time>2019-04-10T15:01:05Z</time>
      </trkpt>
      <trkpt lat="-18.708953" lon="-47.16881">
        <ele>941.4</ele>
        <time>2019-04-10T15:01:06Z</time>
      </trkpt>
      <trkpt lat="-18.708893" lon="-47.16879">
        <ele>941.3</ele>
        <time>2019-04-10T15:01:07Z</time>
      </trkpt>
      <trkpt lat="-18.708838" lon="-47.168767">
        <ele>941</ele>
        <time>2019-04-10T15:01:08Z</time>
      </trkpt>
      <trkpt lat="-18.708779" lon="-47.168756">
        <ele>940.8</ele>
        <time>2019-04-10T15:01:09Z</time>
      </trkpt>
      <trkpt lat="-18.708725" lon="-47.168747">
        <ele>940.5</ele>
        <time>2019-04-10T15:01:10Z</time>
      </trkpt>
      <trkpt lat="-18.708669" lon="-47.168738">
        <ele>939.5</ele>
        <time>2019-04-10T15:01:11Z</time>
      </trkpt>
      <trkpt lat="-18.708611" lon="-47.168728">
        <ele>939.2</ele>
        <time>2019-04-10T15:01:12Z</time>
      </trkpt>
      <trkpt lat="-18.708551" lon="-47.168726">
        <ele>939</ele>
        <time>2019-04-10T15:01:13Z</time>
      </trkpt>
      <trkpt lat="-18.708493" lon="-47.168718">
        <ele>939</ele>
        <time>2019-04-10T15:01:14Z</time>
      </trkpt>
      <trkpt lat="-18.70843" lon="-47.168709">
        <ele>938.7</ele>
        <time>2019-04-10T15:01:15Z</time>
      </trkpt>
      <trkpt lat="-18.708366" lon="-47.168696">
        <ele>938.2</ele>
        <time>2019-04-10T15:01:16Z</time>
      </trkpt>
      <trkpt lat="-18.708301" lon="-47.168677">
        <ele>937.7</ele>
        <time>2019-04-10T15:01:17Z</time>
      </trkpt>
      <trkpt lat="-18.708236" lon="-47.168656">
        <ele>937.4</ele>
        <time>2019-04-10T15:01:18Z</time>
      </trkpt>
      <trkpt lat="-18.708171" lon="-47.168638">
        <ele>937.5</ele>
        <time>2019-04-10T15:01:19Z</time>
      </trkpt>
      <trkpt lat="-18.708113" lon="-47.168623">
        <ele>937.6</ele>
        <time>2019-04-10T15:01:20Z</time>
      </trkpt>
      <trkpt lat="-18.708054" lon="-47.168607">
        <ele>937.7</ele>
        <time>2019-04-10T15:01:21Z</time>
      </trkpt>
      <trkpt lat="-18.707995" lon="-47.168589">
        <ele>937.9</ele>
        <time>2019-04-10T15:01:22Z</time>
      </trkpt>
      <trkpt lat="-18.707935" lon="-47.168568">
        <ele>938</ele>
        <time>2019-04-10T15:01:23Z</time>
      </trkpt>
      <trkpt lat="-18.707876" lon="-47.168551">
        <ele>938.1</ele>
        <time>2019-04-10T15:01:24Z</time>
      </trkpt>
      <trkpt lat="-18.707819" lon="-47.168531">
        <ele>938</ele>
        <time>2019-04-10T15:01:25Z</time>
      </trkpt>
      <trkpt lat="-18.707768" lon="-47.168513">
        <ele>938</ele>
        <time>2019-04-10T15:01:26Z</time>
      </trkpt>
      <trkpt lat="-18.707721" lon="-47.168488">
        <ele>938</ele>
        <time>2019-04-10T15:01:27Z</time>
      </trkpt>
      <trkpt lat="-18.707675" lon="-47.168466">
        <ele>938.1</ele>
        <time>2019-04-10T15:01:28Z</time>
      </trkpt>
      <trkpt lat="-18.707622" lon="-47.168449">
        <ele>938.2</ele>
        <time>2019-04-10T15:01:29Z</time>
      </trkpt>
      <trkpt lat="-18.707568" lon="-47.168432">
        <ele>938.1</ele>
        <time>2019-04-10T15:01:30Z</time>
      </trkpt>
      <trkpt lat="-18.707514" lon="-47.168419">
        <ele>938.1</ele>
        <time>2019-04-10T15:01:31Z</time>
      </trkpt>
      <trkpt lat="-18.707462" lon="-47.168404">
        <ele>938</ele>
        <time>2019-04-10T15:01:32Z</time>
      </trkpt>
      <trkpt lat="-18.707404" lon="-47.1684">
        <ele>937.9</ele>
        <time>2019-04-10T15:01:33Z</time>
      </trkpt>
      <trkpt lat="-18.707346" lon="-47.168391">
        <ele>937.9</ele>
        <time>2019-04-10T15:01:34Z</time>
      </trkpt>
      <trkpt lat="-18.707291" lon="-47.168371">
        <ele>937.9</ele>
        <time>2019-04-10T15:01:35Z</time>
      </trkpt>
      <trkpt lat="-18.707235" lon="-47.168362">
        <ele>937.6</ele>
        <time>2019-04-10T15:01:36Z</time>
      </trkpt>
      <trkpt lat="-18.707184" lon="-47.16835">
        <ele>937.3</ele>
        <time>2019-04-10T15:01:37Z</time>
      </trkpt>
      <trkpt lat="-18.707134" lon="-47.16834">
        <ele>937.3</ele>
        <time>2019-04-10T15:01:38Z</time>
      </trkpt>
      <trkpt lat="-18.707081" lon="-47.16833">
        <ele>937.1</ele>
        <time>2019-04-10T15:01:39Z</time>
      </trkpt>
      <trkpt lat="-18.707024" lon="-47.168319">
        <ele>936.7</ele>
        <time>2019-04-10T15:01:40Z</time>
      </trkpt>
      <trkpt lat="-18.706968" lon="-47.168309">
        <ele>936.1</ele>
        <time>2019-04-10T15:01:41Z</time>
      </trkpt>
      <trkpt lat="-18.706912" lon="-47.168294">
        <ele>935.6</ele>
        <time>2019-04-10T15:01:42Z</time>
      </trkpt>
      <trkpt lat="-18.706861" lon="-47.168277">
        <ele>935.3</ele>
        <time>2019-04-10T15:01:43Z</time>
      </trkpt>
      <trkpt lat="-18.706806" lon="-47.168259">
        <ele>935.5</ele>
        <time>2019-04-10T15:01:44Z</time>
      </trkpt>
      <trkpt lat="-18.706751" lon="-47.168242">
        <ele>935.8</ele>
        <time>2019-04-10T15:01:45Z</time>
      </trkpt>
      <trkpt lat="-18.706692" lon="-47.16823">
        <ele>936.1</ele>
        <time>2019-04-10T15:01:46Z</time>
      </trkpt>
      <trkpt lat="-18.706631" lon="-47.168223">
        <ele>935.9</ele>
        <time>2019-04-10T15:01:47Z</time>
      </trkpt>
      <trkpt lat="-18.706578" lon="-47.168205">
        <ele>935.6</ele>
        <time>2019-04-10T15:01:48Z</time>
      </trkpt>
      <trkpt lat="-18.706524" lon="-47.168196">
        <ele>935.5</ele>
        <time>2019-04-10T15:01:49Z</time>
      </trkpt>
      <trkpt lat="-18.706471" lon="-47.168186">
        <ele>935.2</ele>
        <time>2019-04-10T15:01:50Z</time>
      </trkpt>
      <trkpt lat="-18.706419" lon="-47.168172">
        <ele>934.9</ele>
        <time>2019-04-10T15:01:51Z</time>
      </trkpt>
      <trkpt lat="-18.706366" lon="-47.168152">
        <ele>934.7</ele>
        <time>2019-04-10T15:01:52Z</time>
      </trkpt>
      <trkpt lat="-18.706312" lon="-47.168127">
        <ele>934.4</ele>
        <time>2019-04-10T15:01:53Z</time>
      </trkpt>
      <trkpt lat="-18.70626" lon="-47.168107">
        <ele>934.1</ele>
        <time>2019-04-10T15:01:54Z</time>
      </trkpt>
      <trkpt lat="-18.706201" lon="-47.168095">
        <ele>933.9</ele>
        <time>2019-04-10T15:01:55Z</time>
      </trkpt>
      <trkpt lat="-18.706145" lon="-47.168088">
        <ele>933.9</ele>
        <time>2019-04-10T15:01:56Z</time>
      </trkpt>
      <trkpt lat="-18.706093" lon="-47.168076">
        <ele>933.8</ele>
        <time>2019-04-10T15:01:57Z</time>
      </trkpt>
      <trkpt lat="-18.706041" lon="-47.168054">
        <ele>934.2</ele>
        <time>2019-04-10T15:01:58Z</time>
      </trkpt>
      <trkpt lat="-18.705988" lon="-47.168038">
        <ele>934.7</ele>
        <time>2019-04-10T15:01:59Z</time>
      </trkpt>
      <trkpt lat="-18.705937" lon="-47.168019">
        <ele>935.2</ele>
        <time>2019-04-10T15:02:00Z</time>
      </trkpt>
      <trkpt lat="-18.705887" lon="-47.168001">
        <ele>935.5</ele>
        <time>2019-04-10T15:02:01Z</time>
      </trkpt>
      <trkpt lat="-18.705839" lon="-47.167984">
        <ele>935.6</ele>
        <time>2019-04-10T15:02:02Z</time>
      </trkpt>
      <trkpt lat="-18.705795" lon="-47.167961">
        <ele>935.8</ele>
        <time>2019-04-10T15:02:03Z</time>
      </trkpt>
      <trkpt lat="-18.705751" lon="-47.167949">
        <ele>936.1</ele>
        <time>2019-04-10T15:02:04Z</time>
      </trkpt>
      <trkpt lat="-18.705705" lon="-47.16794">
        <ele>936.2</ele>
        <time>2019-04-10T15:02:05Z</time>
      </trkpt>
      <trkpt lat="-18.705658" lon="-47.167931">
        <ele>936.2</ele>
        <time>2019-04-10T15:02:06Z</time>
      </trkpt>
      <trkpt lat="-18.705612" lon="-47.167922">
        <ele>936.5</ele>
        <time>2019-04-10T15:02:07Z</time>
      </trkpt>
      <trkpt lat="-18.705567" lon="-47.167917">
        <ele>936.7</ele>
        <time>2019-04-10T15:02:08Z</time>
      </trkpt>
      <trkpt lat="-18.705526" lon="-47.167905">
        <ele>936.8</ele>
        <time>2019-04-10T15:02:09Z</time>
      </trkpt>
      <trkpt lat="-18.705487" lon="-47.167892">
        <ele>936.8</ele>
        <time>2019-04-10T15:02:10Z</time>
      </trkpt>
      <trkpt lat="-18.705445" lon="-47.167886">
        <ele>937</ele>
        <time>2019-04-10T15:02:11Z</time>
      </trkpt>
      <trkpt lat="-18.705402" lon="-47.167876">
        <ele>937.4</ele>
        <time>2019-04-10T15:02:12Z</time>
      </trkpt>
      <trkpt lat="-18.705359" lon="-47.167865">
        <ele>937.8</ele>
        <time>2019-04-10T15:02:13Z</time>
      </trkpt>
      <trkpt lat="-18.705313" lon="-47.167848">
        <ele>938.2</ele>
        <time>2019-04-10T15:02:14Z</time>
      </trkpt>
      <trkpt lat="-18.705266" lon="-47.167829">
        <ele>937.9</ele>
        <time>2019-04-10T15:02:15Z</time>
      </trkpt>
      <trkpt lat="-18.705219" lon="-47.167808">
        <ele>937.3</ele>
        <time>2019-04-10T15:02:16Z</time>
      </trkpt>
      <trkpt lat="-18.705171" lon="-47.167793">
        <ele>937.3</ele>
        <time>2019-04-10T15:02:17Z</time>
      </trkpt>
      <trkpt lat="-18.705123" lon="-47.167783">
        <ele>937</ele>
        <time>2019-04-10T15:02:18Z</time>
      </trkpt>
      <trkpt lat="-18.705076" lon="-47.167775">
        <ele>936.4</ele>
        <time>2019-04-10T15:02:19Z</time>
      </trkpt>
      <trkpt lat="-18.705028" lon="-47.167772">
        <ele>935.9</ele>
        <time>2019-04-10T15:02:20Z</time>
      </trkpt>
      <trkpt lat="-18.704985" lon="-47.167759">
        <ele>935.5</ele>
        <time>2019-04-10T15:02:21Z</time>
      </trkpt>
      <trkpt lat="-18.704943" lon="-47.167735">
        <ele>935.2</ele>
        <time>2019-04-10T15:02:22Z</time>
      </trkpt>
      <trkpt lat="-18.704901" lon="-47.167716">
        <ele>935</ele>
        <time>2019-04-10T15:02:23Z</time>
      </trkpt>
      <trkpt lat="-18.704863" lon="-47.167705">
        <ele>935</ele>
        <time>2019-04-10T15:02:24Z</time>
      </trkpt>
      <trkpt lat="-18.704821" lon="-47.167696">
        <ele>935.2</ele>
        <time>2019-04-10T15:02:25Z</time>
      </trkpt>
      <trkpt lat="-18.704773" lon="-47.167693">
        <ele>935.4</ele>
        <time>2019-04-10T15:02:26Z</time>
      </trkpt>
      <trkpt lat="-18.704738" lon="-47.167674">
        <ele>935.5</ele>
        <time>2019-04-10T15:02:27Z</time>
      </trkpt>
      <trkpt lat="-18.704695" lon="-47.167661">
        <ele>935.4</ele>
        <time>2019-04-10T15:02:28Z</time>
      </trkpt>
      <trkpt lat="-18.704654" lon="-47.167644">
        <ele>935.1</ele>
        <time>2019-04-10T15:02:29Z</time>
      </trkpt>
      <trkpt lat="-18.704607" lon="-47.167632">
        <ele>934.8</ele>
        <time>2019-04-10T15:02:30Z</time>
      </trkpt>
      <trkpt lat="-18.704559" lon="-47.167624">
        <ele>934.7</ele>
        <time>2019-04-10T15:02:31Z</time>
      </trkpt>
      <trkpt lat="-18.704518" lon="-47.167612">
        <ele>934.6</ele>
        <time>2019-04-10T15:02:32Z</time>
      </trkpt>
      <trkpt lat="-18.704469" lon="-47.167615">
        <ele>934.6</ele>
        <time>2019-04-10T15:02:33Z</time>
      </trkpt>
      <trkpt lat="-18.704419" lon="-47.167597">
        <ele>934.9</ele>
        <time>2019-04-10T15:02:34Z</time>
      </trkpt>
      <trkpt lat="-18.704377" lon="-47.167582">
        <ele>935.2</ele>
        <time>2019-04-10T15:02:35Z</time>
      </trkpt>
      <trkpt lat="-18.704333" lon="-47.167566">
        <ele>935.5</ele>
        <time>2019-04-10T15:02:36Z</time>
      </trkpt>
      <trkpt lat="-18.704289" lon="-47.167551">
        <ele>935.7</ele>
        <time>2019-04-10T15:02:37Z</time>
      </trkpt>
      <trkpt lat="-18.704255" lon="-47.16754">
        <ele>936.1</ele>
        <time>2019-04-10T15:02:38Z</time>
      </trkpt>
      <trkpt lat="-18.704222" lon="-47.167528">
        <ele>936.5</ele>
        <time>2019-04-10T15:02:39Z</time>
      </trkpt>
      <trkpt lat="-18.704178" lon="-47.167517">
        <ele>937</ele>
        <time>2019-04-10T15:02:40Z</time>
      </trkpt>
      <trkpt lat="-18.704139" lon="-47.167511">
        <ele>937.4</ele>
        <time>2019-04-10T15:02:41Z</time>
      </trkpt>
      <trkpt lat="-18.704097" lon="-47.1675">
        <ele>937.8</ele>
        <time>2019-04-10T15:02:42Z</time>
      </trkpt>
      <trkpt lat="-18.704054" lon="-47.167491">
        <ele>938</ele>
        <time>2019-04-10T15:02:43Z</time>
      </trkpt>
      <trkpt lat="-18.704013" lon="-47.167479">
        <ele>938.3</ele>
        <time>2019-04-10T15:02:44Z</time>
      </trkpt>
      <trkpt lat="-18.703983" lon="-47.167472">
        <ele>938.5</ele>
        <time>2019-04-10T15:02:45Z</time>
      </trkpt>
      <trkpt lat="-18.703947" lon="-47.167466">
        <ele>938.7</ele>
        <time>2019-04-10T15:02:46Z</time>
      </trkpt>
      <trkpt lat="-18.703892" lon="-47.167456">
        <ele>938.7</ele>
        <time>2019-04-10T15:02:47Z</time>
      </trkpt>
      <trkpt lat="-18.703859" lon="-47.167443">
        <ele>938.7</ele>
        <time>2019-04-10T15:02:48Z</time>
      </trkpt>
      <trkpt lat="-18.703827" lon="-47.167432">
        <ele>938.7</ele>
        <time>2019-04-10T15:02:49Z</time>
      </trkpt>
      <trkpt lat="-18.703794" lon="-47.167417">
        <ele>938.7</ele>
        <time>2019-04-10T15:02:50Z</time>
      </trkpt>
      <trkpt lat="-18.703758" lon="-47.167406">
        <ele>938.6</ele>
        <time>2019-04-10T15:02:51Z</time>
      </trkpt>
      <trkpt lat="-18.70372" lon="-47.167394">
        <ele>938.4</ele>
        <time>2019-04-10T15:02:52Z</time>
      </trkpt>
      <trkpt lat="-18.70369" lon="-47.167384">
        <ele>938.4</ele>
        <time>2019-04-10T15:02:53Z</time>
      </trkpt>
      <trkpt lat="-18.703652" lon="-47.167379">
        <ele>938.4</ele>
        <time>2019-04-10T15:02:54Z</time>
      </trkpt>
      <trkpt lat="-18.703621" lon="-47.167367">
        <ele>938.4</ele>
        <time>2019-04-10T15:02:55Z</time>
      </trkpt>
      <trkpt lat="-18.703596" lon="-47.167356">
        <ele>938.3</ele>
        <time>2019-04-10T15:02:56Z</time>
      </trkpt>
      <trkpt lat="-18.703543" lon="-47.167343">
        <ele>938.1</ele>
        <time>2019-04-10T15:02:57Z</time>
      </trkpt>
      <trkpt lat="-18.703506" lon="-47.167334">
        <ele>938</ele>
        <time>2019-04-10T15:02:58Z</time>
      </trkpt>
      <trkpt lat="-18.703474" lon="-47.167325">
        <ele>938</ele>
        <time>2019-04-10T15:02:59Z</time>
      </trkpt>
      <trkpt lat="-18.703438" lon="-47.167312">
        <ele>938.2</ele>
        <time>2019-04-10T15:03:00Z</time>
      </trkpt>
      <trkpt lat="-18.703405" lon="-47.167296">
        <ele>938.7</ele>
        <time>2019-04-10T15:03:01Z</time>
      </trkpt>
      <trkpt lat="-18.703369" lon="-47.167279">
        <ele>939.3</ele>
        <time>2019-04-10T15:03:02Z</time>
      </trkpt>
      <trkpt lat="-18.703328" lon="-47.167263">
        <ele>939.6</ele>
        <time>2019-04-10T15:03:03Z</time>
      </trkpt>
      <trkpt lat="-18.703292" lon="-47.16725">
        <ele>939.9</ele>
        <time>2019-04-10T15:03:04Z</time>
      </trkpt>
      <trkpt lat="-18.703257" lon="-47.167233">
        <ele>940.2</ele>
        <time>2019-04-10T15:03:05Z</time>
      </trkpt>
      <trkpt lat="-18.703216" lon="-47.167213">
        <ele>940.7</ele>
        <time>2019-04-10T15:03:06Z</time>
      </trkpt>
      <trkpt lat="-18.70318" lon="-47.167211">
        <ele>940.9</ele>
        <time>2019-04-10T15:03:07Z</time>
      </trkpt>
      <trkpt lat="-18.703147" lon="-47.167199">
        <ele>940.8</ele>
        <time>2019-04-10T15:03:08Z</time>
      </trkpt>
      <trkpt lat="-18.703114" lon="-47.167188">
        <ele>940.7</ele>
        <time>2019-04-10T15:03:09Z</time>
      </trkpt>
      <trkpt lat="-18.703078" lon="-47.167175">
        <ele>940.6</ele>
        <time>2019-04-10T15:03:10Z</time>
      </trkpt>
      <trkpt lat="-18.70304" lon="-47.16716">
        <ele>940.5</ele>
        <time>2019-04-10T15:03:11Z</time>
      </trkpt>
      <trkpt lat="-18.703003" lon="-47.16715">
        <ele>940.4</ele>
        <time>2019-04-10T15:03:12Z</time>
      </trkpt>
      <trkpt lat="-18.70297" lon="-47.167136">
        <ele>940.3</ele>
        <time>2019-04-10T15:03:13Z</time>
      </trkpt>
      <trkpt lat="-18.702907" lon="-47.16712">
        <ele>940.1</ele>
        <time>2019-04-10T15:03:15Z</time>
      </trkpt>
      <trkpt lat="-18.70287" lon="-47.167109">
        <ele>940.1</ele>
        <time>2019-04-10T15:03:16Z</time>
      </trkpt>
      <trkpt lat="-18.702837" lon="-47.167096">
        <ele>940</ele>
        <time>2019-04-10T15:03:17Z</time>
      </trkpt>
      <trkpt lat="-18.702807" lon="-47.167079">
        <ele>940</ele>
        <time>2019-04-10T15:03:18Z</time>
      </trkpt>
      <trkpt lat="-18.702771" lon="-47.167068">
        <ele>940</ele>
        <time>2019-04-10T15:03:19Z</time>
      </trkpt>
      <trkpt lat="-18.702723" lon="-47.167067">
        <ele>940.1</ele>
        <time>2019-04-10T15:03:20Z</time>
      </trkpt>
      <trkpt lat="-18.702687" lon="-47.167056">
        <ele>940.1</ele>
        <time>2019-04-10T15:03:21Z</time>
      </trkpt>
      <trkpt lat="-18.702646" lon="-47.167049">
        <ele>940.1</ele>
        <time>2019-04-10T15:03:22Z</time>
      </trkpt>
      <trkpt lat="-18.702601" lon="-47.167046">
        <ele>940.1</ele>
        <time>2019-04-10T15:03:23Z</time>
      </trkpt>
      <trkpt lat="-18.702549" lon="-47.167044">
        <ele>940.1</ele>
        <time>2019-04-10T15:03:24Z</time>
      </trkpt>
      <trkpt lat="-18.702517" lon="-47.167023">
        <ele>940.1</ele>
        <time>2019-04-10T15:03:25Z</time>
      </trkpt>
      <trkpt lat="-18.702476" lon="-47.167013">
        <ele>940.2</ele>
        <time>2019-04-10T15:03:26Z</time>
      </trkpt>
      <trkpt lat="-18.702442" lon="-47.167005">
        <ele>940.3</ele>
        <time>2019-04-10T15:03:27Z</time>
      </trkpt>
      <trkpt lat="-18.702408" lon="-47.166993">
        <ele>940.4</ele>
        <time>2019-04-10T15:03:28Z</time>
      </trkpt>
      <trkpt lat="-18.702373" lon="-47.166978">
        <ele>940.6</ele>
        <time>2019-04-10T15:03:29Z</time>
      </trkpt>
      <trkpt lat="-18.702335" lon="-47.166965">
        <ele>940.9</ele>
        <time>2019-04-10T15:03:30Z</time>
      </trkpt>
      <trkpt lat="-18.702295" lon="-47.16695">
        <ele>941.2</ele>
        <time>2019-04-10T15:03:31Z</time>
      </trkpt>
      <trkpt lat="-18.702245" lon="-47.166935">
        <ele>941.6</ele>
        <time>2019-04-10T15:03:32Z</time>
      </trkpt>
      <trkpt lat="-18.702203" lon="-47.166919">
        <ele>941.8</ele>
        <time>2019-04-10T15:03:33Z</time>
      </trkpt>
      <trkpt lat="-18.702168" lon="-47.166904">
        <ele>942</ele>
        <time>2019-04-10T15:03:34Z</time>
      </trkpt>
      <trkpt lat="-18.702129" lon="-47.166891">
        <ele>942.1</ele>
        <time>2019-04-10T15:03:35Z</time>
      </trkpt>
      <trkpt lat="-18.702091" lon="-47.166882">
        <ele>942.2</ele>
        <time>2019-04-10T15:03:36Z</time>
      </trkpt>
      <trkpt lat="-18.70205" lon="-47.16687">
        <ele>942.2</ele>
        <time>2019-04-10T15:03:37Z</time>
      </trkpt>
      <trkpt lat="-18.702012" lon="-47.166858">
        <ele>942.2</ele>
        <time>2019-04-10T15:03:38Z</time>
      </trkpt>
      <trkpt lat="-18.701976" lon="-47.166846">
        <ele>942.2</ele>
        <time>2019-04-10T15:03:39Z</time>
      </trkpt>
      <trkpt lat="-18.701935" lon="-47.166834">
        <ele>941.9</ele>
        <time>2019-04-10T15:03:40Z</time>
      </trkpt>
      <trkpt lat="-18.701899" lon="-47.166824">
        <ele>941.6</ele>
        <time>2019-04-10T15:03:41Z</time>
      </trkpt>
      <trkpt lat="-18.701865" lon="-47.166808">
        <ele>941.4</ele>
        <time>2019-04-10T15:03:42Z</time>
      </trkpt>
      <trkpt lat="-18.701829" lon="-47.166795">
        <ele>941.2</ele>
        <time>2019-04-10T15:03:43Z</time>
      </trkpt>
      <trkpt lat="-18.701804" lon="-47.166778">
        <ele>941.2</ele>
        <time>2019-04-10T15:03:44Z</time>
      </trkpt>
      <trkpt lat="-18.701766" lon="-47.166775">
        <ele>941.2</ele>
        <time>2019-04-10T15:03:45Z</time>
      </trkpt>
      <trkpt lat="-18.701731" lon="-47.166766">
        <ele>941.2</ele>
        <time>2019-04-10T15:03:46Z</time>
      </trkpt>
      <trkpt lat="-18.70169" lon="-47.166762">
        <ele>941.2</ele>
        <time>2019-04-10T15:03:47Z</time>
      </trkpt>
      <trkpt lat="-18.701652" lon="-47.166761">
        <ele>941.2</ele>
        <time>2019-04-10T15:03:48Z</time>
      </trkpt>
      <trkpt lat="-18.701598" lon="-47.166739">
        <ele>941</ele>
        <time>2019-04-10T15:03:50Z</time>
      </trkpt>
      <trkpt lat="-18.701562" lon="-47.166734">
        <ele>940.8</ele>
        <time>2019-04-10T15:03:51Z</time>
      </trkpt>
      <trkpt lat="-18.701516" lon="-47.166718">
        <ele>940.7</ele>
        <time>2019-04-10T15:03:52Z</time>
      </trkpt>
      <trkpt lat="-18.701484" lon="-47.166711">
        <ele>940.6</ele>
        <time>2019-04-10T15:03:53Z</time>
      </trkpt>
      <trkpt lat="-18.701449" lon="-47.16671">
        <ele>940.5</ele>
        <time>2019-04-10T15:03:54Z</time>
      </trkpt>
      <trkpt lat="-18.701411" lon="-47.166713">
        <ele>940.4</ele>
        <time>2019-04-10T15:03:55Z</time>
      </trkpt>
      <trkpt lat="-18.70137" lon="-47.166712">
        <ele>940.3</ele>
        <time>2019-04-10T15:03:56Z</time>
      </trkpt>
      <trkpt lat="-18.701331" lon="-47.166709">
        <ele>940.3</ele>
        <time>2019-04-10T15:03:57Z</time>
      </trkpt>
      <trkpt lat="-18.701297" lon="-47.166713">
        <ele>940.3</ele>
        <time>2019-04-10T15:03:58Z</time>
      </trkpt>
      <trkpt lat="-18.701258" lon="-47.166712">
        <ele>940.3</ele>
        <time>2019-04-10T15:03:59Z</time>
      </trkpt>
      <trkpt lat="-18.701221" lon="-47.166709">
        <ele>940.2</ele>
        <time>2019-04-10T15:04:00Z</time>
      </trkpt>
      <trkpt lat="-18.701186" lon="-47.166708">
        <ele>940.1</ele>
        <time>2019-04-10T15:04:01Z</time>
      </trkpt>
      <trkpt lat="-18.70115" lon="-47.166713">
        <ele>940.1</ele>
        <time>2019-04-10T15:04:02Z</time>
      </trkpt>
      <trkpt lat="-18.70112" lon="-47.166714">
        <ele>940.1</ele>
        <time>2019-04-10T15:04:03Z</time>
      </trkpt>
      <trkpt lat="-18.701086" lon="-47.166715">
        <ele>940.1</ele>
        <time>2019-04-10T15:04:04Z</time>
      </trkpt>
      <trkpt lat="-18.701057" lon="-47.166715">
        <ele>940.3</ele>
        <time>2019-04-10T15:04:05Z</time>
      </trkpt>
      <trkpt lat="-18.70103" lon="-47.166712">
        <ele>940.5</ele>
        <time>2019-04-10T15:04:06Z</time>
      </trkpt>
      <trkpt lat="-18.700978" lon="-47.16671">
        <ele>940.8</ele>
        <time>2019-04-10T15:04:08Z</time>
      </trkpt>
      <trkpt lat="-18.700932" lon="-47.166713">
        <ele>941</ele>
        <time>2019-04-10T15:04:10Z</time>
      </trkpt>
      <trkpt lat="-18.700898" lon="-47.166694">
        <ele>941.1</ele>
        <time>2019-04-10T15:04:12Z</time>
      </trkpt>
      <trkpt lat="-18.700864" lon="-47.166689">
        <ele>941.1</ele>
        <time>2019-04-10T15:04:14Z</time>
      </trkpt>
      <trkpt lat="-18.700846" lon="-47.166711">
        <ele>941.1</ele>
        <time>2019-04-10T15:04:20Z</time>
      </trkpt>
      <trkpt lat="-18.700816" lon="-47.166707">
        <ele>941</ele>
        <time>2019-04-10T15:04:39Z</time>
      </trkpt>
      <trkpt lat="-18.700791" lon="-47.16672">
        <ele>941</ele>
        <time>2019-04-10T15:04:43Z</time>
      </trkpt>
      <trkpt lat="-18.700804" lon="-47.166689">
        <ele>940.9</ele>
        <time>2019-04-10T15:05:31Z</time>
      </trkpt>
      <trkpt lat="-18.70077" lon="-47.166692">
        <ele>940.8</ele>
        <time>2019-04-10T15:05:34Z</time>
      </trkpt>
      <trkpt lat="-18.700741" lon="-47.166699">
        <ele>940.7</ele>
        <time>2019-04-10T15:05:36Z</time>
      </trkpt>
      <trkpt lat="-18.700699" lon="-47.166704">
        <ele>940.4</ele>
        <time>2019-04-10T15:05:38Z</time>
      </trkpt>
      <trkpt lat="-18.700659" lon="-47.166732">
        <ele>940.2</ele>
        <time>2019-04-10T15:05:40Z</time>
      </trkpt>
      <trkpt lat="-18.700616" lon="-47.166747">
        <ele>940</ele>
        <time>2019-04-10T15:05:42Z</time>
      </trkpt>
      <trkpt lat="-18.700573" lon="-47.166777">
        <ele>940</ele>
        <time>2019-04-10T15:05:44Z</time>
      </trkpt>
      <trkpt lat="-18.700547" lon="-47.166789">
        <ele>940</ele>
        <time>2019-04-10T15:05:45Z</time>
      </trkpt>
      <trkpt lat="-18.700522" lon="-47.166802">
        <ele>939.9</ele>
        <time>2019-04-10T15:05:46Z</time>
      </trkpt>
      <trkpt lat="-18.700473" lon="-47.166819">
        <ele>939.7</ele>
        <time>2019-04-10T15:05:48Z</time>
      </trkpt>
      <trkpt lat="-18.700446" lon="-47.166827">
        <ele>939.5</ele>
        <time>2019-04-10T15:05:49Z</time>
      </trkpt>
      <trkpt lat="-18.70041" lon="-47.166848">
        <ele>939.1</ele>
        <time>2019-04-10T15:05:51Z</time>
      </trkpt>
      <trkpt lat="-18.700371" lon="-47.166865">
        <ele>938.7</ele>
        <time>2019-04-10T15:05:53Z</time>
      </trkpt>
      <trkpt lat="-18.700331" lon="-47.166884">
        <ele>938.4</ele>
        <time>2019-04-10T15:05:55Z</time>
      </trkpt>
      <trkpt lat="-18.700284" lon="-47.166905">
        <ele>938.1</ele>
        <time>2019-04-10T15:05:57Z</time>
      </trkpt>
      <trkpt lat="-18.700258" lon="-47.166915">
        <ele>938.1</ele>
        <time>2019-04-10T15:05:58Z</time>
      </trkpt>
      <trkpt lat="-18.700231" lon="-47.166927">
        <ele>938.2</ele>
        <time>2019-04-10T15:05:59Z</time>
      </trkpt>
      <trkpt lat="-18.700203" lon="-47.166941">
        <ele>938.2</ele>
        <time>2019-04-10T15:06:00Z</time>
      </trkpt>
      <trkpt lat="-18.700177" lon="-47.16695">
        <ele>938.2</ele>
        <time>2019-04-10T15:06:01Z</time>
      </trkpt>
      <trkpt lat="-18.700152" lon="-47.166967">
        <ele>938.1</ele>
        <time>2019-04-10T15:06:02Z</time>
      </trkpt>
      <trkpt lat="-18.700129" lon="-47.166985">
        <ele>938</ele>
        <time>2019-04-10T15:06:03Z</time>
      </trkpt>
      <trkpt lat="-18.700102" lon="-47.166999">
        <ele>937.9</ele>
        <time>2019-04-10T15:06:04Z</time>
      </trkpt>
      <trkpt lat="-18.700074" lon="-47.16701">
        <ele>937.9</ele>
        <time>2019-04-10T15:06:05Z</time>
      </trkpt>
      <trkpt lat="-18.700036" lon="-47.16702">
        <ele>937.8</ele>
        <time>2019-04-10T15:06:06Z</time>
      </trkpt>
      <trkpt lat="-18.700003" lon="-47.167035">
        <ele>937.7</ele>
        <time>2019-04-10T15:06:07Z</time>
      </trkpt>
      <trkpt lat="-18.699967" lon="-47.167048">
        <ele>937.7</ele>
        <time>2019-04-10T15:06:08Z</time>
      </trkpt>
      <trkpt lat="-18.699932" lon="-47.167059">
        <ele>937.7</ele>
        <time>2019-04-10T15:06:09Z</time>
      </trkpt>
      <trkpt lat="-18.699903" lon="-47.167069">
        <ele>937.7</ele>
        <time>2019-04-10T15:06:10Z</time>
      </trkpt>
      <trkpt lat="-18.69987" lon="-47.16708">
        <ele>937.7</ele>
        <time>2019-04-10T15:06:11Z</time>
      </trkpt>
      <trkpt lat="-18.699837" lon="-47.167089">
        <ele>937.8</ele>
        <time>2019-04-10T15:06:12Z</time>
      </trkpt>
      <trkpt lat="-18.699806" lon="-47.167096">
        <ele>937.8</ele>
        <time>2019-04-10T15:06:13Z</time>
      </trkpt>
      <trkpt lat="-18.699771" lon="-47.167107">
        <ele>937.9</ele>
        <time>2019-04-10T15:06:14Z</time>
      </trkpt>
      <trkpt lat="-18.699741" lon="-47.167121">
        <ele>937.9</ele>
        <time>2019-04-10T15:06:15Z</time>
      </trkpt>
      <trkpt lat="-18.699707" lon="-47.16713">
        <ele>937.8</ele>
        <time>2019-04-10T15:06:16Z</time>
      </trkpt>
      <trkpt lat="-18.699668" lon="-47.16714">
        <ele>937.7</ele>
        <time>2019-04-10T15:06:17Z</time>
      </trkpt>
      <trkpt lat="-18.699628" lon="-47.167153">
        <ele>937.5</ele>
        <time>2019-04-10T15:06:18Z</time>
      </trkpt>
      <trkpt lat="-18.699591" lon="-47.167163">
        <ele>937.2</ele>
        <time>2019-04-10T15:06:19Z</time>
      </trkpt>
      <trkpt lat="-18.699552" lon="-47.167175">
        <ele>937</ele>
        <time>2019-04-10T15:06:20Z</time>
      </trkpt>
      <trkpt lat="-18.699511" lon="-47.167192">
        <ele>936.8</ele>
        <time>2019-04-10T15:06:21Z</time>
      </trkpt>
      <trkpt lat="-18.699472" lon="-47.167206">
        <ele>936.7</ele>
        <time>2019-04-10T15:06:22Z</time>
      </trkpt>
      <trkpt lat="-18.699437" lon="-47.167219">
        <ele>936.7</ele>
        <time>2019-04-10T15:06:23Z</time>
      </trkpt>
      <trkpt lat="-18.699404" lon="-47.16724">
        <ele>936.6</ele>
        <time>2019-04-10T15:06:24Z</time>
      </trkpt>
      <trkpt lat="-18.699373" lon="-47.167255">
        <ele>936.6</ele>
        <time>2019-04-10T15:06:25Z</time>
      </trkpt>
      <trkpt lat="-18.69934" lon="-47.16727">
        <ele>936.6</ele>
        <time>2019-04-10T15:06:26Z</time>
      </trkpt>
      <trkpt lat="-18.699307" lon="-47.167289">
        <ele>936.7</ele>
        <time>2019-04-10T15:06:27Z</time>
      </trkpt>
      <trkpt lat="-18.699274" lon="-47.167304">
        <ele>936.7</ele>
        <time>2019-04-10T15:06:28Z</time>
      </trkpt>
      <trkpt lat="-18.699239" lon="-47.167315">
        <ele>936.7</ele>
        <time>2019-04-10T15:06:29Z</time>
      </trkpt>
      <trkpt lat="-18.699203" lon="-47.167331">
        <ele>936.8</ele>
        <time>2019-04-10T15:06:30Z</time>
      </trkpt>
      <trkpt lat="-18.69917" lon="-47.16734">
        <ele>937</ele>
        <time>2019-04-10T15:06:31Z</time>
      </trkpt>
      <trkpt lat="-18.699139" lon="-47.167352">
        <ele>937.1</ele>
        <time>2019-04-10T15:06:32Z</time>
      </trkpt>
      <trkpt lat="-18.699103" lon="-47.167361">
        <ele>937.2</ele>
        <time>2019-04-10T15:06:33Z</time>
      </trkpt>
      <trkpt lat="-18.699067" lon="-47.167362">
        <ele>937.4</ele>
        <time>2019-04-10T15:06:34Z</time>
      </trkpt>
      <trkpt lat="-18.699023" lon="-47.167382">
        <ele>937.5</ele>
        <time>2019-04-10T15:06:35Z</time>
      </trkpt>
      <trkpt lat="-18.69899" lon="-47.167391">
        <ele>937.6</ele>
        <time>2019-04-10T15:06:36Z</time>
      </trkpt>
      <trkpt lat="-18.698953" lon="-47.167396">
        <ele>937.6</ele>
        <time>2019-04-10T15:06:37Z</time>
      </trkpt>
      <trkpt lat="-18.698918" lon="-47.167405">
        <ele>937.4</ele>
        <time>2019-04-10T15:06:38Z</time>
      </trkpt>
      <trkpt lat="-18.698883" lon="-47.167419">
        <ele>937.3</ele>
        <time>2019-04-10T15:06:39Z</time>
      </trkpt>
      <trkpt lat="-18.698848" lon="-47.167431">
        <ele>937.2</ele>
        <time>2019-04-10T15:06:40Z</time>
      </trkpt>
      <trkpt lat="-18.69881" lon="-47.167447">
        <ele>937</ele>
        <time>2019-04-10T15:06:41Z</time>
      </trkpt>
      <trkpt lat="-18.698778" lon="-47.167447">
        <ele>937</ele>
        <time>2019-04-10T15:06:42Z</time>
      </trkpt>
      <trkpt lat="-18.698739" lon="-47.16746">
        <ele>937</ele>
        <time>2019-04-10T15:06:43Z</time>
      </trkpt>
      <trkpt lat="-18.698705" lon="-47.167466">
        <ele>936.9</ele>
        <time>2019-04-10T15:06:44Z</time>
      </trkpt>
      <trkpt lat="-18.698665" lon="-47.167472">
        <ele>936.9</ele>
        <time>2019-04-10T15:06:45Z</time>
      </trkpt>
      <trkpt lat="-18.698632" lon="-47.167477">
        <ele>936.8</ele>
        <time>2019-04-10T15:06:46Z</time>
      </trkpt>
      <trkpt lat="-18.6986" lon="-47.167474">
        <ele>936.8</ele>
        <time>2019-04-10T15:06:47Z</time>
      </trkpt>
      <trkpt lat="-18.698557" lon="-47.167476">
        <ele>936.8</ele>
        <time>2019-04-10T15:06:48Z</time>
      </trkpt>
      <trkpt lat="-18.698525" lon="-47.167483">
        <ele>936.8</ele>
        <time>2019-04-10T15:06:49Z</time>
      </trkpt>
      <trkpt lat="-18.698492" lon="-47.167493">
        <ele>936.6</ele>
        <time>2019-04-10T15:06:50Z</time>
      </trkpt>
      <trkpt lat="-18.698453" lon="-47.167498">
        <ele>936.5</ele>
        <time>2019-04-10T15:06:51Z</time>
      </trkpt>
      <trkpt lat="-18.698413" lon="-47.167505">
        <ele>936.1</ele>
        <time>2019-04-10T15:06:52Z</time>
      </trkpt>
      <trkpt lat="-18.698361" lon="-47.167497">
        <ele>935.6</ele>
        <time>2019-04-10T15:06:53Z</time>
      </trkpt>
      <trkpt lat="-18.698318" lon="-47.167497">
        <ele>935.3</ele>
        <time>2019-04-10T15:06:54Z</time>
      </trkpt>
      <trkpt lat="-18.698278" lon="-47.167493">
        <ele>935</ele>
        <time>2019-04-10T15:06:55Z</time>
      </trkpt>
      <trkpt lat="-18.698231" lon="-47.167504">
        <ele>934.7</ele>
        <time>2019-04-10T15:06:56Z</time>
      </trkpt>
      <trkpt lat="-18.698187" lon="-47.167513">
        <ele>934.4</ele>
        <time>2019-04-10T15:06:57Z</time>
      </trkpt>
      <trkpt lat="-18.698144" lon="-47.167514">
        <ele>934.1</ele>
        <time>2019-04-10T15:06:58Z</time>
      </trkpt>
      <trkpt lat="-18.698098" lon="-47.167513">
        <ele>933.8</ele>
        <time>2019-04-10T15:06:59Z</time>
      </trkpt>
      <trkpt lat="-18.69805" lon="-47.167509">
        <ele>933.8</ele>
        <time>2019-04-10T15:07:00Z</time>
      </trkpt>
      <trkpt lat="-18.698011" lon="-47.167489">
        <ele>933.5</ele>
        <time>2019-04-10T15:07:01Z</time>
      </trkpt>
      <trkpt lat="-18.697978" lon="-47.167484">
        <ele>933.2</ele>
        <time>2019-04-10T15:07:02Z</time>
      </trkpt>
      <trkpt lat="-18.697942" lon="-47.167487">
        <ele>932.9</ele>
        <time>2019-04-10T15:07:03Z</time>
      </trkpt>
      <trkpt lat="-18.697904" lon="-47.167486">
        <ele>932.7</ele>
        <time>2019-04-10T15:07:04Z</time>
      </trkpt>
      <trkpt lat="-18.697864" lon="-47.167487">
        <ele>932.5</ele>
        <time>2019-04-10T15:07:05Z</time>
      </trkpt>
      <trkpt lat="-18.697816" lon="-47.167501">
        <ele>932.3</ele>
        <time>2019-04-10T15:07:06Z</time>
      </trkpt>
      <trkpt lat="-18.69777" lon="-47.167503">
        <ele>932.1</ele>
        <time>2019-04-10T15:07:07Z</time>
      </trkpt>
      <trkpt lat="-18.697719" lon="-47.167504">
        <ele>931.8</ele>
        <time>2019-04-10T15:07:08Z</time>
      </trkpt>
      <trkpt lat="-18.697669" lon="-47.167502">
        <ele>931.6</ele>
        <time>2019-04-10T15:07:09Z</time>
      </trkpt>
      <trkpt lat="-18.697618" lon="-47.167502">
        <ele>931.5</ele>
        <time>2019-04-10T15:07:10Z</time>
      </trkpt>
      <trkpt lat="-18.697573" lon="-47.167506">
        <ele>931.4</ele>
        <time>2019-04-10T15:07:11Z</time>
      </trkpt>
      <trkpt lat="-18.697523" lon="-47.167507">
        <ele>931.2</ele>
        <time>2019-04-10T15:07:12Z</time>
      </trkpt>
      <trkpt lat="-18.69748" lon="-47.167507">
        <ele>931.1</ele>
        <time>2019-04-10T15:07:13Z</time>
      </trkpt>
      <trkpt lat="-18.69744" lon="-47.167511">
        <ele>931</ele>
        <time>2019-04-10T15:07:14Z</time>
      </trkpt>
      <trkpt lat="-18.6974" lon="-47.167508">
        <ele>930.9</ele>
        <time>2019-04-10T15:07:15Z</time>
      </trkpt>
      <trkpt lat="-18.697362" lon="-47.167517">
        <ele>930.8</ele>
        <time>2019-04-10T15:07:16Z</time>
      </trkpt>
      <trkpt lat="-18.697322" lon="-47.16752">
        <ele>930.7</ele>
        <time>2019-04-10T15:07:17Z</time>
      </trkpt>
      <trkpt lat="-18.697279" lon="-47.167517">
        <ele>930.6</ele>
        <time>2019-04-10T15:07:18Z</time>
      </trkpt>
      <trkpt lat="-18.697224" lon="-47.16752">
        <ele>930.4</ele>
        <time>2019-04-10T15:07:19Z</time>
      </trkpt>
      <trkpt lat="-18.697177" lon="-47.167524">
        <ele>930.2</ele>
        <time>2019-04-10T15:07:20Z</time>
      </trkpt>
      <trkpt lat="-18.69713" lon="-47.167525">
        <ele>930.1</ele>
        <time>2019-04-10T15:07:21Z</time>
      </trkpt>
      <trkpt lat="-18.697092" lon="-47.167528">
        <ele>930</ele>
        <time>2019-04-10T15:07:22Z</time>
      </trkpt>
      <trkpt lat="-18.697052" lon="-47.167535">
        <ele>929.8</ele>
        <time>2019-04-10T15:07:23Z</time>
      </trkpt>
      <trkpt lat="-18.697017" lon="-47.167528">
        <ele>929.7</ele>
        <time>2019-04-10T15:07:24Z</time>
      </trkpt>
      <trkpt lat="-18.696981" lon="-47.167526">
        <ele>929.6</ele>
        <time>2019-04-10T15:07:25Z</time>
      </trkpt>
      <trkpt lat="-18.696946" lon="-47.167533">
        <ele>929.1</ele>
        <time>2019-04-10T15:07:26Z</time>
      </trkpt>
      <trkpt lat="-18.696918" lon="-47.167531">
        <ele>929</ele>
        <time>2019-04-10T15:07:27Z</time>
      </trkpt>
      <trkpt lat="-18.696868" lon="-47.167538">
        <ele>928.8</ele>
        <time>2019-04-10T15:07:29Z</time>
      </trkpt>
      <trkpt lat="-18.696839" lon="-47.167542">
        <ele>928.8</ele>
        <time>2019-04-10T15:07:30Z</time>
      </trkpt>
      <trkpt lat="-18.6968" lon="-47.167538">
        <ele>928.7</ele>
        <time>2019-04-10T15:07:32Z</time>
      </trkpt>
      <trkpt lat="-18.69677" lon="-47.167528">
        <ele>928.6</ele>
        <time>2019-04-10T15:07:34Z</time>
      </trkpt>
      <trkpt lat="-18.696737" lon="-47.167521">
        <ele>928.6</ele>
        <time>2019-04-10T15:07:37Z</time>
      </trkpt>
      <trkpt lat="-18.696718" lon="-47.167625"/>
      <trkpt lat="-18.696001" lon="-47.167613"/>
      <trkpt lat="-18.694706" lon="-47.167647"/>
      <trkpt lat="-18.694165" lon="-47.167642"/>
      <trkpt lat="-18.693966" lon="-47.167666"/>
      <trkpt lat="-18.693291" lon="-47.167669"/>
      <trkpt lat="-18.692199" lon="-47.167711"/>
      <trkpt lat="-18.691741" lon="-47.167777"/>
      <trkpt lat="-18.691038" lon="-47.168179"/>
      <trkpt lat="-18.690593" lon="-47.168483"/>
      <trkpt lat="-18.689934" lon="-47.168877"/>
      <trkpt lat="-18.689744" lon="-47.168942"/>
      <trkpt lat="-18.689553" lon="-47.168975"/>
      <trkpt lat="-18.689285" lon="-47.169056"/>
      <trkpt lat="-18.689125" lon="-47.169127"/>
      <trkpt lat="-18.688730" lon="-47.169227"/>
      <trkpt lat="-18.688222" lon="-47.169393"/>
      <trkpt lat="-18.688022" lon="-47.169523"/>
      <trkpt lat="-18.687682" lon="-47.169804"/>
      <trkpt lat="-18.687626" lon="-47.169944"/>
      <trkpt lat="-18.687625" lon="-47.170017"/>
      <trkpt lat="-18.687830" lon="-47.170929"/>
      <trkpt lat="-18.688207" lon="-47.172016"/>
      <trkpt lat="-18.689047" lon="-47.174242"/>
      <trkpt lat="-18.689504" lon="-47.175507"/>
      <trkpt lat="-18.690284" lon="-47.177557"/>
      <trkpt lat="-18.690844" lon="-47.179093"/>
      <trkpt lat="-18.691521" lon="-47.180801"/>
      <trkpt lat="-18.691687" lon="-47.181175"/>
      <trkpt lat="-18.691744" lon="-47.181266"/>
      <trkpt lat="-18.691933" lon="-47.181442"/>
      <trkpt lat="-18.692348" lon="-47.181715"/>
      <trkpt lat="-18.693853" lon="-47.182586"/>
      <trkpt lat="-18.693987" lon="-47.182684"/>
      <trkpt lat="-18.694102" lon="-47.182799"/>
      <trkpt lat="-18.694195" lon="-47.182941"/>
      <trkpt lat="-18.694305" lon="-47.183195"/>
      <trkpt lat="-18.694862" lon="-47.184827"/>
      <trkpt lat="-18.696094" lon="-47.188641"/>
      <trkpt lat="-18.696388" lon="-47.189603"/>
      <trkpt lat="-18.696606" lon="-47.190251"/>
      <trkpt lat="-18.696931" lon="-47.191292"/>
      <trkpt lat="-18.697300" lon="-47.192391"/>
      <trkpt lat="-18.697451" lon="-47.192964"/>
      <trkpt lat="-18.697494" lon="-47.193246"/>
      <trkpt lat="-18.697519" lon="-47.193826"/>
      <trkpt lat="-18.697624" lon="-47.194799"/>
      <trkpt lat="-18.698100" lon="-47.197236"/>
      <trkpt lat="-18.698325" lon="-47.198780"/>
      <trkpt lat="-18.698407" lon="-47.199786"/>
      <trkpt lat="-18.698460" lon="-47.200729"/>
      <trkpt lat="-18.698475" lon="-47.201361"/>
      <trkpt lat="-18.698535" lon="-47.202076"/>
      <trkpt lat="-18.698658" lon="-47.202805"/>
      <trkpt lat="-18.698776" lon="-47.203096"/>
      <trkpt lat="-18.698898" lon="-47.203458"/>
      <trkpt lat="-18.698982" lon="-47.203817"/>
      <trkpt lat="-18.699107" lon="-47.204227"/>
      <trkpt lat="-18.699314" lon="-47.205144"/>
      <trkpt lat="-18.699436" lon="-47.205793"/>
      <trkpt lat="-18.699695" lon="-47.207006"/>
      <trkpt lat="-18.699731" lon="-47.207111"/>
      <trkpt lat="-18.699839" lon="-47.207287"/>
      <trkpt lat="-18.700073" lon="-47.207504"/>
      <trkpt lat="-18.700535" lon="-47.207980"/>
      <trkpt lat="-18.701573" lon="-47.208562"/>
      <trkpt lat="-18.702940" lon="-47.209387"/>
      <trkpt lat="-18.703217" lon="-47.209508"/>
      <trkpt lat="-18.704133" lon="-47.209805"/>
      <trkpt lat="-18.704399" lon="-47.209817"/>
      <trkpt lat="-18.705204" lon="-47.209697"/>
      <trkpt lat="-18.705449" lon="-47.209632"/>
      <trkpt lat="-18.705631" lon="-47.209610"/>
      <trkpt lat="-18.705779" lon="-47.209563"/>
      <trkpt lat="-18.706136" lon="-47.209306"/>
      <trkpt lat="-18.706215" lon="-47.209260"/>
      <trkpt lat="-18.706440" lon="-47.209170"/>
      <trkpt lat="-18.707020" lon="-47.209050"/>
      <trkpt lat="-18.707230" lon="-47.208971"/>
      <trkpt lat="-18.707386" lon="-47.208936"/>
      <trkpt lat="-18.707597" lon="-47.208902"/>
      <trkpt lat="-18.708264" lon="-47.208855"/>
      <trkpt lat="-18.708562" lon="-47.208863"/>
      <trkpt lat="-18.708773" lon="-47.208907"/>
      <trkpt lat="-18.708922" lon="-47.208949"/>
      <trkpt lat="-18.709218" lon="-47.209084"/>
      <trkpt lat="-18.709512" lon="-47.209326"/>
      <trkpt lat="-18.709606" lon="-47.209449"/>
      <trkpt lat="-18.710312" lon="-47.210059"/>
      <trkpt lat="-18.710564" lon="-47.210316"/>
      <trkpt lat="-18.710755" lon="-47.210446"/>
      <trkpt lat="-18.711061" lon="-47.210536"/>
      <trkpt lat="-18.712017" lon="-47.210718"/>
      <trkpt lat="-18.712736" lon="-47.210897"/>
      <trkpt lat="-18.712937" lon="-47.210931"/>
      <trkpt lat="-18.713270" lon="-47.210916"/>
      <trkpt lat="-18.713578" lon="-47.210857"/>
      <trkpt lat="-18.714672" lon="-47.210348"/>
      <trkpt lat="-18.715157" lon="-47.210207"/>
      <trkpt lat="-18.715601" lon="-47.210050"/>
      <trkpt lat="-18.715706" lon="-47.210037"/>
      <trkpt lat="-18.715907" lon="-47.210062"/>
      <trkpt lat="-18.715947" lon="-47.210079"/>
      <trkpt lat="-18.716072" lon="-47.210186"/>
      <trkpt lat="-18.716293" lon="-47.210602"/>
      <trkpt lat="-18.716604" lon="-47.211100"/>
      <trkpt lat="-18.716669" lon="-47.211312"/>
      <trkpt lat="-18.716754" lon="-47.211840"/>
      <trkpt lat="-18.716836" lon="-47.211990"/>
      <trkpt lat="-18.716971" lon="-47.212143"/>
      <trkpt lat="-18.717135" lon="-47.212282"/>
      <trkpt lat="-18.717469" lon="-47.212455"/>
      <trkpt lat="-18.717557" lon="-47.212525"/>
      <trkpt lat="-18.717686" lon="-47.212660"/>
      <trkpt lat="-18.717865" lon="-47.212920"/>
      <trkpt lat="-18.718224" lon="-47.213267"/>
      <trkpt lat="-18.718390" lon="-47.213397"/>
      <trkpt lat="-18.718558" lon="-47.213491"/>
      <trkpt lat="-18.718909" lon="-47.213617"/>
      <trkpt lat="-18.719485" lon="-47.213885"/>
      <trkpt lat="-18.719797" lon="-47.214001"/>
      <trkpt lat="-18.719962" lon="-47.214125"/>
      <trkpt lat="-18.720082" lon="-47.214268"/>
      <trkpt lat="-18.720265" lon="-47.214532"/>
      <trkpt lat="-18.720349" lon="-47.214625"/>
      <trkpt lat="-18.720482" lon="-47.214736"/>
      <trkpt lat="-18.720716" lon="-47.214879"/>
      <trkpt lat="-18.720840" lon="-47.214934"/>
      <trkpt lat="-18.720972" lon="-47.214983"/>
      <trkpt lat="-18.721248" lon="-47.215049"/>
      <trkpt lat="-18.721643" lon="-47.215041"/>
      <trkpt lat="-18.722021" lon="-47.214982"/>
      <trkpt lat="-18.722636" lon="-47.214979"/>
      <trkpt lat="-18.722788" lon="-47.214963"/>
      <trkpt lat="-18.723462" lon="-47.214886"/>
      <trkpt lat="-18.724653" lon="-47.214716"/>
      <trkpt lat="-18.724934" lon="-47.214656"/>
      <trkpt lat="-18.725710" lon="-47.214557"/>
      <trkpt lat="-18.726207" lon="-47.214585"/>
      <trkpt lat="-18.727327" lon="-47.214740"/>
      <trkpt lat="-18.727806" lon="-47.214825"/>
      <trkpt lat="-18.728812" lon="-47.215082"/>
      <trkpt lat="-18.729526" lon="-47.215097"/>
      <trkpt lat="-18.729735" lon="-47.215070"/>
      <trkpt lat="-18.729952" lon="-47.215004"/>
      <trkpt lat="-18.731374" lon="-47.214466"/>
      <trkpt lat="-18.732057" lon="-47.214162"/>
      <trkpt lat="-18.732462" lon="-47.213943"/>
      <trkpt lat="-18.732671" lon="-47.213792"/>
      <trkpt lat="-18.732855" lon="-47.213608"/>
      <trkpt lat="-18.733336" lon="-47.212795"/>
      <trkpt lat="-18.733830" lon="-47.212271"/>
      <trkpt lat="-18.734102" lon="-47.211959"/>
      <trkpt lat="-18.734390" lon="-47.211495"/>
      <trkpt lat="-18.734524" lon="-47.211336"/>
      <trkpt lat="-18.735028" lon="-47.210979"/>
      <trkpt lat="-18.735229" lon="-47.210817"/>
      <trkpt lat="-18.735389" lon="-47.210666"/>
      <trkpt lat="-18.735651" lon="-47.210382"/>
      <trkpt lat="-18.735990" lon="-47.210078"/>
      <trkpt lat="-18.736435" lon="-47.209810"/>
      <trkpt lat="-18.736704" lon="-47.209684"/>
      <trkpt lat="-18.737639" lon="-47.209350"/>
      <trkpt lat="-18.737794" lon="-47.209241"/>
      <trkpt lat="-18.738158" lon="-47.208769"/>
      <trkpt lat="-18.738265" lon="-47.208490"/>
      <trkpt lat="-18.738352" lon="-47.208313"/>
      <trkpt lat="-18.738392" lon="-47.208263"/>
      <trkpt lat="-18.738547" lon="-47.208140"/>
      <trkpt lat="-18.738737" lon="-47.208052"/>
      <trkpt lat="-18.738996" lon="-47.207967"/>
      <trkpt lat="-18.739307" lon="-47.207907"/>
      <trkpt lat="-18.739485" lon="-47.207889"/>
      <trkpt lat="-18.739850" lon="-47.207817"/>
      <trkpt lat="-18.740155" lon="-47.207731"/>
      <trkpt lat="-18.740524" lon="-47.207672"/>
      <trkpt lat="-18.741023" lon="-47.207664"/>
      <trkpt lat="-18.741428" lon="-47.207704"/>
      <trkpt lat="-18.741786" lon="-47.207694"/>
      <trkpt lat="-18.741912" lon="-47.207672"/>
      <trkpt lat="-18.742029" lon="-47.207629"/>
      <trkpt lat="-18.742487" lon="-47.207391"/>
      <trkpt lat="-18.742830" lon="-47.207292"/>
      <trkpt lat="-18.743409" lon="-47.207091"/>
      <trkpt lat="-18.743548" lon="-47.206993"/>
      <trkpt lat="-18.743735" lon="-47.206730"/>
      <trkpt lat="-18.743915" lon="-47.206606"/>
      <trkpt lat="-18.744195" lon="-47.206473"/>
      <trkpt lat="-18.744857" lon="-47.206234"/>
      <trkpt lat="-18.745561" lon="-47.206094"/>
      <trkpt lat="-18.745786" lon="-47.206020"/>
      <trkpt lat="-18.746022" lon="-47.205891"/>
      <trkpt lat="-18.746489" lon="-47.205550"/>
      <trkpt lat="-18.746580" lon="-47.205505"/>
      <trkpt lat="-18.746739" lon="-47.205453"/>
      <trkpt lat="-18.747158" lon="-47.205400"/>
      <trkpt lat="-18.747496" lon="-47.205320"/>
      <trkpt lat="-18.747656" lon="-47.205234"/>
      <trkpt lat="-18.748307" lon="-47.204680"/>
      <trkpt lat="-18.748558" lon="-47.204521"/>
      <trkpt lat="-18.748657" lon="-47.204479"/>
      <trkpt lat="-18.749229" lon="-47.204317"/>
      <trkpt lat="-18.749325" lon="-47.204299"/>
      <trkpt lat="-18.749532" lon="-47.204303"/>
      <trkpt lat="-18.749688" lon="-47.204334"/>
      <trkpt lat="-18.749892" lon="-47.204340"/>
      <trkpt lat="-18.750325" lon="-47.204299"/>
      <trkpt lat="-18.750633" lon="-47.204229"/>
      <trkpt lat="-18.751271" lon="-47.204118"/>
      <trkpt lat="-18.751602" lon="-47.204042"/>
      <trkpt lat="-18.751674" lon="-47.204011"/>
      <trkpt lat="-18.751879" lon="-47.203980"/>
      <trkpt lat="-18.752101" lon="-47.204011"/>
      <trkpt lat="-18.753083" lon="-47.204282"/>
      <trkpt lat="-18.753396" lon="-47.204392"/>
      <trkpt lat="-18.753569" lon="-47.204434"/>
      <trkpt lat="-18.754191" lon="-47.204684"/>
      <trkpt lat="-18.754390" lon="-47.204699"/>
      <trkpt lat="-18.754589" lon="-47.204661"/>
      <trkpt lat="-18.754818" lon="-47.204555"/>
      <trkpt lat="-18.755030" lon="-47.204402"/>
      <trkpt lat="-18.755517" lon="-47.204109"/>
      <trkpt lat="-18.756040" lon="-47.203736"/>
      <trkpt lat="-18.756327" lon="-47.203559"/>
      <trkpt lat="-18.756607" lon="-47.203414"/>
      <trkpt lat="-18.757031" lon="-47.203270"/>
      <trkpt lat="-18.757169" lon="-47.203197"/>
      <trkpt lat="-18.757370" lon="-47.202999"/>
      <trkpt lat="-18.757762" lon="-47.202389"/>
      <trkpt lat="-18.758272" lon="-47.201778"/>
      <trkpt lat="-18.758583" lon="-47.201566"/>
      <trkpt lat="-18.758879" lon="-47.201341"/>
      <trkpt lat="-18.759012" lon="-47.201317"/>
      <trkpt lat="-18.759184" lon="-47.201408"/>
      <trkpt lat="-18.759458" lon="-47.201678"/>
      <trkpt lat="-18.759725" lon="-47.201906"/>
      <trkpt lat="-18.759832" lon="-47.202018"/>
      <trkpt lat="-18.759939" lon="-47.202097"/>
      <trkpt lat="-18.760151" lon="-47.202232"/>
      <trkpt lat="-18.760423" lon="-47.202352"/>
      <trkpt lat="-18.760435" lon="-47.202960"/>
      <trkpt lat="-18.760602" lon="-47.202942"/>
      <trkpt lat="-18.760675" lon="-47.202891"/>
      <trkpt lat="-18.760692" lon="-47.202855"/>
      <trkpt lat="-18.760688" lon="-47.202777"/>
      <trkpt lat="-18.760656" lon="-47.202699"/>
      <trkpt lat="-18.760539" lon="-47.202511"/>
      <trkpt lat="-18.760453" lon="-47.202423"/>
      <trkpt lat="-18.760441" lon="-47.202346"/>
      <trkpt lat="-18.760675" lon="-47.202344"/>
      <trkpt lat="-18.760966" lon="-47.202244"/>
      <trkpt lat="-18.761579" lon="-47.201876"/>
      <trkpt lat="-18.761776" lon="-47.201811"/>
      <trkpt lat="-18.762153" lon="-47.201757"/>
      <trkpt lat="-18.762282" lon="-47.201768"/>
      <trkpt lat="-18.762403" lon="-47.201828"/>
      <trkpt lat="-18.762623" lon="-47.201981"/>
      <trkpt lat="-18.762855" lon="-47.202089"/>
      <trkpt lat="-18.762934" lon="-47.202147"/>
      <trkpt lat="-18.763206" lon="-47.202441"/>
      <trkpt lat="-18.763799" lon="-47.203019"/>
      <trkpt lat="-18.763947" lon="-47.203199"/>
      <trkpt lat="-18.764073" lon="-47.203403"/>
      <trkpt lat="-18.764399" lon="-47.204017"/>
      <trkpt lat="-18.764489" lon="-47.204285"/>
      <trkpt lat="-18.764780" lon="-47.204752"/>
      <trkpt lat="-18.765186" lon="-47.205216"/>
      <trkpt lat="-18.765392" lon="-47.205477"/>
      <trkpt lat="-18.765700" lon="-47.205798"/>
      <trkpt lat="-18.765946" lon="-47.206029"/>
      <trkpt lat="-18.766122" lon="-47.206122"/>
      <trkpt lat="-18.766326" lon="-47.206194"/>
      <trkpt lat="-18.766521" lon="-47.206297"/>
      <trkpt lat="-18.766621" lon="-47.206325"/>
      <trkpt lat="-18.767224" lon="-47.206397"/>
      <trkpt lat="-18.767628" lon="-47.206615"/>
      <trkpt lat="-18.767874" lon="-47.206693"/>
      <trkpt lat="-18.768108" lon="-47.206744"/>
      <trkpt lat="-18.768443" lon="-47.206897"/>
      <trkpt lat="-18.768670" lon="-47.206981"/>
      <trkpt lat="-18.769038" lon="-47.207054"/>
      <trkpt lat="-18.769362" lon="-47.207149"/>
      <trkpt lat="-18.769452" lon="-47.207204"/>
      <trkpt lat="-18.769626" lon="-47.207346"/>
      <trkpt lat="-18.769852" lon="-47.207488"/>
      <trkpt lat="-18.770689" lon="-47.207819"/>
      <trkpt lat="-18.770814" lon="-47.207843"/>
      <trkpt lat="-18.771183" lon="-47.207837"/>
      <trkpt lat="-18.771427" lon="-47.207802"/>
      <trkpt lat="-18.771674" lon="-47.207737"/>
      <trkpt lat="-18.771783" lon="-47.207690"/>
      <trkpt lat="-18.772185" lon="-47.207439"/>
      <trkpt lat="-18.772372" lon="-47.207339"/>
      <trkpt lat="-18.773057" lon="-47.207030"/>
      <trkpt lat="-18.773357" lon="-47.206920"/>
      <trkpt lat="-18.774009" lon="-47.206799"/>
      <trkpt lat="-18.775318" lon="-47.206484"/>
      <trkpt lat="-18.776172" lon="-47.206235"/>
      <trkpt lat="-18.776745" lon="-47.206095"/>
      <trkpt lat="-18.777116" lon="-47.205980"/>
      <trkpt lat="-18.778348" lon="-47.205674"/>
      <trkpt lat="-18.778620" lon="-47.205621"/>
      <trkpt lat="-18.778932" lon="-47.205508"/>
      <trkpt lat="-18.779220" lon="-47.205378"/>
      <trkpt lat="-18.779345" lon="-47.205274"/>
      <trkpt lat="-18.779522" lon="-47.205081"/>
      <trkpt lat="-18.779799" lon="-47.204699"/>
      <trkpt lat="-18.780292" lon="-47.204075"/>
      <trkpt lat="-18.780617" lon="-47.203605"/>
      <trkpt lat="-18.781446" lon="-47.202498"/>
      <trkpt lat="-18.781967" lon="-47.201944"/>
      <trkpt lat="-18.782496" lon="-47.201323"/>
      <trkpt lat="-18.782960" lon="-47.200737"/>
      <trkpt lat="-18.783063" lon="-47.200581"/>
      <trkpt lat="-18.783245" lon="-47.200105"/>
      <trkpt lat="-18.783342" lon="-47.199745"/>
      <trkpt lat="-18.783701" lon="-47.198794"/>
      <trkpt lat="-18.783728" lon="-47.198734"/>
      <trkpt lat="-18.783868" lon="-47.198543"/>
      <trkpt lat="-18.784059" lon="-47.198391"/>
      <trkpt lat="-18.784791" lon="-47.197899"/>
      <trkpt lat="-18.785180" lon="-47.197651"/>
      <trkpt lat="-18.785392" lon="-47.197549"/>
      <trkpt lat="-18.785645" lon="-47.197387"/>
      <trkpt lat="-18.785881" lon="-47.197162"/>
      <trkpt lat="-18.786186" lon="-47.196753"/>
      <trkpt lat="-18.787035" lon="-47.195549"/>
      <trkpt lat="-18.787772" lon="-47.194534"/>
      <trkpt lat="-18.788240" lon="-47.193833"/>
      <trkpt lat="-18.788406" lon="-47.193618"/>
      <trkpt lat="-18.788631" lon="-47.193368"/>
      <trkpt lat="-18.788963" lon="-47.192820"/>
      <trkpt lat="-18.789727" lon="-47.191689"/>
      <trkpt lat="-18.789944" lon="-47.191380"/>
      <trkpt lat="-18.790219" lon="-47.191042"/>
      <trkpt lat="-18.790587" lon="-47.190475"/>
      <trkpt lat="-18.790983" lon="-47.189950"/>
      <trkpt lat="-18.791651" lon="-47.188984"/>
      <trkpt lat="-18.791956" lon="-47.188576"/>
      <trkpt lat="-18.792154" lon="-47.188250"/>
      <trkpt lat="-18.792313" lon="-47.188047"/>
      <trkpt lat="-18.792537" lon="-47.187656"/>
      <trkpt lat="-18.792616" lon="-47.187487"/>
      <trkpt lat="-18.792775" lon="-47.186821"/>
      <trkpt lat="-18.793026" lon="-47.185930"/>
      <trkpt lat="-18.793128" lon="-47.185697"/>
      <trkpt lat="-18.793330" lon="-47.185448"/>
      <trkpt lat="-18.793398" lon="-47.185388"/>
      <trkpt lat="-18.793920" lon="-47.185034"/>
      <trkpt lat="-18.794127" lon="-47.184855"/>
      <trkpt lat="-18.794381" lon="-47.184565"/>
      <trkpt lat="-18.794640" lon="-47.184321"/>
      <trkpt lat="-18.795536" lon="-47.183650"/>
      <trkpt lat="-18.795699" lon="-47.183488"/>
      <trkpt lat="-18.795985" lon="-47.183074"/>
      <trkpt lat="-18.796119" lon="-47.182900"/>
      <trkpt lat="-18.796201" lon="-47.182826"/>
      <trkpt lat="-18.796306" lon="-47.182770"/>
      <trkpt lat="-18.796389" lon="-47.182747"/>
      <trkpt lat="-18.796652" lon="-47.182719"/>
      <trkpt lat="-18.796791" lon="-47.182721"/>
      <trkpt lat="-18.797216" lon="-47.182574"/>
      <trkpt lat="-18.797520" lon="-47.182504"/>
      <trkpt lat="-18.798532" lon="-47.182455"/>
      <trkpt lat="-18.799391" lon="-47.182460"/>
      <trkpt lat="-18.800184" lon="-47.182408"/>
      <trkpt lat="-18.800846" lon="-47.182393"/>
      <trkpt lat="-18.801225" lon="-47.182420"/>
      <trkpt lat="-18.801691" lon="-47.182498"/>
      <trkpt lat="-18.802154" lon="-47.182604"/>
      <trkpt lat="-18.802467" lon="-47.182640"/>
      <trkpt lat="-18.802688" lon="-47.182585"/>
      <trkpt lat="-18.802819" lon="-47.182523"/>
      <trkpt lat="-18.803684" lon="-47.182014"/>
      <trkpt lat="-18.804056" lon="-47.181829"/>
      <trkpt lat="-18.804431" lon="-47.181668"/>
      <trkpt lat="-18.805823" lon="-47.181134"/>
      <trkpt lat="-18.806833" lon="-47.180789"/>
      <trkpt lat="-18.807137" lon="-47.180710"/>
      <trkpt lat="-18.807241" lon="-47.180702"/>
      <trkpt lat="-18.807434" lon="-47.180716"/>
      <trkpt lat="-18.807892" lon="-47.180799"/>
      <trkpt lat="-18.808653" lon="-47.181115"/>
      <trkpt lat="-18.808866" lon="-47.181233"/>
      <trkpt lat="-18.809056" lon="-47.181363"/>
      <trkpt lat="-18.809276" lon="-47.181582"/>
      <trkpt lat="-18.809413" lon="-47.181684"/>
      <trkpt lat="-18.809721" lon="-47.181794"/>
      <trkpt lat="-18.810438" lon="-47.181977"/>
      <trkpt lat="-18.810601" lon="-47.182042"/>
      <trkpt lat="-18.810775" lon="-47.182154"/>
      <trkpt lat="-18.811233" lon="-47.182584"/>
      <trkpt lat="-18.811429" lon="-47.182799"/>
      <trkpt lat="-18.811866" lon="-47.183339"/>
      <trkpt lat="-18.812106" lon="-47.183491"/>
      <trkpt lat="-18.812257" lon="-47.183521"/>
      <trkpt lat="-18.812776" lon="-47.183561"/>
      <trkpt lat="-18.813074" lon="-47.183568"/>
      <trkpt lat="-18.813393" lon="-47.183545"/>
      <trkpt lat="-18.813986" lon="-47.183405"/>
      <trkpt lat="-18.814768" lon="-47.183160"/>
      <trkpt lat="-18.815317" lon="-47.183044"/>
      <trkpt lat="-18.815859" lon="-47.182939"/>
      <trkpt lat="-18.817015" lon="-47.182793"/>
      <trkpt lat="-18.817399" lon="-47.182711"/>
      <trkpt lat="-18.818217" lon="-47.182396"/>
      <trkpt lat="-18.818467" lon="-47.182294"/>
      <trkpt lat="-18.819232" lon="-47.181876"/>
      <trkpt lat="-18.819521" lon="-47.181752"/>
      <trkpt lat="-18.819919" lon="-47.181529"/>
      <trkpt lat="-18.820523" lon="-47.181150"/>
      <trkpt lat="-18.821405" lon="-47.180684"/>
      <trkpt lat="-18.822504" lon="-47.180069"/>
      <trkpt lat="-18.823407" lon="-47.179611"/>
      <trkpt lat="-18.823909" lon="-47.179325"/>
      <trkpt lat="-18.824160" lon="-47.179159"/>
      <trkpt lat="-18.824394" lon="-47.178906"/>
      <trkpt lat="-18.824572" lon="-47.178477"/>
      <trkpt lat="-18.824638" lon="-47.178175"/>
      <trkpt lat="-18.824664" lon="-47.177963"/>
      <trkpt lat="-18.824694" lon="-47.177635"/>
      <trkpt lat="-18.824697" lon="-47.177320"/>
      <trkpt lat="-18.824814" lon="-47.176725"/>
      <trkpt lat="-18.824920" lon="-47.176413"/>
      <trkpt lat="-18.825111" lon="-47.176071"/>
      <trkpt lat="-18.825315" lon="-47.175791"/>
      <trkpt lat="-18.825438" lon="-47.175654"/>
      <trkpt lat="-18.825669" lon="-47.175448"/>
      <trkpt lat="-18.826622" lon="-47.174794"/>
      <trkpt lat="-18.827387" lon="-47.174381"/>
      <trkpt lat="-18.828673" lon="-47.173647"/>
      <trkpt lat="-18.829633" lon="-47.173155"/>
      <trkpt lat="-18.829982" lon="-47.172944"/>
      <trkpt lat="-18.830319" lon="-47.172815"/>
      <trkpt lat="-18.831656" lon="-47.172522"/>
      <trkpt lat="-18.832448" lon="-47.172330"/>
      <trkpt lat="-18.832872" lon="-47.172215"/>
      <trkpt lat="-18.833078" lon="-47.172129"/>
      <trkpt lat="-18.833454" lon="-47.171871"/>
      <trkpt lat="-18.834123" lon="-47.171341"/>
      <trkpt lat="-18.834866" lon="-47.170680"/>
      <trkpt lat="-18.835082" lon="-47.170443"/>
      <trkpt lat="-18.836012" lon="-47.169677"/>
      <trkpt lat="-18.836213" lon="-47.169479"/>
      <trkpt lat="-18.836362" lon="-47.169279"/>
      <trkpt lat="-18.836471" lon="-47.169040"/>
      <trkpt lat="-18.836530" lon="-47.168843"/>
      <trkpt lat="-18.836586" lon="-47.168419"/>
      <trkpt lat="-18.836637" lon="-47.167818"/>
      <trkpt lat="-18.836782" lon="-47.166816"/>
      <trkpt lat="-18.836991" lon="-47.165155"/>
      <trkpt lat="-18.837056" lon="-47.164857"/>
      <trkpt lat="-18.837232" lon="-47.164389"/>
      <trkpt lat="-18.837455" lon="-47.163997"/>
      <trkpt lat="-18.837649" lon="-47.163695"/>
      <trkpt lat="-18.838153" lon="-47.163011"/>
      <trkpt lat="-18.838367" lon="-47.162763"/>
      <trkpt lat="-18.838703" lon="-47.162174"/>
      <trkpt lat="-18.839280" lon="-47.161393"/>
      <trkpt lat="-18.839571" lon="-47.160961"/>
      <trkpt lat="-18.840079" lon="-47.160280"/>
      <trkpt lat="-18.841033" lon="-47.158789"/>
      <trkpt lat="-18.841275" lon="-47.158424"/>
      <trkpt lat="-18.841482" lon="-47.158147"/>
      <trkpt lat="-18.841646" lon="-47.157955"/>
      <trkpt lat="-18.841919" lon="-47.157695"/>
      <trkpt lat="-18.842545" lon="-47.157240"/>
      <trkpt lat="-18.842730" lon="-47.157080"/>
      <trkpt lat="-18.843421" lon="-47.156427"/>
      <trkpt lat="-18.843738" lon="-47.156093"/>
      <trkpt lat="-18.844092" lon="-47.155676"/>
      <trkpt lat="-18.844940" lon="-47.154586"/>
      <trkpt lat="-18.845409" lon="-47.154021"/>
      <trkpt lat="-18.845961" lon="-47.153288"/>
      <trkpt lat="-18.846234" lon="-47.152878"/>
      <trkpt lat="-18.846470" lon="-47.152486"/>
      <trkpt lat="-18.846801" lon="-47.151881"/>
      <trkpt lat="-18.847028" lon="-47.151366"/>
      <trkpt lat="-18.847308" lon="-47.150658"/>
      <trkpt lat="-18.847450" lon="-47.150205"/>
      <trkpt lat="-18.847572" lon="-47.149899"/>
      <trkpt lat="-18.847696" lon="-47.149668"/>
      <trkpt lat="-18.848835" lon="-47.148052"/>
      <trkpt lat="-18.848905" lon="-47.147974"/>
      <trkpt lat="-18.850092" lon="-47.146370"/>
      <trkpt lat="-18.852182" lon="-47.143474"/>
      <trkpt lat="-18.852371" lon="-47.143150"/>
      <trkpt lat="-18.852713" lon="-47.142457"/>
      <trkpt lat="-18.853508" lon="-47.140655"/>
      <trkpt lat="-18.853799" lon="-47.139946"/>
      <trkpt lat="-18.854381" lon="-47.138175"/>
      <trkpt lat="-18.854687" lon="-47.137169"/>
      <trkpt lat="-18.855280" lon="-47.135004"/>
      <trkpt lat="-18.855382" lon="-47.134717"/>
      <trkpt lat="-18.855473" lon="-47.134509"/>
      <trkpt lat="-18.855733" lon="-47.134106"/>
      <trkpt lat="-18.856997" lon="-47.132500"/>
      <trkpt lat="-18.857938" lon="-47.131246"/>
      <trkpt lat="-18.859417" lon="-47.129326"/>
      <trkpt lat="-18.861437" lon="-47.126662"/>
      <trkpt lat="-18.861746" lon="-47.126242"/>
      <trkpt lat="-18.861995" lon="-47.125849"/>
      <trkpt lat="-18.862232" lon="-47.125296"/>
      <trkpt lat="-18.862810" lon="-47.123695"/>
      <trkpt lat="-18.863007" lon="-47.123225"/>
      <trkpt lat="-18.863421" lon="-47.122050"/>
      <trkpt lat="-18.863565" lon="-47.121671"/>
      <trkpt lat="-18.863722" lon="-47.121308"/>
      <trkpt lat="-18.864025" lon="-47.120400"/>
      <trkpt lat="-18.864538" lon="-47.118973"/>
      <trkpt lat="-18.864712" lon="-47.118613"/>
      <trkpt lat="-18.864891" lon="-47.118347"/>
      <trkpt lat="-18.865040" lon="-47.118185"/>
      <trkpt lat="-18.865298" lon="-47.117985"/>
      <trkpt lat="-18.865494" lon="-47.117895"/>
      <trkpt lat="-18.865646" lon="-47.117848"/>
      <trkpt lat="-18.866080" lon="-47.117791"/>
      <trkpt lat="-18.867416" lon="-47.117841"/>
      <trkpt lat="-18.868100" lon="-47.117891"/>
      <trkpt lat="-18.870064" lon="-47.117992"/>
      <trkpt lat="-18.870639" lon="-47.117979"/>
      <trkpt lat="-18.871110" lon="-47.117906"/>
      <trkpt lat="-18.871350" lon="-47.117821"/>
      <trkpt lat="-18.872143" lon="-47.117439"/>
      <trkpt lat="-18.872311" lon="-47.117380"/>
      <trkpt lat="-18.872627" lon="-47.117158"/>
      <trkpt lat="-18.872820" lon="-47.117043"/>
      <trkpt lat="-18.873645" lon="-47.116634"/>
      <trkpt lat="-18.875833" lon="-47.115701"/>
      <trkpt lat="-18.876231" lon="-47.115521"/>
      <trkpt lat="-18.876842" lon="-47.115212"/>
      <trkpt lat="-18.876905" lon="-47.115056"/>
      <trkpt lat="-18.876880" lon="-47.114993"/>
      <trkpt lat="-18.876732" lon="-47.114817"/>
      <trkpt lat="-18.876331" lon="-47.114078"/>
      <trkpt lat="-18.876212" lon="-47.113884"/>
      <trkpt lat="-18.875997" lon="-47.113581"/>
      <trkpt lat="-18.875864" lon="-47.113422"/>
      <trkpt lat="-18.875256" lon="-47.112515"/>
      <trkpt lat="-18.874751" lon="-47.111815"/>
      <trkpt lat="-18.874647" lon="-47.111647"/>
      <trkpt lat="-18.874630" lon="-47.111587"/>
      <trkpt lat="-18.874649" lon="-47.111346"/>
      <trkpt lat="-18.874750" lon="-47.110910"/>
      <trkpt lat="-18.874815" lon="-47.110545"/>
      <trkpt lat="-18.874842" lon="-47.110260"/>
      <trkpt lat="-18.874826" lon="-47.109905"/>
      <trkpt lat="-18.874780" lon="-47.109621"/>
      <trkpt lat="-18.874601" lon="-47.108059"/>
      <trkpt lat="-18.874524" lon="-47.107487"/>
      <trkpt lat="-18.874462" lon="-47.107167"/>
      <trkpt lat="-18.874340" lon="-47.106586"/>
      <trkpt lat="-18.874193" lon="-47.106018"/>
      <trkpt lat="-18.874043" lon="-47.105546"/>
      <trkpt lat="-18.873919" lon="-47.105290"/>
      <trkpt lat="-18.873609" lon="-47.104742"/>
      <trkpt lat="-18.873457" lon="-47.104531"/>
      <trkpt lat="-18.872743" lon="-47.103777"/>
      <trkpt lat="-18.871841" lon="-47.102858"/>
      <trkpt lat="-18.871764" lon="-47.102749"/>
      <trkpt lat="-18.871689" lon="-47.102688"/>
      <trkpt lat="-18.870593" lon="-47.101496"/>
      <trkpt lat="-18.870408" lon="-47.101377"/>
      <trkpt lat="-18.870355" lon="-47.101366"/>
      <trkpt lat="-18.870109" lon="-47.101395"/>
      <trkpt lat="-18.869922" lon="-47.101368"/>
      <trkpt lat="-18.869844" lon="-47.101318"/>
      <trkpt lat="-18.869748" lon="-47.101212"/>
      <trkpt lat="-18.869628" lon="-47.100972"/>
      <trkpt lat="-18.869229" lon="-47.099465"/>
      <trkpt lat="-18.868957" lon="-47.098323"/>
      <trkpt lat="-18.868911" lon="-47.098196"/>
      <trkpt lat="-18.868805" lon="-47.098120"/>
      <trkpt lat="-18.868622" lon="-47.098098"/>
      <trkpt lat="-18.868232" lon="-47.098015"/>
      <trkpt lat="-18.866797" lon="-47.097792"/>
      <trkpt lat="-18.866726" lon="-47.097775"/>
      <trkpt lat="-18.866691" lon="-47.097746"/>
      <trkpt lat="-18.866670" lon="-47.097710"/>
      <trkpt lat="-18.866692" lon="-47.097471"/>
      <trkpt lat="-18.866691" lon="-47.096895"/>
      <trkpt lat="-18.866572" lon="-47.095408"/>
      <trkpt lat="-18.866318" lon="-47.093323"/>
      <trkpt lat="-18.866172" lon="-47.092440"/>
      <trkpt lat="-18.866078" lon="-47.091522"/>
      <trkpt lat="-18.865974" lon="-47.090944"/>
      <trkpt lat="-18.865948" lon="-47.090896"/>
      <trkpt lat="-18.865827" lon="-47.090758"/>
      <trkpt lat="-18.865590" lon="-47.090532"/>
      <trkpt lat="-18.864977" lon="-47.089899"/>
      <trkpt lat="-18.864738" lon="-47.089677"/>
      <trkpt lat="-18.864494" lon="-47.089491"/>
      <trkpt lat="-18.864361" lon="-47.089431"/>
      <trkpt lat="-18.863891" lon="-47.089314"/>
      <trkpt lat="-18.863797" lon="-47.089307"/>
      <trkpt lat="-18.863514" lon="-47.089353"/>
      <trkpt lat="-18.863363" lon="-47.089314"/>
      <trkpt lat="-18.863312" lon="-47.089257"/>
      <trkpt lat="-18.863292" lon="-47.089180"/>
      <trkpt lat="-18.863229" lon="-47.088649"/>
      <trkpt lat="-18.863192" lon="-47.088452"/>
      <trkpt lat="-18.863060" lon="-47.088148"/>
      <trkpt lat="-18.863020" lon="-47.088079"/>
      <trkpt lat="-18.862944" lon="-47.088016"/>
      <trkpt lat="-18.862696" lon="-47.087973"/>
      <trkpt lat="-18.862541" lon="-47.087896"/>
      <trkpt lat="-18.862487" lon="-47.087773"/>
      <trkpt lat="-18.862558" lon="-47.087603"/>
      <trkpt lat="-18.862610" lon="-47.087546"/>
      <trkpt lat="-18.862754" lon="-47.087479"/>
      <trkpt lat="-18.863099" lon="-47.087413"/>
      <trkpt lat="-18.863184" lon="-47.087380"/>
      <trkpt lat="-18.863268" lon="-47.087326"/>
      <trkpt lat="-18.863412" lon="-47.087198"/>
      <trkpt lat="-18.863609" lon="-47.086974"/>
      <trkpt lat="-18.863788" lon="-47.086845"/>
      <trkpt lat="-18.864156" lon="-47.086622"/>
      <trkpt lat="-18.864392" lon="-47.086408"/>
      <trkpt lat="-18.864618" lon="-47.086166"/>
      <trkpt lat="-18.865117" lon="-47.085812"/>
      <trkpt lat="-18.865184" lon="-47.085746"/>
      <trkpt lat="-18.865276" lon="-47.085608"/>
      <trkpt lat="-18.865318" lon="-47.085462"/>
      <trkpt lat="-18.865320" lon="-47.085387"/>
      <trkpt lat="-18.865104" lon="-47.083432"/>
      <trkpt lat="-18.865064" lon="-47.083175"/>
      <trkpt lat="-18.864962" lon="-47.082975"/>
      <trkpt lat="-18.864960" lon="-47.082829"/>
      <trkpt lat="-18.865038" lon="-47.082773"/>
      <trkpt lat="-18.865533" lon="-47.082704"/>
      <trkpt lat="-18.865807" lon="-47.082689"/>
      <trkpt lat="-18.866333" lon="-47.082689"/>
      <trkpt lat="-18.868378" lon="-47.082720"/>
      <trkpt lat="-18.869368" lon="-47.082709"/>
      <trkpt lat="-18.873655" lon="-47.082739"/>
      <trkpt lat="-18.874316" lon="-47.082755"/>
      <trkpt lat="-18.875136" lon="-47.082802"/>
      <trkpt lat="-18.875435" lon="-47.082791"/>
      <trkpt lat="-18.875966" lon="-47.082804"/>
      <trkpt lat="-18.876200" lon="-47.082786"/>
      <trkpt lat="-18.876515" lon="-47.082798"/>
      <trkpt lat="-18.877306" lon="-47.082786"/>
      <trkpt lat="-18.878553" lon="-47.082796"/>
      <trkpt lat="-18.878765" lon="-47.082811"/>
      <trkpt lat="-18.879076" lon="-47.082862"/>
      <trkpt lat="-18.879135" lon="-47.082845"/>
      <trkpt lat="-18.879251" lon="-47.082709"/>
      <trkpt lat="-18.879313" lon="-47.082433"/>
      <trkpt lat="-18.879497" lon="-47.082010"/>
      <trkpt lat="-18.879766" lon="-47.081477"/>
      <trkpt lat="-18.880650" lon="-47.079782"/>
      <trkpt lat="-18.880976" lon="-47.079192"/>
      <trkpt lat="-18.881048" lon="-47.079017"/>
      <trkpt lat="-18.881722" lon="-47.077750"/>
      <trkpt lat="-18.881944" lon="-47.077133"/>
      <trkpt lat="-18.882105" lon="-47.076764"/>
      <trkpt lat="-18.882310" lon="-47.076458"/>
      <trkpt lat="-18.882531" lon="-47.076246"/>
      <trkpt lat="-18.882801" lon="-47.075920"/>
      <trkpt lat="-18.883658" lon="-47.075018"/>
      <trkpt lat="-18.883826" lon="-47.074813"/>
      <trkpt lat="-18.884683" lon="-47.073869"/>
      <trkpt lat="-18.885152" lon="-47.073326"/>
      <trkpt lat="-18.885458" lon="-47.073001"/>
      <trkpt lat="-18.885628" lon="-47.072722"/>
      <trkpt lat="-18.886209" lon="-47.071568"/>
      <trkpt lat="-18.886506" lon="-47.071111"/>
      <trkpt lat="-18.886844" lon="-47.070684"/>
      <trkpt lat="-18.887695" lon="-47.069683"/>
      <trkpt lat="-18.888647" lon="-47.068502"/>
      <trkpt lat="-18.889422" lon="-47.067498"/>
      <trkpt lat="-18.889660" lon="-47.067148"/>
      <trkpt lat="-18.889767" lon="-47.067027"/>
      <trkpt lat="-18.889877" lon="-47.066968"/>
      <trkpt lat="-18.889914" lon="-47.066967"/>
      <trkpt lat="-18.890071" lon="-47.067019"/>
      <trkpt lat="-18.890210" lon="-47.067028"/>
      <trkpt lat="-18.890253" lon="-47.067013"/>
      <trkpt lat="-18.890480" lon="-47.066791"/>
      <trkpt lat="-18.891386" lon="-47.065676"/>
      <trkpt lat="-18.891744" lon="-47.065202"/>
      <trkpt lat="-18.892088" lon="-47.064677"/>
      <trkpt lat="-18.892379" lon="-47.064144"/>
      <trkpt lat="-18.892860" lon="-47.063015"/>
      <trkpt lat="-18.893099" lon="-47.062600"/>
      <trkpt lat="-18.893417" lon="-47.062160"/>
      <trkpt lat="-18.893744" lon="-47.061786"/>
      <trkpt lat="-18.894105" lon="-47.061481"/>
      <trkpt lat="-18.895783" lon="-47.060449"/>
      <trkpt lat="-18.896367" lon="-47.060111"/>
      <trkpt lat="-18.896752" lon="-47.059907"/>
      <trkpt lat="-18.897297" lon="-47.059472"/>
      <trkpt lat="-18.897430" lon="-47.059408"/>
      <trkpt lat="-18.897753" lon="-47.059202"/>
      <trkpt lat="-18.898306" lon="-47.058929"/>
      <trkpt lat="-18.898525" lon="-47.058800"/>
      <trkpt lat="-18.898979" lon="-47.058487"/>
      <trkpt lat="-18.899108" lon="-47.058383"/>
      <trkpt lat="-18.899224" lon="-47.058270"/>
      <trkpt lat="-18.899430" lon="-47.058016"/>
      <trkpt lat="-18.899587" lon="-47.057783"/>
      <trkpt lat="-18.899740" lon="-47.057521"/>
      <trkpt lat="-18.899882" lon="-47.057180"/>
      <trkpt lat="-18.900295" lon="-47.055821"/>
      <trkpt lat="-18.900700" lon="-47.054588"/>
      <trkpt lat="-18.900767" lon="-47.054453"/>
      <trkpt lat="-18.900772" lon="-47.054410"/>
      <trkpt lat="-18.900650" lon="-47.054342"/>
      <trkpt lat="-18.900584" lon="-47.054280"/>
      <trkpt lat="-18.900569" lon="-47.054238"/>
      <trkpt lat="-18.900596" lon="-47.054087"/>
      <trkpt lat="-18.900744" lon="-47.053680"/>
      <trkpt lat="-18.900895" lon="-47.053157"/>
      <trkpt lat="-18.901143" lon="-47.052565"/>
      <trkpt lat="-18.901247" lon="-47.052358"/>
      <trkpt lat="-18.901460" lon="-47.052040"/>
      <trkpt lat="-18.901824" lon="-47.051634"/>
      <trkpt lat="-18.903352" lon="-47.050103"/>
      <trkpt lat="-18.904031" lon="-47.049459"/>
      <trkpt lat="-18.904673" lon="-47.048795"/>
      <trkpt lat="-18.904809" lon="-47.048635"/>
      <trkpt lat="-18.905217" lon="-47.048087"/>
      <trkpt lat="-18.905996" lon="-47.046810"/>
      <trkpt lat="-18.906804" lon="-47.045568"/>
      <trkpt lat="-18.906902" lon="-47.045395"/>
      <trkpt lat="-18.907074" lon="-47.045398"/>
      <trkpt lat="-18.907635" lon="-47.044491"/>
      <trkpt lat="-18.907796" lon="-47.044246"/>
      <trkpt lat="-18.907978" lon="-47.044005"/>
      <trkpt lat="-18.908215" lon="-47.043758"/>
      <trkpt lat="-18.908476" lon="-47.043548"/>
      <trkpt lat="-18.909010" lon="-47.043170"/>
      <trkpt lat="-18.909809" lon="-47.042682"/>
      <trkpt lat="-18.909923" lon="-47.042626"/>
      <trkpt lat="-18.910361" lon="-47.042314"/>
      <trkpt lat="-18.910912" lon="-47.041961"/>
      <trkpt lat="-18.911921" lon="-47.041372"/>
      <trkpt lat="-18.912165" lon="-47.041191"/>
      <trkpt lat="-18.912401" lon="-47.041045"/>
      <trkpt lat="-18.913091" lon="-47.040640"/>
      <trkpt lat="-18.913562" lon="-47.040341"/>
      <trkpt lat="-18.913859" lon="-47.040208"/>
      <trkpt lat="-18.914031" lon="-47.040108"/>
      <trkpt lat="-18.914191" lon="-47.039983"/>
      <trkpt lat="-18.914343" lon="-47.039838"/>
      <trkpt lat="-18.914591" lon="-47.039461"/>
      <trkpt lat="-18.914842" lon="-47.039034"/>
      <trkpt lat="-18.914959" lon="-47.038728"/>
      <trkpt lat="-18.914832" lon="-47.038592"/>
      <trkpt lat="-18.914847" lon="-47.038498"/>
      <trkpt lat="-18.915041" lon="-47.037861"/>
      <trkpt lat="-18.915656" lon="-47.035427"/>
      <trkpt lat="-18.915932" lon="-47.034444"/>
      <trkpt lat="-18.916151" lon="-47.033559"/>
      <trkpt lat="-18.916309" lon="-47.033003"/>
      <trkpt lat="-18.916925" lon="-47.030552"/>
      <trkpt lat="-18.917600" lon="-47.028078"/>
      <trkpt lat="-18.917627" lon="-47.027526"/>
      <trkpt lat="-18.917568" lon="-47.026970"/>
      <trkpt lat="-18.917395" lon="-47.026142"/>
      <trkpt lat="-18.917374" lon="-47.025875"/>
      <trkpt lat="-18.917083" lon="-47.023822"/>
      <trkpt lat="-18.916821" lon="-47.022276"/>
      <trkpt lat="-18.916722" lon="-47.021235"/>
      <trkpt lat="-18.916635" lon="-47.020759"/>
      <trkpt lat="-18.916512" lon="-47.020290"/>
      <trkpt lat="-18.916311" lon="-47.019853"/>
      <trkpt lat="-18.916106" lon="-47.019587"/>
      <trkpt lat="-18.916019" lon="-47.019515"/>
      <trkpt lat="-18.915733" lon="-47.019332"/>
      <trkpt lat="-18.915232" lon="-47.019037"/>
      <trkpt lat="-18.915078" lon="-47.018970"/>
      <trkpt lat="-18.914927" lon="-47.018952"/>
      <trkpt lat="-18.914772" lon="-47.018873"/>
      <trkpt lat="-18.914621" lon="-47.018744"/>
      <trkpt lat="-18.914406" lon="-47.018666"/>
      <trkpt lat="-18.914148" lon="-47.018366"/>
      <trkpt lat="-18.914026" lon="-47.018199"/>
      <trkpt lat="-18.913878" lon="-47.017923"/>
      <trkpt lat="-18.913850" lon="-47.017834"/>
      <trkpt lat="-18.913827" lon="-47.017649"/>
      <trkpt lat="-18.913811" lon="-47.017227"/>
      <trkpt lat="-18.913787" lon="-47.016988"/>
      <trkpt lat="-18.913678" lon="-47.016241"/>
      <trkpt lat="-18.913658" lon="-47.015601"/>
      <trkpt lat="-18.913633" lon="-47.015346"/>
      <trkpt lat="-18.913469" lon="-47.014197"/>
      <trkpt lat="-18.913474" lon="-47.014027"/>
      <trkpt lat="-18.913601" lon="-47.013592"/>
      <trkpt lat="-18.913638" lon="-47.013337"/>
      <trkpt lat="-18.913648" lon="-47.013174"/>
      <trkpt lat="-18.913633" lon="-47.012792"/>
      <trkpt lat="-18.913645" lon="-47.012731"/>
      <trkpt lat="-18.913717" lon="-47.012554"/>
      <trkpt lat="-18.913925" lon="-47.012249"/>
      <trkpt lat="-18.914031" lon="-47.012126"/>
      <trkpt lat="-18.914191" lon="-47.011981"/>
      <trkpt lat="-18.914315" lon="-47.011910"/>
      <trkpt lat="-18.914458" lon="-47.011852"/>
      <trkpt lat="-18.914875" lon="-47.011720"/>
      <trkpt lat="-18.915074" lon="-47.011772"/>
      <trkpt lat="-18.915334" lon="-47.011992"/>
      <trkpt lat="-18.915582" lon="-47.012347"/>
      <trkpt lat="-18.915635" lon="-47.012467"/>
      <trkpt lat="-18.915789" lon="-47.012664"/>
      <trkpt lat="-18.915945" lon="-47.012773"/>
      <trkpt lat="-18.916254" lon="-47.012910"/>
      <trkpt lat="-18.916365" lon="-47.013040"/>
      <trkpt lat="-18.916386" lon="-47.013086"/>
      <trkpt lat="-18.916579" lon="-47.013138"/>
      <trkpt lat="-18.916766" lon="-47.012878"/>
      <trkpt lat="-18.916838" lon="-47.012800"/>
      <trkpt lat="-18.917021" lon="-47.012628"/>
      <trkpt lat="-18.917127" lon="-47.012548"/>
      <trkpt lat="-18.917551" lon="-47.012497"/>
      <trkpt lat="-18.918188" lon="-47.012358"/>
      <trkpt lat="-18.918534" lon="-47.012194"/>
      <trkpt lat="-18.918800" lon="-47.012006"/>
      <trkpt lat="-18.918952" lon="-47.011656"/>
      <trkpt lat="-18.919201" lon="-47.011381"/>
      <trkpt lat="-18.919557" lon="-47.011140"/>
      <trkpt lat="-18.919754" lon="-47.011066"/>
      <trkpt lat="-18.920039" lon="-47.011022"/>
      <trkpt lat="-18.920383" lon="-47.011023"/>
      <trkpt lat="-18.920622" lon="-47.010993"/>
      <trkpt lat="-18.921062" lon="-47.010835"/>
      <trkpt lat="-18.921225" lon="-47.010742"/>
      <trkpt lat="-18.921430" lon="-47.010570"/>
      <trkpt lat="-18.921599" lon="-47.010390"/>
      <trkpt lat="-18.921737" lon="-47.010167"/>
      <trkpt lat="-18.921835" lon="-47.010080"/>
      <trkpt lat="-18.921876" lon="-47.010002"/>
      <trkpt lat="-18.921971" lon="-47.009666"/>
      <trkpt lat="-18.921976" lon="-47.009600"/>
      <trkpt lat="-18.922017" lon="-47.009490"/>
      <trkpt lat="-18.922127" lon="-47.009264"/>
      <trkpt lat="-18.922224" lon="-47.009115"/>
      <trkpt lat="-18.922388" lon="-47.008725"/>
      <trkpt lat="-18.922423" lon="-47.008535"/>
      <trkpt lat="-18.922497" lon="-47.008340"/>
      <trkpt lat="-18.922518" lon="-47.008181"/>
      <trkpt lat="-18.922576" lon="-47.007993"/>
      <trkpt lat="-18.922711" lon="-47.007767"/>
      <trkpt lat="-18.922895" lon="-47.007562"/>
      <trkpt lat="-18.923125" lon="-47.007402"/>
      <trkpt lat="-18.923352" lon="-47.007312"/>
      <trkpt lat="-18.924204" lon="-47.007071"/>
      <trkpt lat="-18.924511" lon="-47.006961"/>
      <trkpt lat="-18.925610" lon="-47.006654"/>
      <trkpt lat="-18.926332" lon="-47.006419"/>
      <trkpt lat="-18.926372" lon="-47.006390"/>
      <trkpt lat="-18.926341" lon="-47.006257"/>
      <trkpt lat="-18.926270" lon="-47.006240"/>
      <trkpt lat="-18.926204" lon="-47.006180"/>
      <trkpt lat="-18.925901" lon="-47.005670"/>
      <trkpt lat="-18.925728" lon="-47.005352"/>
      <trkpt lat="-18.925406" lon="-47.004683"/>
      <trkpt lat="-18.925056" lon="-47.003715"/>
      <trkpt lat="-18.924976" lon="-47.003398"/>
      <trkpt lat="-18.924834" lon="-47.002701"/>
      <trkpt lat="-18.924739" lon="-47.002371"/>
      <trkpt lat="-18.924755" lon="-47.002234"/>
      <trkpt lat="-18.924829" lon="-47.002181"/>
      <trkpt lat="-18.924950" lon="-47.002124"/>
      <trkpt lat="-18.925000" lon="-47.002036"/>
      <trkpt lat="-18.924935" lon="-47.001479"/>
      <trkpt lat="-18.924935" lon="-47.001106"/>
      <trkpt lat="-18.924944" lon="-47.001016"/>
      <trkpt lat="-18.925006" lon="-47.000844"/>
      <trkpt lat="-18.925022" lon="-47.000748"/>
      <trkpt lat="-18.925022" lon="-47.000549"/>
      <trkpt lat="-18.925048" lon="-47.000283"/>
      <trkpt lat="-18.925104" lon="-47.000101"/>
      <trkpt lat="-18.925184" lon="-46.999981"/>
      <trkpt lat="-18.925444" lon="-46.999813"/>
      <trkpt lat="-18.925485" lon="-46.999763"/>
      <trkpt lat="-18.925516" lon="-46.999671"/>
      <trkpt lat="-18.925514" lon="-46.999612"/>
    </trkseg>
  </trk>
</gpx>
